GFSNGP_sfc_wetblb_000.txt.gz
Wetbulb
42.85 43.09 43.10 42.16 41.69 42.35 40.92 41.73 36.44 39.96 40.33 43.99 46.10 46.67 46.86 47.94 48.42 48.25 47.77 48.02 47.64 47.21 47.12 46.50 46.00 46.26 46.16 46.26 47.51 47.55 46.39 45.30 44.66 43.78 42.39 41.92 40.71 39.78 39.41 38.54 37.53 37.13 36.32 36.11
38.73 43.18 42.55 39.89 41.75 42.15 42.09 42.18 42.00 42.23 41.32 47.46 47.70 48.20 46.67 46.68 46.90 46.56 46.23 45.89 46.07 46.32 45.32 45.16 44.89 44.18 44.20 44.52 45.28 47.43 45.43 44.56 45.15 44.18 42.40 40.94 40.15 39.42 38.17 37.19 36.39 35.95 35.26 35.09
36.30 39.88 38.71 36.23 40.42 42.63 42.84 44.07 43.26 38.57 43.67 46.94 45.59 45.82 45.96 46.06 46.42 45.03 44.49 44.71 44.37 44.52 44.56 43.77 42.73 42.90 42.38 43.06 44.36 44.99 44.27 44.40 44.07 41.44 40.41 40.37 39.89 38.89 36.88 35.23 35.05 34.59 34.42 34.22
35.77 36.10 31.95 42.24 46.46 45.88 43.29 44.32 45.20 45.01 45.81 46.45 45.62 46.24 46.99 46.61 44.38 43.53 43.70 43.70 44.01 43.59 43.37 43.22 43.24 42.60 42.35 42.23 42.00 42.07 42.40 43.27 42.61 41.69 40.29 40.29 39.03 37.98 36.51 34.87 34.06 33.45 33.62 33.47
34.54 33.91 37.54 40.70 43.81 42.67 41.03 40.31 46.01 45.65 45.66 45.87 45.54 45.54 44.32 45.36 45.20 44.01 44.04 44.01 43.22 43.46 43.08 42.61 41.72 41.74 41.15 40.80 40.89 41.03 40.73 41.34 41.02 40.70 39.59 38.73 37.43 36.74 35.21 34.00 33.43 33.46 33.59 32.08
35.20 30.50 28.73 41.94 45.78 47.77 46.47 36.12 46.85 46.11 44.25 43.17 43.84 37.54 40.35 44.89 44.84 44.12 43.68 43.22 42.85 42.64 42.20 41.05 40.96 40.76 39.88 39.39 39.22 39.00 39.80 40.17 39.48 39.48 38.99 37.76 37.27 35.87 34.57 34.09 33.71 33.11 31.33 31.09
35.23 32.54 36.41 44.13 46.49 47.55 35.06 38.01 46.39 45.54 44.44 43.54 40.78 42.08 44.21 45.20 43.67 43.18 42.99 42.63 42.72 41.73 40.26 40.25 40.55 40.19 38.62 38.36 37.64 40.44 40.38 39.75 39.23 38.84 37.95 37.87 36.67 34.92 33.53 32.76 31.17 30.71 30.02 29.88
36.15 32.97 30.46 46.85 45.47 39.39 45.23 47.83 46.35 45.34 44.91 44.04 44.19 44.75 44.03 43.06 41.81 42.11 41.50 41.33 41.24 39.96 39.50 40.07 40.33 39.52 38.14 37.36 39.49 40.06 39.83 38.78 38.47 38.21 37.92 37.21 34.68 33.20 32.86 31.50 30.41 28.32 26.17 27.40
40.37 39.64 47.67 48.55 47.04 48.70 47.76 46.45 45.71 44.90 45.21 44.82 43.99 43.25 42.40 41.37 41.60 41.61 40.99 40.40 40.86 39.61 39.08 39.84 40.26 39.67 37.78 38.33 38.91 38.27 37.99 37.19 37.08 37.06 36.86 35.79 32.67 31.32 30.70 30.27 27.87 26.75 26.02 24.47
42.69 45.50 46.36 48.14 49.14 48.68 48.10 46.76 46.82 46.30 45.44 45.34 42.82 42.34 41.18 41.36 41.29 40.50 40.35 39.82 39.99 39.12 38.52 38.42 39.49 39.52 38.87 38.81 38.44 36.99 35.51 35.36 35.44 34.71 33.82 34.18 34.04 32.35 30.11 28.42 26.68 26.39 24.40 22.41
43.34 46.26 47.26 47.28 47.58 47.52 46.83 47.24 46.62 46.65 46.08 43.65 42.27 41.27 41.40 40.19 40.13 40.12 39.90 39.78 39.35 38.69 37.94 37.92 38.62 38.67 38.60 37.60 37.00 35.11 34.62 34.42 32.87 32.43 32.90 32.58 32.98 29.75 29.25 27.87 26.46 24.20 23.07 22.16
40.91 46.90 46.31 46.02 46.76 46.75 45.65 45.48 46.30 45.25 42.89 42.90 42.44 40.77 40.40 39.32 39.53 39.05 37.97 38.57 38.17 38.23 37.97 37.94 38.34 37.63 37.49 36.76 35.74 33.20 31.72 31.87 32.10 31.68 31.67 31.38 30.81 29.81 29.30 27.91 27.05 25.96 24.21 21.31
45.89 48.76 47.78 47.40 47.51 47.31 45.56 45.05 44.50 43.01 42.52 40.98 40.92 40.00 39.22 37.70 38.04 36.94 37.96 37.97 37.63 37.31 38.00 37.63 37.13 36.68 37.30 35.24 33.88 32.31 31.30 31.25 31.36 30.39 31.35 30.01 29.29 28.66 26.96 29.05 28.14 27.60 25.58 25.02
48.91 47.87 44.85 45.59 44.36 46.62 44.74 43.93 42.83 42.83 41.52 40.50 39.48 39.10 37.91 37.18 37.33 36.94 36.53 37.49 37.83 37.65 37.52 36.04 35.58 35.58 36.42 36.48 33.50 32.02 31.27 29.13 30.86 32.25 31.30 30.09 28.61 28.87 28.90 27.85 25.48 26.14 27.46 25.95
46.29 46.63 46.07 46.61 46.52 44.36 43.64 42.34 39.75 38.48 38.69 38.33 38.24 37.13 36.97 35.90 35.15 35.32 36.64 36.74 36.65 35.89 35.75 34.86 34.24 33.51 35.14 34.91 32.61 31.95 31.56 30.08 29.71 30.76 30.89 30.01 29.72 29.68 29.35 28.46 27.57 27.02 25.43 25.41
45.92 45.70 44.82 42.79 41.83 41.35 40.25 39.01 37.52 37.28 37.29 36.24 36.24 35.45 36.22 35.47 34.64 34.88 35.00 35.25 31.48 30.87 33.21 32.93 31.35 32.34 33.54 35.12 33.71 32.66 32.15 28.64 26.99 29.62 30.28 30.10 30.02 28.67 27.83 27.94 27.15 26.72 25.26 22.83
42.50 40.59 40.89 39.58 38.83 38.19 37.65 38.35 37.84 36.49 35.73 34.89 34.49 34.02 33.11 32.28 31.61 32.60 32.74 32.50 31.33 32.25 33.03 33.20 32.84 33.28 33.00 34.17 32.85 32.11 31.41 30.71 30.23 30.17 29.60 29.90 28.90 28.53 28.49 27.60 26.80 26.54 25.39 20.39
44.99 43.85 41.95 39.13 37.50 37.16 37.57 37.48 35.73 34.85 34.00 35.11 31.20 29.49 29.11 28.57 30.01 30.61 31.26 31.70 32.05 32.52 33.08 33.81 33.11 31.93 32.16 33.28 32.21 31.02 29.04 29.56 30.47 30.26 30.27 29.64 29.42 28.14 27.84 27.84 27.22 26.44 25.73 24.83
41.27 39.34 38.83 38.08 38.29 37.09 36.76 35.69 33.72 33.47 31.70 31.49 31.28 31.27 31.75 31.32 31.06 31.39 31.76 31.00 30.70 30.94 33.04 33.02 32.52 31.63 31.28 30.86 29.75 29.68 30.59 30.77 30.01 29.39 30.06 29.71 28.89 28.65 28.69 28.60 28.22 26.66 26.13 25.47
38.45 38.50 38.16 36.72 35.67 31.94 33.13 32.85 32.34 33.09 34.46 32.75 30.73 31.26 31.21 31.03 30.35 31.35 31.49 30.16 31.06 32.54 34.06 33.51 32.31 30.24 29.52 30.69 26.94 28.93 31.39 31.22 29.78 29.23 30.13 29.66 27.63 28.79 29.04 27.97 27.80 27.83 27.51 27.21
35.52 36.41 33.96 33.81 32.28 32.09 32.00 32.38 30.72 31.16 32.75 31.01 30.97 30.99 30.95 31.96 31.86 31.85 30.93 29.79 32.54 33.79 33.85 33.71 32.91 31.92 32.54 31.92 29.85 30.24 30.06 30.99 29.78 29.55 29.72 29.71 29.27 28.85 28.79 28.63 28.61 28.90 28.17 27.61
36.13 34.26 32.27 32.13 31.54 32.56 33.11 32.94 33.11 33.00 32.51 31.96 30.53 30.95 32.13 31.10 31.74 31.70 32.30 31.66 34.10 33.81 33.66 33.90 33.92 32.45 32.73 26.23 30.77 30.74 30.23 30.44 28.37 30.02 29.78 29.92 29.56 29.25 28.43 27.97 27.91 28.17 28.17 27.57
35.25 34.67 33.90 32.99 31.79 32.99 33.94 33.29 33.06 32.59 32.31 32.48 32.39 31.79 32.03 32.35 32.21 30.69 29.67 33.32 33.08 34.19 33.32 33.71 33.96 32.68 31.34 30.23 30.65 29.97 30.22 29.07 29.38 28.96 29.69 30.14 29.75 28.97 28.56 27.71 27.65 27.62 26.91 26.71
35.13 35.09 34.47 34.27 34.62 33.27 31.84 34.09 34.37 34.33 33.88 33.75 33.11 33.09 33.21 32.59 32.73 33.86 34.15 33.40 32.68 33.18 33.11 32.94 32.85 31.54 30.74 30.48 29.72 29.57 29.43 29.54 29.44 30.08 29.90 30.02 30.19 29.42 28.15 28.17 27.64 27.82 27.61 27.50
34.91 34.81 34.23 33.54 33.39 34.46 35.33 36.08 35.21 34.96 34.36 34.92 34.52 34.71 34.45 34.93 33.20 33.12 33.59 33.53 32.99 32.44 32.77 32.74 31.99 31.63 31.40 30.20 29.95 29.85 30.03 30.01 29.64 28.94 29.63 29.27 29.07 29.46 29.89 29.72 28.47 27.84 27.95 27.94
35.03 35.27 35.94 35.72 35.89 36.51 36.81 36.74 35.85 36.39 36.00 34.33 33.84 33.77 33.85 33.97 34.55 33.96 33.86 33.26 33.09 33.09 32.70 32.80 32.61 32.14 31.70 30.67 30.25 30.46 30.68 29.92 29.04 29.00 28.80 28.08 27.94 27.83 27.87 27.95 28.57 28.10 28.02 27.91
36.07 34.01 36.47 36.50 37.39 37.28 36.73 36.05 35.50 34.75 34.10 32.80 32.07 33.09 33.47 33.30 33.44 33.60 33.21 33.11 32.95 32.92 32.97 32.99 32.80 32.46 31.80 31.62 31.15 30.93 31.18 30.38 29.11 29.04 28.83 27.88 27.32 27.37 26.79 26.71 26.50 26.53 26.63 26.95

GFSNGP_sfc_wetblb_003.txt.gz
Wetbulb
39.18 40.07 40.68 39.49 39.05 39.52 37.52 36.67 30.35 34.48 37.78 40.70 41.65 42.35 43.14 44.59 44.87 44.48 43.50 43.43 43.04 42.46 41.21 40.59 39.63 38.76 38.81 39.19 40.14 40.63 42.41 42.97 42.38 42.14 40.22 39.75 38.64 38.49 38.14 36.63 34.43 33.49 33.25 33.05
31.40 40.52 39.61 36.17 38.39 38.43 38.80 39.36 38.61 38.38 38.03 43.73 43.83 43.87 43.45 43.50 43.12 41.77 41.74 42.18 42.13 42.36 41.27 39.65 38.64 38.34 38.69 38.25 38.45 39.52 38.79 39.32 41.70 40.91 40.33 39.97 39.92 38.66 37.35 34.90 32.61 32.04 32.12 32.07
29.12 36.01 33.84 28.10 34.41 39.82 40.22 40.85 39.33 31.36 39.21 42.43 41.26 41.75 41.20 40.52 41.21 40.65 40.78 40.98 41.26 41.21 39.33 38.78 37.76 38.03 36.17 36.81 37.93 38.17 38.32 39.50 40.50 40.04 39.46 39.84 40.09 38.40 34.84 33.09 30.90 30.70 30.73 30.93
24.62 27.73 20.13 38.68 43.57 42.77 40.73 41.48 42.50 42.50 41.85 41.62 40.98 41.73 41.16 41.21 39.64 39.78 40.54 41.13 41.02 38.71 37.81 37.40 36.48 36.13 36.31 36.58 37.03 36.95 37.01 38.38 39.06 38.51 38.57 39.89 39.82 35.98 33.72 32.32 30.23 29.02 29.00 29.27
26.02 24.08 31.10 37.51 41.27 39.09 36.52 36.63 43.60 41.50 41.50 41.91 42.06 41.72 39.16 41.97 41.43 39.96 39.82 40.07 38.06 37.60 37.16 35.28 35.22 35.62 35.68 35.43 35.41 35.79 37.10 36.96 37.00 37.24 37.67 37.02 36.23 34.80 33.80 30.24 28.50 28.96 29.56 28.71
24.39 21.03 17.28 33.22 43.06 45.46 43.78 29.82 43.55 42.48 40.97 40.15 39.51 28.65 35.21 41.83 41.70 40.15 39.05 38.80 37.50 36.89 36.01 34.85 34.96 35.46 34.90 34.25 34.31 35.40 37.17 36.86 37.28 36.62 36.79 36.46 36.24 34.10 30.55 29.73 29.67 29.47 28.82 28.41
27.86 18.74 28.24 40.00 44.12 45.33 29.44 31.41 43.50 42.31 40.90 39.81 36.42 36.11 40.30 42.79 39.86 39.07 39.01 37.79 38.48 36.13 34.83 34.72 35.56 35.57 34.24 34.01 33.60 36.27 37.55 37.37 37.27 36.90 36.09 35.28 34.70 31.64 29.42 27.89 28.29 26.30 26.79 26.48
28.43 24.65 22.30 43.81 42.85 34.06 38.34 42.49 43.02 42.28 41.67 41.58 40.43 41.51 42.78 39.45 38.70 38.95 37.32 37.09 37.16 35.27 34.70 35.65 35.79 35.17 33.91 32.90 35.20 36.10 35.69 35.89 35.22 35.16 35.53 34.94 30.72 29.74 29.02 26.81 26.21 23.84 19.63 19.70
32.89 31.36 40.03 44.28 42.44 45.48 45.32 42.95 42.50 41.26 42.30 42.00 41.74 41.32 38.81 38.24 38.27 38.03 36.35 35.29 35.98 34.36 34.98 35.19 35.29 35.20 33.45 34.13 35.07 34.51 33.62 32.85 32.73 33.59 33.57 32.88 30.78 28.13 26.47 25.36 22.41 22.22 22.82 16.33
34.99 41.57 42.56 44.14 46.24 46.59 45.57 44.07 44.01 43.97 44.36 43.23 42.04 38.55 37.71 37.76 36.18 35.58 34.21 33.70 34.70 34.64 33.70 33.71 35.16 35.62 34.67 34.53 34.43 33.29 31.69 31.67 31.35 30.26 31.06 31.00 30.17 27.83 25.85 20.93 19.93 23.56 21.14 18.20
36.33 41.54 43.07 44.35 45.00 45.30 44.90 45.36 45.44 46.35 45.67 44.92 39.17 37.83 36.26 34.85 34.53 33.95 32.95 33.91 34.13 33.43 33.95 34.57 34.94 34.53 34.76 34.22 33.40 32.18 31.66 31.23 29.47 28.37 28.62 28.84 28.33 26.20 25.72 24.47 23.92 19.98 18.31 18.54
33.15 42.85 42.18 42.33 44.78 45.85 44.41 44.27 45.34 44.93 41.44 39.97 37.03 34.86 34.86 33.27 33.48 33.25 33.06 33.90 34.27 34.57 34.52 34.95 34.42 33.85 34.54 34.72 32.36 30.08 29.34 27.83 26.64 26.70 25.66 27.91 27.58 26.08 29.64 28.65 28.17 27.35 25.86 18.54
41.36 46.07 45.33 44.97 45.88 46.68 43.91 42.91 41.22 40.24 38.55 35.65 35.79 34.90 33.88 32.77 33.28 33.60 33.72 33.78 33.78 33.71 34.42 34.69 33.32 32.29 33.87 33.07 31.29 29.46 29.20 29.31 26.25 26.62 25.31 24.40 23.16 23.18 19.21 26.01 30.84 29.14 27.30 26.48
46.97 45.78 42.44 44.56 42.51 44.95 43.24 41.21 41.12 38.20 37.02 35.61 34.29 34.23 33.63 32.86 33.14 32.69 32.29 33.21 33.90 33.69 33.01 31.98 31.99 32.25 33.71 33.75 32.63 29.14 28.82 26.99 23.97 22.71 22.36 23.39 26.77 28.03 27.50 26.51 23.85 25.92 27.14 27.02
44.61 44.84 44.34 45.38 45.15 43.08 41.33 37.92 35.68 34.39 33.95 33.26 33.82 33.31 32.73 32.07 31.28 31.46 32.60 32.94 32.76 31.65 31.12 31.46 32.03 33.53 34.69 32.16 31.14 30.64 28.67 24.65 21.28 19.35 19.37 25.01 27.52 27.35 26.58 26.18 25.75 25.34 22.64 23.67
43.80 44.99 44.57 41.58 39.95 38.83 36.77 35.22 33.81 32.63 32.72 32.34 32.27 31.02 32.83 32.64 31.70 31.71 31.46 31.49 28.12 29.39 30.01 28.57 30.45 33.21 33.08 32.95 31.83 31.28 26.59 23.41 22.07 21.10 20.93 26.90 27.16 26.40 26.23 26.23 25.76 24.81 23.13 17.24
40.02 38.20 38.32 37.78 35.83 34.97 34.54 34.82 34.30 32.81 32.35 30.87 29.93 29.79 30.15 28.52 27.14 28.72 28.51 27.68 24.82 29.83 31.09 28.62 31.68 34.42 32.77 32.12 31.75 30.79 23.66 22.21 21.69 20.75 23.49 27.49 26.88 26.17 26.22 25.86 25.87 25.12 22.40 14.57
43.15 40.98 38.91 36.60 34.78 33.80 33.04 32.24 30.75 30.12 29.79 29.87 24.11 21.26 21.78 22.01 24.66 26.47 25.85 29.72 30.79 30.68 31.19 30.42 32.46 32.91 32.05 31.70 30.15 29.29 26.39 24.06 23.67 23.16 26.87 26.35 27.09 26.06 25.28 25.33 25.61 25.24 24.67 16.70
38.66 37.10 36.22 35.90 35.16 31.12 30.88 30.21 27.44 29.17 27.22 24.30 21.75 25.03 24.16 23.89 24.22 26.49 30.06 29.93 29.52 29.34 29.93 31.89 32.17 32.60 30.83 27.77 25.67 21.84 19.05 17.98 23.10 26.95 24.40 19.61 23.48 25.97 26.32 26.35 26.09 26.21 25.80 22.51
35.34 35.00 34.09 33.13 31.77 27.01 27.56 25.93 27.35 29.95 30.29 25.85 21.36 22.33 24.39 21.52 25.86 30.48 30.34 29.45 30.23 30.68 31.24 31.80 33.29 31.91 29.47 27.63 25.39 22.90 16.37 16.17 20.89 26.11 17.15 17.05 19.10 25.86 26.54 25.97 25.63 24.99 25.58 25.76
31.76 30.96 28.95 28.26 26.10 24.00 24.64 24.80 22.15 24.52 27.81 24.89 26.94 26.89 24.19 25.22 23.47 24.55 29.18 29.24 29.34 26.57 29.57 33.56 32.69 32.81 31.61 27.64 24.44 20.98 18.95 17.09 21.77 26.51 17.02 19.62 17.48 21.61 26.75 26.74 25.90 22.85 22.27 22.35
32.00 29.27 27.22 26.29 24.12 27.19 27.00 27.71 30.68 31.47 30.76 31.41 31.42 31.29 30.13 27.09 25.25 28.53 31.14 29.62 30.23 31.61 30.42 32.87 31.71 32.65 32.38 29.31 29.88 29.28 21.80 22.14 25.03 26.83 15.78 17.75 21.40 17.66 21.97 25.76 25.22 25.44 25.48 22.99
31.50 30.20 29.51 26.59 25.60 28.11 30.41 32.07 31.46 31.68 31.38 31.38 27.60 31.41 31.36 30.09 29.22 30.36 28.40 27.67 29.46 31.92 31.61 32.62 32.71 32.71 32.42 32.02 30.02 28.77 26.72 25.41 20.87 19.35 21.79 23.13 25.44 27.26 26.92 26.13 26.23 25.67 25.80 25.82
30.58 31.96 29.42 28.03 27.45 30.96 29.65 30.68 28.38 29.06 29.40 28.83 32.55 33.13 31.18 30.38 29.16 28.90 30.17 32.35 31.90 31.99 32.43 33.04 32.84 32.26 32.30 31.34 29.66 28.45 24.35 26.18 26.40 23.26 22.58 19.62 25.84 28.32 28.43 27.59 26.35 26.23 26.30 26.29
28.98 30.07 28.06 26.57 28.60 30.44 30.70 31.67 30.24 29.01 28.06 31.91 31.52 28.21 27.06 25.86 27.33 31.67 32.95 32.92 32.38 31.81 32.36 32.75 32.42 32.23 32.13 31.34 30.14 28.42 27.46 28.00 27.81 27.59 26.19 25.89 26.23 27.81 26.29 25.91 28.00 27.95 26.56 26.80
31.33 30.30 30.39 31.91 31.17 30.77 30.45 29.14 29.34 28.99 24.73 22.74 22.32 21.37 21.36 23.79 30.44 31.69 32.82 32.88 33.02 32.86 32.56 32.63 32.75 32.74 32.31 31.83 30.64 29.04 28.97 29.13 29.44 29.09 28.32 26.35 26.21 26.76 26.58 27.18 27.37 27.10 27.29 27.09
30.62 27.63 28.81 29.95 29.83 29.14 26.21 26.31 26.92 27.88 30.99 31.24 30.20 25.38 26.20 31.83 29.53 29.17 31.55 32.14 32.29 32.56 32.69 32.75 32.75 32.47 32.45 32.27 31.82 30.98 30.43 30.22 30.26 29.87 28.42 27.42 26.15 26.10 26.92 27.13 26.51 25.94 25.42 24.96

GFSNGP_sfc_wetblb_006.txt.gz
Wetbulb
36.41 38.10 37.94 36.70 36.14 36.13 35.43 35.16 30.11 33.35 34.68 39.09 40.02 40.50 41.71 42.42 41.87 41.45 40.69 40.89 41.16 40.08 38.24 36.01 36.25 35.88 36.17 36.04 36.62 37.10 36.41 35.86 37.28 39.29 38.24 38.00 38.91 38.90 39.24 39.21 39.09 34.95 33.13 32.69
30.55 38.50 37.81 33.64 36.25 36.42 36.44 37.32 36.18 36.97 36.15 41.12 41.30 41.72 41.05 40.62 40.09 39.87 40.71 40.35 39.98 39.76 36.88 36.99 36.09 34.77 35.56 35.63 36.05 36.52 35.52 36.83 39.25 39.48 39.28 38.32 37.97 37.95 37.62 37.69 33.72 33.05 31.96 31.02
27.16 32.79 31.74 26.56 33.65 37.59 37.70 38.81 37.39 31.16 37.45 40.35 39.45 40.10 38.73 38.46 39.25 39.21 39.15 39.44 39.27 38.15 36.90 35.62 34.48 35.13 34.11 34.80 35.82 35.62 35.29 37.31 37.57 38.79 37.94 37.85 38.24 37.96 37.21 33.55 34.49 30.87 29.71 29.26
22.19 23.93 17.51 36.29 41.18 40.83 39.41 40.30 40.06 39.38 39.06 39.47 39.68 39.90 39.11 39.47 38.56 38.69 39.35 39.50 38.49 36.13 35.46 34.68 34.21 34.15 34.66 34.73 34.45 34.42 35.73 36.09 36.65 36.33 36.02 36.41 36.54 35.82 35.33 34.03 31.49 28.79 27.74 28.27
20.73 22.37 27.92 35.02 39.28 38.02 35.35 36.51 41.38 39.78 39.70 39.82 40.02 38.48 37.05 40.36 40.11 39.38 38.84 37.87 36.71 35.90 35.37 33.78 33.72 34.08 33.98 33.65 33.64 33.71 35.41 35.25 35.67 35.80 35.22 34.74 35.19 34.72 35.15 31.82 27.40 28.41 28.61 27.80
26.29 17.10 15.68 30.66 40.84 43.35 41.43 29.85 41.73 41.03 39.69 39.12 38.08 28.30 33.90 40.41 40.39 39.14 37.61 37.21 36.24 35.05 34.15 33.02 33.98 33.90 33.41 32.84 32.82 32.82 35.14 35.39 35.86 35.78 35.35 34.79 34.10 33.07 31.75 28.29 29.09 28.82 27.33 26.85
23.16 16.10 25.91 35.78 41.14 42.87 29.13 30.61 41.73 41.18 39.83 39.07 35.60 35.08 38.37 40.69 40.04 37.54 37.23 36.54 36.14 34.29 33.14 33.68 33.79 33.80 32.88 32.52 32.22 33.84 35.20 35.04 35.11 34.74 33.87 33.64 32.52 30.00 28.59 28.06 28.05 25.57 25.10 25.18
22.98 18.75 22.35 40.20 41.40 33.60 37.07 39.99 41.86 41.14 40.61 39.69 39.59 40.21 40.83 40.23 36.58 36.43 34.03 34.09 34.39 33.49 33.01 33.47 33.93 33.71 32.35 31.39 33.43 34.07 33.63 33.04 32.56 32.15 32.25 32.39 29.94 28.82 28.24 27.19 24.92 22.07 16.17 18.36
32.36 31.44 38.27 41.16 41.10 42.46 43.55 41.59 41.68 40.69 41.36 41.30 40.18 40.04 38.28 36.21 34.60 33.59 32.32 32.00 33.46 31.74 32.44 33.30 33.85 33.45 31.57 32.41 33.66 33.21 32.05 31.14 30.82 30.87 30.94 30.38 27.66 25.51 25.03 23.84 20.74 20.80 22.38 15.32
34.44 39.93 40.79 42.38 44.33 45.28 44.49 43.01 42.94 42.69 42.51 43.01 40.27 37.63 35.27 33.53 32.67 31.88 31.26 31.27 31.90 32.08 31.51 31.63 33.13 33.45 32.76 33.60 33.51 32.03 30.71 30.35 29.91 29.18 29.41 28.67 27.12 26.78 24.59 19.60 18.55 23.03 20.61 18.10
34.50 39.29 41.31 43.28 43.71 44.19 44.01 43.83 43.54 44.48 43.65 43.50 37.14 33.64 33.04 32.12 31.85 31.77 31.04 31.84 32.02 31.47 31.55 31.93 32.88 33.10 33.34 33.34 33.12 30.71 30.75 30.31 28.98 26.90 27.32 27.41 25.96 25.48 25.32 25.04 23.84 20.05 18.58 18.27
34.52 40.32 40.83 40.99 43.82 44.49 43.46 43.41 44.60 44.22 36.92 36.57 35.59 32.67 32.59 31.32 31.70 31.42 30.84 31.37 31.07 31.69 31.64 32.05 32.57 31.71 32.36 32.51 32.13 31.28 29.63 28.90 27.27 25.28 23.74 26.74 26.59 26.37 29.36 29.54 28.15 29.13 26.70 18.33
41.01 44.23 44.58 43.86 44.52 45.06 43.49 43.65 41.34 38.49 36.45 33.58 33.36 32.62 32.15 31.26 31.45 32.02 31.27 30.99 30.92 31.44 31.84 31.76 30.19 29.92 31.68 32.22 32.84 32.27 31.85 30.90 28.26 25.64 24.61 22.92 21.66 22.12 18.19 24.47 30.12 30.57 28.51 27.26
45.57 44.99 41.67 43.11 42.52 44.66 41.21 39.44 37.71 35.82 35.20 33.73 32.88 32.76 31.33 30.92 31.44 31.07 30.22 30.61 31.59 31.24 31.66 30.75 29.27 29.28 31.30 33.58 31.46 28.84 29.28 28.21 26.66 24.69 20.64 20.48 16.44 22.69 25.33 20.59 16.28 18.10 24.73 27.38
45.32 43.78 43.37 44.06 42.21 40.43 38.40 36.67 34.28 32.86 32.67 31.69 32.03 31.01 30.71 30.26 30.28 30.22 30.67 30.89 30.47 29.89 29.85 30.61 30.21 29.96 32.73 33.37 31.68 30.55 31.14 26.44 24.43 17.88 18.94 18.29 18.54 20.12 22.03 23.10 20.69 20.24 17.68 23.88
43.16 42.85 43.16 42.22 38.09 37.05 36.05 34.99 32.93 31.89 31.49 30.72 29.95 29.30 30.03 31.18 30.63 30.09 29.93 29.77 26.91 28.55 29.79 29.88 29.84 30.44 32.89 34.25 32.41 29.54 30.16 25.84 18.68 19.36 22.86 23.56 18.75 19.95 23.43 22.30 20.07 20.14 17.59 15.14
38.70 37.38 37.05 36.21 34.76 34.86 34.43 34.70 34.04 32.13 31.19 30.01 29.09 27.75 29.49 27.26 25.11 27.83 27.61 26.52 26.21 29.22 30.21 30.47 29.02 32.46 32.38 33.89 32.16 29.38 28.80 26.72 25.74 26.02 26.17 25.90 19.23 19.98 23.98 22.22 18.32 20.83 19.10 12.75
39.45 38.37 37.63 36.21 34.65 34.06 33.22 32.08 30.42 29.95 29.89 28.84 22.21 17.19 16.55 17.66 22.06 23.50 24.28 24.66 27.82 29.66 30.06 29.70 30.47 31.20 32.68 33.53 31.61 28.22 27.16 26.34 24.38 25.46 19.95 16.49 18.61 20.06 20.19 18.86 18.81 18.21 19.04 18.56
37.13 35.99 35.51 34.49 33.96 31.07 29.32 28.78 27.07 27.01 24.23 22.13 19.82 21.74 20.61 22.26 22.02 24.54 24.01 21.95 27.20 28.24 28.30 29.05 30.39 31.07 32.23 32.53 29.63 21.31 17.24 14.95 15.94 19.09 24.75 18.97 12.42 23.52 25.12 21.35 17.49 19.82 17.35 16.71
34.08 34.22 33.63 32.49 30.58 27.14 27.73 24.76 22.67 26.60 29.29 23.89 17.46 15.25 22.02 23.02 21.56 22.53 23.47 24.15 28.56 28.53 26.47 27.58 29.78 31.07 31.28 30.92 30.65 26.41 17.61 13.74 15.49 17.48 13.65 12.50 9.39 18.22 24.92 21.95 20.57 15.63 13.30 14.61
31.57 30.51 28.08 27.59 27.08 24.76 23.19 22.92 19.80 22.73 26.22 26.58 28.93 28.61 28.65 28.80 27.86 21.30 21.52 25.66 28.12 24.91 27.32 31.08 28.58 31.52 32.99 32.12 31.19 25.88 20.87 18.75 15.07 17.45 21.49 23.30 11.90 13.83 23.76 24.20 20.18 15.67 12.42 11.91
31.23 29.02 27.04 25.18 22.99 25.43 24.60 23.44 28.26 29.79 29.98 30.12 30.47 30.29 28.90 30.21 29.76 21.18 22.05 26.29 30.40 26.11 30.26 30.75 30.66 31.96 32.45 32.17 31.28 29.98 28.86 27.31 23.33 22.19 22.29 17.21 14.98 16.22 18.44 22.24 21.12 23.66 20.34 17.25
30.63 29.75 28.61 25.35 24.24 26.43 27.50 27.49 26.00 26.02 25.99 27.79 30.14 26.57 25.98 31.05 30.17 28.12 28.27 28.20 27.75 31.01 31.71 31.44 31.73 32.15 32.47 32.28 31.88 30.36 29.65 27.65 26.34 25.99 23.34 22.08 20.25 18.21 21.44 25.37 25.21 25.56 25.27 25.18
30.21 31.64 28.36 26.47 23.60 25.23 26.54 30.48 27.40 27.70 25.48 26.86 26.24 29.53 31.49 30.42 30.71 27.12 27.87 26.26 27.65 32.02 31.96 32.37 32.09 31.92 32.30 32.23 31.82 31.44 29.76 29.02 28.62 27.31 25.58 24.10 24.42 23.59 22.34 24.09 24.96 25.45 24.42 23.28
27.64 28.58 26.99 24.90 27.16 28.93 30.01 30.64 28.33 27.98 27.09 27.12 27.60 31.59 30.79 30.61 29.51 26.81 25.79 29.31 31.73 31.64 31.11 32.39 32.33 32.08 32.25 32.24 31.38 30.37 29.29 28.90 28.90 28.59 27.65 26.90 27.42 27.08 26.38 25.94 26.11 27.43 26.69 25.36
30.83 29.28 29.44 30.72 29.77 29.32 29.17 27.19 24.72 23.70 26.73 27.29 29.68 30.45 30.61 29.35 27.32 30.40 30.98 31.00 31.11 30.97 30.73 31.27 31.87 32.21 32.00 31.75 31.94 31.93 31.02 29.88 29.71 29.22 29.05 29.05 28.70 28.16 27.97 26.77 25.54 25.85 27.53 27.28
29.00 24.84 27.57 28.76 29.19 28.44 24.54 28.86 30.63 29.33 24.39 24.15 25.21 23.61 26.36 29.13 30.96 30.07 28.51 29.62 30.71 29.94 29.96 29.09 28.59 29.55 29.71 30.54 31.19 31.36 31.72 31.87 31.48 30.35 30.41 29.99 29.81 28.87 28.15 27.03 26.08 25.78 26.81 26.78

GFSNGP_sfc_wetblb_009.txt.gz
Wetbulb
34.60 36.25 36.02 34.82 34.74 35.98 34.90 33.73 29.84 32.31 32.78 36.85 38.72 39.14 39.76 40.22 39.72 39.51 39.23 39.91 40.03 38.33 37.35 36.30 34.89 34.77 34.46 34.56 35.16 35.41 34.68 34.98 36.24 37.73 37.35 36.78 36.31 36.46 36.27 36.99 37.44 37.03 33.33 31.88
30.49 35.95 35.56 32.28 34.58 34.34 34.42 34.72 34.91 34.68 34.53 39.55 40.09 40.51 39.87 39.78 39.07 38.39 39.12 40.68 40.33 39.87 37.90 35.91 34.62 33.58 34.45 34.51 34.68 35.18 34.12 35.19 36.74 36.58 37.46 37.36 37.10 36.77 38.29 37.41 37.11 31.01 34.09 31.37
24.14 30.88 30.17 24.88 31.81 36.05 35.69 37.03 35.66 31.34 36.47 38.97 38.61 39.56 38.45 38.09 38.51 38.22 39.32 39.16 38.68 38.32 35.88 34.96 33.79 33.90 32.99 33.67 34.40 34.06 33.65 35.85 36.16 35.70 36.08 35.55 35.92 36.37 35.62 34.61 33.02 32.00 28.61 27.93
21.41 22.71 17.52 32.91 37.97 38.96 37.08 37.96 38.08 37.34 38.24 39.31 39.59 39.32 39.06 38.80 38.25 38.28 38.33 38.47 38.24 36.75 34.62 34.02 32.96 32.72 33.28 33.34 33.31 32.93 33.24 34.86 35.08 34.76 34.33 34.32 34.56 34.45 33.49 34.22 32.56 27.95 27.41 27.83
20.01 20.93 27.07 33.25 37.73 37.46 35.32 35.07 39.60 37.80 37.82 38.41 39.01 37.20 36.62 39.39 38.93 38.41 38.21 38.21 36.75 35.09 34.06 32.80 32.43 32.89 32.36 32.16 32.17 32.32 32.57 33.75 34.40 34.41 34.02 33.82 33.19 32.74 32.50 31.74 28.44 27.19 28.12 27.93
23.99 15.99 15.98 29.56 38.40 41.48 39.54 29.25 40.80 39.56 38.12 37.39 36.72 28.98 34.80 39.09 39.16 39.40 39.41 36.13 35.11 33.68 32.53 31.98 32.35 32.16 31.36 31.67 31.73 31.53 32.27 33.64 34.18 33.94 33.40 32.53 31.55 31.05 30.71 26.34 28.01 28.01 27.60 26.56
18.91 14.99 25.02 33.68 40.14 41.31 29.74 30.17 40.54 40.70 39.59 37.69 36.06 36.06 37.58 39.82 40.48 37.79 34.99 33.62 33.55 32.80 31.77 31.79 32.20 32.74 31.89 31.29 30.68 32.43 33.46 33.27 32.67 32.25 30.96 30.65 29.39 28.64 27.47 27.80 27.66 25.50 26.21 24.51
24.58 18.69 22.57 38.51 39.10 33.92 37.32 38.06 41.65 40.56 40.21 39.56 38.90 39.34 39.93 40.64 35.76 33.37 32.13 32.04 32.29 31.62 31.36 32.20 32.65 31.75 30.49 29.68 31.79 32.48 32.50 32.09 31.17 30.64 30.61 30.75 27.73 26.37 26.78 25.48 24.55 22.61 16.06 18.04
30.87 30.37 37.32 39.15 39.74 40.45 41.48 40.89 40.78 40.79 41.07 41.17 40.52 39.78 39.82 33.43 32.22 31.66 31.24 30.46 31.35 30.72 31.44 31.97 31.91 31.46 29.73 30.99 32.23 32.07 31.26 30.68 30.02 29.81 29.49 28.60 26.42 24.66 24.37 23.30 19.92 21.11 22.03 15.38
33.15 37.94 38.73 39.76 42.01 43.76 43.14 42.51 42.34 42.46 42.05 41.62 40.47 38.19 33.58 31.79 31.58 31.22 29.87 29.71 30.46 30.52 29.73 29.95 31.28 31.79 31.89 32.12 32.45 31.43 30.52 30.20 30.78 29.71 28.74 27.97 26.55 26.33 24.21 20.34 19.96 23.20 20.39 18.53
33.48 37.88 39.88 42.15 43.04 43.89 43.88 43.02 42.72 42.99 42.64 42.04 38.03 32.91 33.56 32.69 31.28 30.45 30.06 30.57 30.42 29.41 29.74 30.05 31.03 31.19 30.86 30.92 31.34 30.19 29.90 31.17 29.68 28.94 27.48 26.41 26.08 25.45 25.05 25.47 25.29 21.59 19.18 18.19
32.16 38.84 39.96 39.35 43.00 44.12 42.84 42.69 43.42 41.93 38.49 36.20 36.03 33.73 33.30 30.64 30.54 30.31 29.64 29.73 29.06 29.63 29.65 29.93 30.83 29.83 29.79 30.75 30.55 30.44 31.31 30.80 30.15 30.66 27.20 27.18 25.74 24.84 29.35 29.51 29.73 29.98 28.97 19.24
40.02 41.30 41.17 42.11 43.40 44.22 43.63 43.67 43.88 37.31 35.46 34.54 34.34 33.78 32.46 30.58 30.83 31.16 29.96 29.36 28.89 29.53 29.97 29.70 29.40 28.71 29.42 29.80 29.97 31.53 29.49 30.44 31.75 30.09 27.05 25.03 23.14 22.24 16.70 23.63 28.86 29.87 30.32 27.85
44.02 43.75 40.10 41.87 42.18 43.96 40.46 38.46 37.96 36.12 35.43 34.53 33.60 33.22 31.23 30.06 30.76 30.20 29.63 29.72 30.04 29.60 29.24 28.75 29.11 30.09 30.58 30.41 32.34 31.47 30.50 27.21 28.47 26.65 27.35 23.55 22.07 19.45 17.30 17.38 14.98 16.33 23.17 28.58
43.69 44.47 43.14 43.60 42.08 37.19 35.76 34.93 33.80 32.98 32.90 32.48 32.93 31.19 30.09 29.28 28.98 29.68 30.03 30.01 29.61 29.01 28.60 29.75 29.81 29.53 30.63 31.77 31.94 31.99 30.50 29.88 27.03 26.46 24.37 21.14 22.82 19.44 18.05 17.46 15.98 15.51 16.37 20.74
42.83 42.03 41.84 38.75 35.81 35.57 35.17 34.89 32.90 31.61 31.82 31.63 30.35 29.25 29.89 30.27 30.05 29.73 29.77 29.63 25.57 26.45 27.54 29.27 29.01 29.45 30.86 32.35 32.90 33.19 30.94 28.85 24.95 24.19 23.86 25.39 24.03 18.43 20.65 18.93 15.98 14.77 13.20 13.64
37.37 35.33 33.64 33.75 35.31 36.45 35.94 35.26 34.08 32.96 31.96 29.75 29.36 28.27 29.05 25.23 25.25 27.89 27.47 25.56 20.84 21.10 24.43 25.11 26.83 31.50 31.29 32.04 33.20 32.90 30.79 28.94 26.43 26.84 25.96 20.86 18.94 18.26 21.45 17.53 17.34 13.40 15.36 11.46
38.09 37.66 37.52 36.54 34.69 33.06 32.91 33.17 32.21 30.51 29.72 29.47 21.93 18.79 18.40 17.74 21.51 22.99 23.12 22.72 19.61 22.31 25.72 27.18 26.97 30.24 31.08 32.13 32.62 31.88 29.71 28.19 26.93 26.90 26.84 22.01 18.09 15.94 15.82 18.65 19.47 14.33 14.16 13.42
35.41 35.06 35.42 35.70 36.16 34.34 32.18 29.64 28.60 28.31 24.47 21.05 20.14 22.48 19.86 19.08 23.05 22.76 21.20 18.38 20.70 22.74 27.20 24.54 27.10 27.40 30.36 29.22 31.02 30.67 28.94 25.97 22.69 20.45 19.56 17.11 10.99 12.44 12.64 17.08 20.08 14.34 15.68 12.95
35.99 36.22 34.21 31.64 30.20 28.25 28.23 26.98 25.48 27.20 29.17 24.09 18.65 19.04 25.25 22.53 17.82 18.53 18.04 22.18 25.60 28.13 27.00 26.66 27.91 29.58 28.79 29.73 31.14 30.75 30.03 26.32 22.10 20.41 10.09 11.92 8.89 10.20 12.08 16.73 19.24 19.10 14.87 11.19
30.77 30.28 28.87 28.65 27.67 26.29 25.50 23.28 21.53 24.32 26.03 25.63 27.60 27.31 27.61 28.15 28.69 28.58 25.61 24.65 26.83 24.98 26.50 27.93 30.28 30.70 30.83 31.25 32.01 31.84 30.40 26.51 22.33 20.34 20.28 19.28 17.55 15.65 16.34 19.13 21.10 21.02 18.92 14.79
30.80 28.95 27.36 26.46 25.60 26.71 25.65 24.94 28.06 28.11 24.93 24.55 27.08 29.76 29.61 28.47 26.30 29.85 27.87 26.58 28.46 23.79 25.45 27.08 30.08 30.32 30.72 30.92 31.78 31.81 30.93 28.47 27.51 27.45 24.98 24.27 22.93 22.39 22.05 21.51 21.18 20.99 21.44 20.62
30.15 29.33 28.17 26.00 26.01 27.57 26.96 25.31 24.21 23.62 23.58 23.94 23.43 24.76 27.49 26.96 29.60 29.07 28.15 26.56 24.97 24.26 25.93 27.45 26.91 28.50 31.34 31.66 32.02 31.82 31.46 30.54 29.21 27.92 27.25 27.56 26.53 24.67 23.82 23.39 23.66 23.91 25.39 24.97
30.17 30.70 28.79 26.03 23.26 24.31 26.13 29.96 27.03 26.42 23.10 24.46 24.19 22.91 24.66 30.08 31.23 30.90 30.41 26.53 22.25 24.50 29.80 31.64 30.51 30.84 31.82 32.05 31.85 31.23 30.18 29.99 30.27 29.54 29.52 28.97 28.40 27.67 26.03 25.26 25.29 25.47 24.65 23.08
27.66 28.57 26.74 24.77 27.21 28.69 29.47 29.90 27.59 26.62 25.36 26.15 28.08 27.68 31.05 31.96 31.03 27.69 26.33 28.46 29.32 29.24 28.00 28.47 29.52 29.54 30.06 31.06 30.96 30.74 30.87 30.71 30.29 29.71 29.34 28.37 27.76 27.39 27.20 27.35 27.39 27.20 26.80 26.01
30.35 28.15 28.00 29.52 28.17 27.97 28.19 26.35 24.19 27.61 28.68 27.10 26.22 24.96 23.74 23.27 25.08 28.61 28.43 28.83 27.50 26.65 24.86 28.36 27.57 25.36 22.29 21.04 20.69 21.38 23.01 25.72 28.10 29.66 29.90 29.80 29.18 28.88 28.58 28.65 28.51 28.19 27.81 27.97
27.04 24.04 26.72 27.19 27.99 28.25 26.45 28.82 29.50 29.80 30.46 28.15 27.72 29.99 28.70 28.40 25.74 28.06 28.13 23.90 22.09 21.03 20.84 17.78 15.65 14.78 15.06 12.44 11.19 11.98 13.50 14.48 14.68 15.29 16.83 20.01 25.41 29.97 29.82 29.50 29.23 29.04 28.40 27.71

GFSNGP_sfc_wetblb_012.txt.gz
Wetbulb
33.16 34.42 34.31 33.09 33.29 34.87 33.08 32.09 29.25 30.46 30.76 34.70 38.13 38.17 38.74 39.50 38.51 38.30 38.31 38.25 38.26 37.75 35.45 36.47 36.74 35.43 34.07 33.73 34.08 34.29 33.52 33.28 34.25 35.18 35.48 35.84 35.82 35.86 35.88 35.75 37.92 38.00 34.10 31.37
30.56 34.19 33.39 31.59 33.67 33.47 33.30 33.51 33.27 32.76 33.03 37.97 38.28 39.07 38.61 38.84 38.38 37.68 37.92 38.92 39.93 39.11 38.08 36.74 34.97 33.79 33.20 33.23 33.46 33.72 33.16 32.94 34.70 35.08 35.14 34.94 35.23 34.92 35.26 35.34 34.82 34.23 31.51 30.28
23.06 28.79 27.53 24.44 31.13 32.92 32.92 33.99 34.08 30.22 34.94 37.82 37.29 38.71 38.76 38.05 38.20 37.97 38.07 39.49 39.35 39.67 38.32 36.10 34.33 33.14 32.10 32.62 32.95 32.84 32.65 33.31 34.34 34.38 34.16 34.00 33.91 33.67 33.95 33.19 32.32 33.00 29.86 27.63
20.96 21.86 16.74 31.72 35.71 35.78 35.36 36.20 37.23 36.04 36.84 38.31 38.24 38.13 39.40 39.17 38.59 38.19 38.61 39.08 38.69 37.94 36.56 34.24 32.55 32.12 32.14 31.80 31.86 31.75 32.07 32.37 33.55 33.55 33.05 33.07 32.86 32.70 31.97 32.21 31.68 30.10 27.05 27.00
20.25 19.70 26.69 31.98 35.91 35.75 34.57 33.95 38.57 37.34 36.94 37.84 37.65 37.99 37.68 39.68 38.97 38.83 38.39 37.99 38.03 36.62 34.11 32.29 31.69 31.68 30.97 30.90 30.96 31.12 31.39 31.24 32.18 32.86 32.27 32.19 31.58 30.63 29.97 29.92 29.13 27.67 27.92 27.32
18.60 16.22 15.92 29.92 35.21 39.32 38.15 29.51 38.87 38.75 37.21 37.14 36.90 30.24 37.97 38.98 39.15 38.36 38.60 37.40 35.84 33.65 31.89 30.93 30.72 30.83 30.83 30.71 30.58 30.27 31.20 31.36 32.49 32.16 31.54 30.29 29.17 28.93 29.34 26.58 27.58 27.83 27.21 26.13
19.10 14.24 24.35 32.55 38.38 40.01 29.39 31.04 38.87 39.43 38.24 36.69 35.72 37.80 37.95 38.33 38.38 38.07 35.66 33.22 32.86 32.14 31.09 30.76 31.48 31.46 29.94 29.50 29.49 30.79 31.19 31.61 31.65 31.33 30.20 29.20 28.37 27.48 26.55 25.96 26.47 24.34 25.20 24.48
21.42 15.38 21.37 36.58 38.35 33.45 37.13 36.05 39.48 39.38 38.69 38.90 38.29 37.27 38.68 40.38 36.01 32.87 32.06 31.70 31.74 31.07 30.84 31.09 30.82 30.37 29.38 28.79 30.57 31.05 31.34 30.84 30.78 30.21 30.18 30.40 27.55 25.99 26.39 25.27 23.69 21.51 16.38 18.98
28.36 28.51 35.54 37.83 37.80 39.62 39.68 38.95 39.69 39.72 40.31 41.18 38.29 38.71 40.20 34.79 33.09 31.43 31.41 30.80 31.20 30.65 30.65 30.96 30.62 29.97 29.02 30.19 30.65 30.32 30.06 29.95 29.91 29.66 29.87 29.04 26.88 24.76 24.04 23.00 19.30 20.10 22.52 16.60
32.18 36.35 36.79 38.29 39.89 41.46 42.06 41.04 41.37 41.80 41.37 41.12 39.81 39.84 35.50 32.21 31.61 31.93 31.44 31.12 30.60 29.88 28.91 29.37 30.05 30.34 30.36 30.17 30.03 29.81 29.65 29.49 29.37 28.91 29.49 28.83 27.08 26.56 24.00 19.13 18.74 22.23 20.75 19.77
32.31 37.03 37.35 39.70 41.28 41.97 42.37 42.94 42.38 42.67 42.11 41.58 39.78 35.37 34.42 32.61 31.78 30.87 31.00 30.37 30.02 29.42 28.79 29.06 29.63 30.06 29.93 29.24 29.21 29.03 29.92 30.17 29.72 28.48 29.71 28.41 26.41 25.44 25.14 25.11 24.20 21.31 20.39 18.93
31.12 38.15 37.89 38.33 40.71 42.50 42.71 42.84 43.11 41.76 40.40 38.27 37.03 34.24 33.26 31.20 31.86 31.65 29.56 29.61 29.29 29.44 28.98 29.10 29.09 28.41 28.58 28.96 28.74 28.48 30.74 30.91 30.68 30.24 31.06 27.91 26.42 26.03 28.87 29.56 29.71 30.25 29.52 21.21
39.17 39.20 39.65 39.92 41.62 42.49 42.82 42.96 42.80 40.10 36.23 34.47 34.93 34.16 33.05 31.40 31.99 31.12 30.27 29.68 29.35 29.24 29.14 28.96 28.34 28.18 28.27 28.55 28.48 30.13 30.80 31.23 30.35 30.49 29.54 24.97 24.29 23.48 20.74 23.97 28.21 29.55 30.04 30.61
42.68 41.22 39.94 40.89 41.62 42.60 42.90 40.53 36.60 35.21 35.10 34.18 33.27 33.14 32.30 31.42 31.08 30.62 29.89 30.45 30.26 29.47 29.21 28.58 28.08 27.75 28.88 29.10 28.88 30.86 31.45 29.73 28.12 27.48 26.83 26.77 25.69 24.65 20.77 17.11 19.52 16.76 23.19 27.76
42.24 42.71 41.68 41.44 36.79 34.32 34.89 34.35 33.14 32.52 33.20 32.76 33.64 32.94 31.11 29.34 29.56 29.69 30.56 30.11 30.02 29.25 28.81 28.22 27.65 27.52 29.03 29.02 29.41 30.91 31.77 31.08 29.44 27.79 26.57 26.33 24.40 20.77 18.79 17.94 20.30 17.38 14.37 20.17
40.76 41.06 38.20 33.73 33.13 33.75 34.02 34.22 32.79 32.18 32.24 33.37 33.05 30.25 30.06 30.21 30.24 30.41 30.21 30.10 26.85 26.31 28.11 23.28 23.60 28.25 29.10 30.07 31.11 31.48 32.71 30.99 28.77 26.96 25.04 23.87 19.84 18.99 20.09 18.98 21.08 19.37 13.48 14.62
35.22 31.13 31.44 32.95 34.28 35.03 34.59 34.27 33.64 33.05 34.13 32.66 30.38 28.83 30.02 28.30 25.70 28.36 28.17 25.81 21.82 21.72 23.11 22.38 24.72 28.11 29.25 29.86 31.38 31.54 32.42 31.95 29.09 25.66 25.06 26.89 25.97 23.05 19.17 17.67 20.23 19.61 15.64 10.92
35.65 36.42 36.44 35.53 34.40 33.74 33.50 33.99 32.90 32.20 30.33 29.67 26.39 23.85 22.32 22.21 25.62 25.22 22.83 20.61 17.43 21.22 24.07 25.32 25.76 27.46 28.85 30.35 30.84 29.95 30.03 30.23 29.04 27.51 26.96 26.97 25.87 24.12 19.64 17.02 17.61 17.47 19.70 10.80
37.18 36.65 36.83 36.85 36.58 34.46 32.17 30.40 28.82 28.69 26.07 25.41 23.84 24.73 23.55 23.16 21.96 24.30 19.94 16.53 16.55 20.59 26.27 24.83 26.28 25.66 29.19 29.90 29.06 28.52 29.80 29.95 28.87 26.39 26.59 25.55 17.44 17.80 17.68 15.64 15.75 16.57 18.20 17.73
36.51 36.00 33.29 31.21 30.49 28.75 28.86 27.43 26.81 27.97 29.10 25.10 21.96 24.41 25.13 22.25 18.03 17.18 19.64 24.50 24.91 26.08 25.72 25.26 24.61 24.93 28.47 29.94 29.01 29.91 31.02 30.47 29.41 26.03 23.71 20.12 16.00 14.76 14.87 14.13 16.80 18.92 18.81 17.87
30.07 29.97 28.77 28.52 27.94 26.88 26.25 25.55 24.19 25.70 26.51 24.49 25.84 25.27 26.86 27.68 28.35 28.55 27.20 26.50 27.84 24.06 25.45 22.90 24.59 26.63 28.52 27.87 29.46 30.89 31.29 31.04 29.63 26.07 24.07 22.76 22.58 21.99 21.12 20.14 20.84 21.53 21.87 21.13
29.67 28.55 27.50 26.72 26.11 26.97 26.72 25.63 26.52 25.94 24.11 20.60 21.93 23.24 24.69 29.01 27.90 26.69 30.43 28.88 30.84 24.69 22.98 22.19 24.78 24.63 26.90 25.47 30.11 30.98 31.28 31.04 30.34 28.29 26.25 25.89 25.87 25.60 25.53 24.97 24.42 25.12 25.23 23.39
30.29 28.67 27.02 23.10 22.62 25.78 25.06 23.90 23.16 23.79 23.72 23.22 22.88 22.87 21.73 27.02 28.70 27.73 28.61 28.01 29.08 22.80 21.45 23.13 27.68 28.84 25.25 30.29 30.58 31.08 30.17 29.70 29.72 29.96 28.06 27.15 27.59 27.61 27.59 26.99 26.96 26.67 26.13 25.57
29.18 29.48 27.24 24.51 22.86 25.08 27.39 29.45 27.60 26.20 20.95 23.44 23.63 21.97 21.44 22.10 23.63 28.12 29.32 27.44 20.26 25.76 27.80 27.95 29.14 24.28 27.81 28.84 29.29 29.41 28.85 29.72 29.29 28.05 27.76 26.59 27.79 27.67 27.71 27.40 26.97 27.14 26.79 27.04
27.08 27.86 26.01 26.10 26.67 27.26 27.64 28.04 26.45 25.63 25.87 27.81 28.66 28.86 25.63 25.09 29.88 29.70 29.17 27.95 28.54 28.69 26.56 24.41 25.39 21.57 20.48 13.89 13.59 16.33 17.33 18.71 18.59 18.22 18.97 19.13 22.41 26.09 27.02 27.24 26.75 26.53 27.05 27.54
27.91 26.73 26.19 27.29 26.68 26.23 26.11 26.38 25.97 27.67 28.51 28.60 29.43 30.00 28.82 27.26 24.74 26.33 28.90 28.69 28.17 26.00 24.22 20.32 15.25 12.08 10.52 8.86 8.99 7.02 8.14 10.17 9.95 10.41 8.88 10.01 11.88 13.56 15.59 18.63 23.06 28.09 27.96 27.86
26.88 26.14 25.56 24.82 24.61 25.20 24.50 24.42 24.36 25.15 26.58 27.36 28.08 29.64 29.50 29.74 30.07 30.21 29.95 29.51 21.75 22.64 18.29 15.57 11.32 11.11 9.51 8.56 8.51 8.33 7.45 5.61 5.31 8.15 7.95 9.43 9.67 9.80 10.43 11.62 12.81 16.34 25.65 28.82

GFSNGP_sfc_wetblb_015.txt.gz
Wetbulb
36.29 36.75 37.50 37.25 37.52 37.47 36.83 36.98 35.75 36.44 35.36 39.75 42.76 43.70 43.40 43.44 43.04 42.29 42.18 42.35 42.46 42.26 41.38 40.44 39.72 39.94 41.56 40.70 40.17 40.34 39.67 39.53 39.87 40.70 40.98 40.95 40.79 40.63 40.56 40.77 40.95 41.68 40.47 37.35
34.66 35.91 35.42 35.41 36.94 37.25 37.58 37.30 36.88 36.61 37.34 42.43 42.68 43.18 42.12 42.16 41.82 41.59 41.78 42.57 42.60 42.55 41.56 39.12 40.75 41.68 40.27 39.42 39.39 39.62 39.19 38.95 39.44 39.55 40.03 40.31 40.08 39.52 39.44 39.83 39.78 39.82 37.89 37.12
29.45 31.42 31.68 30.64 34.81 36.79 36.91 37.93 39.71 35.70 41.21 41.93 41.24 41.23 42.86 42.35 42.36 41.93 42.49 42.91 42.55 42.36 42.86 41.98 41.85 40.27 39.58 39.11 38.77 38.20 37.97 38.22 38.37 38.47 38.75 39.21 38.75 38.32 38.06 38.11 38.20 38.55 37.90 35.22
30.49 27.52 26.93 37.03 39.84 38.94 38.05 38.40 39.68 39.38 40.74 42.10 42.15 42.46 43.16 44.43 43.07 42.62 42.79 43.08 42.52 42.58 42.89 42.92 40.67 39.24 38.48 37.66 37.11 36.80 36.90 37.18 37.72 37.67 37.62 38.19 37.74 37.00 36.95 37.03 37.10 37.54 35.08 33.27
30.78 28.03 31.12 36.25 36.37 37.95 37.55 38.78 41.90 40.69 41.33 40.77 41.20 42.41 43.13 44.27 44.55 44.75 44.30 43.93 42.76 43.21 41.83 39.02 38.39 37.32 36.77 36.63 36.11 36.03 36.16 36.57 36.78 36.91 36.98 36.99 36.40 36.04 36.00 35.80 35.32 34.44 33.93 32.77
26.85 28.35 26.02 34.88 37.65 42.84 42.22 35.33 42.19 42.77 40.75 40.15 42.03 40.08 43.93 44.43 44.31 43.45 43.62 42.70 41.07 38.41 37.16 36.90 35.91 36.69 36.49 35.35 35.00 35.29 35.82 35.87 36.21 37.06 36.23 35.98 36.00 35.24 35.41 35.21 33.25 33.69 32.08 31.66
23.10 29.90 31.01 36.65 40.49 42.67 34.30 36.98 40.83 42.59 42.15 40.79 41.34 45.08 43.93 43.44 42.56 43.39 41.44 36.85 35.61 36.52 36.15 35.77 36.02 35.94 34.73 34.75 34.53 35.33 35.46 35.59 36.21 36.49 35.86 36.04 35.32 35.17 34.42 33.62 32.44 31.76 30.01 29.89
24.84 26.00 28.26 38.58 41.41 38.05 42.55 42.36 42.35 43.01 43.09 42.58 44.38 41.40 41.72 41.40 39.71 37.49 35.78 35.60 35.96 35.52 35.15 35.36 35.44 35.04 34.28 34.02 35.14 34.97 34.91 34.99 35.16 35.17 34.79 34.37 34.38 34.48 32.98 32.42 31.30 29.84 29.26 29.06
33.10 34.36 39.90 40.67 42.78 43.59 43.03 42.72 43.61 43.47 44.04 44.14 41.92 41.08 41.79 38.61 36.11 34.96 34.82 34.41 35.75 35.32 34.08 34.44 34.70 34.84 33.69 34.62 34.40 33.92 33.90 34.23 34.44 34.79 34.26 34.65 34.05 33.31 32.01 31.18 30.42 29.56 28.78 29.58
35.96 39.62 38.02 40.29 42.79 43.10 44.12 44.74 44.84 45.22 45.51 43.83 42.97 41.83 39.42 35.26 34.56 34.33 34.79 34.46 34.39 33.61 32.89 32.87 33.89 33.46 34.08 34.00 33.53 33.02 32.82 33.53 34.38 33.53 32.72 34.42 34.04 32.50 31.40 30.61 30.09 29.79 30.17 29.26
35.90 39.12 40.39 41.96 43.06 45.38 45.38 44.73 44.87 45.56 45.24 44.15 43.68 41.49 37.53 34.91 32.31 32.22 31.95 32.82 33.59 33.08 32.72 32.71 33.18 33.10 33.77 33.25 32.82 32.35 32.98 32.83 32.28 32.27 31.32 31.79 33.52 32.39 30.96 31.83 31.64 31.11 30.48 29.94
37.44 42.46 42.28 42.67 43.80 44.94 44.69 45.09 45.85 44.97 43.10 42.42 41.85 37.80 35.05 32.79 33.90 32.82 33.16 33.00 32.63 32.58 32.52 32.38 32.56 32.39 32.46 32.50 32.52 32.20 31.78 33.09 32.72 32.81 32.05 32.55 32.39 31.94 30.53 30.53 29.97 30.35 30.49 29.65
42.24 42.85 42.65 43.63 43.55 45.71 45.25 45.40 45.07 43.69 40.96 36.48 35.98 35.22 33.72 33.01 34.45 35.41 33.32 32.57 32.29 32.33 32.37 32.26 31.78 31.32 32.27 32.32 32.21 31.72 31.63 32.65 33.13 32.86 32.87 31.93 31.73 31.37 30.70 32.04 28.76 29.49 30.45 30.73
44.20 43.93 43.12 43.66 43.54 42.54 39.61 36.44 36.47 35.91 35.63 34.92 34.91 35.49 34.92 34.53 32.42 32.26 32.09 32.85 32.88 32.49 32.16 32.04 31.11 31.00 32.24 32.84 32.33 32.04 32.27 31.80 33.24 33.19 32.80 32.48 32.24 31.89 31.38 30.08 29.43 30.43 30.01 28.24
42.68 44.32 42.63 37.39 36.47 35.47 36.14 36.15 35.11 35.11 35.72 35.60 36.39 36.44 35.96 32.31 31.42 32.15 32.33 32.58 32.01 31.74 31.95 31.72 30.85 31.43 33.03 33.15 31.53 31.73 32.39 32.90 32.95 33.43 33.10 32.05 31.33 30.48 30.77 29.73 28.52 28.73 30.02 27.43
37.52 35.39 35.36 34.22 34.41 35.05 35.61 35.61 34.00 33.94 34.71 35.11 34.89 34.32 33.64 31.90 32.01 32.32 32.69 32.50 30.08 30.83 32.06 29.68 28.23 31.27 32.52 32.66 32.58 33.06 33.12 31.91 31.17 32.12 32.82 32.05 30.65 29.68 29.36 29.69 29.58 29.08 29.03 29.41
34.80 32.41 33.95 34.11 34.60 35.57 35.42 35.54 35.72 36.50 35.60 35.98 34.74 32.39 32.17 30.75 29.72 30.46 30.90 30.42 29.60 29.37 28.89 27.92 28.92 32.18 31.40 32.52 32.77 32.51 32.27 32.12 31.14 32.00 31.80 31.33 30.81 30.06 29.81 30.09 28.99 28.76 29.09 31.08
37.09 36.88 36.73 36.16 34.52 34.79 35.02 35.20 34.71 34.35 33.64 31.58 29.34 28.93 28.41 28.06 29.72 29.78 28.74 27.67 25.61 26.31 28.50 30.35 29.88 30.35 30.72 32.30 32.61 32.25 31.85 31.71 31.51 30.98 31.75 31.32 30.41 30.97 31.09 29.86 28.90 28.58 28.86 30.06
37.15 36.58 36.92 36.47 36.97 35.57 33.80 32.61 31.08 30.29 29.29 29.15 28.88 29.40 28.63 28.05 27.69 27.70 27.73 25.36 25.45 26.48 30.86 30.97 29.49 29.69 30.35 31.04 31.08 32.80 32.25 31.98 31.65 30.33 30.98 30.57 30.05 30.09 30.13 29.37 28.87 28.41 28.31 28.43
35.34 35.17 33.95 32.23 31.18 30.71 30.81 30.15 29.80 30.51 30.66 29.02 27.26 27.47 28.17 28.38 26.23 25.88 26.22 26.13 28.48 30.10 30.66 29.95 29.61 29.76 30.29 30.77 29.82 32.48 31.69 31.00 30.98 30.99 31.00 30.66 29.40 28.76 29.17 26.64 27.44 28.20 28.74 28.47
30.80 30.66 29.15 28.85 28.71 27.88 27.15 27.39 26.86 29.15 29.31 26.12 27.21 27.91 27.36 28.87 30.62 30.46 29.42 28.75 31.49 30.67 30.36 29.14 29.69 31.18 31.55 30.17 31.31 31.28 30.70 30.86 31.11 31.42 31.43 31.00 29.70 28.56 28.72 29.13 29.00 28.64 28.57 29.04
31.86 30.42 28.26 26.97 25.98 28.75 27.80 27.92 28.42 27.84 27.80 26.60 25.46 24.52 24.67 27.22 29.41 30.67 30.52 30.16 33.83 31.65 32.21 31.91 31.03 29.37 29.90 29.58 30.90 30.83 30.45 31.04 31.95 31.89 31.70 31.10 30.12 29.86 29.95 30.42 30.31 30.67 30.50 30.40
31.73 30.45 29.37 27.86 27.44 28.56 28.50 28.86 27.19 27.43 26.47 26.82 26.36 26.97 27.65 28.98 29.82 28.27 29.28 32.86 32.77 32.99 31.86 31.68 30.70 27.94 28.20 29.97 31.78 31.38 30.92 30.01 29.38 30.74 30.96 30.24 30.14 29.61 29.43 30.18 30.84 30.96 30.68 30.65
30.41 29.83 28.66 27.17 26.01 27.44 26.57 27.73 27.41 28.10 26.31 28.45 29.42 29.63 27.85 27.30 29.19 31.39 31.80 31.10 30.51 30.23 30.96 31.68 31.32 29.48 27.01 28.02 24.59 23.76 23.65 22.50 22.25 21.74 21.20 19.63 21.15 21.50 23.05 25.83 27.28 29.11 29.90 29.97
28.28 28.19 27.29 26.29 25.43 24.71 24.92 25.16 25.57 26.44 27.09 27.53 28.44 29.69 30.07 31.05 29.11 29.72 30.66 30.90 31.29 30.99 31.08 30.36 23.06 20.46 22.46 20.61 19.21 18.07 17.33 17.46 16.41 15.89 16.06 16.04 15.82 16.17 17.14 18.22 18.58 20.19 20.63 22.75
26.39 25.63 25.43 24.89 23.90 23.34 21.85 21.69 21.31 23.76 23.74 24.09 25.49 27.30 28.41 29.84 29.73 30.07 31.02 30.60 31.07 30.67 28.72 22.86 20.39 18.83 17.92 16.48 15.39 14.41 14.50 14.00 13.72 13.33 12.58 13.41 13.77 13.73 13.61 13.59 13.99 15.05 16.19 17.87
24.27 22.47 21.38 22.28 21.17 19.24 17.69 17.47 16.93 17.45 19.79 19.77 19.11 21.97 22.99 25.94 26.08 26.06 27.45 29.53 31.14 25.75 20.69 17.56 16.05 14.01 13.99 13.19 12.62 12.53 12.33 12.36 10.40 10.12 10.58 10.30 10.34 10.46 10.50 10.86 11.98 13.09 14.11 15.14

GFSNGP_sfc_wetblb_018.txt.gz
Wetbulb
42.11 42.14 42.22 42.61 43.42 43.71 42.23 43.20 39.19 41.56 41.57 43.98 46.63 48.13 49.92 51.30 51.38 50.66 49.93 49.44 49.27 49.15 48.37 46.90 45.33 44.20 44.83 48.16 47.87 45.79 44.39 44.11 44.32 44.51 44.37 44.03 43.68 43.07 42.98 42.68 42.49 42.62 42.23 42.31
39.15 41.08 40.93 40.15 43.16 43.87 44.23 44.34 43.33 43.63 43.05 48.68 49.51 49.55 49.63 49.51 49.36 48.79 48.76 48.81 49.21 49.19 48.84 46.83 45.85 43.54 47.52 47.22 45.60 44.99 43.98 43.61 43.99 43.56 43.38 43.11 42.87 42.32 42.06 41.58 41.60 41.54 41.32 41.50
36.31 37.82 38.46 36.05 40.86 42.93 43.63 45.15 44.53 41.17 45.79 48.13 46.82 47.50 48.79 49.45 49.05 48.68 48.98 49.09 49.00 49.14 48.75 47.50 45.49 47.24 46.41 46.06 44.80 43.46 43.14 42.68 42.49 42.63 41.96 41.72 41.79 41.52 41.04 40.57 40.94 40.46 40.79 40.75
37.43 34.17 32.05 41.37 44.21 43.67 43.73 44.86 46.23 45.68 46.48 46.96 47.60 49.22 49.56 51.05 50.65 49.42 49.52 49.34 49.81 50.06 48.15 47.89 47.08 46.73 46.41 44.42 43.00 42.30 41.57 41.27 41.45 41.08 40.45 40.93 41.22 40.78 40.80 40.55 39.83 39.79 39.48 38.90
37.13 35.43 38.71 40.50 41.02 40.61 40.98 42.02 46.69 46.03 47.03 47.16 47.25 47.87 49.45 50.30 51.35 51.31 50.77 51.14 51.00 50.31 48.44 45.26 45.01 44.37 42.94 41.92 41.52 40.84 39.96 39.38 39.82 40.01 39.69 40.00 39.75 39.94 40.39 39.66 39.39 39.04 38.48 37.78
35.24 35.93 33.86 40.63 42.44 46.56 46.09 39.03 46.03 46.98 47.34 46.67 47.25 44.52 47.44 51.35 50.91 50.70 51.58 51.38 49.20 47.48 45.35 43.89 42.49 41.35 41.25 41.01 39.93 38.40 38.59 38.78 39.25 39.49 39.42 39.09 39.18 39.31 39.90 39.63 38.11 37.91 37.23 37.45
36.29 36.87 38.67 43.17 43.58 46.80 36.62 39.78 47.59 47.67 48.43 47.72 46.67 49.52 49.91 50.76 51.10 51.41 51.12 49.35 47.21 44.19 43.16 41.63 41.12 41.35 39.57 38.85 37.55 38.75 38.57 38.74 38.97 39.24 38.68 38.84 39.22 39.65 39.19 38.77 37.32 37.00 35.11 35.78
34.64 35.07 33.31 43.72 45.16 41.39 46.70 48.90 47.97 48.61 49.86 49.43 50.70 49.29 47.95 48.24 49.62 49.46 47.84 44.71 43.76 41.86 39.83 38.73 38.96 39.10 37.98 37.28 38.70 38.36 38.35 38.29 38.27 38.50 38.16 38.28 38.64 38.92 38.75 37.74 36.14 35.37 34.32 34.36
40.84 42.45 44.76 46.41 48.18 49.56 48.54 48.03 48.82 49.12 50.15 49.98 49.37 49.18 48.07 46.83 46.05 44.77 42.74 42.03 40.17 37.62 36.90 37.84 38.80 38.10 36.64 37.67 37.89 37.61 37.53 37.44 37.77 38.24 37.81 37.75 37.75 37.71 37.25 37.06 35.26 34.56 33.63 33.63
40.56 44.78 45.27 46.29 47.89 48.58 48.88 49.01 49.87 50.39 49.94 50.10 49.27 49.93 48.22 45.70 43.32 40.98 40.67 37.76 38.32 34.81 37.03 36.94 37.18 36.63 37.55 38.00 37.60 36.86 36.13 36.57 37.10 35.92 34.82 34.85 35.41 35.98 36.51 35.93 35.05 33.63 32.77 33.02
42.01 45.17 46.37 47.45 48.37 48.86 49.16 50.37 50.46 50.95 50.43 50.05 49.73 49.19 47.73 43.89 41.78 39.27 34.40 36.77 36.59 35.81 36.00 35.85 36.56 37.19 37.97 36.86 36.26 35.26 36.19 35.93 35.90 35.76 34.66 33.98 33.45 33.52 35.35 36.54 35.12 33.80 33.86 33.14
42.45 47.07 46.54 47.22 48.70 49.53 48.80 49.21 49.78 49.41 49.47 47.71 47.83 47.22 45.28 40.12 37.12 37.48 37.60 35.13 33.59 34.92 35.60 35.90 35.14 35.89 35.89 35.76 34.82 34.77 34.33 35.31 36.09 35.53 35.00 34.20 33.42 33.82 32.28 31.42 30.85 30.81 30.65 31.71
44.98 47.66 47.98 48.89 49.25 48.63 47.80 45.31 44.89 44.98 44.61 41.49 40.95 39.74 37.87 37.53 37.36 36.51 37.51 35.07 34.86 35.09 34.76 34.43 34.98 34.21 34.88 35.54 34.99 34.20 34.10 34.19 34.95 34.22 34.05 33.68 34.25 33.26 32.69 33.91 31.59 31.10 31.09 31.32
47.37 48.25 47.12 43.62 42.66 42.81 42.01 41.79 41.29 40.82 40.04 39.16 38.13 38.20 36.80 35.38 35.10 34.88 34.52 35.48 34.83 34.35 34.17 34.46 34.52 33.98 35.24 35.36 35.11 34.73 34.68 32.07 34.62 34.83 34.76 34.36 34.33 33.95 33.65 32.58 32.12 33.26 31.51 30.73
42.31 45.62 43.21 42.48 41.61 41.04 41.98 40.71 38.26 36.90 36.62 35.82 37.03 36.18 35.68 34.54 34.55 34.29 34.91 34.33 34.61 34.71 34.70 34.47 34.03 34.77 36.76 36.33 34.86 34.95 34.54 34.25 34.66 34.32 32.63 32.69 33.56 33.87 33.58 32.74 31.92 31.68 32.35 30.78
40.51 41.09 40.88 39.58 38.71 37.85 36.99 36.14 34.92 35.02 35.71 36.54 37.13 37.66 37.55 37.16 35.45 35.21 35.40 35.56 32.85 33.00 35.11 34.60 33.69 34.38 36.42 36.66 36.20 35.72 34.76 32.24 32.38 33.55 33.21 31.57 32.98 32.61 32.07 32.69 32.32 31.75 31.14 31.68
38.32 35.41 36.86 35.01 35.62 35.67 35.75 36.34 36.43 36.73 38.36 38.77 38.35 37.19 36.56 34.36 33.32 33.93 34.73 34.72 34.41 33.08 34.14 33.61 33.25 36.49 36.04 36.19 36.04 35.82 35.56 34.72 32.68 33.80 33.39 32.90 33.60 32.92 32.41 32.89 32.68 32.15 33.66 34.07
39.50 38.25 37.56 37.20 36.57 36.58 36.77 38.61 38.15 36.32 35.23 33.97 32.57 32.36 32.18 32.00 32.63 33.44 34.00 33.96 32.16 32.00 32.74 33.91 34.44 34.73 35.11 36.48 36.11 35.78 34.69 33.82 33.69 33.57 33.13 32.81 31.22 32.43 32.91 32.62 32.44 32.75 33.05 32.98
39.15 38.28 38.56 38.32 38.25 36.20 33.88 33.56 32.88 32.76 32.77 32.36 32.09 32.18 32.18 31.81 32.56 32.52 32.09 30.75 30.12 30.52 34.19 35.95 32.15 31.21 34.23 34.28 33.27 34.84 34.28 33.82 32.93 33.13 32.99 31.96 31.79 31.85 32.30 32.89 32.86 32.66 32.46 32.41
36.92 36.45 35.64 34.85 34.36 33.83 33.48 32.87 33.45 34.17 34.24 32.47 31.62 32.54 32.90 33.08 32.18 31.45 31.45 30.41 32.94 34.63 35.35 34.74 34.17 34.25 34.05 34.23 31.74 34.38 34.88 33.11 30.14 30.73 32.05 33.29 32.84 32.00 32.06 31.10 31.60 32.18 32.18 32.72
34.87 34.19 33.88 32.53 32.54 32.54 32.18 32.18 32.18 32.16 33.18 32.12 31.21 31.04 30.22 31.45 32.34 32.18 32.09 32.28 35.89 37.00 35.39 33.21 34.03 34.91 35.94 34.43 34.12 35.29 33.07 31.85 32.07 31.91 32.18 32.54 32.18 32.56 32.36 32.34 31.81 31.63 31.63 31.81
35.76 33.69 32.60 32.88 32.90 32.58 32.51 32.14 31.56 31.37 30.60 30.21 29.86 29.68 29.22 29.52 30.05 30.88 32.78 31.84 35.13 33.21 34.99 35.27 35.16 34.22 34.83 31.42 33.55 33.16 32.14 32.36 32.38 32.24 32.18 31.92 32.00 31.45 31.27 31.45 31.44 31.81 31.81 32.00
34.36 33.65 32.73 31.52 31.07 31.18 31.30 29.09 28.59 29.34 28.34 28.55 28.50 28.83 28.46 28.68 29.06 28.02 27.44 32.12 32.89 32.61 32.56 33.31 33.32 32.10 31.56 32.00 32.36 32.54 32.09 30.56 29.22 28.90 28.38 28.31 27.93 27.73 27.91 28.45 29.24 30.50 30.70 31.06
33.16 32.14 31.01 30.40 29.41 28.36 26.94 27.30 27.59 28.46 28.47 29.34 29.83 29.50 29.45 29.60 30.17 32.16 31.83 30.41 30.49 31.47 32.41 32.65 32.39 31.42 30.71 31.81 31.45 30.00 28.27 26.99 26.16 25.12 24.42 23.13 24.65 24.37 24.54 24.42 24.30 25.41 25.55 25.78
29.37 28.79 28.17 27.86 27.64 27.07 25.80 25.59 26.14 26.64 25.92 26.27 26.56 27.30 27.04 27.67 27.23 29.54 30.08 29.48 28.87 29.94 31.64 31.50 27.07 24.81 27.87 26.94 25.43 23.72 24.28 23.75 21.83 20.71 21.30 20.80 20.67 20.67 21.27 21.55 20.93 21.14 20.67 21.50
29.09 28.41 28.34 25.95 24.91 24.83 24.14 24.10 23.43 24.43 23.60 23.30 23.78 24.64 25.16 25.65 26.35 26.59 26.89 26.10 26.84 24.11 23.20 22.04 19.66 21.55 21.54 20.09 20.04 18.98 19.78 19.61 19.05 18.52 17.05 17.86 17.58 17.29 17.50 17.46 17.43 18.17 18.82 19.31
25.01 24.13 25.68 25.20 23.78 22.58 21.34 20.89 20.95 20.67 21.77 21.26 19.97 22.52 22.86 22.67 22.34 20.79 20.24 20.64 20.53 19.67 19.89 19.18 18.02 16.01 16.12 15.90 16.16 15.93 16.09 16.03 13.90 13.35 14.26 14.11 14.01 14.28 14.12 14.25 14.74 15.66 16.20 17.41

GFSNGP_sfc_wetblb_024.txt.gz
Wetbulb
45.39 46.35 46.48 45.68 45.12 45.28 43.69 44.70 40.11 43.26 43.05 45.78 47.69 48.76 50.04 51.27 52.10 51.97 52.09 54.72 55.20 55.74 54.61 54.27 53.60 53.18 51.52 50.12 49.71 49.45 47.82 45.76 45.29 46.08 45.65 45.05 45.07 44.29 43.53 42.68 41.95 41.68 40.79 40.22
43.57 46.17 46.02 43.39 45.07 45.30 44.64 44.42 44.51 44.40 44.01 48.82 49.92 50.53 49.91 50.15 49.97 51.25 51.24 52.36 54.53 55.69 55.74 54.16 53.57 53.08 51.30 49.66 48.87 49.94 47.22 45.44 46.06 45.98 45.13 44.72 44.27 43.11 42.59 42.00 41.29 40.90 40.09 39.72
38.62 42.34 41.21 35.42 42.41 43.83 44.51 45.96 45.49 41.36 46.62 49.23 48.11 48.51 49.86 50.49 50.62 51.08 51.32 52.06 53.27 54.56 55.17 54.71 53.68 52.73 50.14 48.88 49.81 48.29 45.70 45.63 45.63 44.96 43.78 43.12 42.50 41.48 40.66 40.54 40.90 40.22 39.89 39.06
39.57 36.29 31.21 42.16 47.23 46.01 44.25 45.00 45.90 45.64 46.95 47.64 48.79 49.96 50.43 50.94 51.01 51.09 52.64 52.45 53.21 53.85 54.47 54.42 54.08 51.97 50.23 49.01 48.75 46.13 44.69 44.03 43.87 43.57 42.30 41.16 40.15 39.82 40.02 40.14 39.47 39.05 37.94 38.39
37.26 36.29 40.11 42.45 44.89 43.73 42.69 42.74 46.71 45.70 46.45 47.30 48.81 49.23 49.64 52.48 52.71 51.76 51.61 52.05 52.91 53.86 54.19 53.76 53.13 51.30 48.55 47.70 45.59 43.95 42.87 42.11 42.53 41.23 39.94 39.41 38.99 38.79 39.02 38.51 38.21 38.11 38.52 37.57
38.79 36.31 32.94 43.49 45.81 48.19 47.32 39.11 47.29 47.46 47.21 47.31 48.03 43.55 47.25 51.95 52.56 52.48 52.29 52.75 52.75 53.67 53.85 53.11 51.08 48.93 45.01 43.59 42.34 41.48 40.20 39.83 39.54 39.68 38.93 38.18 38.51 38.12 38.29 38.32 38.40 38.11 36.97 36.41
38.65 37.59 40.71 46.37 47.22 48.33 38.15 41.26 48.72 48.83 48.68 48.35 46.83 49.45 52.13 53.01 52.21 52.43 52.71 52.79 53.96 52.18 48.24 43.32 43.87 43.94 40.29 39.70 38.29 38.92 39.69 39.36 39.18 39.16 38.74 38.88 38.18 37.80 37.47 37.27 36.71 34.86 33.02 33.76
41.67 35.15 32.82 47.59 46.79 41.89 48.41 50.88 49.79 49.57 49.90 49.77 50.79 51.41 51.79 51.87 51.81 51.33 51.32 51.09 47.65 42.21 40.73 41.15 41.63 40.21 38.16 37.25 39.03 39.05 38.82 38.33 37.99 38.30 38.41 38.52 37.54 36.82 36.32 35.90 34.42 33.72 32.83 32.64
42.81 42.48 49.33 49.63 48.67 50.33 51.13 49.64 49.90 50.12 50.50 50.78 50.54 50.21 50.88 50.98 51.30 49.73 47.92 41.56 42.15 39.61 38.98 38.61 38.52 38.71 36.65 37.59 38.96 38.24 37.49 36.54 36.95 37.76 37.97 37.28 35.37 34.23 33.82 33.69 33.53 32.52 31.67 32.04
45.48 46.39 47.36 48.85 49.84 50.29 50.81 50.57 51.01 51.37 51.64 51.78 50.64 51.25 50.93 51.04 48.04 45.43 41.11 40.31 40.39 38.26 36.55 36.08 37.40 37.82 37.75 37.97 38.22 36.97 35.70 35.83 36.68 35.84 35.60 35.47 35.47 34.85 33.64 31.64 31.42 32.22 31.87 30.70
45.15 47.46 48.49 49.13 50.21 50.77 50.93 51.76 51.10 51.42 49.99 48.43 48.91 49.40 47.40 42.17 40.64 40.08 38.88 38.04 37.19 36.14 35.74 36.01 37.26 37.29 38.14 37.65 37.04 35.67 35.64 35.39 35.32 34.26 34.71 34.91 35.18 34.65 31.87 32.51 32.85 32.36 32.06 32.40
44.53 48.09 48.01 48.20 48.73 49.82 47.66 46.60 46.88 46.49 44.26 43.87 43.61 41.34 40.63 39.32 38.23 36.00 35.07 36.32 36.18 36.15 36.37 36.66 36.95 37.09 37.32 37.91 36.59 35.08 34.13 34.27 34.01 33.57 33.97 34.21 33.83 33.39 34.57 33.61 33.83 33.53 32.73 31.36
47.71 49.57 49.84 48.21 47.11 46.55 44.42 44.53 44.42 43.41 42.54 40.29 40.18 39.53 38.81 37.04 36.63 35.88 37.09 36.67 36.63 36.37 36.65 37.25 36.38 35.98 37.24 37.65 36.37 34.07 32.73 32.84 33.30 32.10 32.81 32.11 31.62 32.03 31.16 33.56 34.57 33.37 32.93 32.46
48.23 48.78 45.68 47.16 43.72 45.64 42.91 42.30 41.27 40.47 39.87 39.70 39.16 39.21 38.05 37.24 37.73 37.93 37.71 38.05 38.24 37.63 37.34 37.12 36.47 36.24 37.70 37.68 36.11 34.28 33.97 32.84 32.76 33.38 33.12 32.16 31.36 31.84 31.15 29.52 28.78 30.52 32.64 32.13
46.14 47.17 46.20 45.19 43.67 41.76 41.78 41.07 38.80 37.68 37.80 37.49 38.71 38.37 38.31 37.56 37.14 37.37 38.48 38.45 37.72 36.99 36.81 37.36 36.35 36.63 38.56 38.72 37.19 35.00 34.16 34.34 34.13 33.65 32.64 32.68 32.66 31.89 31.14 30.56 30.26 30.33 31.72 30.66
45.44 44.96 42.99 40.84 40.05 39.84 39.34 38.04 36.83 36.76 38.04 37.47 36.59 36.02 37.21 37.13 36.62 36.67 37.53 37.12 34.14 33.82 34.94 31.65 31.63 34.76 37.18 37.95 37.48 36.84 35.84 32.83 33.38 33.14 33.20 32.55 32.51 32.14 31.66 31.13 30.16 31.07 31.54 30.94
40.49 37.60 38.02 37.46 37.71 38.22 38.33 38.46 37.12 35.62 35.24 34.04 33.53 32.87 32.99 32.75 34.04 33.86 34.65 34.54 32.72 31.88 32.49 32.53 32.94 36.56 35.55 37.18 37.33 36.36 35.77 35.56 33.29 33.32 33.75 33.16 32.55 31.42 31.66 31.69 31.01 29.54 30.57 31.22
42.73 40.68 40.43 39.55 38.26 36.98 35.36 34.75 34.32 33.58 32.29 32.81 30.94 30.95 30.40 30.03 29.69 31.27 31.77 32.14 31.48 31.91 32.91 34.69 34.96 34.95 35.28 36.59 35.79 34.97 34.83 34.48 33.98 33.86 33.33 32.13 31.73 31.12 30.19 30.19 30.47 29.88 29.84 30.64
40.72 38.94 38.80 37.76 36.60 35.26 34.24 33.52 32.31 32.02 31.00 30.44 30.55 29.98 30.21 30.07 29.32 29.61 29.90 30.04 30.22 30.86 32.33 33.06 31.40 32.92 34.13 34.15 32.93 33.44 32.83 32.58 32.88 33.20 32.68 30.25 30.32 29.55 29.32 30.07 30.51 31.58 30.97 30.66
37.61 37.23 36.17 35.26 34.96 33.00 31.93 31.65 33.46 33.58 31.94 30.02 29.76 29.08 27.97 27.15 27.91 27.56 27.90 28.74 30.57 30.82 30.51 30.47 30.10 30.53 31.21 32.47 31.87 31.35 31.39 32.35 31.88 31.97 32.41 30.29 29.91 29.69 29.47 28.84 30.94 31.37 31.22 31.47
35.19 34.05 32.50 31.33 30.84 31.14 30.95 30.79 29.27 28.45 29.76 26.21 26.08 24.50 24.35 27.61 28.22 25.73 27.61 27.56 29.79 28.85 28.39 27.35 28.13 27.07 27.14 27.03 27.99 29.54 29.96 30.18 29.97 30.64 31.62 31.37 30.48 28.37 27.73 27.03 29.45 29.62 29.86 29.71
34.47 32.72 31.54 31.74 30.46 29.62 29.50 30.14 29.74 27.99 27.57 24.98 23.48 22.97 23.70 26.19 25.84 26.81 25.55 26.11 27.13 24.93 25.29 27.27 24.92 20.90 21.43 22.30 27.58 27.60 28.21 29.29 29.73 29.71 30.13 30.75 29.78 27.49 26.11 26.47 26.27 26.68 26.42 27.06
34.10 32.98 31.64 31.56 31.25 29.87 29.22 28.80 27.48 27.13 24.39 23.89 24.02 24.52 24.69 25.35 26.56 24.40 23.08 25.64 24.95 22.62 23.61 23.73 20.60 17.77 18.78 23.14 22.89 22.71 22.72 24.04 22.65 22.55 23.59 24.03 24.43 24.62 24.04 23.48 23.27 23.81 23.56 23.07
33.91 32.85 31.58 31.09 30.76 30.00 28.39 27.88 28.88 28.56 24.84 26.71 24.84 22.71 24.70 24.42 24.99 26.13 25.05 22.61 20.76 20.23 21.43 21.94 19.09 17.17 18.25 19.55 19.25 18.56 18.76 19.55 17.15 18.15 17.77 18.70 19.92 19.80 19.45 19.55 19.49 19.46 19.02 18.14
32.37 31.44 30.87 30.52 30.28 28.95 28.13 27.41 28.28 27.58 26.12 26.18 25.89 25.64 25.32 25.94 23.06 22.85 23.23 22.59 21.08 20.06 20.47 20.25 19.12 16.02 17.11 16.82 16.60 16.14 15.80 16.15 14.98 14.41 14.07 15.11 15.11 14.95 15.73 15.70 14.69 14.10 14.58 14.74
32.83 31.69 28.51 28.08 27.22 26.96 25.82 25.69 24.65 25.06 24.14 24.01 23.75 24.79 25.37 24.76 23.66 22.19 21.77 20.59 20.31 19.28 19.07 18.67 18.09 17.21 16.04 15.02 14.80 14.28 13.95 13.23 12.20 12.23 12.17 12.15 11.65 12.03 12.08 11.28 11.11 11.45 11.30 12.07
28.17 29.46 29.04 27.51 25.78 24.83 23.85 23.69 23.03 21.72 23.52 21.56 20.00 22.75 23.71 22.96 22.13 20.33 18.33 19.02 18.52 17.84 17.20 16.97 16.46 15.55 14.56 13.59 13.43 12.87 12.32 11.40 10.12 10.61 10.05 9.30 9.01 9.14 8.35 9.17 9.65 10.66 11.52 11.92

GFSNGP_sfc_wetblb_027.txt.gz
Wetbulb
42.39 44.28 44.50 43.08 43.04 43.69 40.65 39.82 34.00 37.65 39.86 42.77 42.38 43.25 43.93 45.75 46.56 47.10 48.07 49.96 50.71 50.90 50.54 50.98 50.50 49.75 48.95 47.46 45.92 45.18 43.67 43.64 44.08 44.68 44.85 43.35 43.02 42.28 42.07 40.75 39.89 40.41 40.08 39.01
36.55 43.23 41.87 38.84 41.67 41.84 41.41 41.71 39.67 40.02 39.56 44.11 45.01 45.01 44.80 45.45 45.86 46.53 46.94 47.70 48.93 51.42 51.05 50.66 50.08 49.25 48.84 46.85 45.87 46.04 45.77 45.21 45.17 44.26 43.47 42.57 41.84 41.04 40.75 38.97 39.44 39.57 38.58 38.19
30.61 37.18 36.05 28.40 36.09 39.98 41.29 42.02 40.75 35.19 40.00 43.52 43.80 44.98 44.36 44.82 46.24 46.34 46.99 47.68 49.01 49.90 50.86 50.34 50.21 50.18 47.15 46.26 47.26 46.67 46.38 45.63 43.74 42.76 41.82 39.90 39.25 38.85 38.01 37.59 38.29 38.55 38.18 37.75
28.65 29.08 20.65 36.96 43.90 42.62 41.39 41.24 41.49 41.30 41.96 43.22 43.03 44.17 45.89 45.40 45.32 45.80 47.10 47.79 48.27 48.61 50.05 50.48 49.43 48.02 47.50 47.87 47.33 44.86 43.04 42.20 40.25 39.32 39.33 39.21 38.55 37.74 37.85 38.06 37.30 36.69 36.75 37.07
26.82 27.17 33.47 38.65 41.75 41.05 38.69 37.84 42.74 41.49 42.57 43.34 44.26 43.29 44.61 47.80 47.51 46.46 46.36 46.68 47.35 48.55 48.63 46.76 46.33 45.64 45.10 44.09 42.00 41.52 40.01 38.85 38.63 38.67 38.19 37.98 37.40 37.08 37.44 36.48 35.70 36.07 36.95 36.15
28.48 25.04 21.16 35.87 42.62 45.51 43.78 31.51 43.84 43.93 42.96 43.30 43.18 32.94 40.95 47.08 48.19 47.67 47.83 45.48 41.26 41.34 41.00 39.77 40.09 41.45 38.50 37.30 37.17 37.02 37.83 37.43 38.47 38.61 38.12 37.53 37.29 36.88 36.09 36.20 36.42 36.60 34.89 34.55
25.33 23.63 31.39 43.59 44.70 45.61 30.24 32.70 43.99 44.44 43.68 43.23 40.85 42.84 46.19 47.48 47.74 44.95 42.51 40.12 40.15 39.32 37.69 37.68 38.86 38.80 36.89 36.70 36.17 37.76 38.29 38.39 38.36 38.51 37.99 37.85 36.68 36.21 35.55 34.59 33.55 32.25 31.97 31.27
30.92 29.00 26.96 45.03 43.39 35.67 41.14 43.53 44.38 43.74 43.35 43.44 44.56 46.33 47.09 47.54 43.25 40.46 38.45 38.20 37.91 36.99 36.82 37.84 38.97 38.21 36.88 36.48 37.61 38.43 38.17 37.81 37.90 37.38 37.26 37.44 35.38 34.48 33.91 32.78 30.29 30.26 29.75 30.43
35.70 33.74 42.99 43.91 43.24 45.23 45.15 43.80 44.14 44.92 46.05 46.97 46.40 46.82 47.59 42.69 37.92 37.36 37.38 36.81 36.84 35.87 35.71 36.82 37.41 37.13 36.15 37.32 38.51 38.10 36.94 35.95 36.03 36.41 36.34 35.11 32.93 31.93 30.79 30.58 27.37 28.36 28.69 29.00
37.68 42.06 43.01 43.75 46.39 47.66 47.59 46.57 46.77 44.95 44.17 45.62 44.52 43.26 38.94 38.45 37.93 37.39 36.46 36.45 36.98 35.58 34.71 35.07 36.90 37.26 36.44 36.65 36.58 35.25 34.30 34.09 34.37 33.24 33.10 32.51 32.68 32.05 30.06 25.65 25.15 27.79 27.43 27.36
39.14 42.20 45.36 45.68 46.34 46.48 45.24 45.52 42.71 41.85 41.19 40.00 39.22 38.15 37.56 36.20 35.15 34.61 35.18 35.65 35.82 35.70 35.22 35.12 35.62 35.61 35.89 35.12 35.11 33.57 33.33 32.84 32.13 29.41 30.82 31.04 32.11 31.25 29.56 29.83 29.32 27.48 27.03 27.95
32.48 44.61 42.85 42.11 43.80 44.56 42.45 41.73 42.19 40.59 39.09 39.84 39.56 37.54 36.09 34.12 34.44 35.01 35.00 35.79 34.97 33.79 34.24 34.56 34.73 34.39 34.42 34.75 33.65 32.22 31.37 30.38 28.49 27.46 28.37 30.36 30.06 29.67 32.45 33.00 33.21 33.50 33.27 30.87
43.89 45.09 43.76 42.82 41.95 42.47 40.48 40.30 40.18 39.48 39.03 37.32 37.55 36.60 35.51 34.04 35.09 35.66 35.90 34.38 35.67 35.01 34.42 33.91 33.20 32.95 33.90 34.25 33.48 31.57 29.66 29.56 28.92 29.63 29.04 28.16 26.48 26.47 26.56 28.65 32.80 32.48 32.69 33.01
45.81 45.02 41.46 42.28 39.01 40.35 39.29 38.85 39.05 38.23 37.81 36.96 36.42 36.04 34.80 34.35 35.13 35.20 34.83 35.27 34.98 34.44 34.21 33.50 32.92 32.60 34.00 34.29 33.59 31.47 30.09 30.40 30.00 29.78 28.69 27.96 26.12 28.23 30.75 29.84 26.88 27.16 29.93 31.64
42.75 44.05 41.23 40.73 40.38 39.52 39.27 38.00 35.83 34.52 34.74 34.53 34.84 34.87 35.35 33.70 33.18 33.48 34.26 34.12 33.63 33.49 33.35 33.09 31.13 31.21 33.84 34.48 34.32 31.98 30.41 29.72 30.15 29.66 31.25 31.79 30.60 30.39 30.16 26.60 26.90 27.81 28.70 27.14
41.26 40.68 39.87 38.36 38.24 37.42 35.84 35.05 33.88 33.52 33.50 33.66 32.89 32.54 32.81 33.81 32.92 33.34 33.46 32.28 28.90 28.38 29.94 29.52 30.78 31.91 33.49 34.48 34.26 34.22 32.67 29.52 29.07 30.55 32.25 32.76 32.30 30.71 30.94 28.58 27.72 27.40 27.25 27.89
36.36 34.88 35.81 36.34 35.77 36.48 35.30 33.82 33.50 33.45 31.98 29.98 28.99 29.65 30.04 29.56 29.56 29.64 29.99 30.28 30.06 29.96 30.61 30.75 29.88 31.29 32.29 34.70 33.83 32.69 31.62 31.46 31.49 32.74 31.76 32.57 32.84 31.94 31.16 27.76 26.92 27.04 28.04 28.34
40.22 38.80 38.77 38.08 35.06 33.22 32.44 32.08 30.27 29.64 29.24 29.76 29.54 29.78 29.18 28.07 27.09 27.15 25.32 25.06 22.37 24.02 29.34 29.36 27.90 28.19 28.99 30.61 29.75 30.58 31.29 30.94 30.58 30.60 31.68 31.93 32.19 31.93 30.38 26.47 23.03 24.08 26.66 26.29
39.13 36.94 36.56 35.55 34.83 32.91 31.17 30.39 29.38 29.00 29.21 29.67 28.40 26.49 23.22 21.57 23.89 24.19 24.08 20.12 21.89 24.64 26.42 27.08 26.46 25.58 24.17 24.56 23.52 24.45 24.90 25.10 25.86 27.49 27.74 27.92 29.15 30.44 31.09 26.34 23.05 22.02 28.37 29.37
35.33 35.20 34.35 32.81 32.13 31.43 30.84 30.19 29.08 27.92 28.45 25.71 21.79 19.19 20.51 18.46 17.28 16.70 18.81 22.07 25.20 23.76 24.54 24.95 23.41 20.86 20.30 21.00 19.67 23.44 24.11 24.45 25.50 26.68 28.15 28.41 28.00 29.25 29.34 27.58 23.09 20.24 22.67 27.99
31.79 30.80 30.38 29.65 29.13 28.58 28.34 25.60 25.58 25.71 27.22 21.13 20.24 15.74 15.38 18.88 18.23 14.67 19.69 21.12 22.99 21.27 22.23 22.07 19.53 17.50 18.40 17.96 21.43 20.75 19.71 20.45 21.28 20.25 21.13 21.79 22.19 23.71 25.38 25.10 22.97 21.91 22.45 18.44
31.30 30.19 29.09 28.41 27.22 27.58 26.63 27.01 26.38 24.16 22.45 19.16 13.77 12.86 12.79 20.61 16.73 18.98 15.96 19.72 21.69 14.57 18.89 20.41 18.46 12.73 15.58 14.89 17.77 16.47 15.61 17.32 14.78 15.65 15.54 16.29 18.03 18.47 19.08 19.83 19.89 20.27 20.05 19.11
31.54 31.28 30.20 27.78 26.52 26.77 26.89 24.68 22.09 20.67 17.29 14.76 12.90 14.72 16.78 20.46 21.08 17.10 16.38 21.01 20.45 16.22 19.17 17.72 10.82 9.87 9.51 13.49 13.56 13.27 12.35 13.66 10.64 11.32 11.31 12.98 14.07 13.76 14.89 14.92 14.56 14.34 13.79 14.36
30.86 30.90 30.23 28.56 26.59 25.55 24.75 25.93 25.44 23.11 16.72 21.32 15.34 12.28 19.69 12.86 10.72 19.77 18.40 14.63 9.15 8.91 10.26 14.72 11.71 9.44 5.51 4.80 8.60 11.37 9.82 10.92 8.86 8.89 8.50 9.29 10.02 10.58 11.56 10.68 10.11 10.88 11.39 11.34
30.27 29.79 28.57 26.65 26.02 24.62 24.62 25.22 24.46 23.65 23.04 23.19 22.06 23.22 21.61 20.53 12.44 12.68 9.80 10.32 13.41 11.50 7.34 6.76 8.16 7.92 3.51 0.71 3.59 6.05 6.85 9.00 4.89 6.86 6.32 6.87 6.48 7.78 7.35 7.74 8.54 8.93 9.45 9.80
29.37 25.97 25.13 24.82 23.89 23.01 22.81 22.73 20.36 19.99 19.70 14.78 14.14 9.34 13.41 13.21 13.33 12.73 9.58 9.07 10.25 10.37 6.40 2.16 2.15 3.75 4.53 1.99 1.06 3.80 0.88 5.83 3.42 6.57 5.12 2.93 2.77 3.98 3.58 5.01 6.07 7.38 8.12 8.77
26.41 25.39 23.46 22.29 23.03 22.63 20.81 19.88 15.89 12.82 10.84 6.54 7.45 7.89 16.20 12.09 7.05 9.19 4.20 2.69 2.36 2.89 0.71 0.98 0.19 2.52 3.85 5.58 -1.78 0.59 -2.46 -1.46 -1.37 4.97 -0.83 -3.85 0.17 0.30 1.02 3.10 4.49 5.49 6.52 7.27

GFSNGP_sfc_wetblb_030.txt.gz
Wetbulb
38.92 41.58 41.79 39.82 40.91 41.53 38.72 37.79 32.64 36.42 37.19 41.17 41.16 40.78 42.31 43.78 44.12 46.99 48.98 48.94 48.32 47.98 48.92 49.19 49.17 48.91 46.31 45.61 46.49 44.97 43.85 42.55 43.37 44.56 43.76 42.84 40.27 39.32 39.84 39.45 39.19 38.83 38.11 38.60
34.68 39.87 39.02 36.79 39.26 39.37 39.67 39.32 39.18 38.76 37.42 41.09 41.90 42.29 43.12 43.38 44.60 44.12 44.64 46.07 47.70 48.93 48.87 48.95 49.02 48.76 47.68 45.91 45.48 44.87 44.05 43.75 44.77 44.45 43.23 41.94 40.71 39.51 37.41 38.14 38.38 38.53 37.87 37.29
30.71 34.54 33.63 28.68 34.77 38.11 39.42 40.01 39.68 33.20 38.16 40.66 41.10 42.47 41.86 42.50 44.27 44.08 44.96 45.81 48.23 48.70 48.61 48.43 48.99 48.47 47.41 46.13 44.78 43.92 44.02 44.84 43.36 41.99 39.77 39.07 38.90 38.19 37.80 37.88 37.87 37.46 36.50 36.68
27.56 27.49 20.74 36.39 41.40 40.96 38.46 38.73 39.37 40.01 39.98 41.13 42.40 42.56 43.17 42.94 42.59 43.44 44.33 45.11 44.95 46.19 48.41 48.00 47.94 47.19 44.97 45.60 45.00 44.27 41.62 40.69 39.99 39.19 38.13 38.25 38.27 38.19 37.97 37.57 36.69 35.84 35.70 36.35
25.63 25.73 31.99 37.15 40.06 38.36 36.81 35.99 40.36 39.55 40.79 41.12 43.29 42.92 43.09 45.73 45.05 43.61 41.76 39.91 39.08 39.03 40.03 40.79 42.92 43.38 41.25 39.86 38.62 37.68 37.35 37.79 37.87 37.57 38.36 38.79 38.42 37.63 37.25 36.82 35.19 34.99 35.73 35.66
27.70 23.93 21.01 33.60 40.75 43.32 41.85 30.67 42.17 41.89 40.96 41.73 40.84 32.46 39.76 44.47 42.14 39.14 38.79 38.81 37.91 38.23 37.67 37.26 37.49 37.85 36.47 35.61 36.05 35.88 37.13 38.30 39.26 39.32 38.29 37.69 37.59 36.55 36.27 35.29 34.72 34.22 33.37 33.09
22.15 21.83 28.63 38.92 43.22 42.70 29.75 31.13 42.30 42.59 41.91 41.42 39.28 40.79 42.99 39.62 38.30 38.53 38.16 37.81 38.19 37.42 36.71 36.82 38.10 38.37 36.41 36.95 36.74 38.63 40.08 40.17 39.70 39.20 38.38 37.88 37.05 35.32 33.76 32.36 31.17 29.41 29.68 29.96
30.29 24.17 25.75 43.42 41.52 35.52 37.42 41.46 42.54 42.18 42.24 42.51 43.66 42.96 39.57 38.38 38.07 37.38 36.32 37.02 37.35 36.32 36.35 37.74 38.80 38.51 37.62 37.65 38.87 39.29 39.24 38.67 38.28 37.35 36.48 35.88 33.40 31.85 31.76 30.10 28.34 28.53 25.83 28.12
33.26 32.27 40.89 41.91 41.61 43.75 43.53 42.72 42.78 44.07 44.61 45.59 44.22 39.90 37.40 36.45 36.48 36.05 35.06 34.45 35.63 35.45 36.01 36.42 36.28 36.03 35.59 37.41 38.52 37.26 35.58 34.30 34.33 34.54 34.42 33.72 30.79 29.75 28.95 28.59 25.32 27.36 27.46 25.52
36.63 40.57 41.18 43.86 45.10 45.41 45.38 42.57 41.24 42.25 42.77 42.15 37.50 37.20 36.47 36.33 35.81 35.13 34.67 34.79 36.00 35.41 35.31 35.22 36.38 35.60 34.87 34.96 34.94 34.18 32.85 32.76 32.65 31.47 31.14 30.80 30.59 30.37 29.42 25.52 25.39 27.46 27.23 26.78
36.98 41.23 43.04 43.05 42.82 42.61 40.66 40.49 39.52 39.68 39.18 38.15 37.09 36.07 35.47 34.49 34.37 34.42 35.15 35.88 36.29 35.47 34.73 34.49 34.35 34.34 34.33 33.89 33.95 32.34 31.97 31.40 30.73 28.31 29.66 29.84 30.31 30.13 29.44 29.32 28.43 26.76 26.54 26.40
32.93 42.51 40.56 40.61 41.51 42.09 40.35 39.57 39.45 38.25 37.27 37.45 36.21 34.06 33.56 32.93 34.24 35.51 34.69 35.00 34.79 34.65 34.25 33.15 33.45 33.16 33.54 33.80 32.74 31.54 31.01 30.28 28.32 27.30 27.41 29.10 28.80 29.28 31.78 32.23 32.43 33.00 32.79 29.85
42.72 43.71 41.33 40.35 40.38 40.78 38.93 38.51 38.40 37.15 36.61 34.88 35.15 34.76 34.43 33.41 33.26 34.99 35.12 33.74 33.18 32.77 32.90 32.42 31.75 31.31 32.11 32.49 32.15 31.00 29.75 29.72 28.61 28.33 28.28 28.21 28.31 28.14 28.12 30.83 32.30 32.82 32.98 32.77
42.59 41.56 38.40 39.76 36.49 38.14 37.82 37.63 37.78 36.56 36.21 35.35 34.48 34.32 33.22 33.05 33.41 32.49 31.94 32.55 32.74 32.14 32.05 30.92 30.94 31.14 32.01 32.71 32.50 31.62 30.12 29.45 29.05 29.47 29.40 29.47 28.89 29.15 28.96 29.59 29.06 25.97 28.59 30.93
41.10 41.58 39.85 38.42 37.66 36.63 36.78 35.93 34.50 33.12 32.47 31.82 32.43 31.74 31.97 31.35 31.26 31.09 31.25 31.00 30.61 30.19 30.82 31.32 30.46 29.92 31.40 32.20 31.93 30.93 30.71 28.39 27.91 31.25 31.39 31.17 31.25 31.11 30.47 30.83 31.09 29.99 28.36 25.80
38.87 38.84 38.08 36.15 35.38 34.62 34.10 33.61 32.08 30.61 30.85 30.86 30.55 30.97 31.39 31.31 30.51 30.19 29.83 29.80 28.64 29.11 30.84 28.69 26.68 27.57 28.76 29.89 28.83 28.92 28.75 28.10 27.73 29.83 29.35 29.53 30.50 30.46 30.57 30.98 30.64 30.41 27.75 29.41
35.10 33.63 34.21 33.15 33.69 33.58 33.23 32.59 31.77 30.18 29.35 28.91 28.68 29.65 29.09 28.48 27.60 27.13 27.08 27.64 27.47 28.40 28.04 25.49 24.69 27.29 26.67 25.49 23.20 22.59 22.84 23.77 23.38 24.91 24.91 25.49 26.66 29.00 28.78 28.63 29.65 29.95 29.52 29.89
38.47 36.98 36.04 35.56 33.36 32.16 31.11 30.21 29.38 29.32 28.97 29.86 28.79 24.23 21.96 22.01 24.05 24.66 24.30 23.70 23.80 24.01 23.55 24.91 23.47 22.49 22.14 22.31 22.19 21.91 21.99 22.89 23.58 24.31 24.79 24.16 25.05 26.06 26.40 26.79 26.43 27.54 29.68 27.03
38.91 36.83 35.58 34.73 33.73 31.15 29.22 28.65 28.94 29.44 29.01 27.06 23.93 22.31 21.55 20.64 23.25 23.18 22.94 20.60 18.91 19.58 21.64 22.20 21.25 19.21 19.55 20.10 20.41 21.20 19.34 18.36 19.24 20.18 20.12 20.12 20.37 21.53 23.00 23.04 25.10 27.42 26.20 25.35
34.62 34.33 33.45 32.33 31.60 29.40 28.76 28.36 28.28 28.09 27.27 23.88 21.44 21.29 22.06 19.08 15.56 18.14 21.19 18.83 19.15 20.06 23.18 20.22 18.68 17.62 17.90 18.18 16.40 17.58 14.77 15.42 13.76 13.72 14.68 13.73 15.54 16.42 17.71 17.98 19.83 20.57 21.15 21.20
31.13 30.71 29.97 29.75 28.42 29.25 28.21 27.00 26.70 25.73 25.21 20.93 20.19 17.12 15.98 18.53 18.15 16.16 18.62 19.37 19.96 19.96 20.88 17.88 16.93 15.85 16.53 13.63 15.15 10.07 10.28 11.16 8.63 9.99 8.75 9.78 11.80 11.29 12.24 13.68 14.48 14.58 14.64 15.02
29.98 28.79 28.17 27.90 26.93 26.57 26.71 26.68 26.21 24.23 21.73 18.36 15.53 13.43 16.00 20.34 16.19 17.92 13.75 17.94 19.98 11.42 17.00 17.30 16.35 7.45 11.54 7.84 12.72 4.30 8.96 10.29 7.53 7.34 6.62 7.80 8.09 7.24 8.97 9.13 8.76 10.33 11.47 12.13
29.75 28.96 28.10 26.92 26.35 26.43 25.76 24.16 22.40 21.39 18.02 16.35 15.14 15.57 19.05 20.38 19.48 13.88 13.73 19.37 18.88 12.44 17.15 10.46 6.30 3.64 2.97 0.45 -0.37 -2.16 0.72 0.89 -1.32 2.42 2.22 5.41 4.77 4.31 6.39 5.07 5.40 6.33 7.12 8.35
30.12 29.15 27.95 27.10 26.29 25.15 23.55 23.86 24.15 22.12 18.39 20.08 15.23 13.15 19.71 14.41 10.06 18.08 16.53 9.44 4.72 3.24 3.43 2.73 2.73 2.92 0.10 -4.88 -3.61 -4.88 -4.33 -1.61 -6.87 -2.91 1.87 -0.98 -0.05 2.35 2.19 1.36 2.94 4.58 5.95 7.25
30.42 29.25 26.81 25.60 25.45 24.39 25.72 24.72 23.44 23.39 22.05 21.02 20.66 21.68 20.55 18.56 10.24 10.32 5.30 6.06 9.04 6.29 1.58 -1.43 1.47 0.74 -5.06 -8.32 -8.68 -7.60 -9.05 -6.69 -9.23 -3.80 -3.61 -8.87 -3.78 -0.99 -1.94 -1.22 0.30 1.68 3.52 5.04
28.02 26.07 24.61 23.95 23.11 23.04 22.63 21.58 19.61 19.47 18.02 13.25 12.51 4.01 12.30 14.00 13.01 9.62 4.41 3.00 4.77 3.40 -0.76 -5.78 -7.23 -6.69 -7.42 -2.17 -7.96 -7.78 -8.68 -6.39 -8.54 -3.10 -8.14 -9.42 -6.11 -3.88 -3.99 -2.62 -0.97 0.39 1.26 2.79
23.97 23.05 22.35 21.71 21.98 21.56 20.16 19.17 16.22 13.94 10.45 5.86 6.13 6.57 9.51 6.24 1.20 3.33 -3.06 -3.98 -3.61 -4.51 -7.42 -6.15 -8.50 -5.78 -6.15 -6.51 -3.79 -5.24 -8.32 -10.13 -10.32 -5.42 -14.12 -15.57 -11.60 -7.09 -5.80 -3.50 -1.66 -0.86 0.66 1.89

GFSNGP_sfc_wetblb_033.txt.gz
Wetbulb
36.51 37.74 39.99 39.11 39.20 39.44 37.12 36.28 32.01 35.52 35.12 39.84 39.78 40.77 40.73 41.23 42.28 44.49 48.27 48.11 47.39 47.98 48.78 49.39 49.35 48.80 47.22 45.96 46.75 46.97 44.27 43.37 44.16 44.16 44.56 43.34 42.25 41.06 40.38 39.94 39.67 39.38 38.93 38.81
34.03 37.72 37.11 35.50 38.34 37.85 37.66 37.93 37.28 36.98 36.49 39.38 39.85 39.80 40.88 41.19 42.63 42.86 44.24 46.77 47.60 47.90 48.48 48.93 48.58 47.61 46.18 45.77 46.14 44.62 44.15 43.90 43.85 43.97 41.89 41.36 40.12 39.09 38.42 38.34 38.76 38.89 38.54 37.92
30.15 32.91 32.31 28.63 33.68 36.43 37.69 38.91 38.53 33.33 37.59 38.71 38.97 40.40 39.63 41.00 42.62 43.13 43.86 44.75 45.74 46.88 46.68 47.11 47.19 47.52 45.26 44.43 43.69 42.97 44.12 44.05 41.98 39.94 38.54 38.27 38.77 38.63 38.31 38.39 38.59 37.57 36.79 36.25
26.91 27.35 20.77 36.07 39.35 39.18 37.17 36.75 37.51 38.04 38.48 39.65 39.97 40.00 41.18 41.38 40.94 41.20 41.58 41.09 39.71 39.31 43.66 45.37 45.28 43.71 43.36 43.38 42.34 40.94 39.42 38.64 38.82 38.57 38.45 38.83 38.77 38.64 38.56 38.31 37.57 36.84 35.62 35.30
26.24 26.09 31.24 35.63 37.27 37.48 35.66 34.19 38.87 37.94 39.34 40.70 41.73 41.17 41.55 42.97 40.63 38.94 37.92 37.36 36.78 36.75 37.17 37.62 38.63 39.47 37.79 36.87 37.05 37.16 37.35 38.87 39.43 39.65 39.29 39.16 38.31 37.88 37.89 37.42 36.55 34.73 34.87 32.94
25.72 23.21 22.54 33.83 38.35 41.52 40.47 29.96 40.46 39.98 39.70 40.20 38.78 31.14 38.26 39.91 38.51 37.37 36.99 36.99 36.30 36.28 36.11 35.57 35.91 36.91 35.97 35.60 36.19 36.28 38.30 39.20 40.04 39.67 38.92 37.72 37.65 37.32 36.53 35.90 34.44 33.00 31.34 30.76
21.74 22.32 28.21 36.35 41.16 40.96 30.52 32.11 40.73 41.21 40.90 40.21 37.88 38.74 39.01 37.61 36.66 36.88 36.64 36.27 36.87 36.76 36.14 36.09 37.01 37.48 36.57 38.15 38.28 39.62 40.93 40.77 39.91 39.51 38.45 38.31 37.30 36.56 34.96 32.42 30.69 28.87 28.82 29.03
25.24 21.68 25.16 40.44 40.21 34.23 36.55 39.14 41.34 40.86 40.97 40.88 39.60 37.43 37.08 36.75 35.87 36.07 35.10 35.49 36.13 35.68 35.52 36.32 37.48 38.46 38.22 37.52 38.94 39.52 39.68 38.90 38.43 38.11 37.04 35.78 33.47 32.05 31.01 29.66 28.09 28.06 25.82 27.69
32.98 31.95 39.06 40.51 39.71 40.96 41.82 41.10 40.94 41.99 42.59 42.95 37.18 36.17 36.55 35.33 34.98 34.27 32.86 32.48 34.16 34.14 34.30 36.24 37.36 37.92 36.50 37.39 36.87 35.87 34.25 33.38 33.12 33.17 33.18 32.55 30.92 29.65 28.69 28.21 26.00 26.75 27.28 26.94
34.72 38.65 39.78 41.24 42.32 42.63 43.00 42.06 42.35 43.45 43.21 40.01 35.79 36.23 35.06 34.78 34.20 33.39 32.44 32.41 34.17 35.08 34.84 34.40 35.66 35.74 35.01 34.84 33.64 32.66 31.49 31.39 31.49 30.76 30.69 30.67 30.40 29.89 28.68 26.13 25.57 27.85 27.68 26.87
36.01 39.35 40.91 40.94 39.92 38.91 38.69 39.03 38.44 38.40 38.05 37.22 36.41 35.52 35.07 33.79 33.32 33.42 33.82 35.39 35.73 34.75 34.31 34.09 34.84 34.04 32.72 31.99 32.39 31.18 31.17 31.01 30.71 28.67 29.12 29.18 29.56 29.65 29.44 29.29 29.25 28.21 27.66 26.93
33.62 41.51 39.98 40.12 39.67 40.14 38.80 37.75 37.80 36.64 35.52 36.01 35.74 33.71 33.60 32.84 33.72 34.06 34.41 34.90 34.39 34.23 33.64 31.66 30.71 30.61 31.36 32.07 30.99 30.32 30.30 29.88 28.70 28.26 28.42 28.75 28.52 28.99 31.80 32.36 32.21 32.68 32.15 30.61
40.82 42.72 40.24 39.67 39.08 39.42 37.98 37.50 37.08 35.72 34.52 32.76 33.81 34.03 33.73 32.53 32.56 34.65 34.54 33.43 31.90 30.20 30.10 29.59 29.64 29.40 30.37 30.68 30.83 30.36 28.71 29.87 28.98 28.44 28.21 28.01 28.46 28.70 29.37 31.24 32.77 32.79 32.83 33.12
40.47 39.85 36.62 37.62 35.74 37.48 37.03 36.62 36.44 35.01 34.70 34.26 33.50 33.26 32.11 30.99 30.84 30.24 29.60 30.45 30.64 30.01 29.96 29.38 27.31 26.37 28.10 29.80 29.78 29.45 28.88 28.60 27.13 27.33 27.04 27.31 27.29 29.20 29.64 29.07 28.52 29.12 31.91 31.27
39.23 40.59 39.32 37.34 36.49 35.41 35.57 34.71 33.36 32.48 32.35 31.19 31.66 31.22 30.96 29.39 28.78 28.56 29.18 29.65 30.44 29.93 26.93 25.74 25.01 25.63 28.16 26.57 25.08 25.48 24.59 24.77 24.26 24.07 24.54 24.74 25.24 25.11 25.85 26.56 27.23 28.81 29.82 28.38
37.34 36.83 36.29 34.75 34.04 33.93 33.42 32.30 30.50 29.20 29.79 30.23 30.22 30.43 30.38 29.70 28.43 27.71 29.01 29.86 28.21 24.96 23.61 20.35 24.34 23.38 24.14 23.20 22.49 22.36 21.76 21.92 21.36 22.92 23.05 23.24 23.33 23.24 23.83 24.20 24.19 24.33 25.25 26.23
34.38 32.75 33.25 32.38 32.19 32.21 31.83 31.77 30.81 28.90 29.11 29.33 28.67 28.63 27.67 27.10 27.44 27.12 26.78 26.77 23.22 22.32 23.72 21.60 20.28 21.61 22.13 21.87 21.49 20.81 20.74 20.84 19.31 21.40 20.59 20.29 19.80 19.85 20.80 21.39 20.77 20.95 24.21 26.94
38.64 36.97 35.95 34.57 32.29 30.69 29.98 29.88 29.38 29.23 28.68 28.42 24.45 23.05 23.36 24.23 24.02 23.94 23.45 22.83 19.97 19.72 21.48 20.73 19.72 19.86 20.19 20.09 20.25 19.29 17.29 17.29 17.19 16.03 17.35 15.48 15.37 17.54 17.58 17.29 18.10 18.52 18.22 18.91
37.39 36.00 35.14 34.56 33.82 31.39 29.63 29.08 29.08 28.96 27.10 25.38 25.29 24.06 23.45 23.59 23.76 21.99 19.71 15.42 13.90 18.00 20.11 19.46 19.52 17.69 17.43 18.12 17.44 15.60 13.68 12.46 11.05 13.04 11.66 9.87 11.28 12.39 11.61 12.68 13.49 13.58 14.25 15.31
34.77 34.29 32.84 31.31 30.58 29.38 28.70 28.77 28.22 27.65 26.72 25.30 24.38 23.11 21.15 18.53 19.84 17.59 17.49 17.33 18.65 20.30 19.96 18.19 17.17 16.19 15.31 15.19 11.71 13.41 9.59 5.45 7.95 7.85 6.68 6.47 7.30 5.49 7.09 9.49 8.46 8.64 9.39 11.32
31.26 30.77 29.87 29.07 27.83 27.69 27.51 27.44 26.04 25.34 25.71 23.65 21.63 19.85 19.91 19.97 18.32 16.35 16.70 17.59 18.85 19.66 18.94 16.45 15.45 14.67 14.27 11.19 12.63 1.93 2.30 -1.30 -0.67 3.12 -1.48 2.02 3.29 2.06 3.00 5.43 3.36 4.00 5.24 6.78
30.08 29.26 28.53 27.95 26.18 25.86 26.56 26.61 24.84 22.78 21.11 18.51 16.93 17.21 17.08 18.00 16.10 16.38 13.38 17.22 18.92 12.11 16.11 15.50 14.63 5.86 8.91 4.49 8.92 -2.75 2.82 1.44 0.18 -0.77 -1.12 -1.15 -0.45 -1.71 0.10 1.00 -0.40 1.92 3.09 3.29
29.92 29.18 28.41 27.31 26.31 25.90 25.55 23.96 21.97 20.68 18.92 17.79 17.13 18.16 19.20 19.28 18.32 14.28 14.78 18.30 17.72 10.83 15.31 7.84 3.17 1.19 -0.77 -6.20 -6.20 -9.10 -7.29 -7.65 -10.37 -8.37 -8.37 -12.36 -11.82 -8.01 -2.11 -2.99 -2.65 -0.85 0.15 1.34
28.45 28.00 27.23 26.19 25.18 24.23 23.60 23.85 22.62 20.94 18.50 19.75 17.09 15.98 19.23 14.69 11.88 17.55 15.76 8.94 4.45 0.87 1.56 -2.39 -1.12 -0.03 -4.93 -10.00 -10.55 -12.36 -11.27 -12.36 -14.90 -14.17 -8.55 -10.73 -15.62 -11.47 -8.93 -7.71 -5.40 -3.40 -2.18 -0.84
28.37 26.77 25.97 25.23 25.04 23.96 24.03 23.90 22.32 22.23 21.75 21.78 21.60 20.90 19.69 17.70 11.33 11.43 6.33 4.62 7.39 4.24 -0.94 -5.65 -1.85 -4.20 -10.55 -12.91 -13.45 -13.63 -13.99 -14.54 -16.53 -14.17 -15.44 -18.16 -13.28 -12.22 -11.67 -10.95 -7.89 -5.44 -3.39 -2.60
27.14 25.19 24.07 23.88 23.35 22.96 21.91 21.82 20.38 19.05 17.23 14.19 13.68 10.41 10.57 12.11 11.12 9.21 3.82 1.21 2.40 0.11 -3.30 -10.00 -11.27 -12.18 -12.72 -9.28 -10.19 -11.45 -12.36 -10.95 -15.26 -13.63 -16.89 -17.80 -16.00 -13.32 -13.31 -10.01 -9.05 -6.57 -5.37 -3.81
23.30 22.99 22.37 21.60 21.57 20.71 20.01 19.57 18.81 17.44 14.55 12.27 12.18 10.94 9.55 6.46 1.30 2.62 -5.29 -6.74 -7.47 -9.28 -10.00 -11.64 -13.09 -10.19 -10.55 -13.45 -12.36 -7.47 -9.64 -13.81 -16.17 -13.27 -19.98 -20.70 -18.18 -18.53 -16.02 -12.99 -11.24 -8.95 -7.38 -5.78

GFSNGP_sfc_wetblb_039.txt.gz
Wetbulb
39.10 40.01 40.33 40.28 40.61 39.78 39.18 40.11 38.27 40.55 37.87 43.13 45.74 46.14 46.30 45.04 45.41 48.06 49.82 51.10 51.79 52.92 53.76 54.03 54.03 53.64 52.94 51.56 50.20 50.00 48.88 48.50 47.84 47.91 47.18 46.11 44.75 42.67 42.40 41.89 41.51 41.14 41.65 42.09
36.79 38.87 39.65 38.97 39.96 40.28 40.16 39.36 39.39 39.65 39.98 45.02 45.29 44.60 44.17 43.57 46.49 46.53 46.13 46.80 47.75 49.10 51.04 51.88 52.55 52.87 50.88 49.88 49.15 49.40 48.26 46.67 46.45 44.80 43.69 42.77 41.78 40.96 40.11 40.11 41.62 42.18 40.37 40.61
33.97 35.51 37.16 33.63 37.66 39.85 39.86 40.85 41.96 38.31 43.99 43.99 42.92 43.24 43.82 44.42 44.69 43.50 42.69 43.22 43.68 44.71 45.81 47.07 48.47 49.90 49.07 48.28 47.86 46.97 46.19 45.36 44.44 42.32 40.29 40.20 40.72 41.05 40.16 40.98 41.32 40.30 40.57 41.42
32.43 32.15 29.58 40.36 41.12 41.82 41.15 41.66 41.90 41.26 42.18 42.94 43.29 42.59 42.61 43.46 43.90 41.43 40.97 40.86 40.69 41.79 42.14 42.67 44.72 44.79 44.87 44.67 43.75 43.08 42.32 41.80 42.28 41.99 40.99 41.00 40.78 41.41 40.20 40.68 40.70 40.89 41.82 40.03
32.36 32.23 35.45 37.89 39.58 39.84 39.13 40.62 42.89 41.69 41.59 42.03 42.76 43.37 40.51 39.78 40.84 40.02 39.37 39.16 39.05 39.89 40.16 40.95 41.52 42.12 42.12 41.96 42.07 41.93 41.49 41.71 42.03 41.61 41.91 41.90 40.01 40.59 41.95 41.15 41.74 39.81 38.51 38.00
30.03 31.06 29.72 39.25 41.86 42.74 43.17 35.65 43.13 42.46 41.85 42.14 42.90 41.24 43.09 39.57 39.11 38.51 38.78 39.23 38.79 39.10 39.71 39.82 40.20 41.68 41.11 40.90 41.23 40.71 41.72 42.25 43.00 43.32 42.88 41.73 41.68 40.30 39.17 38.69 38.38 39.49 38.66 38.67
28.86 33.67 35.15 40.66 41.72 43.48 35.65 39.54 43.08 43.52 43.75 43.78 42.26 42.92 42.02 39.08 37.84 38.58 38.58 38.27 39.19 39.54 39.07 39.97 41.57 41.88 40.73 40.82 40.20 41.71 42.33 42.50 41.75 41.16 40.08 39.46 39.41 40.23 39.60 38.87 38.08 37.34 36.05 37.20
31.09 32.66 32.92 41.99 40.49 39.19 44.29 43.11 43.72 44.36 44.72 43.72 40.14 38.50 38.36 37.69 37.06 37.50 37.49 38.04 39.32 38.92 39.10 40.17 41.04 40.57 38.99 38.31 40.44 40.83 38.88 37.28 37.23 37.66 36.93 36.88 37.02 37.21 36.97 36.63 35.60 35.38 34.75 35.20
38.83 39.38 44.60 42.72 45.57 44.96 43.97 44.82 43.61 45.08 44.45 42.11 38.87 37.96 37.58 36.24 36.45 36.72 37.08 37.66 38.70 38.10 37.10 37.71 38.34 38.70 36.54 36.59 37.00 36.27 35.71 35.08 35.21 35.28 35.18 35.33 35.38 35.33 35.07 35.30 34.29 33.88 33.44 33.82
40.53 42.74 42.21 43.16 43.78 45.08 44.52 45.02 44.48 45.71 44.68 42.59 40.01 38.17 36.31 35.65 35.56 35.81 36.87 36.43 36.74 36.08 34.84 34.01 35.22 34.88 35.32 35.07 35.63 35.46 34.81 34.33 34.32 33.95 33.74 34.16 34.28 33.87 33.46 33.13 32.63 32.21 32.21 31.80
39.20 40.65 42.61 44.04 44.47 44.97 42.93 43.61 43.08 42.53 42.43 41.25 39.07 36.70 35.92 35.15 35.29 35.62 35.79 35.80 35.98 34.48 33.58 32.89 32.90 32.35 32.63 33.32 34.73 33.34 32.84 32.03 31.51 31.17 30.95 30.99 31.23 31.16 30.60 31.72 31.25 30.03 29.92 30.31
38.51 43.95 44.14 44.54 46.05 42.96 41.96 42.10 42.12 39.98 38.72 39.38 38.70 36.19 35.88 34.99 35.71 35.70 35.07 34.82 33.81 33.11 30.96 29.99 29.52 28.45 30.11 31.24 30.90 30.28 28.76 28.62 27.54 27.82 28.15 28.16 27.75 27.94 28.91 28.06 28.20 28.33 28.87 29.52
43.70 44.34 40.47 39.70 41.21 41.82 40.59 39.98 39.73 39.57 38.23 36.72 36.83 36.31 35.72 34.88 35.05 34.38 33.86 33.38 31.85 29.19 27.99 27.87 26.63 26.16 26.78 28.04 27.71 26.86 25.90 25.67 26.18 25.76 25.93 25.42 25.13 24.59 23.79 26.17 26.37 26.47 25.98 26.35
42.27 42.17 39.88 39.50 39.62 39.29 38.32 37.32 37.36 36.65 36.54 36.11 35.68 35.55 34.92 33.85 33.09 32.43 31.81 30.64 28.84 27.64 27.47 27.51 25.61 24.12 25.44 26.08 25.78 25.08 24.93 22.97 24.01 24.52 24.38 23.81 23.45 23.05 23.24 22.25 21.54 22.88 24.25 23.63
40.79 40.51 42.28 39.24 37.66 35.86 35.91 35.61 34.14 33.11 33.22 33.74 34.62 33.94 33.45 32.00 30.71 29.92 30.08 28.05 27.79 27.30 25.47 24.62 23.39 22.81 24.99 25.27 23.92 23.14 23.23 22.45 22.20 22.82 22.31 21.06 20.75 20.81 20.94 20.10 19.86 19.75 20.74 20.51
37.80 37.94 37.95 37.15 35.04 34.55 34.76 34.36 32.97 32.30 32.49 32.40 32.32 32.19 31.65 30.37 29.83 29.21 27.54 27.87 26.33 23.61 22.91 20.41 21.28 22.91 23.60 23.65 22.36 21.71 21.20 19.12 18.92 19.60 19.29 18.24 17.88 17.70 17.32 16.93 16.90 16.77 16.33 15.78
35.16 34.22 34.36 33.84 33.73 33.35 33.39 33.96 33.45 32.59 32.09 31.65 30.47 30.21 30.05 29.51 28.54 27.10 25.80 24.26 22.31 21.15 20.73 20.52 20.63 22.36 21.92 22.16 20.27 19.82 19.27 17.92 15.55 17.51 16.27 15.15 15.00 14.87 14.04 13.77 14.26 13.65 13.35 13.59
39.04 37.02 37.16 36.00 33.87 32.73 32.30 32.75 32.53 32.22 31.11 30.05 28.99 28.61 28.05 27.40 25.14 24.18 23.33 21.75 20.71 19.56 19.56 19.48 19.99 20.41 19.84 19.14 18.17 17.35 15.58 15.07 15.49 14.26 13.90 12.11 11.54 11.66 10.94 10.47 11.74 10.64 10.47 11.09
36.59 34.60 34.21 33.52 33.46 32.17 31.66 31.04 29.73 28.63 28.21 28.01 27.61 26.13 26.24 25.25 23.80 22.92 22.53 20.77 19.38 18.77 18.14 19.44 18.92 17.86 17.40 17.04 16.15 15.11 12.98 11.98 12.44 12.12 10.76 8.57 8.87 8.41 8.02 8.42 9.24 8.57 8.12 8.12
33.62 33.22 32.50 31.77 31.78 30.67 29.02 29.01 28.89 28.07 28.14 26.98 25.95 24.66 22.94 21.98 21.57 20.92 21.75 20.80 21.14 20.37 19.60 18.29 17.37 16.00 15.29 14.54 13.36 13.47 11.69 10.29 9.80 9.48 7.79 7.04 6.55 5.95 6.11 4.61 5.40 6.06 5.95 6.27
30.71 30.48 29.70 28.95 28.34 28.93 28.53 28.71 27.69 26.43 26.58 26.78 25.42 23.47 22.07 20.69 20.32 19.74 19.42 18.72 19.05 19.80 18.49 17.22 16.55 15.87 14.94 14.20 13.49 11.92 10.59 9.16 8.09 7.16 5.84 5.25 4.33 4.24 3.76 3.48 3.83 4.05 3.94 4.41
29.15 28.37 27.79 27.71 26.93 26.38 27.60 27.98 27.15 25.86 24.34 22.95 22.54 21.66 20.53 19.53 18.92 18.79 19.63 19.59 20.11 18.31 18.03 16.94 15.43 10.70 12.15 11.62 12.18 11.22 10.40 8.32 7.20 6.46 5.93 4.68 3.47 2.04 1.83 1.64 1.16 1.88 2.38 2.38
28.77 28.48 27.58 26.20 25.03 24.59 24.76 24.35 24.06 23.44 21.86 21.58 21.32 21.46 21.34 20.57 20.50 18.91 17.14 18.40 19.24 16.59 16.69 15.06 10.99 8.20 6.32 11.26 10.45 9.10 8.34 6.28 5.66 4.78 4.30 2.81 1.82 0.73 -0.09 -0.51 -1.12 -0.15 -0.14 0.47
27.71 27.08 25.99 25.66 25.47 24.62 22.59 22.76 22.77 22.23 21.82 21.52 20.35 20.65 20.58 18.69 18.40 19.33 18.80 15.48 14.49 15.15 14.17 12.13 10.57 7.59 5.73 9.08 8.25 7.61 7.09 6.87 5.12 3.99 3.36 -3.31 1.51 -0.33 -0.70 -2.25 -2.94 -1.69 -1.95 -1.96
27.09 26.96 26.58 25.28 23.50 22.52 22.49 22.61 22.43 22.09 21.74 21.26 20.89 20.62 20.01 19.52 19.98 17.44 16.77 15.42 14.25 13.78 12.97 5.52 5.50 3.28 7.68 7.90 7.44 6.11 5.81 5.35 4.68 2.79 2.37 1.16 -0.19 -1.65 -1.80 -2.76 -4.42 -3.92 -4.22 -3.13
23.96 23.23 22.90 23.47 23.66 23.57 23.25 22.46 20.52 20.82 20.56 19.20 18.84 18.16 17.66 17.45 16.24 15.62 14.32 12.87 12.49 9.88 11.18 8.53 7.41 6.56 6.72 6.57 5.81 4.27 4.18 4.94 3.82 2.72 0.10 -0.23 -1.44 -2.62 -3.87 -5.15 -5.96 -5.46 -5.23 -4.53
19.87 20.54 19.74 18.67 19.27 19.71 20.04 20.47 19.33 18.16 19.09 19.47 17.50 16.60 15.35 14.65 13.43 12.92 10.35 10.76 9.77 8.55 8.01 7.77 6.85 5.07 5.63 4.63 4.01 4.13 3.67 3.78 0.53 1.48 0.68 -1.57 -3.10 -3.73 -6.07 -6.96 -7.16 -6.81 -6.80 -6.45

GFSNGP_sfc_wetblb_042.txt.gz
Wetbulb
44.36 44.64 44.68 44.07 43.80 45.24 43.95 44.91 41.77 43.88 43.87 46.91 48.61 50.27 51.00 51.10 50.53 51.47 52.68 54.47 56.59 58.42 59.53 59.96 59.96 59.52 59.70 58.58 58.03 57.91 56.77 56.36 55.21 55.09 54.38 53.24 51.77 51.39 50.20 50.59 47.05 43.87 43.09 42.26
41.79 44.56 44.22 42.71 44.65 44.97 45.53 45.50 45.45 45.55 44.69 49.86 51.19 51.85 50.85 49.59 50.37 51.45 52.16 53.33 54.90 56.50 57.46 57.41 57.57 57.59 56.33 55.83 55.29 55.86 54.42 52.80 52.31 51.27 49.44 48.62 47.16 46.30 43.11 42.46 42.67 42.23 42.98 42.34
37.80 42.94 42.67 38.09 42.92 44.72 45.72 47.16 46.70 43.09 47.35 50.31 49.64 49.81 50.77 50.50 51.29 50.89 50.70 51.18 51.56 52.20 52.86 54.03 55.00 55.59 54.34 53.64 53.54 52.71 51.61 50.50 49.23 48.09 45.79 44.82 43.65 42.35 41.54 43.36 42.00 42.08 42.50 44.53
39.40 37.28 32.87 43.85 47.61 48.37 46.51 47.35 48.81 48.07 49.01 49.66 49.84 50.60 49.92 51.62 51.03 49.05 48.89 48.77 49.33 50.21 50.92 51.93 52.50 52.12 52.13 51.80 50.67 49.81 48.73 47.72 47.28 46.80 45.04 44.79 44.07 44.00 42.80 42.93 42.12 42.90 43.53 43.19
38.22 36.90 41.52 42.21 43.62 44.72 44.71 45.46 49.50 48.51 49.23 49.39 48.52 48.24 46.38 47.81 50.19 48.92 48.21 48.16 48.34 49.12 49.59 49.94 49.77 50.16 49.57 49.13 48.63 47.74 46.78 46.39 46.35 46.51 45.85 45.56 44.82 44.89 45.57 45.68 44.80 44.18 42.29 39.71
37.17 35.83 34.00 43.62 48.23 49.57 48.26 42.02 50.05 49.71 48.99 48.54 47.78 44.39 48.32 46.55 46.30 45.90 46.86 47.16 47.01 47.70 48.07 48.23 48.48 49.09 48.20 47.21 46.84 45.61 46.03 46.03 46.44 46.39 45.82 44.99 44.87 42.77 40.13 40.27 40.05 40.97 42.21 42.96
39.32 38.99 42.26 47.06 47.55 48.78 40.27 44.05 50.03 50.51 50.26 49.31 47.14 49.89 49.34 46.83 45.75 46.43 46.11 45.69 46.78 47.38 46.79 47.12 47.96 47.92 46.33 45.92 44.65 45.42 45.60 44.85 43.76 42.10 40.20 41.32 42.72 42.99 42.99 42.50 41.60 41.24 40.13 41.08
40.66 38.43 36.48 47.24 45.62 44.71 50.61 50.46 51.17 51.12 51.29 50.39 50.12 47.53 46.09 45.48 44.39 44.37 44.30 44.65 45.96 45.49 45.53 46.35 46.71 45.82 43.50 41.59 42.86 43.39 41.58 40.12 41.29 40.80 39.60 40.13 40.27 40.66 40.27 40.15 39.06 38.68 39.22 38.84
43.40 43.82 50.96 49.13 51.42 51.88 53.21 52.11 50.70 51.54 51.56 51.55 46.75 45.60 45.21 44.21 44.11 44.20 44.74 45.07 45.43 44.68 44.00 44.74 45.33 44.96 42.04 41.01 41.09 40.82 39.87 39.29 39.37 39.55 39.48 39.76 39.62 39.20 39.23 38.86 37.70 36.71 35.63 35.69
43.35 48.51 48.53 50.37 51.71 51.08 51.00 51.49 51.28 51.82 51.75 49.72 47.06 45.77 44.67 44.08 43.59 43.62 44.52 44.06 44.02 42.47 40.93 40.09 41.40 41.29 40.70 40.23 40.42 39.68 38.77 38.19 38.38 36.96 37.45 37.30 37.66 36.41 35.55 34.72 33.64 32.63 32.36 32.17
45.71 49.27 47.45 49.43 50.91 51.76 50.29 49.79 49.22 51.20 51.10 49.21 47.68 45.56 44.64 43.42 42.94 43.55 43.37 42.53 42.29 40.86 39.37 38.36 38.59 38.14 38.86 38.93 39.34 37.85 36.69 35.64 34.82 34.31 33.75 34.34 33.86 33.26 32.24 32.83 29.85 29.50 30.34 30.21
44.99 51.00 50.31 52.06 52.97 52.88 50.54 48.40 49.45 49.52 48.76 49.43 47.64 45.26 44.50 43.15 43.38 42.61 41.38 41.13 40.22 38.93 37.28 36.06 35.46 35.10 35.12 35.80 36.65 35.07 32.98 32.47 31.21 32.49 32.84 32.69 32.15 32.45 27.72 27.22 26.72 26.90 26.32 26.88
48.77 48.61 49.91 48.36 48.42 52.28 49.90 49.32 49.68 48.94 49.23 47.11 46.67 44.90 43.75 42.09 41.81 39.68 40.47 39.79 37.93 36.01 34.02 32.03 30.85 29.91 31.22 32.61 32.72 31.68 30.63 30.00 30.52 30.23 30.42 29.58 29.82 29.01 28.30 29.60 26.71 25.79 25.00 24.56
47.66 46.29 46.17 45.30 46.30 46.14 47.70 47.75 45.96 47.61 46.78 45.94 44.33 43.40 42.37 40.79 39.12 38.97 38.13 37.58 35.72 33.64 30.60 28.94 28.39 29.19 30.63 31.16 30.55 29.56 28.15 25.19 29.60 30.00 29.02 28.60 27.87 27.27 27.67 25.68 24.58 25.70 25.56 23.25
46.51 45.73 44.36 45.39 44.98 44.25 44.25 43.62 42.43 41.57 41.90 41.65 42.21 40.56 39.82 37.56 37.32 37.19 35.88 33.90 32.41 30.33 28.80 28.41 28.95 28.28 29.84 29.40 28.44 27.96 27.95 27.24 27.53 27.60 26.40 24.66 25.77 25.50 25.13 24.04 23.40 23.45 24.07 23.58
42.50 43.80 42.79 42.44 40.78 39.93 40.28 40.77 40.59 38.17 39.27 38.57 38.49 38.57 38.51 38.06 35.65 34.36 32.95 30.78 27.18 26.30 28.00 25.62 25.71 27.03 28.07 27.91 27.32 27.15 24.60 21.09 22.81 25.46 24.92 23.99 23.77 23.16 22.39 21.72 21.51 21.72 21.04 20.36
40.25 38.73 39.41 37.74 38.08 39.30 39.21 40.39 39.28 38.22 38.06 38.28 37.51 36.89 34.73 33.14 30.60 27.95 25.47 24.30 24.10 24.15 24.73 24.63 24.64 26.14 25.70 25.54 25.79 25.82 25.97 23.47 19.19 23.96 22.58 21.38 21.41 20.75 20.14 19.60 19.24 19.31 19.17 18.93
43.16 42.61 42.35 41.92 39.85 37.47 37.27 38.40 38.01 36.68 36.00 34.95 31.74 30.50 29.08 27.73 24.91 23.77 23.39 22.59 21.70 21.09 21.41 22.19 22.93 22.89 22.77 22.56 22.79 22.16 21.96 21.66 21.68 20.82 21.12 19.72 17.73 18.55 18.14 17.38 17.07 17.02 17.37 17.17
41.34 40.29 40.39 39.52 38.99 37.93 36.50 34.01 32.00 31.03 30.63 30.54 29.71 27.55 26.88 26.30 24.69 23.94 23.25 21.88 20.73 19.53 19.68 20.87 20.39 20.49 19.73 18.74 20.17 20.77 19.52 19.34 19.51 19.08 17.74 14.19 17.38 16.51 16.25 15.32 15.16 15.46 15.27 14.90
35.46 34.75 34.18 33.78 33.55 32.31 30.41 30.40 30.49 29.66 29.46 28.46 27.64 27.05 25.76 24.58 24.51 23.51 23.89 23.23 23.14 21.40 21.09 19.82 19.44 19.29 18.58 17.17 16.95 18.99 18.18 18.05 16.78 17.09 15.57 15.18 15.15 13.98 14.38 12.30 12.14 13.40 13.70 13.81
30.33 30.51 29.25 28.50 28.66 29.38 29.68 29.89 29.45 28.57 29.35 29.56 27.60 25.56 23.68 23.62 23.92 23.43 21.54 19.55 19.91 21.01 20.45 19.83 20.18 19.83 19.19 18.60 18.65 18.76 17.87 17.03 16.23 15.54 14.60 13.95 13.13 13.17 12.58 12.29 11.96 12.02 12.11 12.25
28.95 28.12 28.06 28.21 28.14 28.46 29.11 29.04 28.64 27.58 26.43 25.03 24.30 23.71 22.39 21.84 22.14 21.65 23.39 22.83 21.68 20.88 21.07 20.79 19.37 15.52 16.25 13.18 17.84 17.86 16.40 15.24 15.09 14.37 14.01 12.97 12.04 11.08 10.50 10.29 9.66 10.05 10.04 10.62
28.82 28.28 27.83 27.22 26.49 25.98 26.55 26.54 26.32 25.95 25.08 24.85 24.82 25.43 24.48 23.98 23.97 22.45 20.04 21.53 22.28 19.91 20.60 19.84 14.98 13.16 10.86 17.24 16.98 15.25 14.50 13.12 12.67 12.53 12.13 11.75 10.74 9.87 8.79 8.44 8.09 7.59 8.09 8.24
28.09 27.50 27.10 27.48 27.57 26.02 23.86 24.39 24.90 24.76 24.08 23.97 23.80 24.07 23.84 22.71 22.40 22.69 22.06 20.15 18.87 19.10 19.04 16.94 15.52 9.99 10.47 16.25 14.96 13.83 12.94 13.08 12.29 12.23 11.63 7.04 10.02 8.86 8.34 7.25 6.13 6.74 6.10 5.53
27.73 27.39 26.93 25.94 24.68 24.61 24.80 24.88 24.14 23.84 23.32 22.89 22.88 22.80 22.99 23.80 24.59 21.91 21.37 19.21 17.13 17.33 18.13 11.74 9.12 8.09 14.34 14.28 13.36 12.15 12.10 12.12 12.03 10.85 10.10 9.49 8.53 7.54 7.40 7.16 5.11 4.95 3.65 3.85
23.71 22.88 23.17 23.92 24.61 24.84 25.02 24.93 23.66 24.19 24.09 22.76 22.24 22.92 22.39 21.65 20.50 20.01 18.98 17.35 16.85 13.87 16.68 16.48 15.15 13.77 13.60 13.03 11.92 11.04 10.91 11.15 10.62 9.95 8.41 7.87 7.60 6.74 5.97 4.87 3.39 3.23 3.32 3.15
20.43 21.34 21.50 20.50 21.37 21.49 21.88 21.99 21.57 20.89 21.82 22.39 20.90 21.26 20.53 20.19 18.69 18.12 16.25 17.00 16.42 15.51 15.27 14.72 14.36 12.44 11.75 11.44 10.98 10.91 10.42 10.26 8.62 7.88 6.85 7.16 6.43 5.86 4.64 3.11 2.44 1.97 1.10 0.41

GFSNGP_sfc_wetblb_045.txt.gz
Wetbulb
45.60 46.75 46.37 45.77 45.47 45.80 44.60 45.23 42.20 44.48 44.83 47.89 50.04 50.88 51.14 53.40 53.15 52.47 53.58 54.46 56.25 59.47 60.93 61.87 62.17 62.81 62.90 61.93 61.48 61.53 61.04 60.59 58.37 57.91 57.81 56.81 55.96 54.32 52.69 51.00 48.66 46.16 45.26 45.33
42.93 46.24 45.84 43.58 45.08 45.34 45.45 45.84 45.58 45.80 45.33 50.67 51.24 51.64 51.35 51.94 52.24 52.82 54.00 55.57 57.53 59.62 60.68 60.82 60.84 61.06 59.96 59.46 59.16 59.31 58.00 56.26 56.17 55.06 53.81 52.78 52.01 50.75 50.30 49.27 47.52 45.74 42.58 43.13
39.60 44.65 44.37 40.28 43.86 44.83 45.68 46.95 46.93 43.69 47.92 51.03 50.25 50.41 51.55 52.36 52.77 53.64 54.60 55.58 56.93 58.15 58.98 59.49 59.13 58.83 57.57 57.10 57.12 55.69 54.40 53.23 52.12 51.04 49.47 48.44 47.78 46.96 45.94 45.68 45.88 44.60 44.12 44.41
40.04 39.87 33.27 43.98 48.94 48.34 46.43 47.28 48.52 48.62 49.57 50.55 50.78 51.67 52.70 53.76 53.65 53.96 54.12 54.38 54.79 55.44 56.10 56.90 57.19 56.36 55.75 55.33 54.26 52.99 51.66 50.56 50.14 49.11 47.69 47.45 47.36 46.48 46.51 46.10 45.53 45.19 45.20 45.50
39.03 38.63 41.59 44.07 46.60 46.67 45.63 45.44 49.36 48.84 50.10 51.01 51.73 51.67 51.16 53.11 54.86 54.21 53.60 53.77 54.02 54.62 54.42 54.49 54.15 54.33 53.42 52.44 51.80 50.81 49.80 49.27 49.11 49.13 48.07 47.66 46.88 46.07 46.11 45.55 45.48 44.93 42.73 42.82
41.02 36.17 33.57 43.89 48.40 51.06 50.22 42.52 50.31 50.47 50.57 50.45 50.59 46.39 49.73 52.29 53.52 52.85 52.56 52.31 52.05 52.71 53.00 52.68 52.70 52.95 51.61 50.47 49.81 48.66 48.65 48.66 48.80 48.53 47.84 46.29 45.69 45.05 44.84 44.39 44.36 44.31 43.79 43.99
40.49 38.83 42.60 48.23 49.58 51.56 41.59 43.65 51.75 51.38 51.22 50.73 49.22 51.22 53.45 52.41 51.24 51.62 51.37 51.15 51.80 51.92 51.36 51.45 52.04 51.60 49.76 49.18 47.98 48.44 48.66 47.84 46.91 46.70 45.73 45.65 45.01 44.37 43.68 43.16 42.94 42.54 41.21 41.95
41.84 39.16 36.77 50.31 49.09 45.23 50.45 54.29 53.91 53.85 52.98 52.42 52.77 52.56 51.43 50.51 50.10 49.86 49.56 49.65 50.90 50.18 49.87 50.94 51.29 50.29 48.43 47.04 47.25 46.95 46.14 44.97 44.41 43.07 41.84 42.41 42.44 41.91 41.58 41.81 41.12 40.44 39.91 39.57
44.22 44.39 51.70 51.33 51.93 53.23 54.46 53.78 54.69 54.39 53.85 53.46 53.22 51.09 50.28 49.41 49.29 49.17 49.13 49.80 50.25 49.56 48.76 49.21 49.21 48.25 45.99 45.45 45.74 45.01 43.50 41.68 41.21 41.38 41.35 41.43 41.16 40.54 40.73 39.79 38.19 36.77 35.47 35.56
46.21 49.33 50.25 52.02 51.98 53.62 54.64 54.82 55.63 55.25 54.22 54.12 52.83 51.28 49.80 49.37 48.75 48.63 49.62 49.27 49.55 48.18 47.00 46.48 47.39 46.71 45.51 45.03 44.37 42.81 41.31 40.97 40.56 39.86 39.13 39.02 38.95 37.79 36.94 35.96 34.64 33.15 32.56 32.52
46.45 48.75 50.53 51.88 52.95 53.98 54.53 54.70 54.38 54.20 54.17 54.01 53.19 50.53 49.80 48.81 48.75 49.11 49.10 48.66 47.82 46.48 45.45 44.37 44.52 43.53 43.38 43.01 42.76 41.06 39.70 38.76 37.75 36.54 36.71 36.18 35.77 34.67 33.49 31.37 29.48 30.11 30.76 30.19
44.78 49.53 51.07 51.93 54.34 54.56 54.48 53.97 53.40 52.61 52.83 54.16 52.82 50.59 50.03 48.95 49.07 48.56 47.71 46.71 45.54 44.58 43.23 42.23 41.56 40.66 41.21 41.76 41.12 38.81 36.20 35.43 35.14 35.14 34.95 35.10 34.44 32.34 27.91 28.17 27.21 26.89 25.71 25.75
49.17 52.40 52.18 53.00 53.54 53.20 53.86 54.54 54.18 53.07 53.29 52.43 52.59 51.21 49.82 48.43 48.39 44.75 46.18 45.39 44.22 42.45 41.11 39.43 37.66 36.60 37.08 37.37 37.04 35.93 34.41 33.17 31.84 32.74 33.03 32.23 32.18 31.60 31.23 27.64 27.32 26.86 25.46 24.04
51.51 51.89 48.09 49.82 49.88 50.92 52.44 53.90 51.78 53.04 53.16 53.11 51.83 50.95 49.24 47.44 45.75 45.05 44.22 43.92 42.43 39.83 37.21 35.24 33.30 31.18 32.47 33.31 32.77 32.06 30.92 28.02 32.60 32.21 31.47 31.27 30.63 30.05 29.99 28.35 26.75 28.12 26.14 24.16
50.85 51.34 50.60 49.12 48.40 48.46 49.66 49.59 48.31 49.61 50.06 50.45 50.54 48.50 47.18 44.74 43.35 43.14 42.96 40.40 38.15 35.37 32.77 30.99 28.99 28.81 31.33 32.60 31.98 31.03 30.39 30.04 30.50 29.98 28.22 26.74 27.84 27.74 27.24 26.07 25.98 25.65 26.52 26.10
46.90 46.88 47.73 46.27 46.79 44.87 45.60 45.95 46.47 45.95 46.20 46.40 45.83 45.29 44.47 43.15 42.07 39.15 37.07 36.10 31.96 29.15 28.18 27.04 26.96 28.71 30.19 30.13 28.75 27.37 25.15 23.67 25.77 27.03 25.75 25.80 25.75 25.30 24.77 24.50 23.86 24.03 23.76 23.17
44.31 44.30 44.73 43.98 44.58 43.46 44.23 45.19 45.29 42.77 42.48 42.38 42.02 41.97 40.49 36.35 31.80 29.38 27.79 27.20 26.21 25.34 25.53 25.20 24.60 26.07 26.39 27.68 27.53 27.11 26.35 23.90 21.71 24.35 24.03 23.39 23.38 23.14 22.79 22.16 21.42 21.47 21.91 22.15
45.91 46.11 45.87 45.69 45.18 43.22 42.33 42.77 42.11 41.61 40.17 38.58 34.10 31.95 30.27 27.90 25.70 24.07 23.42 23.46 22.89 22.55 23.36 23.80 23.69 23.63 23.66 24.14 24.79 23.83 23.31 22.78 22.76 22.30 22.55 22.16 20.51 21.17 21.06 20.37 19.79 19.80 20.46 20.46
43.32 42.85 43.05 42.71 42.62 41.00 38.79 35.58 33.56 32.43 31.68 30.92 29.46 26.79 25.14 24.40 23.38 22.88 23.25 21.94 21.06 19.91 20.66 21.91 21.97 21.46 19.92 20.12 22.06 21.93 21.33 21.63 21.45 21.59 20.40 17.33 19.75 20.06 19.40 18.88 18.41 18.20 18.30 18.13
33.53 33.45 33.32 32.62 32.76 31.96 30.62 30.82 30.24 29.00 28.72 27.82 26.68 25.23 24.01 23.88 24.20 24.21 25.06 23.71 23.28 21.48 21.47 20.79 20.98 19.89 19.15 18.83 19.93 21.53 20.90 20.72 19.54 19.52 19.74 16.97 18.50 17.45 18.00 16.70 16.48 16.77 17.13 17.28
29.06 29.35 28.78 28.64 28.83 29.74 29.97 30.36 29.69 28.67 28.75 27.91 26.33 25.11 24.35 24.77 24.29 24.16 22.03 19.22 20.84 21.67 21.21 21.34 21.44 20.58 20.15 20.16 20.55 20.87 20.25 19.80 18.53 17.78 17.24 17.12 16.57 17.23 16.51 16.24 15.92 15.63 15.56 15.31
29.35 29.38 29.04 29.00 28.36 28.22 29.01 28.97 28.10 26.70 25.43 24.35 24.37 24.30 23.49 22.87 23.37 24.24 24.22 21.04 21.05 21.51 21.87 21.53 20.37 18.04 18.56 16.29 20.34 20.36 18.91 18.00 16.89 16.82 16.49 16.28 15.65 14.57 14.44 14.19 13.66 13.83 13.44 13.26
29.14 28.68 27.87 27.00 26.79 26.98 27.62 27.71 27.85 27.71 27.05 26.62 25.80 25.77 25.22 25.05 24.70 22.25 20.16 22.21 22.30 22.39 22.81 20.92 17.14 15.73 13.32 19.62 19.52 18.36 17.24 16.31 15.75 15.65 15.26 14.80 14.24 13.62 13.06 12.35 12.26 11.77 11.41 11.29
28.02 28.02 27.73 28.25 27.79 26.44 24.66 25.36 25.43 25.41 25.19 25.20 25.52 26.33 25.63 23.98 23.21 23.76 23.75 21.70 20.81 22.05 21.23 19.37 16.78 12.93 13.40 18.12 17.45 16.54 15.63 15.84 15.36 15.23 15.03 12.96 13.24 13.05 12.38 11.64 10.51 11.09 10.04 9.52
26.14 27.08 27.55 26.81 25.65 25.65 25.72 26.17 25.55 25.16 24.87 24.53 24.68 24.63 24.73 25.15 24.75 23.53 22.78 20.59 19.11 20.01 19.80 14.92 13.50 12.95 16.27 16.41 16.01 14.91 14.56 14.46 14.91 13.53 12.02 12.13 11.98 11.31 11.34 10.87 9.80 9.27 7.89 7.27
23.56 23.41 23.36 23.60 24.54 25.31 25.47 25.02 23.69 25.11 25.02 23.62 23.45 23.83 23.41 23.07 22.56 21.72 20.32 19.44 18.74 17.79 18.00 17.95 16.78 15.61 15.85 15.78 15.11 13.91 13.69 13.29 13.22 12.86 11.50 10.78 10.86 10.60 10.15 9.30 8.68 7.69 7.07 6.76
21.74 22.47 22.50 21.61 22.29 22.17 22.33 22.15 21.57 20.42 21.34 23.58 21.35 21.89 21.65 21.17 20.55 19.67 19.07 18.80 17.94 17.30 17.12 16.74 16.37 15.10 13.87 13.10 12.55 13.27 13.27 12.68 11.96 10.90 9.95 9.21 9.36 9.00 8.45 7.94 7.11 6.27 5.09 4.12

GFSNGP_sfc_wetblb_048.txt.gz
Wetbulb
44.40 45.55 46.38 45.53 45.19 45.30 43.94 44.69 41.47 43.79 43.73 47.23 49.28 50.37 51.63 53.44 53.73 53.15 52.85 53.73 54.82 56.77 59.64 61.10 61.62 62.15 62.56 61.77 61.74 61.94 61.26 58.98 56.95 56.74 56.39 55.00 53.27 52.46 50.86 49.88 48.26 45.87 44.74 44.22
41.27 44.96 45.06 43.85 45.75 45.62 45.23 45.34 45.13 45.63 44.93 49.97 50.95 51.26 51.51 51.27 51.75 52.14 52.55 53.17 55.24 56.64 59.83 60.57 60.93 61.43 60.90 59.82 59.78 60.17 57.61 56.54 56.29 55.82 55.38 54.59 53.33 51.66 50.21 47.47 45.52 44.67 43.60 42.50
36.51 43.44 42.86 37.71 44.45 45.39 45.71 46.46 46.07 42.54 47.36 50.35 49.76 50.40 50.92 51.65 52.32 52.39 52.95 55.10 56.55 57.90 60.00 60.46 60.46 59.71 58.79 58.47 58.34 56.59 55.10 54.31 53.05 51.56 49.39 48.33 47.28 46.51 45.59 44.15 44.25 42.54 42.15 42.49
35.51 38.27 31.37 43.44 48.90 48.13 46.01 46.42 47.53 47.39 48.30 49.62 50.31 51.65 51.95 53.75 53.88 53.78 54.76 55.34 56.99 58.46 58.92 58.74 58.66 57.91 57.10 56.43 54.68 53.26 51.85 50.89 49.80 48.43 46.86 46.23 45.85 44.85 44.00 43.94 43.23 42.89 42.67 43.68
35.85 34.63 40.62 43.32 46.29 45.64 44.65 44.14 48.50 47.46 48.51 49.60 50.77 52.63 52.78 54.23 55.27 55.39 55.31 55.90 56.24 57.00 57.47 56.97 55.62 55.42 54.37 52.99 51.81 50.51 49.41 48.88 48.46 47.78 46.86 46.43 45.21 44.58 44.90 44.89 44.33 43.68 43.17 42.59
40.00 33.06 30.77 42.81 47.89 50.02 49.53 39.75 49.66 49.56 49.76 50.27 50.97 45.87 49.20 52.98 54.72 54.71 54.96 54.73 54.39 54.82 54.63 53.87 53.46 53.23 51.53 50.19 49.76 48.64 48.69 48.54 48.81 48.28 47.06 45.72 45.07 44.69 43.85 43.66 43.21 43.12 42.90 42.55
37.74 36.32 41.02 47.16 48.86 50.19 39.30 41.27 51.38 52.04 51.09 52.07 49.74 51.13 53.39 53.42 53.75 54.09 53.58 52.92 53.33 52.91 51.79 51.89 52.39 51.66 49.77 48.96 47.85 48.63 48.68 48.10 47.34 46.68 45.52 45.13 44.39 43.95 43.36 41.84 41.30 38.32 37.48 37.97
39.12 36.58 34.15 50.18 48.48 43.41 48.49 52.70 53.92 53.19 54.16 55.17 54.39 52.91 52.32 52.65 52.20 51.93 51.14 51.30 51.84 50.88 50.66 51.15 51.45 50.25 48.32 46.95 47.80 47.33 46.50 45.08 44.85 44.91 43.96 43.18 40.98 40.06 39.57 39.29 37.42 35.70 34.76 34.05
42.05 42.26 49.75 50.72 49.45 52.19 53.72 54.26 54.23 54.14 54.92 54.86 53.41 51.91 51.75 50.87 50.67 50.43 50.40 49.99 50.94 50.21 49.63 50.09 50.39 49.66 46.97 46.12 46.38 45.34 44.66 42.50 40.58 40.98 41.09 40.97 39.61 38.20 37.55 36.81 33.71 31.43 30.52 30.70
42.00 45.27 48.24 50.63 51.28 52.88 53.01 52.87 54.69 55.27 55.41 55.82 52.78 52.06 50.81 50.62 50.02 49.49 49.93 49.46 50.01 49.27 48.05 47.67 48.53 48.19 46.56 46.03 45.62 43.34 40.47 39.81 39.66 38.46 38.05 37.86 37.08 36.03 34.81 31.57 30.40 29.69 29.25 28.28
44.78 46.93 48.10 48.86 49.59 51.86 53.53 54.71 54.84 54.29 54.35 53.19 53.43 52.11 51.06 50.07 49.56 49.45 49.31 49.70 49.36 47.80 46.72 46.37 46.88 45.52 45.35 44.73 43.30 41.09 39.98 38.67 36.60 35.80 35.29 34.36 30.94 31.35 29.06 27.45 27.85 27.55 26.90 26.86
43.69 48.79 48.32 49.75 51.70 53.72 52.55 51.83 53.37 53.71 53.10 53.28 53.62 52.56 51.40 49.92 49.77 49.40 49.10 48.85 47.80 47.02 46.02 44.88 43.98 42.88 42.52 42.65 41.61 39.04 36.28 34.68 33.56 32.91 32.35 33.38 30.60 28.32 29.63 27.98 27.73 26.91 25.92 24.93
48.08 52.30 51.31 52.56 51.77 53.11 52.11 52.16 53.95 54.20 53.50 52.10 53.61 52.71 51.42 49.53 49.56 46.75 48.80 47.34 46.29 44.73 43.22 41.95 40.19 39.32 40.00 39.48 38.31 35.57 31.85 32.54 31.18 31.38 30.63 29.59 29.37 29.71 24.96 26.45 27.76 27.13 26.10 24.96
48.56 49.90 48.36 49.63 49.56 50.72 50.33 51.27 52.34 53.96 53.21 52.76 52.88 52.38 50.57 49.32 47.91 47.92 46.29 45.92 44.80 42.31 39.58 36.94 34.53 32.38 33.59 32.67 31.54 29.74 29.63 30.97 31.02 30.18 29.78 29.50 28.58 28.42 28.22 26.64 25.41 24.79 25.42 24.92
48.28 49.69 50.23 50.38 49.49 49.48 49.30 49.58 49.51 49.75 50.86 50.42 51.63 49.40 48.74 47.07 45.66 45.01 44.92 42.48 39.75 36.85 34.11 32.27 30.50 30.53 32.29 32.27 30.88 29.81 29.08 28.91 28.90 27.55 25.98 25.89 26.72 26.74 26.43 25.76 25.40 24.81 25.52 24.38
47.02 47.46 47.78 47.42 47.52 47.41 45.63 46.11 45.29 45.62 46.51 46.95 47.13 46.73 46.39 45.08 43.25 39.72 38.17 35.56 31.53 29.40 28.21 26.61 26.73 28.15 29.71 27.96 25.96 24.63 24.96 25.16 26.84 26.25 25.39 25.26 25.16 24.40 24.20 23.93 23.36 23.26 22.72 22.13
43.46 43.03 43.97 44.18 45.89 46.13 44.86 45.49 45.95 44.74 43.44 42.15 39.43 38.16 35.29 28.86 26.71 25.85 25.68 25.91 25.05 24.61 24.93 24.64 23.24 25.23 26.53 27.53 27.27 26.07 24.24 22.69 23.16 24.22 23.34 22.77 22.99 22.79 22.32 21.85 21.19 20.86 20.54 18.56
43.22 44.19 44.08 44.09 44.37 44.40 42.28 40.15 38.31 35.70 33.55 31.25 29.31 27.72 26.21 24.60 23.12 22.77 22.71 23.11 22.31 22.04 22.86 23.64 23.55 22.88 23.30 23.82 23.49 23.36 22.90 22.52 22.61 21.93 22.36 21.79 19.74 20.55 20.62 20.06 19.68 18.79 18.93 18.89
35.59 35.32 35.44 35.90 35.98 34.25 32.49 31.35 30.56 30.27 28.76 27.54 25.17 23.29 23.17 22.82 22.36 22.10 22.25 20.91 20.04 19.11 20.56 22.58 22.27 21.02 20.68 21.94 22.08 22.02 21.81 21.75 21.34 20.99 20.00 17.77 18.97 20.13 19.40 18.85 17.88 16.94 16.55 16.83
29.73 30.34 29.93 29.46 29.81 29.35 28.23 28.36 27.75 26.62 26.56 25.34 24.29 22.69 21.51 22.68 23.56 23.18 22.41 20.48 20.79 20.82 22.11 21.67 20.89 19.29 18.87 19.29 21.04 20.92 20.46 20.03 19.19 19.25 19.58 16.56 17.74 17.84 17.07 16.64 16.78 16.10 15.89 15.63
28.12 27.99 27.23 26.76 26.66 27.31 27.76 27.39 26.42 25.53 25.84 25.51 23.90 22.40 22.05 22.68 22.81 21.88 19.62 17.75 20.67 22.06 22.14 22.02 20.61 19.49 19.28 19.55 20.18 20.94 20.05 19.24 18.47 18.13 17.67 17.42 17.00 16.68 16.41 15.40 15.43 14.48 13.74 13.83
27.38 26.76 26.48 26.60 26.34 26.10 26.50 26.09 25.42 24.73 24.20 23.68 23.68 23.64 23.22 22.63 21.88 21.51 21.61 19.45 21.04 22.10 21.69 20.19 17.87 17.30 17.20 18.07 19.67 19.72 18.61 18.20 17.26 17.12 16.42 16.32 15.27 14.10 13.72 13.75 12.75 12.50 12.10 9.84
27.36 26.98 26.36 25.23 24.66 24.63 25.16 25.24 25.35 25.24 24.42 24.65 24.31 24.11 23.46 24.16 23.79 20.49 18.40 22.54 23.46 23.31 20.12 17.67 16.73 16.24 15.58 19.04 18.98 18.31 17.45 16.22 15.83 16.02 15.43 14.69 14.21 13.06 11.72 11.71 10.83 9.84 8.81 9.63
26.85 26.65 26.06 26.24 25.70 24.49 23.12 24.34 24.66 24.45 24.04 24.15 23.59 24.72 25.00 22.10 21.68 22.37 22.08 21.73 20.71 19.41 18.20 17.35 15.57 14.46 12.63 17.91 17.62 16.66 15.62 15.11 14.63 14.88 14.58 12.36 13.04 12.97 11.87 10.13 8.77 8.50 8.66 6.97
23.87 24.43 25.35 25.10 24.66 24.87 25.53 25.67 25.08 24.65 23.90 23.10 22.96 23.04 22.49 23.44 21.78 21.01 20.65 19.76 19.27 20.08 16.26 14.48 13.50 12.61 16.42 16.41 15.76 14.68 14.06 13.81 13.31 11.20 11.07 10.38 10.53 10.12 9.87 9.66 7.95 7.97 5.64 3.11
22.87 21.87 21.77 22.11 22.05 22.80 23.54 22.58 20.46 22.36 22.70 21.11 21.76 22.23 22.20 22.52 21.55 20.60 19.49 18.56 18.12 17.44 17.13 17.48 15.41 14.53 14.94 13.63 12.52 12.43 12.85 12.97 12.38 11.76 10.44 9.63 8.56 7.56 7.65 7.94 6.87 6.68 5.54 4.60
19.76 20.69 20.28 19.86 20.79 20.40 19.47 19.45 19.44 18.17 19.67 21.05 19.25 20.29 20.47 20.60 19.35 18.87 18.32 17.59 17.18 16.71 15.88 15.63 15.56 14.04 13.58 11.73 11.81 11.67 11.01 10.97 10.63 9.69 8.40 7.80 7.20 6.81 6.63 6.01 5.28 4.16 2.96 2.10

GFSNGP_sfc_wetblb_051.txt.gz
Wetbulb
41.02 42.94 44.35 44.28 43.72 43.39 42.06 42.15 36.92 39.95 41.95 44.70 45.83 45.21 47.18 48.94 49.29 48.81 49.07 49.65 50.37 53.59 54.57 55.78 57.10 58.16 58.31 58.76 60.08 60.74 59.58 57.50 55.38 54.68 54.03 53.40 51.93 51.07 50.28 49.13 48.04 47.61 46.13 44.86
38.56 42.66 43.35 41.41 43.43 43.41 42.88 43.69 43.60 43.24 42.37 48.19 47.91 48.48 47.55 49.17 49.55 48.22 47.99 48.72 49.81 52.21 56.75 57.76 58.38 57.62 57.33 57.05 56.80 57.33 56.18 55.24 55.29 54.89 53.97 52.54 51.08 49.92 48.80 46.58 45.34 44.36 43.60 43.45
32.43 40.61 39.94 33.71 39.50 42.96 43.86 45.31 43.37 38.44 42.29 46.75 46.78 46.84 47.68 47.42 48.53 48.73 48.66 49.38 51.21 53.17 56.89 56.96 57.81 57.29 55.87 55.47 55.41 54.51 54.26 54.75 54.09 51.90 50.74 50.81 50.25 47.68 44.38 41.88 40.79 39.97 39.56 40.11
31.20 35.13 28.23 39.59 45.70 46.13 45.13 45.49 44.85 43.16 43.06 45.00 46.59 46.88 47.25 47.65 47.55 48.10 50.32 51.51 52.74 55.91 55.77 56.50 56.40 55.84 54.50 53.32 51.96 50.87 49.43 49.25 48.95 47.25 45.50 45.27 44.43 43.30 41.58 40.91 39.74 39.46 39.69 40.11
31.79 31.97 36.26 40.69 43.98 43.86 42.38 41.31 45.36 43.40 44.13 44.91 45.99 46.68 45.29 49.24 49.84 50.00 50.62 51.61 52.83 54.20 54.95 53.72 53.83 53.56 52.24 50.93 49.27 48.32 47.51 46.84 45.84 44.53 43.68 43.21 42.08 41.29 41.32 40.89 40.24 39.90 40.37 39.63
31.08 28.80 27.52 37.53 45.13 48.54 46.90 36.57 45.87 46.04 45.12 45.60 45.33 37.55 41.76 48.00 50.83 50.68 51.09 51.07 51.63 52.03 51.91 52.26 50.86 51.14 49.73 47.78 47.26 46.43 46.42 45.86 45.56 45.30 44.24 42.95 42.12 41.82 41.09 42.41 42.14 41.03 40.48 40.32
28.89 27.86 34.29 43.51 47.00 48.64 35.96 36.96 46.86 48.10 46.85 46.20 42.88 44.02 47.34 48.75 49.29 50.48 50.57 50.25 50.41 50.10 49.28 48.71 49.14 48.99 46.85 46.43 45.47 46.46 46.66 46.02 45.03 44.34 43.23 43.14 42.69 41.63 41.01 40.22 38.74 35.52 34.49 34.30
33.98 31.11 29.39 45.17 45.96 40.68 43.18 47.13 48.13 48.44 47.67 48.92 47.66 47.66 48.09 49.00 49.28 49.15 48.11 48.54 48.50 47.62 47.03 47.20 47.56 47.32 44.88 44.00 44.79 45.11 44.29 43.62 43.52 43.37 43.63 42.83 40.86 38.93 37.92 36.59 33.42 31.62 31.46 30.09
36.60 34.95 44.42 45.15 46.13 49.22 49.50 49.25 49.31 48.63 49.98 50.07 48.31 47.35 47.72 47.30 47.43 47.24 46.80 46.31 46.86 46.38 46.01 46.10 46.15 46.40 43.66 43.08 43.82 43.26 42.95 42.57 42.06 40.63 40.34 38.25 35.66 34.77 34.94 33.35 29.96 28.28 28.87 28.32
38.71 42.20 43.29 44.99 47.55 49.38 50.15 48.13 49.84 50.53 49.06 50.44 49.67 49.06 48.12 46.94 46.49 45.76 44.93 44.99 45.54 45.63 44.68 44.08 45.07 44.69 43.85 43.45 43.60 42.57 38.62 36.91 36.41 35.68 35.23 33.70 34.30 32.75 29.75 26.88 26.43 27.24 26.94 26.26
39.94 43.02 44.94 46.44 47.29 48.81 50.31 50.66 49.95 50.86 49.62 48.49 49.25 47.73 47.94 46.96 46.27 45.36 45.45 45.24 45.88 44.78 43.68 42.97 43.71 43.26 43.23 43.01 40.40 37.82 37.04 35.87 33.82 32.59 29.49 28.49 29.24 27.69 25.07 26.60 28.13 25.62 25.53 26.34
35.03 45.15 44.64 45.64 48.19 50.52 49.38 49.08 50.50 49.86 49.89 50.09 49.68 47.72 47.43 46.53 46.48 46.00 44.97 44.82 44.71 43.96 43.21 41.71 41.72 40.67 40.45 39.60 38.29 35.69 32.78 31.51 29.30 29.03 28.73 28.04 26.88 25.87 28.55 27.84 28.15 27.76 27.33 25.92
43.10 45.88 47.70 48.25 49.54 50.85 49.11 49.62 50.05 48.93 50.32 49.40 49.30 48.89 47.74 46.35 46.30 43.19 44.77 44.41 43.79 41.54 39.23 36.50 31.07 30.27 32.70 35.13 33.84 32.01 29.78 30.29 29.17 28.80 28.44 28.19 26.66 24.98 23.42 26.39 27.61 27.02 26.56 26.20
46.73 46.65 43.37 44.64 43.78 46.63 46.79 47.44 48.35 49.03 48.87 49.29 49.50 47.70 46.82 45.58 44.54 44.12 43.22 41.64 38.83 34.33 31.02 29.95 28.99 28.06 29.98 30.94 30.65 29.92 29.56 29.35 28.52 27.82 27.32 26.77 26.27 26.93 26.02 24.59 23.46 23.93 25.77 24.98
43.90 45.27 44.71 45.60 45.54 44.47 44.86 44.83 44.46 44.46 44.99 45.34 46.55 45.28 44.94 42.93 41.80 40.07 38.28 34.96 31.99 30.14 29.22 28.53 27.94 27.08 27.88 28.38 27.99 28.11 27.77 26.64 25.34 24.82 25.53 25.48 25.80 25.73 25.33 24.69 23.99 23.91 23.91 22.69
42.80 43.61 43.58 43.29 43.98 43.02 42.79 42.61 41.67 40.07 38.52 36.69 35.65 33.35 34.71 34.44 33.20 32.04 31.82 30.13 26.01 22.76 23.65 24.12 25.51 26.57 26.81 26.25 25.90 25.78 25.82 26.01 25.74 25.37 25.02 24.56 24.37 23.73 23.26 23.03 22.65 22.28 21.56 20.34
37.42 35.41 37.33 37.51 40.57 37.06 36.54 36.13 34.23 32.31 30.68 28.65 27.76 27.61 26.28 25.04 24.24 23.46 23.32 23.74 22.83 22.22 22.79 23.17 23.47 25.67 26.22 26.67 24.75 23.42 23.26 23.94 24.03 23.71 22.80 22.51 22.32 21.92 21.70 20.80 20.20 19.82 18.95 16.04
36.64 35.75 35.73 35.20 34.57 33.20 31.51 31.05 29.32 27.83 26.22 25.94 24.94 24.43 22.98 21.79 21.01 21.36 21.87 22.30 21.11 20.25 20.86 21.77 22.80 23.33 23.41 23.97 23.92 23.50 23.18 23.18 22.92 21.92 22.55 20.26 18.99 20.00 19.66 19.22 18.85 17.95 17.43 17.05
32.34 31.40 31.38 31.09 30.17 28.70 26.99 26.08 25.48 25.10 24.03 23.55 22.68 21.47 21.81 21.88 21.67 21.24 21.03 19.50 18.44 17.30 18.85 21.01 22.22 21.14 21.86 23.01 22.89 22.24 21.59 20.91 21.10 20.05 19.52 18.15 18.35 19.02 17.55 16.45 15.06 14.58 15.04 15.45
27.36 27.72 27.29 26.94 27.25 26.56 25.23 25.24 24.89 24.08 24.31 23.59 22.70 21.07 19.72 19.96 20.12 19.36 19.44 17.95 19.08 19.54 21.16 20.75 20.31 19.77 20.18 21.39 21.43 20.72 20.10 18.83 18.77 18.47 16.71 15.97 15.47 14.02 14.29 15.19 14.91 12.99 11.20 11.22
25.62 25.46 24.81 24.06 23.60 24.12 24.13 24.27 23.44 22.59 23.27 23.25 21.67 20.61 20.10 20.52 20.46 19.87 17.89 16.47 20.25 21.95 21.66 20.90 20.14 19.08 18.97 19.57 20.75 19.55 18.44 17.41 16.88 16.87 15.48 14.08 13.16 14.19 12.91 10.64 10.38 9.27 6.43 6.42
24.42 23.67 23.59 23.90 23.55 23.55 24.45 24.69 24.40 23.92 23.25 22.57 22.07 21.13 19.93 19.04 18.79 18.79 19.79 18.55 21.10 20.49 18.75 17.67 17.01 16.56 16.78 18.74 19.41 17.90 17.46 16.46 15.68 15.09 13.11 11.00 8.28 6.06 4.65 4.23 3.54 2.52 0.98 -1.18
24.28 24.10 23.71 22.75 22.36 22.51 23.44 23.47 23.18 23.02 22.04 21.90 21.17 21.58 21.27 21.49 21.10 18.57 17.62 21.49 19.50 17.68 17.00 15.86 15.28 14.36 15.07 17.49 16.55 14.98 13.11 11.78 11.29 10.76 10.43 9.97 9.69 5.67 1.72 1.93 3.70 -0.03 -3.05 0.53
24.81 24.97 24.68 24.49 24.10 22.87 21.35 22.58 22.82 22.25 21.79 21.74 21.38 22.34 21.30 18.89 18.50 20.11 19.46 17.72 16.64 15.93 14.66 13.91 13.60 13.05 12.30 12.45 11.38 9.38 7.66 5.26 5.22 4.75 4.64 2.13 -1.31 0.01 3.35 -0.38 -1.77 0.86 -0.21 -3.05
21.05 20.80 21.11 21.41 20.82 19.89 21.50 23.25 22.08 21.41 20.93 20.63 20.70 20.69 20.16 20.53 17.82 18.09 17.66 17.41 16.78 14.19 12.17 11.34 11.50 10.53 10.61 7.47 6.50 5.53 4.54 6.58 6.18 3.19 5.46 2.66 -1.42 -5.58 -5.94 -1.07 1.94 0.85 -1.12 -3.06
19.76 18.86 18.79 18.95 17.99 18.66 19.30 18.64 17.46 19.50 18.52 17.43 17.77 18.01 18.02 18.67 18.50 17.53 16.22 14.79 14.39 13.70 13.44 9.76 10.56 9.08 5.11 2.90 -0.66 -2.02 -1.46 0.85 5.13 3.91 -2.33 -4.49 -6.85 -6.49 -2.69 -0.38 -1.28 -2.16 -5.76 -10.66
16.34 17.02 16.81 16.85 17.02 15.76 14.49 14.96 14.37 13.46 15.35 15.17 13.83 14.59 14.90 13.82 12.49 12.73 10.70 11.95 10.66 8.47 5.49 5.78 8.26 6.74 4.67 1.26 2.48 -1.14 -3.61 -4.50 -3.59 0.85 -3.40 -8.66 -11.20 -11.93 -5.22 -5.58 -9.02 -12.83 -14.83 -15.01

GFSNGP_sfc_wetblb_054.txt.gz
Wetbulb
40.34 41.83 42.16 40.97 41.26 42.16 39.50 39.31 36.01 38.79 40.04 43.48 44.56 45.10 46.16 46.71 47.35 47.12 47.18 47.21 50.40 51.56 51.82 53.58 55.10 55.65 56.70 57.49 58.48 58.80 57.92 57.28 57.44 58.70 58.48 57.98 57.73 55.35 53.27 52.89 51.40 49.63 47.52 46.56
36.55 41.07 41.69 39.34 41.04 42.50 42.07 42.32 41.79 41.53 40.82 46.28 48.17 46.51 45.34 47.09 47.42 46.67 46.84 47.53 49.74 52.64 53.21 55.59 57.03 56.78 57.12 57.38 58.05 58.44 57.90 58.26 57.01 55.79 54.75 54.38 52.80 50.94 50.05 48.31 48.66 46.11 45.12 44.12
32.84 38.61 39.44 33.38 38.47 40.12 41.13 42.70 42.43 37.84 42.87 46.58 46.03 46.35 46.06 46.13 47.16 47.29 46.94 46.66 47.31 51.79 54.60 56.66 56.69 57.00 56.13 56.71 56.89 57.93 57.33 55.77 55.09 53.88 52.49 51.27 50.57 48.89 47.00 45.75 45.68 43.42 43.28 43.32
30.01 32.77 27.87 39.06 44.70 43.33 41.90 43.73 44.41 43.62 43.51 44.74 45.32 46.10 47.50 48.26 47.06 46.51 46.64 46.92 47.00 51.09 54.50 56.17 55.84 55.16 54.64 54.74 54.76 54.95 54.36 53.31 52.95 52.13 51.16 49.59 47.42 45.32 43.32 44.03 42.10 41.31 41.30 41.20
28.23 30.25 34.51 38.77 41.63 41.20 40.26 39.43 44.50 43.32 43.84 44.57 45.41 44.50 43.41 47.23 47.20 47.48 46.91 48.24 51.49 53.53 53.88 54.23 54.45 53.10 52.26 51.28 50.18 49.78 48.91 49.47 49.40 48.04 46.94 46.41 45.28 43.65 41.24 39.50 39.03 38.44 38.82 38.03
32.64 28.30 26.79 36.15 42.82 46.05 44.85 33.74 44.11 45.04 45.56 45.11 44.13 36.57 41.22 47.28 48.87 48.86 50.14 51.77 52.77 52.38 52.12 52.05 50.47 51.19 49.36 47.63 47.42 46.48 46.88 46.15 45.81 45.73 44.92 42.73 41.81 40.56 39.27 39.39 39.07 39.60 39.03 39.03
31.84 29.06 32.02 40.86 44.11 47.00 35.31 35.80 44.44 46.66 46.83 46.31 42.29 43.53 45.59 47.62 48.79 49.22 49.90 51.03 51.09 52.25 52.15 50.37 49.97 49.11 47.02 46.25 45.33 45.39 44.96 44.21 43.52 43.09 41.80 41.26 40.82 40.82 40.60 40.25 39.42 35.32 32.79 32.33
32.71 30.96 27.64 44.04 45.24 38.87 41.60 44.31 45.76 47.54 46.30 45.52 46.27 45.57 45.93 47.81 48.11 48.28 48.68 48.78 49.47 48.72 47.66 46.98 48.05 47.56 45.21 43.93 44.67 44.85 44.13 43.19 42.60 42.37 42.56 42.01 40.70 39.40 39.00 36.91 33.11 30.62 28.61 26.80
35.54 35.08 42.91 44.68 45.19 47.35 47.57 46.04 46.19 46.26 47.69 48.22 46.38 46.15 46.68 47.01 47.42 47.66 48.14 46.86 47.39 46.72 44.97 44.66 45.59 46.18 43.30 42.20 43.60 43.29 42.84 42.10 41.59 41.47 41.02 40.08 38.24 35.81 34.42 33.27 31.05 29.15 27.75 25.45
37.68 41.15 43.23 45.57 46.26 48.88 47.71 47.03 48.41 49.03 48.47 48.75 47.34 46.74 46.67 46.17 45.48 46.05 45.99 45.96 44.90 45.62 44.33 42.67 43.36 43.82 42.97 43.10 43.55 42.76 41.12 39.67 38.70 37.02 33.28 32.79 32.72 32.75 31.16 28.67 29.02 29.15 27.42 25.41
38.60 41.21 43.44 44.59 45.14 46.34 46.90 48.50 49.12 50.02 48.38 47.32 46.94 47.78 46.30 45.72 44.89 45.79 45.64 45.10 46.29 45.14 43.45 41.83 42.58 42.31 42.71 42.47 41.83 39.18 36.55 34.36 31.01 30.21 29.99 27.75 25.97 26.54 27.28 27.67 28.64 27.96 27.27 27.12
34.63 42.31 42.56 42.60 45.14 46.92 47.01 47.96 48.83 48.95 47.38 47.71 47.48 47.46 47.40 45.56 45.94 45.72 45.05 44.66 44.36 42.92 41.95 41.20 41.51 41.20 39.95 38.92 37.55 34.96 31.86 29.66 27.93 27.54 27.66 26.00 24.89 24.89 29.12 29.20 29.13 28.87 28.00 26.05
40.14 43.50 44.30 46.25 47.15 48.36 47.82 47.03 47.32 47.32 48.02 47.09 48.14 47.41 46.55 44.77 43.84 42.20 43.89 43.59 42.21 38.92 34.37 33.40 32.76 32.77 34.83 35.12 34.75 32.05 29.38 29.09 28.07 27.61 26.72 26.12 26.10 25.59 23.74 26.49 27.72 27.53 27.31 26.03
42.71 43.62 42.72 43.23 41.93 44.09 44.99 45.69 45.56 45.45 44.95 45.04 45.73 48.12 46.60 44.70 43.64 42.62 40.11 35.62 32.84 31.34 30.10 29.33 28.71 29.04 31.45 32.09 30.54 29.19 28.41 28.47 27.49 27.08 27.08 27.22 26.50 25.60 25.66 24.89 23.46 23.68 25.81 24.69
39.93 41.16 41.60 42.86 42.97 42.27 43.34 43.10 39.21 35.47 33.81 32.87 34.28 39.69 40.91 36.80 32.59 30.89 30.86 29.68 28.80 27.03 26.60 26.62 26.23 26.61 29.12 29.60 28.20 27.04 26.34 26.25 26.31 26.11 26.15 25.92 25.88 25.50 25.61 25.02 24.95 24.39 24.17 23.07
39.13 37.51 38.09 38.32 36.61 36.05 36.18 35.65 32.84 30.14 29.12 28.45 27.63 26.49 26.27 25.74 24.06 23.45 24.47 25.86 25.16 23.80 24.77 24.76 25.06 26.50 27.93 28.05 27.29 26.61 25.97 25.91 25.66 25.17 24.70 24.42 24.49 23.94 23.75 23.42 22.90 22.54 22.39 19.59
35.09 34.07 34.65 35.09 33.92 31.81 31.08 30.07 29.17 27.69 26.75 25.71 25.50 25.19 24.38 23.33 22.42 22.11 22.46 23.23 23.09 23.15 24.25 24.03 23.70 25.65 25.65 25.28 24.81 24.35 24.08 23.94 23.66 23.58 23.02 22.85 22.33 21.81 21.76 20.91 20.55 19.78 18.44 17.20
34.00 33.22 32.66 32.27 31.05 29.38 27.67 26.81 26.00 25.29 24.19 23.70 23.18 22.65 22.06 21.78 20.85 20.68 20.47 20.61 19.99 19.51 20.67 22.02 22.89 23.39 23.60 23.79 23.74 23.53 22.99 22.79 22.60 21.95 20.92 19.43 19.56 20.61 19.64 19.11 18.84 17.61 17.31 16.57
28.47 27.63 28.01 27.61 27.08 26.02 25.26 24.13 23.92 23.93 23.44 22.62 21.98 20.53 20.41 19.86 19.72 19.60 19.72 18.56 17.34 16.39 17.93 21.03 22.79 22.36 21.83 22.57 21.97 21.51 20.59 20.67 20.60 20.17 19.30 18.32 18.25 18.36 16.97 16.85 16.11 15.60 15.54 15.36
25.12 25.13 24.57 24.12 24.61 24.25 22.99 23.04 23.17 22.44 22.71 21.96 20.88 19.43 18.27 18.52 18.83 18.25 18.29 16.83 17.97 18.66 20.06 20.05 19.98 19.52 20.24 20.96 21.06 20.11 19.13 18.53 18.44 17.28 16.65 16.45 15.98 14.94 15.25 15.30 14.60 13.23 11.84 11.63
23.47 23.71 23.17 22.70 22.51 23.17 23.17 23.39 22.10 20.80 21.45 21.15 19.56 18.45 18.47 19.25 19.41 19.29 17.05 15.07 17.33 18.24 18.34 18.32 18.30 18.36 19.55 20.03 19.08 18.16 17.65 16.41 15.70 15.36 14.50 13.62 13.08 12.70 11.32 10.62 9.94 8.72 6.45 4.36
22.47 22.10 21.95 22.06 21.35 21.34 22.29 22.80 22.54 22.02 21.29 20.39 19.85 19.28 18.42 17.92 18.20 18.55 18.24 15.86 17.16 17.04 16.59 15.92 16.08 17.07 17.87 18.12 17.04 15.39 15.08 14.19 13.56 12.85 11.15 10.46 9.28 7.56 5.79 3.69 1.76 0.36 -1.99 -4.30
23.03 23.03 22.64 21.68 21.09 20.89 21.64 21.28 20.96 21.35 19.83 19.30 18.58 18.56 17.78 18.31 18.96 15.49 13.37 16.81 16.40 15.30 14.73 14.38 15.34 15.24 14.70 13.55 12.56 11.40 10.40 9.47 8.62 7.25 5.73 4.03 2.70 1.10 1.44 3.70 3.69 1.73 -5.03 -3.05
20.74 21.45 21.39 22.71 22.42 20.83 18.97 20.21 20.65 20.23 19.35 19.32 18.61 18.80 17.97 15.24 15.71 16.67 15.92 14.60 13.56 13.17 12.71 12.52 11.83 11.58 10.40 9.44 8.24 6.57 5.28 4.61 3.36 -0.33 -1.59 -1.96 -6.30 -5.39 -6.66 -10.83 -8.66 -7.20 -3.44 -4.14
19.05 18.64 18.36 18.65 18.18 18.04 20.07 19.62 18.70 18.38 18.12 17.76 17.62 17.81 17.52 17.38 14.64 15.52 15.36 14.52 14.27 11.73 10.27 9.29 7.69 5.00 3.20 2.34 1.29 0.97 0.76 0.22 -1.22 -4.30 -6.48 -10.65 -13.19 -15.00 -15.18 -12.28 -8.84 -7.20 -9.92 -11.56
17.77 16.39 15.79 15.98 15.42 16.08 16.08 16.50 15.43 15.73 14.95 13.03 13.14 13.04 13.43 14.85 14.17 13.36 12.29 10.70 10.09 9.27 9.17 7.73 5.96 4.21 1.96 2.20 -0.42 -4.50 -8.29 -4.85 -3.94 -6.66 -13.55 -15.00 -16.09 -14.46 -14.28 -13.01 -14.82 -15.73 -16.99 -18.08
14.13 14.47 14.03 13.24 12.38 11.93 11.73 11.83 10.47 10.50 10.38 7.86 7.44 9.37 9.19 9.21 8.06 7.75 4.87 4.01 3.18 1.77 -0.12 -2.05 -2.80 -2.91 -3.80 -9.20 -9.38 -10.29 -9.20 -9.92 -8.29 -8.84 -14.82 -17.90 -16.27 -15.36 -15.54 -17.72 -19.90 -21.35 -21.53 -18.45

GFSNGP_sfc_wetblb_057.txt.gz
Wetbulb
38.17 39.61 40.77 40.52 39.40 38.96 37.09 38.39 34.92 37.21 37.27 42.41 43.78 44.71 46.21 47.35 45.89 45.26 45.07 46.25 47.98 49.55 50.99 52.42 53.78 55.49 56.65 57.33 57.47 57.72 57.21 57.21 57.33 58.11 58.16 58.41 58.41 58.61 58.40 56.55 55.03 53.31 52.06 50.16
34.06 39.33 39.65 38.13 40.25 40.72 39.94 39.46 38.99 39.17 37.89 44.37 46.58 46.72 44.71 45.80 46.32 45.46 45.08 45.76 47.58 50.38 51.18 51.94 52.65 53.55 54.22 55.21 56.64 57.84 57.46 57.48 58.04 57.64 57.42 57.62 58.19 56.45 54.84 53.05 52.13 50.37 48.70 47.31
30.70 36.81 36.79 31.96 37.10 39.94 39.99 41.33 41.17 36.82 40.88 45.47 44.38 44.63 44.97 45.79 45.21 45.75 46.46 46.21 46.20 49.53 51.91 53.77 54.58 54.43 53.50 54.11 55.39 57.07 57.43 56.82 56.27 57.33 57.09 55.97 53.43 51.61 50.85 50.13 48.73 46.50 46.14 45.28
32.03 32.49 26.76 37.91 42.98 43.31 40.91 41.79 42.38 42.53 43.18 44.38 44.63 45.45 45.88 45.58 45.74 46.44 46.30 46.12 45.66 46.66 51.61 53.52 54.43 54.42 53.41 54.51 55.59 55.71 55.65 56.11 55.87 55.07 53.44 51.95 50.85 48.84 46.12 46.42 45.58 45.00 44.79 45.01
31.28 30.69 33.15 38.75 39.99 39.53 38.92 39.50 43.34 42.63 44.02 44.46 43.44 42.03 42.33 46.31 45.25 46.84 47.05 47.06 46.30 46.40 51.78 53.70 53.84 52.78 52.84 52.43 55.13 54.99 54.30 53.88 53.30 52.18 50.77 49.45 47.67 46.30 45.38 44.43 43.87 43.24 43.36 42.37
31.44 27.63 26.57 34.35 41.32 45.17 43.85 34.91 42.97 44.09 43.97 43.53 43.24 37.62 41.19 45.59 45.77 46.41 45.81 46.19 49.87 51.79 52.25 52.42 50.80 51.94 51.35 49.22 51.50 51.36 51.23 50.46 50.45 49.80 48.43 46.77 45.16 43.49 42.51 42.93 41.22 40.34 38.89 39.28
31.64 29.97 31.11 39.68 43.07 45.83 33.99 35.85 43.38 45.17 45.51 42.98 42.47 46.41 47.47 45.36 45.49 47.23 47.99 50.70 51.38 51.94 52.32 51.00 50.33 50.28 47.81 47.09 47.69 48.61 47.88 47.42 46.91 47.26 46.17 44.66 42.66 41.45 41.50 41.06 37.37 33.25 30.67 31.50
31.86 29.86 26.46 42.77 41.98 38.47 41.27 43.74 45.26 46.10 46.33 44.22 44.46 45.47 45.55 46.85 45.64 47.56 48.25 50.29 50.86 50.22 48.69 48.68 48.92 49.13 46.25 45.96 43.95 43.89 43.29 43.01 43.61 43.21 42.74 42.07 40.89 40.28 39.54 35.69 32.00 30.11 28.14 27.76
32.41 32.50 42.03 42.80 43.16 45.17 46.31 45.56 45.47 45.87 46.76 45.28 44.79 44.75 45.00 44.79 45.85 47.66 48.23 48.21 49.46 48.74 46.22 46.04 47.00 47.98 45.47 42.52 43.30 42.69 42.06 41.50 41.83 41.28 40.89 40.34 38.43 36.19 34.24 32.77 30.59 29.68 28.26 26.05
34.37 37.44 40.35 42.33 43.89 44.96 46.32 47.03 48.32 48.47 47.96 46.91 44.69 44.85 45.12 44.84 45.73 45.91 45.50 45.83 45.62 46.31 45.50 43.66 44.24 44.24 43.30 43.16 43.09 42.10 40.53 40.17 39.47 35.04 33.21 33.33 33.96 33.78 32.84 32.44 30.71 28.96 27.09 23.88
35.22 38.64 41.47 43.30 44.83 45.66 47.12 48.02 47.87 49.49 49.01 47.80 46.81 46.63 46.43 46.19 45.52 45.48 45.99 45.35 45.62 45.15 43.39 41.38 42.37 42.08 42.73 42.78 42.44 39.91 37.20 34.15 32.19 30.42 28.69 28.07 28.23 29.41 29.01 29.75 31.22 28.52 26.78 24.94
31.54 40.39 40.22 42.23 44.72 45.32 44.37 44.68 47.28 46.63 47.73 46.59 47.48 47.22 46.92 46.60 45.30 44.22 44.04 44.15 42.67 41.64 41.18 40.88 41.04 39.99 40.05 40.84 39.04 35.29 31.87 30.98 29.98 28.24 28.02 27.46 25.77 25.52 29.96 30.31 30.19 29.80 28.91 27.14
38.82 40.54 40.91 44.22 43.75 43.27 43.84 44.59 44.45 42.51 40.62 41.64 42.24 44.20 46.74 43.90 43.04 41.12 42.30 39.90 35.98 34.39 33.85 33.24 32.21 31.50 33.26 34.52 34.28 32.14 29.38 28.79 28.09 27.51 26.96 26.22 25.96 25.08 23.19 26.46 28.01 27.59 26.94 26.33
39.57 39.41 41.47 41.73 38.89 40.33 41.23 41.10 38.83 36.78 34.76 33.15 34.45 39.41 40.04 40.90 36.34 33.76 31.96 31.35 30.51 29.40 28.48 28.47 28.10 27.74 29.52 30.11 29.63 28.89 28.66 28.86 28.08 27.41 26.74 26.33 26.06 25.84 26.06 24.62 22.78 23.60 26.10 25.70
36.81 38.67 38.41 38.89 37.26 35.41 36.18 34.80 31.97 30.20 29.62 28.97 27.53 27.35 28.17 26.84 26.54 26.60 27.67 27.63 27.12 26.71 26.82 26.81 26.20 26.67 28.54 29.06 28.26 27.82 27.41 26.84 27.20 27.05 27.12 26.97 26.98 26.50 26.26 25.63 24.73 23.40 23.58 23.61
34.88 37.61 37.57 35.58 33.29 32.10 30.70 29.50 27.94 26.18 25.90 25.19 24.22 24.00 24.34 24.71 24.41 24.53 25.13 25.98 25.10 24.51 25.90 25.80 26.11 27.81 28.93 28.54 27.75 26.60 25.92 25.87 25.82 25.35 25.02 24.66 24.73 24.19 23.80 23.65 23.31 22.99 22.23 19.98
33.19 33.72 33.14 33.39 31.50 28.79 27.81 27.57 26.73 25.77 25.10 24.49 23.65 24.03 23.67 22.69 22.13 21.65 21.46 22.08 22.05 21.92 22.71 22.70 22.81 24.73 25.28 25.47 25.03 24.25 23.89 23.53 23.35 22.69 21.94 21.82 21.89 21.21 21.01 20.52 19.99 19.44 17.50 17.94
31.83 30.64 30.14 29.50 28.60 26.77 25.51 25.45 24.59 23.94 23.21 22.63 22.10 20.58 19.37 18.68 18.29 18.86 19.28 19.96 19.32 19.18 20.64 21.63 22.33 22.65 22.83 23.03 23.34 22.75 22.19 21.63 20.62 19.56 19.49 19.16 19.68 19.78 19.02 18.68 18.29 17.20 16.98 16.97
26.59 25.70 25.86 25.17 24.98 23.95 23.08 22.31 22.19 21.93 21.78 21.18 19.91 18.64 18.82 18.62 18.40 18.13 18.57 17.39 16.56 15.75 17.36 20.65 22.26 21.11 20.95 21.55 20.97 20.40 19.90 19.14 18.43 17.94 17.87 17.34 16.70 16.46 16.02 16.28 15.54 15.02 15.16 14.22
24.09 24.46 24.02 23.34 23.60 23.07 21.81 22.08 21.73 20.92 21.08 20.20 19.10 17.78 16.94 17.22 17.17 16.22 15.94 14.31 15.65 16.89 18.83 19.55 20.33 19.41 19.07 19.35 19.40 18.25 17.46 16.70 16.53 15.47 15.20 14.65 13.67 13.02 13.18 13.26 12.77 11.58 10.75 10.21
21.39 21.94 21.39 20.66 20.77 21.63 21.34 21.02 19.58 18.44 19.25 19.14 17.98 17.01 17.02 17.61 17.58 16.56 14.39 12.65 15.33 17.17 17.79 18.24 18.36 17.92 17.92 17.12 16.49 15.79 15.07 14.43 13.37 12.03 11.18 11.21 10.27 9.20 7.55 6.73 6.75 4.28 1.78 0.15
21.44 20.46 20.23 20.12 19.47 19.54 20.85 20.76 20.35 19.90 19.44 18.95 19.01 18.60 16.40 15.01 14.56 14.17 14.68 13.65 15.40 15.83 16.13 15.80 15.21 14.59 14.38 14.42 13.72 12.62 12.12 10.83 9.79 8.68 6.94 5.88 3.23 0.30 -1.41 -1.95 -3.40 -3.76 -6.48 -7.57
21.58 21.33 20.70 19.80 18.91 18.88 19.54 18.97 18.70 18.34 17.23 16.93 16.24 15.52 15.07 16.13 15.94 12.65 10.13 14.35 14.92 14.16 13.30 11.82 11.03 10.36 9.83 9.23 8.45 7.22 5.62 4.06 3.10 2.03 0.25 -2.90 -6.12 -9.38 -9.02 -9.92 -10.29 -9.02 -8.29 -3.25
19.49 19.72 20.34 20.90 20.37 18.75 16.89 18.09 18.31 18.04 17.15 16.91 15.86 16.35 15.49 12.57 12.72 13.97 13.45 11.65 10.11 9.29 8.19 6.92 6.26 5.44 4.40 3.85 3.01 2.31 1.12 -0.59 -3.59 -6.48 -5.41 -9.92 -15.91 -15.18 -14.46 -13.37 -11.19 -12.46 -11.56 -12.46
17.17 17.08 17.30 17.00 16.57 17.03 17.18 16.95 15.77 14.94 14.29 14.04 14.86 15.35 14.57 14.22 11.64 12.12 11.44 10.23 10.57 7.65 5.10 2.94 2.70 0.76 -1.72 -3.66 -4.87 -6.84 -7.20 -9.02 -12.64 -13.37 -13.91 -14.28 -16.45 -17.18 -17.72 -15.73 -17.18 -18.08 -18.81 -20.44
15.08 13.52 13.42 13.98 13.99 14.08 14.33 13.55 11.26 11.37 11.07 9.08 8.78 8.20 8.74 10.20 9.22 8.21 5.97 3.91 4.32 1.72 -1.20 -6.12 -7.57 -5.99 -6.15 -6.85 -12.28 -12.46 -9.38 -6.52 -11.01 -13.01 -16.45 -18.26 -18.99 -18.08 -20.08 -19.35 -21.53 -22.07 -23.70 -24.79
12.24 12.38 12.07 10.98 10.76 10.46 10.27 9.86 8.18 5.98 3.79 3.09 4.34 6.30 6.22 4.20 2.29 2.43 -2.05 -3.32 -4.36 -5.78 -9.38 -12.10 -11.59 -8.78 -10.17 -13.73 -13.55 -14.46 -14.28 -15.00 -15.91 -16.27 -22.43 -22.25 -21.16 -22.07 -22.98 -23.52 -25.15 -26.24 -26.97 -26.60

GFSNGP_sfc_wetblb_060.txt.gz
Wetbulb
38.07 38.93 38.96 37.97 37.90 37.27 35.34 35.26 32.32 34.61 35.50 40.64 42.33 43.34 44.58 45.68 45.96 45.70 45.94 44.84 45.47 47.94 50.14 52.11 53.25 53.68 53.92 54.05 54.40 54.86 54.09 53.68 53.62 54.27 54.65 55.39 55.91 56.00 56.60 57.02 57.26 57.61 57.24 54.50
34.04 38.52 38.19 35.39 37.45 37.93 37.38 37.20 36.62 37.52 36.73 42.83 44.56 43.97 43.91 44.97 45.20 44.99 45.46 45.66 45.35 47.32 48.54 50.48 52.87 53.65 54.56 54.72 54.64 54.91 54.71 54.51 55.10 55.15 55.54 55.93 56.25 56.37 56.54 56.97 57.71 57.51 54.68 53.18
29.60 35.81 34.89 29.52 34.51 37.09 38.76 39.97 38.73 35.66 39.26 43.74 42.97 43.69 44.18 45.34 45.28 45.75 46.18 46.22 45.37 46.36 49.02 50.29 51.05 53.05 53.67 54.76 54.98 55.29 54.96 55.13 55.31 55.54 55.52 55.83 56.47 56.76 56.94 56.74 54.39 52.89 50.78 49.84
29.86 31.64 25.37 35.98 40.73 40.63 38.35 40.00 40.63 40.43 41.29 43.75 44.23 45.93 45.18 45.42 44.99 44.88 45.12 46.50 46.06 46.13 46.74 49.83 50.84 50.84 50.89 51.29 52.44 54.52 55.07 55.25 55.39 55.43 55.89 56.24 55.72 54.88 52.65 51.34 51.10 48.97 48.79 47.55
27.25 27.01 30.95 34.61 38.26 37.66 36.76 37.29 41.38 40.08 41.76 43.40 44.19 41.21 41.88 44.30 44.25 45.00 44.90 45.36 45.96 45.50 46.58 48.47 51.06 52.39 52.38 51.99 52.64 53.05 53.53 53.72 53.99 55.89 55.71 52.43 51.48 48.12 47.04 47.20 47.06 44.92 44.44 43.88
31.55 25.20 22.76 31.76 40.57 43.54 42.92 32.90 42.12 42.66 42.08 42.02 42.49 35.97 40.30 47.23 45.92 45.48 45.24 44.23 44.38 45.46 46.81 50.07 51.06 52.43 52.59 53.62 52.53 52.85 52.77 53.60 53.86 52.96 50.74 49.15 47.18 46.44 45.52 45.20 42.09 41.21 39.97 41.41
30.24 28.72 29.83 37.53 41.43 44.02 32.01 31.67 41.85 43.09 43.70 43.21 39.73 40.80 43.93 44.90 45.59 44.62 46.92 48.10 49.14 50.02 50.22 51.01 51.29 52.32 50.56 51.32 53.06 50.79 50.03 49.62 49.40 49.31 48.10 46.48 44.36 43.48 42.17 39.95 36.61 34.57 32.82 33.55
30.68 28.11 23.66 40.07 40.29 37.91 40.16 42.28 42.97 43.71 44.13 44.60 45.00 45.45 44.90 45.03 44.98 44.89 47.00 49.18 49.78 49.96 48.99 48.48 49.51 50.45 46.62 46.52 46.27 47.22 46.63 45.62 45.18 44.73 43.47 42.47 41.23 39.85 37.99 35.57 32.62 31.18 29.99 28.92
30.75 30.48 38.14 39.93 40.95 43.51 44.31 43.45 44.16 44.39 45.38 46.19 45.13 43.54 44.26 44.99 44.59 44.95 46.60 48.05 48.11 48.26 46.72 46.93 47.90 48.26 45.80 41.84 42.96 43.69 43.57 42.47 41.52 41.31 41.40 41.01 38.86 36.74 34.99 34.21 32.07 30.57 29.04 26.54
32.09 34.29 37.42 38.92 40.63 42.78 43.51 43.98 45.62 46.88 46.66 46.04 45.80 44.72 43.77 44.29 44.13 44.15 44.60 45.91 46.67 46.68 45.28 43.23 44.29 44.54 43.06 43.10 43.68 42.73 41.25 39.60 38.29 36.61 35.48 35.78 35.78 35.57 33.69 32.59 30.94 29.66 27.98 25.57
32.55 36.95 39.41 40.13 41.51 42.58 41.73 44.53 44.86 46.12 46.84 46.55 45.57 45.52 45.27 45.47 44.45 44.17 43.78 44.64 45.22 44.26 42.18 41.83 42.81 43.18 44.15 43.25 42.16 39.35 36.92 35.17 33.33 32.56 31.45 29.77 29.63 30.57 31.38 31.93 32.94 30.56 28.77 26.64
29.59 38.26 38.34 38.76 41.12 39.96 40.16 41.18 40.37 39.84 43.02 39.93 38.15 39.72 43.03 44.47 43.75 43.76 42.69 42.53 40.24 39.05 37.91 37.01 37.13 36.83 38.99 40.04 38.44 35.25 32.38 31.04 30.11 29.55 29.17 29.39 28.62 27.34 30.76 30.83 30.04 29.40 28.32 26.65
37.30 38.23 37.83 38.97 40.45 37.61 36.28 38.08 37.24 35.51 33.54 32.63 33.82 33.30 38.31 34.53 33.41 34.32 33.72 32.89 31.40 30.49 30.56 30.53 30.15 29.68 32.19 34.02 34.06 32.46 30.16 29.05 28.54 28.18 27.56 26.91 26.80 25.61 23.29 26.83 29.15 28.95 28.52 27.90
38.85 37.81 37.70 38.41 35.91 35.44 34.95 35.51 34.41 31.57 29.67 28.27 29.24 30.09 29.74 27.97 27.95 27.18 27.26 28.56 29.34 28.77 28.00 27.90 27.66 27.75 29.27 30.35 29.77 28.99 28.49 28.33 27.64 27.31 26.96 26.40 25.67 25.62 25.76 24.24 22.51 23.70 26.95 26.74
34.32 35.85 37.37 37.76 35.53 32.73 32.67 31.49 28.88 26.74 26.26 25.55 25.94 25.35 25.20 24.13 24.32 25.32 27.21 27.56 27.32 26.90 27.13 27.51 27.10 27.27 29.32 29.52 28.74 28.51 28.05 27.65 27.81 27.64 27.59 27.25 27.04 26.46 25.85 24.34 23.03 22.66 23.44 23.45
32.57 34.24 36.73 35.60 31.64 29.98 28.98 28.20 26.32 25.31 25.42 24.61 23.75 23.26 23.04 22.99 22.41 22.37 22.95 23.42 22.02 21.35 22.96 22.92 23.79 25.90 27.40 27.30 26.61 25.92 25.42 25.37 25.49 25.29 24.75 24.38 24.40 23.84 23.63 23.12 22.95 22.23 20.57 18.73
29.68 30.10 29.45 30.29 29.21 26.53 25.73 25.91 25.71 24.63 23.99 23.21 22.63 22.45 21.73 21.13 20.47 20.11 20.06 20.81 20.43 20.53 21.15 21.17 21.03 23.30 24.01 24.21 24.01 23.04 22.33 21.76 21.96 21.68 21.33 21.19 21.02 20.51 20.50 19.80 18.72 17.43 16.45 17.81
28.42 27.57 26.89 26.90 26.06 25.22 23.82 23.75 23.15 22.58 21.34 21.14 20.36 19.21 18.06 17.53 16.71 17.28 18.12 18.96 18.48 18.27 19.42 20.59 21.11 21.25 21.43 21.99 21.92 21.31 20.38 20.02 19.76 19.15 19.28 18.47 18.09 18.35 17.39 17.00 16.62 15.94 15.74 15.16
25.32 24.51 24.80 24.37 24.34 23.45 22.49 21.25 20.73 20.48 19.96 19.17 17.86 16.49 16.50 16.33 16.10 16.20 16.76 16.06 15.64 15.38 17.05 19.08 20.88 19.34 19.36 20.52 19.97 19.22 18.22 17.70 17.61 17.36 16.76 15.69 15.00 15.09 13.83 13.14 12.63 12.30 12.08 11.69
23.02 23.10 22.67 21.71 21.95 21.20 19.69 20.07 20.32 19.59 19.66 18.52 17.34 15.88 14.81 14.94 15.21 14.58 14.42 12.93 14.83 16.44 18.18 18.14 17.74 17.01 17.15 17.23 17.75 16.82 16.05 15.23 14.47 13.48 12.84 11.95 11.00 10.39 10.88 10.77 9.79 8.09 6.23 5.36
20.17 20.33 19.79 19.13 18.90 19.57 19.43 19.49 18.47 17.44 17.70 16.83 14.34 13.44 13.14 14.07 14.47 14.30 12.50 11.22 14.49 16.30 15.84 15.54 15.44 14.90 15.03 15.22 14.74 13.44 12.36 11.20 10.19 8.67 7.30 5.90 4.42 3.81 3.15 1.45 -0.07 -2.60 -3.68 -6.04
19.67 18.90 18.39 18.36 17.87 17.62 18.39 18.38 17.98 17.26 17.24 16.47 16.12 15.03 13.87 12.95 12.60 12.35 13.42 12.25 13.59 13.30 12.84 12.19 11.62 10.96 11.31 11.53 10.64 8.80 8.20 7.37 6.11 5.05 3.54 1.96 -1.00 -3.60 -5.50 -6.77 -10.21 -12.02 -13.29 -10.57
19.88 19.64 19.02 17.92 17.04 16.99 17.60 16.88 16.36 15.94 15.07 14.37 13.13 12.96 12.71 13.16 13.14 10.07 8.14 11.56 11.37 9.89 9.49 7.89 7.38 6.73 6.34 5.24 4.37 3.48 2.92 0.84 -0.86 -3.63 -6.08 -9.31 -13.47 -16.01 -15.47 -15.65 -16.19 -14.38 -14.56 -12.20
18.01 18.90 18.39 18.79 18.45 16.81 14.47 15.65 16.37 16.29 15.22 15.03 13.97 13.61 12.70 10.04 10.23 11.64 9.74 6.87 5.16 4.94 4.51 2.93 1.69 1.46 -0.67 -1.48 -2.36 -4.62 -6.95 -9.30 -12.02 -16.01 -14.38 -16.92 -22.36 -21.45 -20.18 -20.54 -17.64 -20.36 -20.00 -19.28
16.35 16.35 16.63 16.03 15.53 14.71 14.68 14.48 13.28 12.56 11.74 11.11 11.35 11.87 11.41 11.36 6.72 7.80 5.93 4.27 5.41 2.02 -1.32 -3.94 -2.79 -4.61 -7.36 -9.30 -11.66 -12.20 -13.84 -16.56 -19.82 -19.46 -20.91 -21.63 -22.18 -21.81 -22.72 -22.72 -23.45 -23.45 -24.71 -25.44
14.17 13.07 12.90 13.29 12.81 12.72 12.21 11.17 8.81 9.36 9.61 6.88 6.53 5.60 5.29 6.36 5.89 4.78 2.36 0.95 0.73 -2.63 -6.37 -13.51 -16.56 -16.20 -16.56 -14.02 -16.92 -17.46 -16.56 -13.90 -17.64 -18.73 -21.99 -22.18 -22.72 -22.18 -23.99 -22.90 -25.26 -25.80 -27.07 -26.89
9.34 9.83 9.81 8.52 7.75 7.16 7.07 6.16 4.13 1.00 -2.44 -4.26 0.72 1.81 -0.96 -3.40 -4.46 -2.25 -8.95 -10.94 -13.29 -15.83 -19.82 -21.27 -19.46 -15.83 -16.37 -19.09 -18.01 -19.28 -18.19 -19.46 -20.73 -20.73 -26.16 -24.53 -24.35 -26.35 -26.71 -27.43 -28.70 -29.43 -28.88 -30.15

GFSNGP_sfc_wetblb_063.txt.gz
Wetbulb
38.64 39.15 39.15 38.36 38.16 39.56 37.68 39.12 36.08 38.84 38.91 43.02 44.86 46.84 49.25 50.22 48.99 48.83 49.77 48.97 49.62 51.49 53.98 55.66 56.07 56.07 56.29 56.11 56.18 56.19 55.33 55.24 55.27 55.87 55.99 55.99 55.96 56.26 56.32 56.72 56.96 56.86 57.41 58.30
35.08 38.82 38.68 36.95 39.06 38.98 39.14 39.44 39.33 40.14 40.25 45.87 47.35 46.72 46.66 48.16 48.95 48.95 49.68 50.33 50.94 50.20 52.14 53.69 55.36 56.24 56.41 56.48 56.90 56.70 55.75 55.38 56.18 56.36 56.08 55.98 56.27 56.15 56.63 56.82 57.36 58.03 57.44 57.97
30.96 35.49 35.98 33.30 36.68 38.08 39.72 40.94 40.55 37.04 42.63 46.71 46.18 46.33 46.79 48.63 49.71 48.88 49.77 50.34 50.69 50.17 50.53 53.25 55.25 56.04 56.72 57.05 57.23 56.88 56.71 56.54 56.57 56.49 56.50 56.70 56.77 56.98 57.26 57.60 58.17 57.71 57.24 57.29
31.36 32.36 24.87 37.60 41.69 40.96 40.08 41.03 42.28 42.01 42.87 44.70 45.71 47.65 49.00 50.06 49.70 49.83 49.38 49.71 50.47 50.99 51.35 52.51 54.36 55.55 56.97 57.57 57.15 56.62 56.51 56.66 57.08 57.14 56.80 57.09 57.48 57.65 58.29 58.22 57.30 56.78 56.19 53.56
29.64 29.56 32.64 36.45 39.80 40.33 39.43 39.16 42.63 42.28 43.93 45.41 46.60 45.72 46.74 48.39 48.41 48.50 49.02 49.80 50.02 51.11 51.19 51.84 52.75 54.31 54.71 54.95 56.35 56.74 56.63 56.65 56.90 57.22 57.10 57.20 57.26 57.86 53.83 52.39 49.97 48.34 47.78 47.42
31.86 28.04 25.13 35.36 41.67 44.41 44.02 34.71 43.54 44.20 43.39 43.95 45.49 41.69 44.69 48.95 48.89 49.28 50.00 49.73 50.27 50.56 49.77 49.89 51.15 54.46 53.79 53.67 54.27 55.10 56.32 57.27 57.69 57.49 57.23 55.06 51.22 48.76 46.88 47.22 43.91 42.91 41.92 43.07
31.52 30.00 33.15 39.32 42.62 44.54 33.22 35.05 44.66 44.92 45.37 45.08 43.18 45.58 48.27 48.65 49.07 49.35 49.06 49.85 52.49 52.96 52.04 52.71 53.42 54.66 54.33 54.64 54.09 54.65 54.41 54.52 54.32 54.62 52.71 50.55 46.88 45.47 43.73 40.56 37.66 35.41 34.13 35.64
32.70 30.14 26.35 41.14 42.44 37.62 41.82 44.94 45.10 45.98 46.18 45.90 47.22 47.26 47.72 48.00 48.56 48.29 48.29 49.63 51.81 52.63 50.96 50.95 53.04 54.06 52.58 52.05 50.48 51.25 50.54 49.22 48.18 47.08 46.06 45.56 44.05 42.02 38.94 36.75 34.12 32.71 31.41 30.53
34.81 34.76 40.20 42.83 42.41 43.54 44.41 43.51 44.54 44.84 46.31 46.58 45.81 46.57 47.35 47.73 48.03 47.70 47.89 48.81 49.81 49.95 49.33 49.05 50.41 51.48 49.38 46.06 47.91 46.97 45.92 43.56 42.82 42.96 43.23 41.75 38.63 36.77 35.04 34.26 32.78 31.24 30.08 28.29
35.42 37.66 39.79 41.70 43.63 44.05 43.42 43.62 43.84 42.03 43.32 46.03 45.05 46.79 47.35 47.88 47.62 46.97 47.19 47.19 47.98 46.85 44.90 44.46 45.80 46.26 46.63 45.80 45.86 44.62 42.27 41.54 40.34 38.32 37.01 36.97 36.49 35.94 34.41 32.90 31.65 30.57 29.39 27.34
35.51 38.67 41.29 42.01 41.68 40.84 41.45 42.05 40.77 40.27 38.65 37.70 38.42 40.46 43.36 45.88 44.23 44.87 44.51 43.09 42.90 42.44 40.27 38.70 40.17 41.81 44.41 45.61 44.08 40.10 38.46 36.62 34.73 33.70 32.32 30.84 30.79 32.42 32.32 32.67 33.85 31.87 30.02 28.06
34.60 37.13 36.72 39.00 42.13 39.39 38.91 38.37 37.48 36.21 35.13 34.66 34.19 34.59 39.06 36.28 35.82 35.61 35.90 36.52 36.76 36.61 36.78 35.27 34.00 33.43 36.11 39.06 40.00 36.69 34.57 34.51 33.76 32.87 31.43 30.24 29.04 28.09 30.48 30.31 29.92 29.51 28.97 27.69
35.50 38.02 38.56 40.16 40.15 37.59 36.26 36.64 35.39 32.50 31.29 30.02 31.13 31.63 31.62 30.92 31.48 31.34 31.74 31.42 30.12 30.38 31.05 31.92 32.09 30.98 32.08 33.23 33.65 33.44 31.94 31.37 31.31 31.11 30.70 29.21 28.09 27.00 24.94 27.89 29.64 29.29 28.83 28.38
36.44 36.24 38.20 38.59 36.18 34.94 34.23 34.52 33.27 31.55 29.93 28.42 28.52 29.27 28.46 27.92 28.52 28.19 27.77 28.43 28.73 28.35 28.32 28.54 28.83 28.51 30.30 30.99 30.51 29.57 29.21 29.22 28.54 27.74 27.29 27.03 26.56 25.95 25.53 24.75 23.82 25.14 27.53 27.37
31.95 33.79 34.38 36.45 34.70 32.20 32.29 31.50 29.79 28.36 27.84 26.23 26.52 26.03 25.58 23.91 23.55 23.86 25.50 25.75 25.62 25.50 25.31 25.57 25.26 25.96 28.04 28.49 27.83 27.84 27.72 27.29 27.16 27.13 27.28 27.34 27.12 26.29 25.86 25.44 25.06 23.99 24.26 24.37
30.58 32.24 33.15 32.75 29.75 28.63 27.84 27.52 26.48 25.63 25.10 24.48 24.19 23.34 22.51 22.12 21.53 21.60 22.01 22.51 21.29 20.40 21.59 22.18 22.78 24.66 26.03 25.76 24.87 24.35 23.95 24.37 24.66 24.64 24.83 24.83 25.83 25.40 25.27 24.64 23.92 22.49 21.54 21.46
27.12 27.67 26.68 26.94 26.88 25.26 24.55 25.14 25.07 23.52 22.77 22.11 22.07 22.33 21.00 20.12 19.69 19.17 19.32 19.97 19.60 19.56 20.38 20.57 20.58 22.82 23.18 23.16 22.95 22.59 22.24 22.18 22.91 22.45 22.70 22.85 22.75 22.44 22.32 21.68 20.40 19.58 19.33 19.64
27.41 26.64 26.23 26.11 25.21 24.00 22.71 22.98 22.35 21.41 20.01 19.85 19.49 18.78 17.53 17.15 16.27 17.17 18.11 18.84 17.94 17.08 18.45 19.82 20.80 21.38 21.62 22.42 22.87 22.63 22.35 21.53 21.01 20.18 19.86 19.70 19.63 19.29 18.95 18.72 18.12 16.90 16.49 15.89
24.32 23.47 23.67 23.21 22.99 22.16 20.99 20.02 19.81 19.36 18.75 18.05 16.38 15.23 15.60 15.42 15.60 15.82 16.97 16.25 15.76 15.31 16.43 18.81 20.01 19.06 19.94 20.29 21.00 20.63 20.02 18.85 18.08 17.49 17.06 16.29 16.66 16.45 16.32 16.01 15.26 15.17 14.74 14.12
21.73 21.85 21.38 20.54 21.09 20.03 18.57 19.40 18.92 17.58 18.10 17.12 16.23 15.10 14.45 14.89 15.48 15.09 14.54 12.70 13.85 14.90 16.40 16.95 17.35 17.42 17.02 16.57 17.71 17.44 17.18 16.79 15.53 14.47 14.00 13.53 13.39 13.15 12.53 11.33 11.65 11.85 12.30 11.49
19.44 19.44 18.62 18.05 17.80 18.67 18.87 18.51 16.99 15.59 16.03 15.67 14.00 12.79 12.67 13.44 14.06 14.81 12.86 10.48 12.48 14.10 13.90 13.42 13.89 14.00 13.98 14.53 14.47 14.16 13.53 12.47 11.46 10.77 10.37 10.05 9.84 9.30 8.91 8.74 8.24 8.53 8.34 8.37
19.35 18.24 17.62 17.25 16.49 16.17 17.46 17.62 17.18 16.32 16.12 15.35 15.35 14.82 13.96 12.77 11.87 10.72 11.11 10.37 11.12 11.18 11.47 11.33 10.61 8.80 9.93 10.90 11.14 10.73 9.82 9.41 8.85 8.50 7.61 7.27 6.64 6.03 5.13 5.33 5.07 5.15 5.58 5.53
19.06 18.66 17.94 16.86 16.30 16.35 16.77 16.48 15.96 15.30 13.91 13.19 12.46 11.91 11.61 11.57 12.04 9.80 7.30 10.33 10.71 9.43 9.51 8.09 6.93 6.35 7.25 8.57 8.35 7.33 6.35 5.65 5.16 4.82 4.48 4.53 4.70 4.23 3.69 3.19 3.02 3.19 2.77 2.63
18.69 18.45 17.72 18.10 17.64 15.99 13.86 15.23 15.73 15.24 14.27 13.64 12.44 12.99 12.39 10.11 9.95 10.93 9.77 7.05 5.45 5.24 5.41 4.56 3.55 2.51 4.01 5.61 5.07 4.36 4.39 3.92 3.39 3.56 2.27 -0.27 1.82 1.83 1.52 0.98 0.85 1.36 0.30 -0.87
16.70 16.87 16.81 16.45 15.25 14.53 14.66 14.24 13.18 12.33 11.57 10.99 11.07 11.13 10.84 10.88 8.52 7.19 7.15 6.03 5.25 4.58 4.25 -0.35 -0.75 -0.10 3.64 3.95 3.31 2.18 2.12 2.26 1.98 2.63 1.89 1.39 0.52 -0.17 0.10 -0.52 -2.08 -1.99 -2.71 -3.22
14.59 13.33 13.09 13.37 13.15 12.96 12.54 12.22 10.61 10.92 10.22 8.15 7.20 7.23 7.22 7.74 6.76 6.30 4.67 3.30 2.63 0.86 1.22 0.83 0.05 1.71 2.31 1.97 1.82 1.15 2.26 2.28 1.83 0.44 -0.67 -0.86 -1.25 -1.23 -2.60 -3.25 -4.45 -5.13 -5.75 -6.26
10.95 11.37 11.26 9.74 8.88 9.09 9.02 8.85 8.25 6.21 5.49 6.86 4.74 5.49 4.95 4.89 3.58 3.60 -0.21 2.24 1.57 0.27 -0.07 -0.60 0.12 0.07 1.29 1.67 1.22 0.55 0.50 0.20 -4.73 -0.77 -1.68 -1.61 -2.57 -3.29 -5.57 -6.27 -6.59 -7.12 -7.65 -8.53

GFSNGP_sfc_wetblb_066.txt.gz
Wetbulb
40.63 40.96 41.20 40.53 40.55 42.23 40.94 42.00 39.00 41.52 42.20 45.37 47.49 48.70 50.49 52.11 52.87 53.21 53.45 54.23 55.18 55.62 57.96 60.01 60.41 60.73 60.64 60.70 60.53 60.25 59.30 58.71 59.35 59.91 59.81 59.87 59.56 59.51 60.02 60.56 59.53 59.60 59.96 60.49
35.88 39.89 40.60 39.14 41.90 42.46 43.06 43.18 42.51 43.17 43.01 48.96 50.01 50.82 50.60 50.32 52.06 52.48 53.55 54.39 55.12 55.79 56.29 57.41 59.53 60.59 60.38 60.54 60.62 60.71 59.60 59.35 59.60 59.43 59.26 59.43 59.57 59.93 59.70 59.77 59.28 59.35 59.67 59.92
31.38 37.76 36.91 34.46 40.32 41.46 42.14 43.85 43.71 41.05 44.88 48.56 48.35 49.15 50.37 51.10 50.88 51.80 53.07 53.32 54.54 55.41 56.40 57.01 58.33 60.01 60.70 61.11 61.44 60.32 59.63 59.94 59.74 59.81 59.16 59.14 59.13 58.89 58.66 59.12 59.40 59.30 59.43 59.26
32.81 34.53 25.16 39.82 44.72 44.27 43.15 43.96 44.96 44.73 46.28 48.16 49.10 50.63 50.97 51.89 51.08 50.74 52.49 53.06 53.62 54.95 55.82 56.28 56.84 58.46 60.57 61.29 61.35 60.77 60.14 59.60 59.73 59.58 59.39 59.73 59.44 58.84 59.15 59.88 59.14 59.25 59.03 59.16
30.37 30.73 36.13 38.85 41.95 41.84 40.96 41.06 44.84 44.86 46.83 48.28 49.76 51.29 50.49 51.73 52.23 52.35 53.50 54.58 54.97 55.35 55.37 56.60 55.58 55.47 56.66 58.90 60.58 60.44 60.00 60.02 60.26 60.25 59.34 59.34 58.97 59.56 60.09 59.92 59.62 59.51 58.61 58.10
33.75 28.53 26.16 38.01 43.80 46.55 46.07 36.94 44.65 46.06 46.16 46.35 48.27 44.38 48.19 51.86 52.32 52.73 53.55 54.27 54.47 55.08 56.64 57.02 57.40 56.60 55.13 56.15 58.09 58.75 59.64 60.08 60.74 60.86 60.29 59.79 60.14 59.67 59.49 59.37 54.88 48.12 44.14 44.95
32.37 31.51 35.11 41.99 44.30 46.29 34.52 37.32 45.35 46.10 46.44 46.48 44.80 47.77 51.18 52.15 52.03 53.28 53.43 54.67 55.32 56.35 56.19 55.68 55.85 57.19 55.86 55.80 55.81 57.67 59.08 59.86 60.07 60.20 60.09 60.39 59.36 55.23 49.48 43.88 41.44 38.48 36.51 37.23
32.98 29.89 28.84 44.68 43.78 38.51 43.24 46.34 47.06 47.59 48.29 47.93 49.03 50.18 50.22 50.74 51.42 52.52 52.76 53.69 54.36 54.28 53.85 53.60 54.48 56.68 55.92 55.44 55.12 56.57 57.31 57.07 56.44 55.51 50.93 50.76 47.19 44.02 42.48 40.17 36.04 34.17 33.61 32.32
37.02 36.77 44.79 46.33 44.90 47.24 46.84 45.69 46.79 46.46 46.67 46.55 47.76 49.11 49.68 50.21 51.69 52.08 52.19 52.52 52.97 51.68 50.79 49.28 48.32 51.16 52.02 48.46 48.94 47.23 46.54 45.53 44.34 43.03 42.51 42.80 41.51 39.17 37.67 36.61 34.82 33.07 31.59 30.04
37.90 41.14 42.96 44.80 46.46 46.39 46.58 45.74 45.39 45.27 44.85 44.23 42.92 44.99 45.37 48.46 49.39 49.53 49.78 48.27 49.12 49.63 47.74 45.26 42.79 42.02 43.33 46.03 45.93 44.29 42.14 40.64 40.31 38.65 37.86 38.14 37.81 36.65 35.50 34.08 32.83 31.79 30.43 27.93
38.28 41.64 43.61 44.46 45.24 44.11 44.54 45.38 44.00 43.41 42.38 40.55 40.20 41.44 42.73 43.88 42.54 42.74 42.48 42.17 43.14 44.21 43.52 41.65 41.20 38.13 38.03 40.01 41.96 39.53 38.49 36.70 34.99 34.16 32.72 31.09 30.91 32.92 32.86 33.98 34.18 31.79 29.82 28.50
37.13 39.97 38.78 40.85 42.78 41.91 41.58 41.97 41.82 39.71 38.67 39.30 38.04 38.04 38.79 38.30 38.39 37.93 37.80 38.07 35.73 34.73 33.72 35.83 36.29 35.32 34.19 35.96 37.22 36.55 34.28 34.40 33.45 32.80 31.79 30.41 29.15 28.29 30.91 30.70 30.33 29.92 29.25 27.88
39.46 41.09 40.97 42.36 40.38 38.38 37.33 37.52 39.02 38.12 36.84 35.23 36.58 35.96 35.93 34.01 32.62 31.93 31.83 32.42 31.26 30.61 30.70 30.81 30.54 30.36 31.76 32.50 32.82 31.97 30.97 30.87 31.14 31.05 31.01 29.10 28.09 26.36 24.43 27.73 29.61 29.66 29.63 29.66
37.61 38.07 39.43 37.21 36.28 35.54 35.95 35.91 34.87 33.24 32.08 30.80 32.26 32.61 32.11 29.94 29.61 27.98 26.48 27.61 28.26 27.95 28.30 28.66 28.15 27.90 30.50 32.11 31.38 30.08 29.58 29.32 28.59 28.09 27.64 26.89 26.66 26.12 26.00 24.42 23.44 24.86 28.02 28.42
34.11 34.35 34.38 36.65 34.44 32.06 32.89 33.39 31.05 28.93 27.59 26.97 27.33 26.45 25.92 23.77 23.07 23.23 25.00 25.93 25.11 24.46 24.37 24.88 25.15 25.62 27.95 28.47 27.49 28.01 27.98 27.52 27.94 28.20 27.51 26.97 26.74 26.70 25.78 24.81 24.13 24.09 24.67 24.83
32.08 34.03 32.31 31.01 29.22 28.39 28.24 27.81 27.04 25.03 25.24 24.31 23.72 23.21 22.71 22.96 21.62 21.23 21.87 21.98 20.56 20.20 21.64 22.11 22.41 24.67 26.70 26.52 26.21 25.95 26.04 26.74 27.79 28.16 28.09 27.44 27.61 27.02 26.22 25.04 24.48 23.88 23.27 23.63
28.08 30.39 29.80 29.44 28.14 26.42 25.47 25.99 25.63 25.02 23.76 21.55 21.51 23.03 22.24 21.36 20.58 19.76 19.74 19.92 19.89 20.59 21.91 22.39 22.16 23.79 25.81 27.51 27.92 28.18 27.42 26.36 26.63 26.67 25.82 25.40 25.35 24.51 24.00 22.63 22.11 20.73 19.65 21.04
28.41 27.97 27.93 27.95 27.45 25.93 24.70 23.97 23.68 22.47 21.15 20.31 19.46 18.97 18.45 18.83 18.11 18.93 19.71 20.88 20.01 19.51 20.84 21.28 22.66 23.38 24.37 25.47 25.89 26.10 25.71 24.55 24.07 23.68 23.60 22.69 22.53 22.92 22.61 21.03 20.12 18.72 18.37 18.57
25.79 25.15 25.45 25.12 25.01 23.96 22.68 21.44 20.89 20.33 19.78 19.14 18.00 16.92 17.48 17.32 17.60 17.95 18.91 18.53 17.81 17.45 17.83 20.36 21.11 21.26 21.41 22.21 24.30 24.07 23.68 22.90 22.05 21.60 21.38 20.48 20.73 20.60 20.00 19.72 18.77 18.48 17.95 17.05
23.33 23.65 23.22 22.58 22.89 21.49 19.78 20.14 20.19 18.94 19.44 18.71 18.19 17.45 16.60 16.85 17.59 16.73 16.08 14.20 15.11 15.96 17.00 18.21 19.05 18.83 18.64 19.15 20.91 21.18 21.12 20.30 18.92 17.99 18.47 18.39 18.04 17.66 16.39 15.15 16.53 16.70 16.43 15.11
20.68 20.39 19.61 19.32 19.38 19.54 19.34 19.34 18.15 16.96 17.29 17.58 15.84 14.35 13.63 14.14 15.40 17.40 15.80 13.42 13.94 15.51 16.28 15.18 16.11 17.70 17.40 17.87 18.63 18.72 18.14 16.96 16.00 15.62 15.58 15.41 15.07 14.59 14.22 13.91 13.71 13.73 13.25 13.36
20.09 19.03 18.48 18.62 18.25 17.94 18.68 18.85 18.02 17.02 16.65 16.28 16.48 16.24 15.06 14.17 13.17 12.46 12.42 13.29 14.36 13.43 14.76 14.52 13.70 11.91 14.74 14.87 15.95 15.58 14.87 14.31 13.96 13.90 12.95 12.99 12.71 12.09 11.44 11.52 10.87 11.36 11.32 11.15
20.28 19.60 18.78 17.95 17.35 17.58 17.69 17.01 16.70 16.24 15.01 14.46 13.80 14.04 14.12 14.54 15.31 13.97 10.89 12.73 13.84 11.94 13.17 11.19 9.32 9.96 11.23 14.01 13.69 13.00 12.19 11.33 11.08 10.80 10.86 10.79 10.76 10.42 9.84 8.79 9.27 9.25 8.77 8.15
20.18 19.75 19.28 19.83 19.42 18.13 16.31 17.71 17.36 16.80 15.42 14.78 14.10 14.95 16.04 14.44 13.56 14.49 13.20 10.10 8.63 9.18 8.60 8.57 8.46 8.81 10.20 11.76 11.06 10.73 10.65 10.35 10.17 10.02 9.33 7.32 9.03 8.23 8.03 7.04 6.79 7.85 6.48 5.57
19.77 19.80 19.65 19.27 18.39 17.55 17.14 17.10 16.26 15.53 14.75 14.42 14.29 13.98 13.50 14.34 12.72 12.11 12.05 10.03 8.00 9.89 9.59 6.11 6.36 7.56 10.36 10.05 9.51 9.12 9.12 8.01 8.04 9.09 8.56 7.94 7.43 6.75 7.23 6.50 4.82 4.55 3.69 4.16
18.92 17.82 17.45 17.30 17.83 18.05 17.84 17.56 16.38 16.12 15.23 13.09 12.79 13.25 13.18 12.93 12.21 11.96 10.06 8.53 8.72 8.15 9.23 9.07 7.89 9.92 9.78 8.81 8.35 7.35 8.28 8.13 7.95 6.94 5.96 6.45 5.61 5.71 4.28 3.20 2.78 2.98 2.71 2.04
16.78 16.88 17.07 15.86 15.68 15.50 15.94 15.98 15.52 13.90 14.15 13.85 11.78 12.76 12.48 12.19 10.55 10.31 8.45 9.50 9.21 8.42 8.39 8.66 8.64 7.07 7.60 7.69 7.38 7.49 7.64 7.71 1.76 5.03 5.83 5.37 4.48 4.37 2.51 1.69 1.71 1.55 0.85 -0.17

GFSNGP_sfc_wetblb_069.txt.gz
Wetbulb
40.46 42.00 42.85 42.05 42.05 43.33 42.34 43.05 39.58 42.15 42.56 45.82 47.98 48.68 49.93 51.48 52.78 53.38 54.07 54.55 55.70 56.68 58.89 60.82 61.67 62.17 62.38 62.49 62.11 61.78 60.66 60.25 61.00 62.63 62.66 62.08 62.44 62.57 62.37 62.46 62.28 62.37 62.09 61.93
37.50 41.43 41.54 40.19 42.18 42.16 42.81 43.39 43.43 43.65 42.83 48.71 49.88 51.04 50.38 50.97 51.96 52.43 53.50 54.80 55.42 56.43 57.22 57.89 60.24 61.61 62.21 62.61 62.94 62.46 61.84 61.39 61.62 62.02 61.93 62.08 62.39 62.44 62.26 62.01 61.89 61.84 61.31 61.34
33.29 37.72 38.07 34.41 40.43 41.77 42.55 44.60 44.80 41.12 45.13 48.72 48.51 48.83 50.69 51.64 52.42 51.80 52.98 54.12 55.00 55.70 56.35 57.62 58.78 59.94 61.64 62.53 63.01 62.95 62.25 61.71 61.98 62.05 61.60 61.88 61.87 61.46 61.32 61.47 61.85 61.43 61.15 61.06
31.73 35.22 26.46 40.33 46.32 45.35 43.56 44.28 46.15 46.43 46.84 48.28 48.64 50.38 52.47 53.00 51.89 51.97 52.53 53.75 55.65 56.55 56.79 57.34 58.72 58.56 59.06 61.27 62.63 62.29 61.87 61.84 62.17 62.18 61.76 61.83 61.49 61.15 61.36 61.29 60.82 60.72 61.00 61.22
29.11 30.45 34.50 38.76 42.28 42.84 42.15 41.26 46.09 45.86 47.25 48.16 49.04 50.83 51.97 53.68 53.24 53.33 53.78 53.98 54.81 57.13 57.73 58.50 59.22 59.74 58.01 57.65 59.64 61.47 61.43 61.81 61.91 62.58 61.92 61.56 61.02 60.96 61.52 61.46 61.07 60.65 60.66 60.30
33.86 28.10 25.94 37.20 44.65 46.92 45.99 36.38 45.71 46.51 46.48 46.66 47.80 43.38 47.12 51.19 52.96 53.04 54.11 54.58 54.56 56.23 56.95 56.31 56.80 58.31 58.21 57.66 56.48 57.17 60.76 61.85 62.45 62.82 62.17 61.67 61.90 61.59 61.73 61.41 60.49 59.50 52.50 47.77
32.28 31.58 35.48 43.57 45.58 47.17 34.86 36.19 46.75 47.72 47.77 47.58 46.06 48.07 50.66 52.57 52.82 53.80 54.40 54.73 55.58 55.46 54.29 53.39 53.75 55.25 56.97 57.18 56.16 57.73 59.26 59.98 61.25 61.93 62.31 62.41 62.08 62.30 61.94 57.56 47.08 41.53 38.70 37.83
33.40 30.83 28.71 46.27 44.62 39.58 44.08 47.60 47.87 47.84 47.62 46.98 47.99 49.07 50.29 51.49 52.52 53.48 53.55 53.85 54.45 53.92 53.05 51.01 50.47 52.36 52.28 49.41 50.51 53.31 55.20 53.85 52.10 52.21 53.36 55.05 54.72 50.43 48.48 44.64 39.32 37.01 35.35 33.50
36.86 36.60 45.66 47.84 46.25 47.60 48.47 46.89 46.27 46.42 47.28 47.01 46.71 46.93 47.83 48.39 50.87 51.29 52.26 51.39 51.77 52.17 50.31 47.56 44.37 42.96 43.00 43.55 45.05 45.65 45.42 44.79 43.56 42.47 42.18 41.91 42.04 41.32 39.32 39.45 37.73 35.43 32.36 30.34
39.57 43.26 43.71 46.16 47.38 47.04 47.61 46.50 46.58 46.26 45.64 45.53 44.01 45.43 45.47 47.80 47.07 47.04 47.26 46.11 46.80 47.39 44.73 41.37 39.33 38.28 38.25 40.76 41.20 39.14 37.31 36.82 36.52 35.48 35.52 35.62 36.29 36.51 35.38 34.64 33.39 32.03 30.11 28.27
39.86 42.57 44.97 46.13 45.64 44.92 45.82 46.19 45.42 45.41 44.23 43.36 42.65 42.79 42.65 43.66 42.86 42.72 42.46 41.77 41.65 40.56 39.19 36.70 35.19 34.39 35.04 36.90 38.92 36.17 34.46 33.65 33.42 32.40 31.23 29.76 29.47 30.95 31.19 31.92 33.32 30.71 29.29 28.41
37.94 42.50 42.90 43.43 43.99 43.76 43.09 42.21 42.86 42.38 41.51 42.07 41.19 40.04 40.57 39.84 37.96 36.58 35.97 36.85 35.95 34.89 35.45 34.92 34.55 32.74 33.39 33.35 35.70 35.14 32.80 31.71 31.42 30.79 30.17 29.08 28.03 27.83 30.50 30.43 30.48 29.76 29.40 28.40
41.08 42.38 42.82 42.81 41.19 41.35 40.01 39.71 40.07 39.45 37.92 36.40 37.13 36.86 37.13 35.44 32.37 32.02 31.47 30.57 30.08 30.36 30.43 30.37 31.11 30.38 31.13 33.00 32.22 31.39 30.76 30.54 29.57 28.83 27.94 27.41 26.67 26.17 24.77 28.16 30.31 30.24 30.20 30.06
40.37 40.19 39.83 39.30 36.61 37.78 36.66 37.67 37.98 37.45 35.20 32.46 31.10 31.02 29.30 27.61 26.40 26.14 25.84 26.10 26.85 27.14 26.78 27.36 27.91 26.85 28.78 29.90 29.94 29.89 29.62 29.19 28.57 28.36 28.01 27.12 26.10 25.68 25.60 24.45 23.61 24.80 28.28 28.13
36.46 38.27 36.56 36.92 35.14 33.05 33.69 34.30 32.98 30.57 30.08 28.56 27.85 26.52 25.75 23.79 21.94 21.66 23.01 24.97 24.60 24.51 23.76 25.61 26.33 26.84 28.98 29.09 28.14 28.14 28.95 29.35 28.54 28.74 28.57 27.59 27.29 26.29 26.10 25.29 24.10 23.97 24.70 25.06
34.39 36.93 35.77 33.84 31.85 31.11 31.07 30.65 30.22 29.82 29.15 27.67 26.07 24.66 23.73 23.58 22.26 21.08 21.87 22.50 22.15 21.87 23.05 22.99 24.27 27.58 29.91 30.62 30.02 29.62 28.91 28.76 28.69 28.20 28.42 28.53 27.98 26.46 25.44 23.81 22.81 23.36 23.86 24.59
29.56 29.43 29.83 30.16 30.80 29.52 28.73 29.25 28.56 27.22 26.04 25.24 24.09 24.94 24.64 23.80 23.30 22.46 22.20 22.20 22.00 21.93 22.65 23.34 23.68 26.29 27.99 29.05 29.47 28.14 27.83 28.28 26.54 27.13 27.22 26.88 25.91 24.91 24.24 22.94 20.79 20.58 20.69 22.43
30.10 29.31 29.00 28.57 28.31 28.19 26.24 26.06 25.30 24.56 23.20 22.81 22.32 21.51 20.50 19.79 19.81 20.15 20.85 21.45 20.83 19.62 20.65 22.33 23.63 24.41 25.18 27.03 27.51 27.18 26.46 25.78 24.92 24.15 24.10 24.16 23.79 23.61 22.54 21.73 21.17 19.95 20.09 20.53
27.22 26.43 26.44 26.06 26.89 25.55 24.34 22.88 22.32 22.01 21.81 21.29 19.95 18.57 18.35 18.01 17.91 17.23 17.39 16.85 16.55 15.36 17.19 20.76 21.10 21.93 22.37 23.89 25.23 24.96 24.05 23.42 23.03 22.61 22.21 21.58 21.45 21.53 21.11 20.32 19.44 18.88 18.47 17.73
24.21 24.42 24.07 23.06 23.44 22.58 21.12 21.70 21.86 21.03 21.72 21.00 20.01 18.52 17.78 18.12 19.14 18.23 16.23 13.78 14.94 16.18 17.38 17.96 20.28 19.75 20.52 21.02 22.37 22.79 22.27 21.94 20.73 19.85 19.70 19.61 19.13 18.81 18.19 17.04 17.58 17.23 17.24 16.44
21.30 21.21 20.71 20.25 20.12 20.65 20.60 20.74 19.78 18.18 18.46 18.40 16.55 15.21 14.59 14.88 14.08 17.41 16.14 13.32 14.77 16.77 16.83 16.01 16.20 18.63 19.07 20.13 20.46 20.24 19.81 19.11 18.71 18.17 17.90 17.88 17.52 16.90 16.53 16.69 16.22 16.00 15.24 14.96
21.64 20.50 19.79 19.76 19.10 18.89 19.76 19.78 18.98 18.33 18.15 17.98 18.37 18.33 17.68 16.46 15.15 13.69 13.70 14.25 15.49 14.77 15.22 14.85 14.84 14.37 16.42 17.30 17.91 17.37 17.01 16.65 16.65 16.46 16.18 16.06 15.63 14.99 14.49 14.40 13.78 13.98 13.58 13.39
21.90 21.31 20.65 19.41 18.94 18.80 18.88 18.42 18.02 17.77 16.72 16.49 15.92 15.75 15.38 15.52 16.07 14.63 11.03 13.33 14.39 12.74 14.40 12.24 11.96 12.94 14.20 16.59 16.24 15.70 14.86 14.18 13.80 13.54 13.62 13.40 13.22 12.86 12.10 11.07 12.03 11.81 11.22 10.47
21.74 21.59 21.20 21.54 21.55 20.54 18.53 19.39 18.83 17.84 16.55 16.12 15.21 15.76 18.12 16.95 15.52 16.29 15.18 12.49 11.66 11.21 10.13 10.77 11.41 11.74 12.55 14.66 14.11 13.44 13.41 13.76 13.39 13.42 12.90 11.09 12.07 11.40 11.22 9.75 9.50 10.42 9.40 8.78
21.96 22.19 22.33 21.87 20.94 19.69 19.26 19.12 18.58 18.04 17.43 16.93 16.53 15.93 15.66 15.83 14.36 13.57 14.23 13.01 10.66 13.41 13.00 9.66 10.42 11.32 13.52 13.26 12.24 12.55 12.71 11.44 10.03 12.07 11.29 10.97 10.47 9.93 9.76 9.23 8.25 7.12 7.11 7.57
22.19 21.12 20.43 20.32 21.03 21.68 21.60 21.65 20.03 19.67 18.97 16.71 16.22 16.47 16.46 16.39 15.83 15.81 13.82 11.93 12.01 11.90 12.86 12.69 10.90 12.82 12.99 11.82 11.69 10.51 11.49 11.15 10.70 10.04 9.13 9.61 8.98 8.90 7.84 6.47 6.38 6.74 6.30 5.65
20.64 20.57 20.51 19.60 19.01 18.58 19.18 19.29 19.48 17.64 17.17 16.95 15.11 16.31 15.87 15.67 14.01 14.46 12.45 13.48 13.34 12.54 12.69 12.55 12.55 10.04 9.63 10.07 10.90 10.65 10.81 10.83 6.26 6.98 8.21 8.20 7.84 7.59 6.42 5.28 5.31 5.15 4.62 3.78

GFSNGP_sfc_wetblb_072.txt.gz
Wetbulb
37.18 38.04 39.76 40.18 40.18 40.99 40.29 42.02 38.82 41.74 42.24 45.96 46.58 48.45 50.27 51.49 52.10 52.15 52.71 54.26 55.37 55.74 57.82 59.85 60.91 61.78 61.85 61.40 60.51 60.41 59.53 59.35 59.48 60.23 60.72 60.54 60.05 60.32 60.20 59.73 59.92 59.67 59.31 59.31
33.02 38.27 39.18 37.59 41.51 41.82 41.70 42.60 43.16 43.40 42.16 48.66 50.03 50.67 50.71 51.25 51.50 51.19 52.16 53.73 54.98 55.66 55.86 56.33 59.59 60.86 61.80 61.97 61.63 61.15 59.87 59.15 59.66 59.79 60.51 60.11 60.19 60.41 60.34 60.09 59.96 59.74 59.29 58.86
29.18 36.40 37.41 34.29 39.17 40.63 41.66 43.45 43.08 39.46 43.61 48.38 48.00 48.39 49.46 49.95 50.85 50.43 51.24 52.57 53.99 55.37 56.35 56.59 56.77 58.19 58.10 61.56 62.59 61.71 60.36 60.44 60.08 59.84 59.46 59.76 60.18 59.87 59.57 59.23 59.55 59.07 59.04 59.02
29.90 32.78 26.74 38.21 43.94 43.77 42.78 43.76 44.90 45.16 46.32 47.72 48.15 50.49 51.22 51.60 50.85 51.09 51.76 52.47 53.58 54.90 56.20 57.36 57.79 57.51 58.30 59.11 58.20 61.57 61.28 60.98 60.82 60.43 59.72 59.74 59.46 59.18 59.13 59.31 58.74 58.51 58.36 58.65
29.24 28.93 33.30 37.89 41.05 42.12 41.09 40.63 45.44 45.10 46.80 47.41 47.59 50.05 47.91 50.56 52.07 52.06 52.62 53.35 54.08 55.39 55.41 54.86 54.04 54.96 56.99 58.10 58.19 56.84 59.80 60.88 61.41 60.95 60.17 59.71 59.08 58.84 59.01 58.74 58.48 58.42 58.52 58.07
31.85 27.51 25.58 36.01 43.21 44.61 42.93 33.86 44.17 45.35 45.86 45.56 47.28 42.86 44.55 50.30 51.58 52.16 53.34 53.90 53.79 54.28 52.71 50.33 50.24 53.18 54.15 52.07 51.48 51.78 54.37 56.23 56.91 61.16 60.77 59.91 59.54 59.16 59.01 58.97 58.13 58.31 56.09 46.05
31.09 30.10 34.44 42.33 44.98 45.98 32.40 35.47 45.30 46.22 45.36 44.61 42.79 45.04 47.89 50.22 51.21 53.21 53.41 52.50 53.17 52.58 48.26 45.67 45.54 48.98 46.70 46.29 45.55 47.75 50.30 49.83 48.51 49.65 51.93 55.75 59.21 58.75 58.51 57.54 46.23 40.07 36.48 35.77
31.94 29.78 27.95 45.30 44.18 38.86 43.00 46.01 46.02 45.81 45.43 44.96 45.64 46.29 46.74 48.70 49.13 49.35 48.43 48.08 49.41 49.51 45.63 42.80 41.35 41.84 41.54 40.88 42.84 42.87 41.65 40.50 39.55 39.54 40.69 43.95 48.40 46.02 45.37 42.63 38.71 35.16 33.68 32.02
35.10 35.32 44.54 46.25 44.80 47.08 46.95 44.64 44.24 44.41 44.60 44.68 44.18 44.21 44.82 45.91 45.71 45.92 45.07 44.19 44.17 43.59 41.86 39.50 38.17 37.21 36.48 37.59 40.48 39.09 36.90 35.40 34.55 33.97 33.15 34.28 36.51 38.34 37.97 38.28 36.04 34.07 31.77 29.88
39.24 42.14 42.87 43.89 45.38 46.14 45.75 44.36 44.59 44.62 43.95 43.37 42.46 42.77 42.98 42.67 41.49 41.06 40.71 39.49 39.92 39.36 37.62 35.79 35.54 35.50 35.27 36.01 39.05 37.22 35.31 33.83 32.61 31.07 29.90 29.68 30.64 32.06 32.34 33.24 32.49 31.51 30.23 28.53
38.83 41.04 41.03 41.88 42.75 43.94 43.33 43.87 43.33 43.70 42.67 41.05 41.01 40.35 41.23 38.54 36.76 36.16 35.28 34.88 35.42 33.77 33.38 32.61 33.12 32.69 34.01 34.42 36.24 35.29 33.79 32.67 31.13 30.13 29.02 28.28 28.62 28.89 29.40 30.09 31.70 29.08 27.91 27.96
35.76 40.06 39.98 39.40 41.02 42.86 41.05 40.64 40.97 39.81 38.72 38.92 37.51 37.39 38.30 34.31 33.50 31.84 30.13 30.28 29.94 29.45 29.07 28.96 29.01 29.26 30.50 32.81 33.45 33.41 31.45 30.24 29.96 29.13 28.37 27.87 27.03 26.76 30.44 30.89 31.20 30.76 30.43 29.29
36.13 40.95 41.40 41.10 39.34 39.67 38.50 38.49 39.08 37.60 35.52 34.04 33.77 33.15 32.73 29.34 28.55 27.83 26.82 26.22 26.07 25.93 27.55 27.45 27.65 27.61 28.77 30.59 31.07 30.14 29.67 29.41 28.45 28.11 27.38 26.58 26.37 25.61 23.81 26.75 29.11 29.57 29.82 30.05
38.50 39.95 37.57 35.87 34.29 36.22 36.79 37.48 36.40 34.58 32.13 30.27 30.32 29.96 27.98 26.23 25.39 24.82 24.04 25.00 25.04 24.91 25.65 26.50 27.60 28.48 29.27 30.28 30.07 29.16 29.01 28.47 27.75 27.45 26.92 26.34 25.58 25.29 24.85 23.34 21.98 23.22 27.40 27.52
35.97 38.15 36.22 36.13 35.03 33.87 35.12 35.04 33.10 30.33 29.00 27.59 27.01 25.53 24.84 22.77 21.81 22.28 24.10 24.58 24.29 23.98 23.75 24.06 24.95 26.53 30.48 30.76 29.36 28.64 28.71 28.52 28.39 27.42 27.15 26.76 26.17 25.40 24.85 23.98 23.13 23.03 24.04 23.29
35.14 34.18 34.35 33.51 33.08 32.43 32.04 31.33 30.13 28.34 27.30 26.16 24.58 24.07 23.74 23.56 22.75 22.22 22.38 22.19 20.63 19.81 21.41 21.69 22.33 25.27 28.13 29.32 28.67 27.97 26.90 27.00 28.00 26.96 26.45 25.27 24.22 22.71 21.94 21.35 20.48 20.14 21.28 21.58
29.22 27.97 28.70 28.97 29.78 28.50 27.55 27.65 27.24 25.76 24.61 24.05 24.15 24.82 24.39 23.09 22.00 21.29 20.87 20.11 19.34 19.56 20.30 20.76 21.40 23.33 26.26 27.19 27.22 26.75 26.42 25.52 25.03 25.16 24.59 23.99 23.02 21.50 20.62 19.74 19.03 18.48 18.98 20.45
28.94 28.14 28.09 27.89 27.27 26.23 24.72 24.33 23.60 22.86 21.58 21.15 20.86 19.69 18.13 17.08 16.53 16.84 17.60 17.86 17.18 15.90 17.88 19.41 21.04 21.63 22.46 25.23 25.05 24.97 24.45 23.76 23.30 22.10 22.58 22.63 22.30 22.16 21.53 20.22 19.55 18.25 17.61 17.62
26.38 25.41 25.39 25.24 25.02 23.79 22.60 21.40 21.12 21.35 20.81 20.07 18.63 17.58 17.54 17.00 16.15 16.02 16.46 15.39 14.49 12.90 14.38 18.24 20.70 20.32 20.21 21.94 23.06 23.06 22.11 21.24 21.07 21.12 20.54 19.01 18.43 18.81 19.00 18.22 17.45 16.67 16.34 15.41
23.11 23.23 22.36 21.79 22.41 21.34 20.13 20.83 20.28 19.12 19.39 18.27 16.82 15.80 14.53 15.20 18.40 16.49 15.04 12.90 14.04 14.86 15.89 16.07 18.61 17.98 18.93 19.67 20.43 20.15 19.65 19.56 19.00 17.74 17.19 17.15 16.80 16.40 15.88 14.11 15.41 15.05 14.36 13.69
20.54 20.54 20.05 19.94 19.44 19.84 19.70 19.22 18.26 16.62 17.46 17.48 15.91 14.53 13.83 14.02 13.61 15.17 14.58 11.61 13.34 15.68 15.27 15.32 15.08 16.64 17.68 18.08 18.12 17.96 17.76 17.16 16.77 16.59 15.92 15.17 14.72 14.28 13.95 13.84 13.27 12.83 12.23 12.43
20.92 19.99 19.64 19.24 18.66 18.43 19.02 18.84 18.15 17.37 17.08 16.24 17.02 17.87 17.02 15.07 13.43 12.14 11.77 12.48 13.35 13.70 13.37 13.44 13.87 13.77 15.68 16.46 16.45 15.69 15.23 14.65 14.39 14.24 13.44 13.29 13.02 12.01 11.51 11.60 10.82 11.04 10.48 10.43
21.32 20.61 19.83 19.11 18.43 17.99 18.25 18.09 17.78 17.48 16.22 15.86 15.53 15.77 14.76 14.43 14.15 11.73 8.77 11.96 12.17 11.46 12.14 11.48 10.74 11.67 13.11 14.66 14.36 14.04 13.73 12.83 12.11 11.36 11.70 11.08 10.36 10.44 9.32 7.34 9.27 8.67 7.58 6.41
21.68 21.50 20.91 21.47 21.57 20.19 18.20 18.66 18.35 17.12 16.22 15.83 14.64 14.40 16.08 15.88 14.63 14.76 13.17 12.08 11.75 10.28 9.54 10.63 10.74 11.55 12.00 13.14 13.04 11.78 10.42 10.06 11.51 11.65 11.46 9.55 10.02 9.40 8.98 6.60 7.04 7.04 4.53 4.68
22.21 22.29 22.08 21.36 20.53 19.33 18.98 18.86 18.45 18.45 18.04 17.05 16.54 16.37 15.57 14.98 13.03 12.16 13.48 12.53 10.29 12.88 12.04 8.66 9.75 11.60 12.14 12.06 10.28 10.50 11.60 9.75 8.02 9.17 9.33 8.76 7.86 7.36 7.04 5.95 4.69 2.90 3.44 3.60
22.31 21.03 20.49 20.35 20.81 21.21 21.22 21.17 19.52 19.06 18.62 16.30 15.76 16.34 16.27 16.08 15.25 15.02 13.09 11.39 11.95 11.57 12.63 12.34 9.80 10.32 10.54 10.71 10.51 9.42 10.02 9.85 7.38 7.24 7.02 7.65 6.62 6.54 5.45 3.71 3.13 3.67 2.72 1.32
21.00 21.30 20.73 19.56 19.25 18.45 17.57 17.17 18.64 17.09 16.76 16.70 14.82 16.08 15.54 15.41 13.42 13.75 11.36 13.28 13.53 12.44 12.97 12.90 12.66 9.52 8.59 8.75 9.82 9.52 9.58 9.32 4.76 5.32 6.33 6.34 5.33 5.19 3.67 2.12 1.75 1.66 0.55 -0.60

GFSNGP_sfc_wetblb_078.txt.gz
Wetbulb
33.28 35.09 35.28 34.87 35.54 36.52 34.73 36.14 34.03 36.92 38.33 42.88 45.59 46.37 47.26 47.89 49.18 49.75 50.71 51.30 51.63 51.29 52.09 53.82 54.30 54.95 55.63 56.16 56.45 56.64 56.51 55.99 55.46 55.77 56.32 56.39 56.67 57.17 58.00 57.62 57.01 57.07 57.15 56.91
29.44 34.38 36.01 34.04 36.13 36.07 36.68 37.31 36.72 38.51 39.42 45.25 48.40 48.61 47.24 46.81 48.44 49.21 49.74 49.01 48.38 48.69 48.56 49.15 51.92 53.64 54.32 55.52 55.83 57.14 56.05 56.23 56.65 56.37 55.89 55.79 55.93 56.02 56.41 56.87 57.72 57.49 56.41 56.47
23.30 32.83 31.98 29.30 34.14 35.89 37.17 40.01 39.91 36.14 41.01 45.97 46.45 45.51 45.32 46.10 48.04 48.61 47.99 46.86 45.63 44.88 44.69 45.50 47.17 48.94 48.59 49.86 51.61 53.80 56.08 55.90 55.65 56.76 56.39 56.27 56.42 55.99 55.76 55.94 56.59 56.43 56.30 56.28
25.16 29.08 22.84 35.69 39.94 41.77 40.66 40.64 43.31 43.87 45.05 44.58 43.74 44.64 44.22 47.60 47.76 46.28 44.79 42.86 42.34 42.23 41.68 41.64 45.08 45.63 46.08 46.49 47.16 47.64 47.91 48.21 48.33 48.10 50.59 52.87 56.99 56.45 56.24 56.46 56.18 56.15 56.15 56.52
22.12 24.60 28.76 34.51 38.31 39.87 34.97 35.55 43.49 43.26 44.65 44.88 44.87 43.06 40.20 42.24 44.92 43.37 42.13 40.90 40.18 40.16 39.61 39.71 41.61 42.65 42.44 42.01 42.73 43.47 43.99 44.25 44.37 45.59 46.30 47.95 49.01 49.55 54.44 56.58 56.62 56.53 56.77 56.27
26.34 23.10 20.77 33.85 40.39 43.62 43.19 32.79 42.47 44.40 43.86 43.37 43.46 36.02 36.40 39.99 40.86 40.26 40.84 39.00 37.62 37.23 36.78 36.47 38.42 40.45 39.33 39.02 39.13 38.72 39.21 39.39 39.56 40.72 42.05 42.48 44.26 44.45 44.80 47.10 52.28 55.47 45.95 38.17
25.76 25.44 29.70 38.80 42.87 44.53 31.96 34.54 42.04 42.17 42.02 42.05 39.53 39.19 38.74 38.94 37.42 37.69 38.20 37.58 37.33 35.23 33.69 34.19 35.92 38.20 36.44 36.61 36.60 36.78 36.19 35.53 34.54 34.68 36.28 36.68 38.88 40.27 40.91 42.96 40.31 37.69 34.35 33.39
27.06 26.14 23.92 43.62 42.10 36.39 39.89 42.50 42.36 42.06 41.71 40.95 39.47 38.33 36.83 35.50 34.12 34.21 33.74 34.78 35.40 33.88 32.48 32.75 33.38 34.57 33.88 33.30 36.69 35.45 33.27 31.97 30.89 31.12 32.08 32.56 32.75 34.51 36.65 36.90 35.41 34.31 32.72 30.61
30.47 30.39 41.22 42.68 42.17 43.62 43.20 40.48 39.56 40.40 40.63 39.84 37.24 35.27 34.76 32.77 31.74 31.61 31.05 31.64 33.16 31.93 31.31 30.79 31.35 31.45 30.82 32.26 35.56 33.95 30.76 29.20 29.78 29.63 29.83 30.24 29.86 30.15 31.20 32.70 31.95 30.63 29.92 29.28
34.81 36.30 37.59 38.62 40.90 40.86 39.66 37.81 37.22 37.49 37.98 37.95 34.50 33.23 31.61 30.39 29.36 28.89 28.99 29.34 30.41 30.05 28.57 28.36 29.89 30.40 30.88 31.71 34.29 32.43 30.47 28.98 28.80 28.32 28.18 28.96 29.45 29.40 29.17 28.91 28.78 29.18 28.81 27.56
33.12 33.65 36.55 36.44 36.86 37.76 37.76 37.30 34.67 33.81 33.82 33.86 32.05 30.02 28.80 27.72 26.54 26.37 26.88 27.80 28.33 28.25 28.12 27.90 29.42 29.68 30.28 30.60 32.14 30.25 29.24 28.86 28.35 27.87 27.33 26.87 27.16 28.30 28.63 29.67 29.88 28.08 28.00 27.97
30.59 33.92 34.01 34.03 35.30 35.58 33.03 31.48 32.36 30.90 28.98 29.60 29.45 27.69 27.42 25.55 25.19 25.00 25.19 25.88 25.68 26.15 26.21 27.34 27.98 28.05 29.22 29.84 29.60 28.84 27.57 27.47 27.53 27.12 26.49 26.18 25.33 24.94 28.69 29.54 30.16 30.43 30.62 29.66
33.24 34.61 33.59 33.74 35.28 34.08 30.79 29.16 28.71 27.98 27.89 25.31 25.90 26.01 25.48 24.20 24.07 24.48 23.41 22.87 22.51 22.61 23.56 25.34 26.04 26.56 27.05 28.05 27.51 27.10 26.47 26.30 25.99 25.78 25.30 24.45 24.21 23.73 21.81 23.72 25.40 27.19 27.69 28.16
35.27 35.83 30.48 30.92 29.36 32.76 30.81 29.39 28.13 25.52 25.26 24.74 23.59 23.90 23.58 22.15 21.87 20.49 19.84 20.55 20.97 20.80 20.89 21.64 23.15 24.29 26.81 24.94 26.25 24.76 23.72 23.05 23.03 22.96 22.41 22.09 22.35 22.13 21.48 19.52 17.67 17.86 22.37 24.16
31.52 33.00 31.10 30.56 29.81 30.25 30.11 28.33 24.82 23.22 22.64 22.47 22.81 20.82 19.56 17.52 16.71 17.15 18.56 19.17 19.24 18.72 18.58 19.28 19.85 21.85 24.70 24.81 24.15 24.31 24.27 23.14 21.36 20.27 19.65 18.88 18.76 18.71 18.61 17.79 17.02 16.93 17.72 18.35
28.97 30.14 29.37 26.80 25.93 26.49 26.22 25.28 23.87 23.06 22.18 20.99 19.64 18.78 17.72 17.25 16.18 15.78 16.18 15.89 15.01 14.41 16.54 16.37 17.99 20.14 22.81 21.91 21.11 19.93 19.92 20.51 19.36 18.81 18.05 17.45 17.22 16.96 17.04 16.59 15.74 15.58 15.07 15.25
24.60 23.60 25.99 23.50 22.57 21.87 22.04 22.33 21.44 20.29 19.55 19.20 18.55 18.27 17.39 16.35 15.38 14.35 13.91 14.60 13.85 12.98 14.16 15.84 16.19 18.72 19.35 19.67 19.08 19.74 18.60 18.56 18.27 19.36 19.28 18.81 18.11 17.05 16.27 15.28 13.74 13.07 12.68 14.03
23.15 22.99 23.19 23.32 21.47 20.26 19.75 19.82 19.51 18.73 17.07 16.76 14.60 12.29 10.77 10.81 10.39 10.89 11.06 10.99 10.07 10.33 10.89 12.40 16.52 16.20 17.75 18.37 19.16 18.14 18.72 18.34 17.75 16.51 16.42 17.16 16.58 15.91 14.63 13.67 12.95 11.50 11.11 11.10
21.37 21.06 21.10 21.17 20.80 19.75 19.17 17.95 16.70 15.99 14.66 13.37 11.71 10.19 10.11 9.60 9.45 8.53 8.23 8.66 8.54 8.50 9.39 12.27 17.92 15.43 15.11 18.11 17.12 16.64 15.68 13.91 14.83 15.10 14.83 12.94 13.36 13.61 11.98 11.10 10.27 9.29 9.43 9.46
18.87 19.24 18.66 17.35 16.90 16.02 14.43 12.67 12.79 12.55 11.80 10.04 8.11 7.61 7.79 6.99 6.57 6.10 6.73 6.71 6.83 8.57 11.40 12.47 14.31 14.48 14.46 14.12 14.28 13.93 13.23 12.14 12.96 11.03 10.24 9.91 9.42 8.92 9.19 8.26 8.14 7.86 8.15 6.63
10.68 11.83 11.20 11.45 10.79 10.62 8.37 4.78 7.16 7.86 6.06 5.43 5.18 0.59 0.13 0.93 2.25 1.42 3.84 6.26 7.08 9.86 11.52 11.88 12.37 12.86 13.53 12.45 12.07 9.77 10.08 9.05 7.93 6.96 5.16 1.94 1.70 3.47 4.12 1.49 1.83 -0.36 3.11 2.23
7.13 8.52 6.12 6.78 8.54 9.53 4.14 5.09 7.26 5.84 5.04 4.08 1.57 -0.73 2.67 3.74 0.68 3.61 1.67 6.74 8.96 6.26 8.81 10.39 11.68 8.78 9.79 10.27 10.15 8.30 8.58 7.49 6.70 5.98 3.58 0.84 -2.30 -3.24 -6.14 -7.41 -10.67 -11.03 -9.95 -11.22
7.31 8.16 7.94 5.75 7.09 5.99 5.76 5.16 2.17 4.48 2.55 0.14 -0.37 0.72 5.56 7.86 8.17 4.44 4.14 9.40 9.64 6.38 9.47 6.62 5.07 4.89 4.82 4.04 1.63 1.28 2.28 2.73 2.26 -0.92 -4.69 -6.14 -8.14 -9.95 -10.13 -10.49 -12.67 -13.94 -13.03 -8.50
9.02 8.81 7.59 6.31 6.84 10.49 9.05 6.67 10.36 8.95 3.10 7.75 3.63 7.54 11.21 5.15 2.10 9.46 8.60 4.37 0.72 -2.28 -0.14 0.48 2.70 -0.37 -3.68 -3.67 -5.96 -8.14 -10.13 -11.40 -10.67 -10.49 -9.40 -10.67 -13.94 -13.57 -15.75 -17.02 -15.20 -17.56 -13.21 -13.75
12.42 14.29 15.58 14.19 15.67 12.85 14.03 14.45 14.25 13.94 14.03 13.34 12.29 11.97 11.17 10.02 0.89 1.77 -1.39 -0.47 5.31 1.33 -4.34 -6.69 -3.13 -5.23 -9.77 -12.85 -13.75 -8.50 -11.58 -13.75 -15.39 -14.12 -11.94 -13.94 -11.94 -14.48 -17.02 -17.56 -16.47 -13.75 -14.48 -16.11
18.60 15.94 16.60 16.79 15.44 15.38 16.59 17.09 14.05 14.69 12.90 5.94 3.20 -3.60 -4.52 1.54 4.09 5.01 1.99 2.00 1.66 1.23 -1.93 -9.65 -10.91 -12.35 -12.31 -9.96 -12.85 -12.30 -9.22 -8.21 -11.51 -13.21 -11.94 -13.21 -13.75 -12.85 -15.02 -16.11 -17.56 -17.20 -18.83 -17.56
15.09 15.02 15.08 12.87 12.38 11.60 10.46 12.61 8.60 6.03 5.49 5.13 5.85 1.81 -0.65 -4.01 -3.45 0.98 -4.33 -5.41 -5.80 -7.77 -9.58 -2.89 -1.14 -3.16 -4.73 -6.14 -7.62 -10.13 -11.22 -11.58 -12.85 -11.58 -15.75 -14.48 -15.75 -14.12 -17.20 -18.11 -18.83 -19.74 -19.74 -19.37

GFSNGP_sfc_wetblb_081.txt.gz
Wetbulb
31.39 32.59 33.14 32.62 32.78 34.09 32.85 33.34 30.66 33.14 35.72 41.47 43.54 44.20 46.19 47.80 48.52 46.68 46.44 47.09 48.43 49.57 51.17 52.92 53.46 54.50 55.21 55.21 55.85 55.94 55.45 55.43 55.27 54.97 55.43 55.47 55.41 56.16 56.75 57.25 56.81 56.10 55.11 54.38
28.23 31.60 32.53 31.35 32.61 34.49 34.59 35.34 35.64 35.84 35.44 43.95 46.98 47.37 46.79 46.56 46.51 44.45 44.50 44.54 45.21 46.55 47.60 48.08 48.61 49.52 50.12 50.55 52.11 55.99 55.79 55.17 55.65 55.33 55.39 55.21 55.47 55.39 55.53 55.51 55.64 56.18 56.57 56.34
21.15 28.70 28.66 25.69 32.35 35.21 36.36 37.73 35.99 32.50 38.23 45.48 45.57 46.64 46.09 46.58 44.32 41.94 42.03 41.97 41.97 41.88 43.53 44.31 44.71 45.49 45.18 46.91 48.31 49.19 49.94 49.98 50.27 54.11 55.71 54.97 54.97 54.99 54.98 54.84 55.55 55.45 55.32 55.58
22.54 25.52 14.84 31.92 38.92 38.77 37.62 38.97 40.20 41.14 42.21 44.80 43.01 42.37 44.41 44.46 41.64 39.61 39.43 39.26 39.23 39.65 40.07 41.28 42.14 42.54 42.63 43.17 44.07 43.91 43.78 43.80 44.42 46.89 47.98 50.08 51.96 55.94 55.35 55.45 55.05 55.59 55.78 56.27
19.98 20.83 25.41 30.82 36.86 36.42 34.85 35.73 39.73 41.97 42.50 41.66 40.79 39.65 37.64 41.12 40.22 38.28 37.71 37.31 36.99 37.40 38.16 39.54 39.74 40.51 40.32 39.75 39.47 39.20 38.68 38.70 39.12 41.74 41.79 43.74 44.84 45.44 47.15 49.02 53.07 55.97 56.36 55.80
24.44 19.40 16.69 30.68 38.99 41.45 39.76 31.89 40.45 43.23 42.21 41.31 42.83 33.68 33.31 37.23 38.35 37.25 36.42 35.89 34.97 35.17 35.19 36.13 38.02 38.69 38.06 36.56 34.81 34.38 34.63 34.87 35.79 37.13 36.50 36.70 38.72 39.26 42.15 45.29 42.62 40.53 35.01 33.61
24.25 21.69 26.69 36.94 42.47 42.73 30.85 32.95 40.64 42.07 42.59 39.68 35.43 35.87 35.44 35.66 35.06 35.51 35.33 35.08 34.62 33.63 32.30 32.82 35.97 36.81 35.62 35.43 32.64 32.70 32.59 32.17 31.93 32.66 33.85 33.77 34.79 36.31 37.05 37.89 36.03 33.53 30.93 30.49
24.82 23.18 21.09 41.28 41.07 33.56 38.33 40.98 40.78 40.51 39.44 37.48 35.52 33.89 32.94 32.94 32.13 32.03 32.19 32.53 33.22 31.72 30.81 31.64 32.58 34.16 32.90 33.44 33.54 31.78 31.17 30.37 30.30 30.77 31.28 31.88 31.85 32.53 32.97 33.46 32.42 31.58 30.61 29.83
29.62 28.07 38.70 40.55 41.39 42.29 40.29 38.83 38.73 39.67 39.01 37.07 33.81 32.38 31.65 30.07 29.30 29.13 29.69 30.16 31.02 30.63 30.12 30.47 31.12 31.08 30.24 32.34 33.56 31.46 29.89 28.93 28.88 29.43 29.94 30.29 29.89 29.92 29.74 30.64 30.14 29.18 28.59 27.63
33.51 33.87 34.65 37.19 37.07 36.59 35.64 34.00 35.44 36.30 35.45 34.20 30.91 30.26 28.71 27.86 27.35 27.48 27.35 27.98 29.66 29.10 28.06 28.03 29.55 29.76 29.89 31.67 32.17 31.05 29.01 28.33 28.55 27.47 27.79 28.86 29.42 29.44 29.08 28.69 28.08 28.00 27.62 26.83
33.10 34.21 35.13 33.93 33.40 34.88 33.30 32.73 31.50 31.60 31.87 30.59 29.24 27.78 27.05 25.51 25.69 26.22 26.05 26.61 26.86 27.10 26.58 26.53 27.31 27.49 28.71 29.20 30.71 29.01 28.64 27.91 27.22 27.17 26.49 25.56 26.50 27.40 27.26 28.70 29.48 27.88 27.79 28.26
28.54 32.61 32.22 31.89 32.46 32.08 29.37 28.36 28.83 27.60 26.28 27.68 27.64 26.03 25.68 24.17 24.45 23.96 23.06 23.70 23.44 24.35 25.06 25.52 26.04 25.97 26.58 27.42 27.52 27.89 26.70 26.72 26.63 25.95 25.92 25.28 23.57 22.85 27.18 27.71 28.20 28.68 28.71 27.28
31.81 33.49 33.10 32.50 30.96 30.05 27.27 26.77 26.58 25.55 25.12 24.10 25.23 24.85 23.88 22.16 22.17 22.73 21.22 21.15 21.14 21.61 22.37 23.26 23.81 24.54 25.37 26.69 26.18 25.36 24.61 24.60 23.64 23.68 23.39 23.05 21.57 20.93 18.61 21.42 24.67 25.48 26.00 26.46
33.62 34.71 29.44 31.30 28.50 29.11 27.28 25.81 25.78 23.98 23.72 22.77 21.62 21.66 21.34 20.06 19.86 19.10 18.82 20.01 20.01 19.79 20.12 20.68 21.42 21.67 24.20 25.61 24.35 21.66 20.56 20.80 20.11 18.84 17.88 17.45 17.46 16.73 16.44 15.36 14.22 15.24 20.56 22.43
30.66 30.12 28.80 29.40 29.05 27.87 27.27 25.41 22.83 21.67 21.00 19.95 20.35 19.17 18.22 16.10 15.32 15.31 17.13 18.56 18.37 17.52 17.41 18.14 18.58 19.62 22.16 23.07 22.31 21.73 21.07 18.68 16.51 16.26 15.84 15.15 15.74 15.14 14.42 13.86 13.04 13.06 13.67 14.73
28.50 27.62 26.24 24.50 23.95 24.60 24.40 23.62 22.14 20.91 20.11 19.30 17.79 16.85 16.49 15.85 15.12 14.86 15.24 15.09 13.67 12.29 14.73 15.11 16.24 17.95 20.59 19.40 18.42 17.54 17.59 18.57 15.76 16.02 15.25 14.78 14.45 13.89 13.11 12.23 11.53 10.86 10.38 10.89
23.87 22.93 23.42 21.38 21.16 21.11 20.65 21.13 20.58 19.58 19.26 17.91 17.33 17.24 16.12 15.04 14.23 13.25 12.64 13.34 11.86 11.10 12.20 12.83 13.19 14.98 16.16 15.45 14.69 15.73 13.92 15.28 15.27 16.57 15.96 15.26 14.69 13.08 12.31 11.06 9.85 9.04 8.26 8.81
22.19 22.26 22.41 21.94 20.57 19.64 18.83 19.06 18.68 17.58 15.62 14.90 12.49 10.55 9.60 9.57 9.35 9.32 8.24 8.71 7.88 8.14 9.00 9.60 12.21 12.55 13.78 13.65 15.06 15.20 15.18 15.42 14.90 13.82 13.91 12.58 11.87 11.37 9.73 9.17 8.94 7.38 6.39 6.13
21.56 20.61 20.97 20.61 20.14 19.15 17.88 16.07 14.73 13.42 10.93 9.44 8.47 5.83 5.08 3.89 1.42 -0.41 -0.72 2.21 2.30 3.80 7.58 7.98 16.40 12.11 11.81 15.59 13.97 13.24 12.03 10.76 11.72 11.62 11.69 8.25 8.89 9.43 7.52 6.41 5.06 3.71 4.62 4.66
18.53 18.60 17.34 15.70 15.27 14.67 12.16 9.83 10.28 9.10 7.69 7.65 4.67 2.62 1.55 -3.10 -4.73 -3.65 -2.65 -0.57 1.40 5.62 8.52 9.79 11.61 11.91 11.97 11.48 10.89 11.22 9.09 7.08 9.70 7.02 5.29 4.97 3.43 1.39 3.63 3.82 4.16 2.60 -0.21 1.31
9.21 10.28 9.31 8.64 5.95 3.76 2.14 -0.12 4.53 3.28 -0.16 0.54 1.96 -3.82 -4.37 -3.66 -2.11 -3.66 1.02 3.87 4.28 7.09 9.51 9.99 9.71 10.27 10.83 9.14 9.05 5.30 5.06 3.70 3.30 1.06 -1.23 -3.33 -2.47 -2.31 -4.57 -4.56 -2.40 -3.31 -4.73 -4.73
4.34 6.04 2.70 4.71 5.67 4.51 0.68 2.73 4.93 2.83 2.00 -0.78 -7.82 -7.34 -3.08 -1.40 -2.59 -0.14 -3.64 3.35 7.41 3.52 7.25 7.88 8.22 2.15 4.75 5.44 5.52 2.46 4.11 2.60 1.21 -0.22 -3.36 -5.64 -7.10 -9.08 -13.43 -13.07 -13.07 -13.07 -14.70 -15.06
3.96 4.85 4.88 3.42 5.06 3.43 3.22 1.91 -1.55 0.52 -3.12 -4.91 -4.55 -3.01 2.18 4.88 5.52 0.71 -0.12 7.62 8.34 4.65 7.80 1.63 -0.73 -1.36 -1.79 -2.45 -2.75 -4.09 -4.23 -5.30 -6.72 -9.63 -12.71 -14.88 -15.79 -16.51 -15.43 -16.15 -17.78 -17.60 -17.97 -15.97
5.85 6.06 4.71 3.68 4.47 8.60 7.53 4.97 8.47 6.78 0.77 5.61 0.34 -1.03 8.10 -0.29 -2.78 7.65 6.05 0.02 -4.83 -6.75 -5.65 -5.82 -4.91 -4.91 -7.99 -12.16 -12.71 -14.34 -15.97 -17.06 -16.33 -16.88 -13.98 -15.79 -20.32 -20.50 -20.14 -21.23 -17.60 -19.42 -17.24 -15.97
9.96 9.13 9.10 8.45 12.39 10.92 12.17 12.64 12.18 12.15 12.17 11.53 11.29 11.19 10.43 8.38 -0.56 0.49 -3.00 -1.92 1.05 -1.26 -5.83 -10.35 -6.91 -8.90 -14.52 -16.15 -15.43 -14.88 -16.15 -17.78 -18.33 -17.78 -17.78 -17.42 -17.97 -19.60 -21.23 -21.05 -20.87 -19.60 -21.05 -22.13
15.57 13.84 15.28 15.34 14.37 13.57 14.40 15.90 13.08 13.05 12.61 7.92 4.41 -5.09 -5.82 -2.56 1.26 1.26 -1.77 -2.28 -0.10 -1.16 -5.11 -11.64 -13.08 -14.89 -15.25 -13.25 -14.88 -15.06 -14.34 -11.48 -15.25 -15.43 -16.88 -16.33 -17.60 -17.24 -19.23 -18.87 -20.87 -19.78 -21.59 -21.95
15.07 13.00 13.07 11.77 11.31 10.24 8.91 9.93 7.77 6.75 6.17 4.93 4.00 -0.83 -2.31 -7.45 -7.27 -2.24 -5.64 -5.09 -7.63 -10.71 -10.35 -11.62 -11.44 -4.55 -9.08 -11.80 -12.71 -11.62 -11.44 -11.80 -13.43 -13.25 -18.33 -18.87 -19.60 -18.15 -18.87 -19.23 -20.32 -22.68 -24.85 -25.04

GFSNGP_sfc_wetblb_084.txt.gz
Wetbulb
29.67 31.12 31.33 30.72 30.44 31.69 30.92 31.89 28.55 30.08 31.68 36.50 40.41 43.81 45.09 46.89 45.21 44.86 44.78 46.43 48.09 49.28 51.00 52.26 53.28 54.27 54.57 54.84 54.78 54.80 54.24 53.81 53.65 53.72 54.08 54.18 54.32 54.79 55.36 55.03 54.04 52.80 52.72 53.34
27.68 29.95 29.87 29.13 30.50 30.00 30.19 31.52 32.22 33.08 33.09 40.75 43.79 47.21 45.92 43.43 42.08 41.67 42.02 42.64 44.14 45.07 46.34 47.04 47.80 48.38 49.25 49.79 52.12 56.08 54.16 54.08 55.75 53.94 54.12 53.74 53.62 53.74 53.79 53.95 54.27 53.99 53.53 53.73
19.53 26.66 27.07 23.08 28.85 32.31 33.01 35.62 35.23 31.88 36.44 42.70 44.05 45.85 45.38 41.83 39.93 38.86 39.12 39.50 40.22 41.01 42.27 42.56 42.86 43.77 44.10 45.38 47.84 48.38 48.26 47.66 48.21 51.32 54.55 54.56 54.76 55.10 55.04 55.38 55.20 54.43 54.55 55.21
23.27 24.30 12.57 27.18 37.31 37.77 34.92 36.14 36.94 38.91 40.53 40.65 42.48 39.97 39.19 39.98 38.76 37.01 36.84 36.38 36.65 38.48 38.90 39.47 40.41 40.44 40.89 40.82 40.87 41.11 41.01 41.02 42.77 44.06 45.06 46.61 47.92 47.84 51.25 53.65 55.10 55.24 55.04 55.32
19.16 20.32 24.19 28.31 35.52 33.57 31.72 31.84 38.68 37.45 40.58 42.26 38.81 37.30 34.54 38.06 36.80 36.01 35.50 35.08 34.67 35.72 37.09 38.04 38.40 38.10 36.92 35.90 36.19 36.41 35.88 36.22 37.92 38.84 39.61 40.60 40.16 40.89 43.39 46.71 44.39 39.35 38.23 39.19
23.91 19.22 13.44 25.69 37.51 40.82 39.93 28.94 36.84 40.37 41.92 38.86 41.58 33.60 30.63 35.21 35.78 34.66 33.91 33.95 33.14 33.43 33.61 35.26 36.83 37.20 33.99 32.74 32.25 31.75 32.51 33.20 34.54 35.77 35.73 36.01 36.77 37.70 39.53 38.82 35.79 35.10 32.50 32.87
23.62 22.94 25.09 34.20 39.19 41.59 29.41 30.32 34.95 36.64 34.43 33.94 31.03 33.52 33.83 34.95 34.14 33.63 33.10 33.08 33.23 32.15 31.13 31.77 35.07 35.84 33.49 31.73 29.72 30.91 31.59 31.96 32.02 32.91 33.20 33.68 34.12 34.88 35.44 34.69 32.95 31.36 29.94 29.84
26.68 23.66 19.86 38.08 39.48 33.60 37.28 36.56 34.17 33.96 32.59 31.48 31.62 31.62 31.34 30.91 30.29 30.41 30.05 30.80 31.68 30.45 30.14 30.69 31.73 33.23 32.40 31.20 31.68 30.97 30.21 30.09 30.12 30.59 31.20 31.93 31.85 32.03 32.43 32.36 30.93 30.02 29.30 28.59
28.82 28.08 35.45 35.43 35.42 36.53 36.33 34.08 35.96 33.90 34.11 33.09 31.04 29.31 29.42 28.20 27.47 27.95 28.89 29.47 30.11 29.23 28.36 28.89 29.46 29.65 29.68 31.07 31.66 30.68 29.53 28.49 28.49 29.20 29.76 29.91 29.80 29.81 29.41 30.02 29.41 28.63 28.22 27.52
32.66 32.32 31.49 33.13 34.03 33.33 32.95 31.58 32.88 33.40 32.86 31.77 28.65 28.11 26.86 27.02 26.38 26.33 26.43 26.82 27.80 27.14 26.20 25.95 27.15 28.01 28.25 30.76 30.88 29.50 27.63 26.90 27.36 26.84 27.06 27.83 28.04 28.46 28.58 28.59 27.85 27.61 27.02 26.89
31.47 33.28 32.67 30.53 31.20 31.29 30.50 30.66 29.10 29.48 29.65 28.59 27.13 25.79 25.65 24.65 24.13 23.92 23.97 24.85 25.68 25.31 25.05 24.83 25.75 26.26 27.29 28.14 29.90 28.42 27.69 26.94 26.11 25.73 24.61 25.02 25.99 26.28 26.46 27.93 27.93 26.12 26.13 26.43
25.52 31.68 30.21 28.18 29.47 29.96 27.62 26.21 26.79 26.26 25.56 26.03 25.81 24.26 23.77 22.03 22.04 22.10 21.89 22.86 22.58 23.12 22.81 23.75 24.25 24.48 25.08 26.14 27.05 26.32 25.39 25.40 25.23 24.19 23.96 22.36 21.60 22.40 26.99 27.22 27.86 28.03 27.75 26.64
30.34 31.85 30.04 29.08 28.37 28.11 25.61 24.44 24.56 24.07 24.00 22.31 22.95 22.30 21.66 20.52 20.99 21.74 20.35 20.29 20.21 20.62 21.22 21.88 22.26 22.75 24.76 24.45 23.44 23.25 22.85 22.88 21.73 20.86 21.20 19.80 18.46 17.94 15.13 19.11 23.49 24.75 25.40 25.89
30.79 33.78 28.63 28.01 25.51 26.21 25.03 24.05 23.96 22.10 21.62 20.87 20.17 20.13 19.38 18.28 18.48 18.09 18.00 19.37 19.21 19.00 19.16 19.76 19.88 20.13 22.41 22.53 21.71 19.41 18.04 16.84 16.63 15.78 15.35 14.42 13.55 13.55 13.63 12.41 11.70 12.88 18.16 20.93
28.21 28.67 27.59 27.07 26.37 25.19 25.14 23.83 21.24 19.99 19.51 18.33 18.99 18.03 17.49 15.62 14.66 14.67 16.33 17.75 17.60 16.30 16.02 16.57 16.77 17.56 20.29 21.53 19.79 18.63 18.31 16.11 14.44 14.22 13.48 12.93 13.20 12.81 11.91 10.66 9.53 9.40 10.51 11.94
26.43 25.29 24.19 22.59 21.89 22.25 22.38 22.61 20.58 19.35 18.81 17.82 16.86 16.05 15.61 14.95 14.17 13.76 13.99 13.51 12.26 10.86 12.72 12.91 14.20 15.20 17.88 17.30 16.38 15.39 14.32 16.33 14.73 14.19 12.75 11.99 11.45 10.68 9.78 8.90 7.84 6.85 6.72 6.48
23.98 21.38 22.39 20.47 20.22 19.77 19.68 20.50 19.47 18.51 17.42 16.52 16.23 16.19 15.06 13.63 12.12 10.82 10.23 11.46 10.13 9.90 11.09 11.36 11.26 12.91 14.66 14.19 13.60 14.36 13.47 13.34 13.46 13.61 12.79 12.11 11.16 9.86 9.32 7.73 6.66 5.64 4.72 4.32
21.96 21.48 21.35 20.58 19.93 18.82 17.82 17.76 17.02 15.58 13.44 12.43 9.99 7.53 5.49 5.12 4.66 4.06 3.31 5.71 5.12 5.76 6.88 6.48 8.15 8.80 10.66 10.64 12.08 12.47 12.19 13.01 13.05 11.71 11.03 9.18 8.98 8.46 6.34 6.10 5.71 4.28 3.06 2.62
20.16 19.23 19.47 19.02 18.44 17.20 15.89 14.28 12.78 11.19 8.73 7.24 5.27 2.10 0.24 -2.09 -3.52 -5.12 -4.07 0.36 0.62 3.38 5.57 5.47 15.05 10.45 9.90 13.87 11.54 10.69 9.33 8.09 9.56 9.06 8.83 4.82 4.57 5.79 3.01 1.39 0.19 -1.42 -0.03 0.40
16.53 16.39 15.39 13.80 13.49 13.03 10.21 7.46 8.41 6.86 4.76 4.19 1.23 1.05 0.04 -5.12 -8.38 -5.49 -4.94 -0.77 0.68 4.20 6.77 7.97 9.62 9.88 10.26 9.37 8.64 8.28 6.20 3.86 7.38 3.15 1.73 0.84 -3.54 -5.85 -3.13 -0.64 -1.01 -6.03 -10.02 -8.57
8.03 9.15 8.00 6.83 3.40 2.99 1.01 -1.92 2.72 0.91 -3.15 -3.76 0.06 -6.93 -6.57 -6.93 -6.58 -7.11 -0.29 2.50 4.81 5.92 8.10 7.90 7.34 8.05 8.33 6.65 6.31 0.70 0.62 -0.92 -2.15 -3.90 -6.40 -8.93 -9.67 -9.47 -12.92 -14.91 -12.92 -14.73 -13.28 -11.47
3.60 4.24 0.86 3.76 4.72 2.49 -0.95 -0.17 2.17 -1.59 -2.30 -5.69 -12.01 -12.01 -7.30 -3.53 -4.76 -2.46 -5.48 1.89 7.43 1.92 5.38 5.87 5.41 -2.37 2.26 2.74 3.01 -1.61 0.80 -0.45 -2.88 -4.61 -9.11 -12.55 -14.73 -17.09 -18.54 -18.72 -17.27 -18.17 -19.62 -18.90
1.60 3.60 3.66 1.59 3.02 1.22 0.18 -0.91 -3.86 -2.70 -4.76 -6.93 -6.75 -4.60 0.42 3.47 3.96 -0.72 -1.48 5.98 7.05 2.95 5.85 -1.25 -4.27 -5.66 -6.75 -7.21 -8.03 -10.92 -10.38 -12.19 -13.46 -14.73 -16.90 -19.62 -19.80 -20.71 -19.08 -17.99 -19.62 -19.80 -19.26 -16.72
3.85 4.65 3.13 1.92 2.73 7.40 6.77 3.86 7.37 5.77 -1.32 3.03 -1.17 -3.58 6.31 -1.48 -4.66 6.45 4.71 -1.86 -6.59 -8.93 -7.67 -7.84 -8.20 -7.48 -10.92 -15.45 -16.18 -17.45 -17.63 -18.90 -18.72 -19.62 -15.64 -18.72 -23.25 -23.79 -21.98 -23.07 -19.44 -22.34 -21.80 -20.35
7.94 6.93 7.14 7.71 11.64 11.59 11.28 11.25 10.86 10.98 10.84 11.03 10.69 10.58 8.97 7.14 -2.07 -0.67 -4.24 -3.18 -0.96 -2.87 -6.93 -12.01 -9.29 -10.74 -16.90 -18.35 -18.17 -18.17 -18.72 -19.80 -19.99 -20.53 -18.90 -19.44 -19.62 -21.62 -23.07 -23.61 -22.89 -21.62 -23.25 -24.34
15.59 13.60 13.71 15.32 13.77 12.02 13.10 14.32 10.81 11.18 11.38 5.44 3.65 -4.58 -6.21 -5.12 -0.87 -1.05 -3.38 -4.42 -2.45 -2.97 -6.39 -12.73 -15.27 -17.27 -16.72 -14.37 -16.18 -16.90 -16.54 -14.00 -16.72 -17.63 -19.62 -18.54 -20.71 -19.44 -21.80 -20.89 -22.89 -21.98 -23.61 -24.88
13.32 11.84 11.81 10.15 9.47 8.47 7.07 7.06 2.94 1.77 4.43 2.93 3.47 -2.76 -4.23 -9.11 -10.02 -4.94 -7.66 -9.65 -10.02 -10.74 -12.92 -15.45 -15.45 -9.65 -11.28 -14.37 -15.09 -15.09 -11.10 -12.01 -13.28 -13.46 -18.72 -20.89 -21.80 -21.62 -21.44 -19.44 -20.53 -22.52 -25.61 -27.06

GFSNGP_sfc_wetblb_087.txt.gz
Wetbulb
31.73 32.44 32.48 31.62 31.48 32.73 30.93 31.83 27.53 30.55 31.47 35.94 39.52 40.90 44.54 43.51 42.95 41.42 40.51 41.58 43.40 45.57 48.85 51.61 53.36 54.23 54.93 56.00 57.44 57.94 57.64 57.96 57.73 58.43 59.20 59.12 58.84 58.60 58.13 57.08 56.56 56.84 57.43 58.14
28.65 31.46 31.26 29.13 31.60 31.98 31.58 32.05 32.05 32.99 33.33 41.22 43.79 45.37 43.58 41.34 40.06 38.07 37.47 38.69 40.00 41.19 42.77 44.35 46.05 47.95 48.19 50.94 56.43 57.28 56.53 55.76 56.84 57.44 58.01 58.30 58.43 58.43 58.64 58.33 57.58 56.95 56.42 56.97
24.22 28.74 29.00 24.71 29.74 31.90 33.25 35.67 36.02 30.93 37.00 40.29 41.63 40.52 40.65 38.78 37.47 35.56 35.22 35.69 36.54 38.02 39.00 40.43 41.31 42.39 43.53 44.12 45.56 45.72 45.67 45.76 47.50 51.32 51.15 51.86 54.80 56.12 56.78 56.81 57.52 56.62 56.27 55.56
24.96 26.28 17.03 29.94 35.66 37.04 35.80 36.50 37.47 37.05 38.53 40.55 40.21 37.27 36.66 38.41 36.50 34.45 33.65 33.85 34.11 35.32 37.10 37.40 38.33 38.15 38.85 39.74 40.12 39.95 39.93 40.17 41.52 43.45 43.77 44.28 45.26 46.21 48.73 47.82 45.02 46.78 44.48 47.44
23.61 23.24 26.73 30.51 36.48 34.90 34.17 32.91 35.07 33.99 36.07 37.14 37.13 35.02 33.06 35.63 34.90 33.93 32.95 33.02 33.04 33.72 35.21 36.62 35.38 35.34 35.29 34.95 35.58 35.24 35.10 36.09 37.41 39.14 39.20 39.50 39.91 40.83 42.61 40.47 37.54 36.28 35.67 36.42
25.54 19.78 17.09 27.96 36.65 40.71 40.33 29.58 34.48 33.06 32.15 39.58 37.58 32.34 28.90 33.86 33.91 32.93 32.38 32.59 32.05 32.15 32.48 34.52 35.67 35.22 32.99 32.17 32.32 31.89 32.77 33.19 34.95 35.57 36.10 35.69 36.94 36.75 36.48 35.60 34.11 33.09 31.83 32.38
24.61 23.01 26.89 33.78 37.42 41.40 28.79 29.15 34.37 32.91 30.77 28.90 26.96 30.55 31.61 32.46 31.26 32.08 31.72 31.84 32.39 31.13 29.83 30.78 34.16 34.20 32.10 31.97 30.29 31.73 33.05 33.25 33.16 33.83 33.91 34.33 34.33 35.14 34.60 33.31 32.10 30.67 29.89 30.18
26.51 23.90 20.79 34.40 37.23 31.82 35.18 34.51 34.01 32.02 30.89 28.65 28.26 28.44 28.43 28.91 28.90 29.65 29.53 29.77 30.23 28.79 28.43 29.48 30.87 32.67 30.89 29.89 31.14 31.49 31.48 31.16 31.32 31.76 32.41 33.31 32.85 32.89 32.80 32.41 31.23 30.37 29.91 29.40
30.51 28.95 32.39 32.90 31.46 32.86 33.98 32.89 32.89 31.99 31.37 29.44 27.62 27.26 27.69 26.94 27.05 27.19 27.58 27.99 28.37 27.53 27.11 27.58 28.73 29.23 29.55 29.87 30.43 29.76 29.27 28.76 29.05 29.79 30.32 31.09 31.30 31.69 31.45 31.54 30.75 29.75 29.37 28.84
27.94 29.27 28.80 30.28 31.55 31.35 30.71 29.45 30.49 30.91 29.91 29.19 26.90 26.92 25.63 25.10 25.01 24.81 25.22 25.53 26.44 26.13 25.32 24.92 26.81 27.37 28.18 30.39 30.13 29.26 28.61 27.80 28.52 28.54 28.88 29.58 30.03 30.02 29.43 29.71 29.53 28.97 29.02 28.31
29.49 30.59 30.38 28.14 28.95 29.20 29.06 29.52 28.28 28.03 27.93 26.97 25.37 23.71 23.61 22.95 23.09 23.35 23.44 24.28 24.76 24.32 24.30 24.39 25.93 25.63 26.33 28.02 29.62 28.12 27.54 27.14 26.60 26.90 27.30 26.89 26.90 27.91 27.93 28.66 28.78 26.85 26.98 27.42
23.56 29.35 26.63 25.34 27.63 28.07 25.59 25.64 26.34 25.24 23.45 23.85 23.88 22.54 22.63 21.47 21.74 21.65 21.75 22.66 22.33 22.68 22.80 23.15 23.88 24.31 25.14 26.29 28.13 27.55 26.16 25.80 25.66 25.54 25.35 25.53 25.00 23.85 26.27 26.75 27.24 27.69 27.75 27.45
29.52 29.31 27.49 26.67 26.68 27.08 24.26 23.36 23.39 22.35 22.38 21.02 21.79 22.02 21.64 20.67 21.08 21.64 20.56 20.28 20.42 20.70 21.67 22.19 22.13 22.10 23.46 24.26 24.12 23.51 23.76 24.07 24.00 24.12 24.06 22.90 22.93 22.09 19.69 20.56 23.07 23.91 24.88 25.20
31.17 30.20 26.01 26.70 23.93 25.82 24.24 22.94 23.29 21.50 21.32 20.82 20.18 20.28 19.75 18.49 18.70 18.45 18.41 19.26 19.18 19.15 19.57 20.17 20.46 20.41 22.95 23.35 22.39 21.45 21.21 19.46 22.11 21.85 21.69 21.29 20.82 20.10 20.14 19.83 18.27 17.72 18.56 20.44
26.67 27.73 26.52 26.23 25.38 24.24 24.25 23.35 20.88 19.72 19.62 18.69 19.15 18.19 17.85 16.13 15.15 15.07 16.68 17.76 17.79 16.99 16.83 17.74 17.79 18.65 21.78 22.62 21.39 21.36 22.08 20.57 20.26 20.22 19.22 18.98 19.45 18.72 17.75 16.92 15.79 15.89 17.16 16.10
25.25 24.72 24.08 22.26 22.15 22.66 23.12 21.39 19.81 18.95 18.83 18.03 17.27 16.40 15.83 15.32 14.40 14.15 14.40 14.41 13.80 12.69 13.88 13.73 15.18 16.60 19.01 19.88 20.50 20.37 19.90 18.16 19.06 20.16 19.27 18.68 17.90 16.85 16.01 15.13 14.28 13.38 12.72 12.53
24.18 21.87 21.98 20.47 20.41 19.96 19.53 19.78 18.72 17.60 16.86 16.12 15.65 16.06 15.46 14.11 12.74 11.83 11.30 12.28 11.48 11.33 12.83 13.14 12.72 13.57 15.17 15.69 18.99 20.39 20.28 19.03 16.92 19.14 18.23 17.65 16.82 15.64 14.89 14.07 12.50 11.47 10.16 9.02
22.32 22.02 21.95 21.79 20.22 18.85 18.04 17.48 16.72 15.72 13.95 12.95 10.76 9.06 7.27 6.91 7.09 7.16 6.64 8.77 9.34 10.09 10.32 10.49 14.27 13.23 14.31 15.56 17.26 18.64 18.77 18.30 17.80 16.42 16.30 15.64 14.77 14.32 13.50 12.40 11.31 10.46 10.12 8.16
20.98 20.15 19.88 19.47 19.15 17.73 16.30 14.80 13.10 11.94 10.48 9.38 7.35 4.51 3.78 3.12 4.45 4.47 5.86 6.17 7.11 9.21 9.43 11.33 14.69 13.57 13.76 15.16 15.57 16.84 16.42 16.05 15.33 14.72 13.90 11.49 12.65 12.33 11.81 11.51 10.29 9.88 9.43 8.46
17.02 17.02 16.34 15.27 14.87 13.84 11.35 10.25 10.81 8.33 7.54 6.68 4.78 5.51 5.27 2.21 1.31 3.90 6.67 6.89 7.95 9.58 11.20 11.61 12.71 12.94 12.67 11.46 11.60 14.19 14.32 14.47 13.23 12.08 11.98 11.29 11.26 10.85 10.26 7.78 9.14 8.71 8.69 7.60
11.79 11.83 10.46 9.12 6.86 6.14 5.90 6.80 7.87 6.22 4.07 4.73 6.21 3.25 2.81 3.08 3.35 3.93 8.12 8.93 9.31 9.95 10.75 10.06 10.64 12.03 12.07 11.24 11.92 11.89 12.05 11.36 10.52 10.10 9.77 9.31 9.26 8.75 8.22 8.03 8.16 8.16 7.98 7.51
9.84 8.74 7.92 8.38 8.54 6.85 5.55 7.37 6.47 4.85 4.77 2.41 -1.44 -0.07 3.83 6.74 5.61 6.97 4.61 8.69 11.13 6.88 10.01 10.72 9.85 2.95 7.58 8.92 10.69 10.66 10.09 9.43 9.26 9.48 8.50 8.36 8.22 7.57 6.78 6.87 6.42 6.01 5.88 5.81
9.92 10.36 9.88 8.86 9.89 9.02 7.71 7.17 5.08 6.39 4.97 3.66 4.51 6.61 9.34 10.06 10.73 9.21 8.20 9.67 11.74 8.23 10.69 8.81 1.89 0.37 0.63 8.31 8.24 8.00 7.47 6.82 6.66 6.15 6.15 6.15 6.38 6.12 6.33 5.78 5.25 5.10 5.10 5.10
11.27 11.59 10.29 8.90 9.59 13.11 12.98 11.99 12.39 10.68 7.20 8.84 6.76 4.76 11.03 11.20 10.58 11.90 10.91 3.44 0.16 4.52 6.91 7.17 4.23 0.06 0.77 7.15 6.45 6.20 6.23 6.13 5.79 5.73 5.60 -3.02 5.19 3.57 4.97 3.98 4.49 4.96 3.14 1.01
12.94 12.05 11.50 12.10 14.37 15.33 14.03 13.80 13.05 12.98 12.81 13.26 12.96 13.01 11.84 12.08 11.33 11.79 11.28 10.67 4.36 6.81 10.21 -1.10 -1.93 -2.59 7.27 7.34 6.80 6.04 6.06 6.33 6.27 5.74 6.03 6.05 5.77 4.59 4.91 3.85 2.12 3.86 3.12 2.22
15.87 16.42 16.58 16.59 16.79 16.57 16.80 16.35 14.79 14.72 14.35 12.77 12.25 11.38 10.30 9.52 10.85 10.82 10.56 5.57 9.03 6.27 10.71 9.60 7.09 6.24 7.03 7.12 6.97 5.62 5.65 5.95 5.22 4.91 3.00 4.40 4.05 3.67 3.07 2.86 2.09 2.35 2.69 2.23
16.91 15.29 15.43 14.46 14.11 13.83 13.70 12.98 14.12 12.98 11.76 12.85 12.86 12.82 11.41 10.05 9.40 7.75 4.76 9.78 9.64 8.68 9.03 8.75 6.54 5.36 7.61 7.36 7.26 6.88 5.80 6.74 3.22 5.49 4.77 4.09 3.37 3.90 3.19 3.12 3.06 2.72 1.25 -0.64

GFSNGP_sfc_wetblb_090.txt.gz
Wetbulb
35.15 35.91 35.62 34.71 34.39 35.64 34.48 34.96 30.70 34.43 34.51 38.92 42.46 44.28 45.63 47.25 45.53 44.10 40.07 39.24 40.22 40.35 42.46 45.44 53.46 54.64 55.58 57.45 58.12 59.15 58.87 57.53 57.34 58.29 58.59 58.61 58.61 58.55 58.17 58.09 59.20 60.43 60.10 60.05
30.80 34.07 34.06 31.42 33.78 35.14 35.23 35.40 35.67 36.32 36.19 42.74 44.97 45.83 43.76 40.82 40.49 39.45 38.26 36.04 37.08 38.31 39.33 40.79 42.80 48.42 49.45 54.43 57.53 58.47 57.52 56.73 58.64 58.81 58.99 59.46 58.97 59.24 58.98 57.96 57.79 57.66 57.96 59.22
26.41 31.69 31.32 28.01 32.43 34.01 35.17 37.27 37.40 33.49 38.55 42.33 40.81 40.06 39.45 38.76 36.80 36.35 35.20 34.31 34.09 35.97 36.58 37.50 38.86 41.60 43.06 44.63 46.12 46.66 46.61 46.50 48.00 49.91 50.16 50.72 55.60 57.37 57.85 58.34 59.17 57.52 57.10 57.48
28.43 29.42 19.50 34.64 39.48 39.06 36.40 37.53 36.58 36.14 38.49 39.16 38.76 36.32 34.68 35.11 35.91 34.60 34.27 32.66 32.43 33.26 35.57 35.41 36.57 37.42 38.71 39.24 39.96 40.26 40.14 40.66 42.31 43.31 43.72 45.26 46.01 46.51 44.43 44.00 42.87 42.72 41.73 40.18
27.31 26.47 29.67 34.04 36.64 36.24 34.85 33.57 33.71 33.10 34.34 35.40 36.55 33.59 31.22 33.51 33.78 33.12 32.88 33.18 31.60 32.37 33.28 35.01 34.63 35.17 35.29 34.85 34.98 34.96 35.60 36.38 37.82 39.34 39.89 40.19 39.35 39.39 39.69 37.56 35.93 35.80 36.04 35.80
29.31 20.16 19.56 32.34 37.98 42.20 41.97 31.13 32.74 33.43 31.12 28.90 36.57 30.67 26.13 30.89 31.81 31.47 31.67 31.67 30.99 31.25 31.14 32.71 34.09 34.83 32.97 32.70 33.12 32.64 33.64 34.38 35.75 36.50 36.36 36.35 36.12 35.57 35.09 34.47 33.19 32.78 32.09 32.49
28.71 26.63 31.07 34.31 37.66 41.47 31.26 29.43 33.73 32.93 30.54 26.73 24.25 27.32 29.36 30.43 29.85 30.42 30.09 30.25 30.77 29.98 29.17 30.25 32.65 32.88 31.75 32.11 31.20 32.35 32.99 33.75 34.40 35.11 34.67 34.76 34.70 34.41 33.62 32.47 31.85 30.75 30.13 30.68
28.80 26.09 22.99 32.56 37.76 31.92 32.06 34.16 33.84 32.06 30.40 28.72 28.66 28.51 28.14 28.09 28.01 28.25 28.39 28.70 28.76 27.89 27.98 29.44 31.12 31.41 30.00 29.46 31.64 31.96 32.02 32.49 33.22 34.31 34.93 35.07 34.26 34.31 33.79 32.98 31.88 31.35 30.91 30.34
27.86 26.33 30.75 31.83 31.03 32.57 33.35 31.33 32.29 31.66 31.19 29.84 27.25 26.57 27.27 27.09 27.48 27.99 28.19 28.72 29.36 27.79 27.50 27.98 29.01 30.40 28.77 30.15 32.19 31.69 31.20 31.01 32.61 33.17 33.18 33.67 33.94 33.84 33.92 33.86 33.06 32.09 31.77 31.38
30.77 29.52 29.08 30.43 31.51 31.60 31.52 29.93 30.77 30.94 29.83 28.59 25.70 25.63 25.07 25.55 25.57 26.09 26.67 26.51 28.35 27.85 26.60 26.71 27.86 28.42 29.92 31.67 31.84 30.42 29.19 30.18 30.28 29.37 29.75 31.24 31.36 30.99 31.25 32.14 31.81 31.54 30.83 30.09
29.05 30.77 31.29 29.09 29.27 29.80 29.67 29.89 27.89 28.03 27.94 26.48 25.39 24.29 24.43 24.38 24.32 24.47 24.79 25.26 25.60 25.01 25.04 25.00 26.20 26.39 27.75 30.07 30.91 29.47 29.15 28.68 28.23 29.81 28.52 27.09 27.16 28.38 28.39 28.78 29.54 28.93 28.52 29.31
26.91 30.15 29.11 26.74 28.33 28.77 26.29 25.73 27.20 26.06 24.59 25.58 25.45 24.27 24.43 23.28 23.77 23.66 23.28 24.02 23.82 24.01 24.19 24.51 25.02 25.10 26.35 27.57 29.35 29.24 27.64 27.62 27.46 27.73 27.89 27.60 25.54 23.61 25.65 26.50 26.67 26.95 27.71 28.19
29.39 30.37 28.70 28.23 27.65 27.71 25.32 24.48 24.90 24.53 24.09 22.80 24.55 24.49 23.96 22.86 23.33 23.43 23.30 23.23 22.47 22.66 23.74 24.14 24.08 24.24 25.73 26.52 26.49 26.78 26.84 27.07 26.91 27.69 27.31 27.30 27.37 27.13 24.35 23.27 22.58 23.63 24.29 24.62
32.26 30.70 27.10 27.51 24.95 26.63 25.57 24.98 24.95 24.53 24.53 24.41 23.89 23.95 23.15 22.36 22.37 21.63 20.50 21.21 22.28 22.59 22.76 23.26 22.92 23.10 25.47 26.64 26.60 25.98 25.42 25.80 26.51 26.62 26.37 26.14 25.96 25.73 25.65 24.85 23.31 22.12 20.27 20.93
28.98 29.64 27.89 28.03 27.11 26.50 27.16 26.12 23.92 22.78 22.63 22.10 22.71 21.92 21.55 20.09 18.95 18.52 19.92 21.20 21.01 20.00 19.98 20.89 20.56 21.06 24.29 26.02 24.99 25.15 26.10 25.23 25.12 24.64 24.81 25.24 25.31 24.95 24.65 24.00 23.21 22.77 23.08 21.36
27.39 27.95 27.51 26.22 25.88 25.88 26.07 25.41 23.47 22.20 22.33 21.62 20.55 19.96 19.60 19.26 18.27 18.03 17.78 17.47 16.93 16.09 17.44 16.92 17.65 19.02 21.56 23.99 25.54 25.68 24.55 23.14 24.61 25.40 24.87 24.44 24.13 23.65 22.99 22.45 21.55 19.98 17.96 17.94
25.93 24.04 24.76 23.84 23.78 23.19 22.83 23.45 22.85 21.55 20.69 19.70 18.91 19.55 19.37 18.01 16.81 15.52 15.54 16.06 15.12 15.46 16.43 17.03 16.42 17.23 19.21 20.48 24.22 25.11 25.08 24.46 22.83 24.37 23.59 23.37 23.00 21.87 21.16 20.20 18.79 17.45 15.01 13.97
27.04 26.27 26.37 25.40 23.30 21.76 20.97 21.14 20.64 19.65 17.56 16.21 13.88 12.47 11.10 10.99 11.21 11.32 12.40 14.17 15.01 13.55 14.72 15.73 17.04 17.98 18.13 19.46 22.00 23.83 23.70 23.16 22.75 22.02 21.79 21.04 20.59 20.21 19.65 18.70 17.91 17.11 16.48 14.20
25.27 24.10 24.14 23.44 23.40 22.13 20.65 18.85 17.08 15.38 13.79 12.62 11.20 9.49 9.27 9.54 11.02 11.43 13.24 13.28 13.82 13.84 13.70 15.67 16.72 17.42 17.62 16.98 20.57 22.53 22.26 21.58 20.81 20.21 19.80 18.42 19.41 19.16 18.64 18.12 16.93 16.39 16.07 15.13
21.69 22.09 21.62 20.27 19.73 18.19 15.55 14.79 14.88 12.61 12.34 12.09 11.33 10.93 9.84 8.34 9.00 10.57 12.76 11.44 12.40 13.92 15.03 15.20 17.00 16.94 16.75 16.38 17.36 20.50 20.16 20.03 18.88 18.04 18.03 18.38 18.21 17.59 16.17 13.29 15.29 15.63 15.42 14.66
18.30 17.25 15.53 14.07 13.04 13.24 13.67 13.66 12.86 11.72 11.12 11.59 11.18 8.76 8.75 9.72 10.10 11.07 14.77 15.83 13.49 13.46 14.49 14.24 14.59 16.63 16.73 16.25 18.23 18.61 18.38 17.89 17.07 17.02 16.65 16.65 16.61 15.80 15.49 15.16 14.79 14.71 14.43 14.01
16.74 14.98 13.99 13.68 13.38 12.55 13.12 14.42 13.02 11.51 11.10 9.34 7.34 8.56 10.91 12.56 11.68 11.87 10.32 13.54 16.07 11.38 15.17 15.59 14.44 9.22 12.51 13.74 16.39 16.28 15.67 15.30 15.57 16.05 15.46 15.21 14.97 14.34 13.67 13.41 12.58 12.83 13.18 13.05
16.31 16.35 15.84 14.79 15.35 15.41 14.23 13.84 12.91 13.23 11.85 11.01 11.54 13.54 14.58 15.66 16.29 15.82 15.10 14.05 16.43 12.37 15.79 14.18 9.04 8.43 9.57 14.39 14.52 14.17 13.22 12.75 12.85 12.91 13.16 13.11 13.04 12.68 12.58 11.68 11.51 11.71 11.76 11.84
17.48 17.18 16.27 16.39 15.86 17.28 17.03 16.58 17.14 15.70 14.13 14.36 12.75 12.04 15.75 17.71 17.98 17.66 16.10 11.20 8.65 10.91 12.62 12.42 10.49 7.97 8.60 13.99 13.29 12.76 12.65 12.68 12.51 12.47 12.63 4.87 12.21 11.45 11.64 10.34 9.89 11.28 10.31 8.44
18.23 17.81 17.63 18.75 20.12 21.40 19.17 18.86 18.19 17.95 17.29 18.05 17.21 17.21 15.92 17.75 16.82 17.63 17.62 16.90 10.37 12.63 15.57 7.99 5.82 6.82 13.55 14.15 13.48 12.28 12.48 12.65 12.20 11.60 11.85 11.70 11.31 10.68 10.98 10.75 8.97 9.62 9.61 8.73
21.22 22.48 22.48 20.36 21.21 21.70 21.53 21.43 20.28 21.20 19.42 18.70 18.59 18.86 19.65 18.76 18.23 17.03 17.27 12.93 14.69 13.17 15.29 15.74 14.74 13.94 13.90 13.54 12.88 12.21 12.01 12.24 11.59 11.61 9.81 10.32 10.59 9.88 9.89 9.31 8.87 8.83 9.21 9.03
21.89 20.75 21.31 20.72 21.34 20.92 20.27 18.98 18.99 19.20 18.37 18.61 17.37 19.80 17.80 18.39 17.80 14.81 13.47 16.34 16.19 15.40 15.18 15.28 15.03 13.52 13.25 13.29 13.00 12.90 12.42 12.52 10.73 10.76 10.93 10.86 10.48 10.41 9.83 9.31 9.47 9.44 8.78 7.84

GFSNGP_sfc_wetblb_093.txt.gz
Wetbulb
37.28 38.88 39.27 38.10 37.38 38.07 36.14 36.83 32.56 35.83 36.09 40.10 43.50 44.28 46.18 45.94 46.30 45.00 42.65 39.24 37.48 38.27 39.40 40.91 42.62 46.16 55.95 56.65 57.37 58.12 57.62 57.62 58.24 59.94 60.10 60.60 60.21 60.11 60.56 60.78 60.05 59.63 59.59 59.09
33.89 37.22 37.04 34.51 35.91 36.55 36.76 36.78 36.79 37.64 37.37 44.07 44.97 45.23 43.09 42.36 41.15 40.42 38.30 37.43 35.65 36.11 36.49 37.75 38.92 41.00 44.85 50.52 55.72 59.81 57.75 56.95 58.29 59.65 58.74 59.03 59.56 59.34 58.98 59.21 59.49 59.92 59.62 59.84
28.36 34.38 33.15 29.61 33.90 35.24 36.24 39.12 37.80 34.17 38.33 42.48 41.11 38.78 34.52 34.85 36.34 35.34 35.81 35.50 33.77 33.59 34.94 35.52 36.32 38.00 38.88 43.49 47.06 47.06 46.52 47.28 49.27 51.45 51.45 51.96 55.43 54.94 54.59 56.58 57.17 53.36 51.94 46.23
27.66 30.61 23.83 34.97 40.98 39.93 38.02 37.86 38.68 38.13 38.81 38.93 37.57 32.82 32.13 32.26 31.52 30.88 31.88 31.93 31.94 32.06 33.57 34.47 35.19 35.51 37.34 38.33 40.14 40.60 40.58 41.26 43.31 44.82 44.73 45.05 45.57 44.18 42.43 41.67 41.93 41.99 40.83 40.42
28.61 30.00 32.33 35.40 37.41 36.85 35.89 32.75 35.36 34.58 35.83 35.15 34.53 32.64 28.45 30.66 30.71 29.72 29.92 30.75 31.88 32.77 32.18 32.30 33.94 33.93 34.81 34.50 35.47 35.82 36.08 37.06 37.78 39.32 39.06 39.00 37.65 37.37 37.33 36.38 35.17 34.46 34.84 34.97
31.52 25.81 22.94 32.12 38.23 41.91 40.76 28.07 33.42 33.50 31.66 29.20 34.54 30.09 25.02 29.53 29.67 29.45 29.86 29.97 29.83 31.32 31.31 31.64 31.93 33.18 32.24 32.11 32.88 32.84 33.97 34.86 35.78 35.85 35.34 34.59 34.65 33.97 33.88 33.51 32.43 32.18 31.22 32.01
29.90 29.80 31.54 33.48 38.55 40.51 30.83 26.43 32.81 32.39 29.89 28.86 25.06 27.02 29.18 30.41 29.95 30.59 30.42 29.55 29.62 28.96 28.65 29.82 31.95 32.04 30.24 30.45 30.11 32.05 33.91 34.36 34.85 35.10 34.38 34.14 33.80 33.40 32.84 32.06 31.54 30.70 30.11 30.06
31.09 28.83 25.61 33.39 37.27 30.05 30.44 34.11 34.30 31.91 30.94 28.60 29.73 29.75 29.54 29.73 29.46 29.90 29.69 29.25 29.26 27.84 27.90 28.99 31.22 31.03 30.07 29.25 31.44 32.03 32.42 32.75 32.81 33.61 34.69 34.89 35.08 33.13 33.09 33.00 31.83 31.37 30.80 30.41
28.61 26.67 31.86 32.39 31.25 32.59 33.96 32.02 32.57 32.17 31.65 30.29 28.63 27.79 28.17 28.19 28.41 28.51 28.79 29.77 29.69 28.40 27.34 27.82 29.40 31.29 29.41 30.36 31.49 31.79 30.23 30.20 30.69 31.86 31.41 31.01 31.73 32.87 32.70 33.82 32.49 31.69 31.12 30.65
30.48 30.25 29.64 31.08 32.13 31.87 31.36 30.02 31.02 31.15 30.13 29.55 27.06 27.53 26.64 26.68 26.54 26.58 26.85 26.65 28.03 27.32 26.37 26.56 28.21 28.64 30.84 32.06 32.45 30.94 30.50 29.19 28.49 27.66 27.84 29.32 29.28 28.85 28.09 30.42 30.27 30.47 30.88 30.54
29.51 31.09 31.01 29.22 29.71 30.20 30.25 30.11 28.94 29.15 29.05 28.03 27.28 25.76 25.95 25.37 25.52 26.06 26.26 26.58 27.28 26.30 25.78 25.72 27.39 27.80 29.08 31.32 32.66 30.58 29.76 30.12 29.77 28.18 25.91 24.76 25.27 26.40 26.88 27.14 28.42 28.33 27.22 27.92
26.80 31.08 29.23 26.90 28.76 29.65 27.57 27.11 28.59 28.05 26.92 27.83 27.12 26.01 26.12 24.77 25.39 25.35 24.91 25.90 25.34 25.44 25.05 25.49 25.94 26.45 27.73 28.79 30.15 29.16 27.91 28.65 29.22 29.22 28.43 26.23 23.41 22.16 25.58 26.02 26.33 26.51 27.16 27.43
30.11 31.13 29.80 29.06 28.82 28.76 26.94 26.42 26.95 26.60 26.49 25.40 25.99 26.24 25.57 23.84 24.14 24.11 24.40 24.66 24.31 24.22 24.90 24.68 24.72 25.26 27.04 28.58 28.56 27.86 27.96 28.48 28.56 28.15 27.86 27.38 27.93 25.60 20.38 22.36 23.50 24.39 24.50 24.94
33.69 32.52 28.75 28.74 26.18 28.19 27.64 27.34 27.54 26.94 27.04 26.80 26.39 26.68 25.45 24.29 24.23 23.77 23.11 23.52 23.61 23.50 23.17 23.02 22.85 22.89 27.03 27.40 27.53 27.76 27.85 26.86 27.54 27.64 27.57 27.61 27.40 26.71 26.62 25.23 22.89 21.76 22.02 22.11
30.72 30.84 29.45 29.42 28.92 28.28 29.17 28.36 25.85 24.55 24.50 24.09 25.16 24.26 24.12 21.90 20.48 19.65 20.99 22.97 22.56 21.38 20.61 20.94 20.33 21.26 24.39 27.56 26.50 25.19 26.32 26.47 26.55 26.62 26.84 26.68 26.66 26.14 25.69 24.83 23.94 23.19 23.99 23.91
29.45 31.43 30.78 29.44 28.73 29.01 28.68 27.43 25.40 24.33 24.31 23.83 22.97 22.22 21.96 21.67 20.73 19.97 19.53 18.98 18.36 17.55 18.63 18.30 18.56 19.77 22.65 24.56 26.98 26.62 25.69 25.46 26.28 26.55 26.44 25.69 25.38 24.60 23.92 22.83 21.47 19.24 17.78 18.68
27.80 26.52 27.68 26.68 26.10 25.90 25.76 26.38 25.51 24.36 23.11 21.47 20.08 21.09 21.77 20.13 18.67 17.72 17.51 18.20 16.80 17.06 17.85 17.82 18.22 19.27 20.67 22.71 25.88 26.44 26.72 25.74 25.18 25.35 24.50 24.22 23.87 23.05 22.78 22.06 20.11 18.02 16.15 17.28
30.63 29.94 29.72 28.10 25.69 24.69 24.01 23.99 23.39 21.92 19.18 17.33 15.01 14.25 13.34 13.38 13.54 14.29 15.69 17.58 17.74 15.96 16.89 17.45 18.87 20.00 19.19 20.47 24.04 25.34 25.32 24.79 24.24 23.40 23.02 22.39 22.77 22.80 21.99 21.20 20.58 19.50 18.80 17.21
28.94 27.95 27.82 26.94 26.73 25.38 23.70 21.25 19.06 16.44 15.17 14.61 13.46 11.79 11.92 12.35 13.61 14.86 16.10 16.14 16.56 15.69 15.43 17.38 19.05 19.26 19.44 19.14 22.24 24.42 24.01 23.49 22.99 22.50 22.55 21.92 22.09 21.50 21.24 20.80 19.57 19.22 18.89 17.79
25.83 26.08 25.46 23.84 22.93 20.77 17.80 16.85 16.56 14.87 15.18 15.21 14.17 13.50 12.70 11.28 12.06 14.28 16.35 13.83 13.83 15.58 17.18 17.03 19.01 19.40 18.66 19.56 20.67 22.88 22.32 22.24 21.15 20.42 19.49 20.50 20.38 19.87 18.95 16.56 17.96 18.24 17.89 17.26
22.24 20.77 18.67 17.26 16.38 16.62 16.28 16.11 15.32 13.90 13.66 14.02 13.53 11.64 11.89 12.90 12.95 13.67 18.32 19.73 16.17 15.54 17.37 17.40 16.22 16.29 18.13 17.82 21.12 20.88 20.30 20.03 19.64 19.09 18.73 18.59 18.77 17.98 17.66 17.41 17.32 16.97 16.76 16.53
19.52 17.79 16.75 16.61 16.18 15.86 16.62 17.09 15.74 14.57 14.11 12.60 11.20 12.37 13.96 17.69 14.78 14.50 13.28 15.58 19.08 13.46 18.61 18.04 15.83 11.57 14.42 15.98 18.98 18.57 17.94 17.75 18.04 18.11 17.48 17.20 16.96 16.67 16.46 16.04 15.39 15.45 15.77 15.49
19.57 19.23 18.35 17.09 17.66 18.15 17.56 16.91 15.83 15.83 14.43 13.68 14.55 16.39 17.50 18.55 18.88 17.88 17.84 17.35 18.32 15.31 18.46 15.80 11.48 11.06 11.20 17.28 17.20 16.60 16.22 15.48 15.27 15.48 15.60 15.24 15.38 14.76 14.63 14.23 13.08 14.39 13.75 13.75
20.79 20.03 19.27 19.69 18.20 18.62 18.90 18.70 18.79 18.50 16.72 16.78 15.37 14.75 17.08 19.60 21.41 20.85 19.68 15.12 12.80 13.45 16.04 14.88 12.62 11.20 9.80 16.55 16.08 15.26 15.14 15.00 14.94 14.99 14.80 9.95 14.73 14.22 13.97 13.16 12.28 12.91 12.76 11.47
20.37 19.98 20.02 19.98 21.91 23.56 21.66 21.49 20.78 20.67 20.33 21.11 20.48 20.19 18.62 20.72 18.67 19.56 18.90 18.60 13.97 15.02 17.64 12.41 12.11 11.41 15.54 15.87 15.33 14.72 14.71 14.86 14.44 12.91 13.14 13.68 13.39 13.09 13.34 13.13 12.14 11.97 11.41 11.30
22.55 23.75 24.44 23.50 24.23 24.83 24.63 24.17 23.20 23.83 22.43 21.85 22.89 23.41 22.50 21.58 20.37 18.84 19.33 16.34 16.95 16.55 17.61 18.09 17.57 16.27 15.69 16.19 15.78 14.61 14.45 14.47 14.46 14.01 13.01 12.64 13.14 12.92 12.59 12.32 11.69 11.54 11.60 11.60
24.64 24.01 24.30 23.87 24.58 23.97 22.55 21.16 20.84 21.55 21.32 20.92 19.89 21.97 21.51 20.89 20.23 18.30 17.60 18.38 18.88 18.33 17.87 18.19 18.17 16.70 15.98 15.06 14.69 15.13 15.41 15.08 14.02 13.67 13.20 12.69 12.67 12.89 12.54 12.32 11.97 11.83 11.32 10.84

GFSNGP_sfc_wetblb_096.txt.gz
Wetbulb
32.50 33.29 38.65 36.84 36.28 36.20 34.59 36.10 31.97 34.33 34.81 38.01 40.02 40.28 40.35 40.96 41.19 40.23 38.48 37.36 36.33 35.33 36.16 36.98 37.31 38.67 41.22 45.00 56.83 58.11 57.57 57.20 57.71 58.67 58.76 59.26 59.62 58.69 58.88 57.86 56.89 56.63 56.68 55.87
30.94 36.28 37.28 33.91 34.78 36.21 36.86 36.81 36.25 36.91 36.09 39.81 40.52 37.07 35.35 35.08 34.88 33.56 33.01 32.91 33.28 33.39 34.24 34.49 35.14 36.25 38.41 40.11 45.25 57.24 54.79 55.78 57.62 58.50 59.09 58.96 58.83 59.20 59.00 58.67 58.35 58.00 57.26 57.15
28.05 34.49 34.47 29.41 34.51 36.08 36.53 36.17 35.46 30.72 34.02 36.77 35.25 31.04 29.83 29.87 30.30 29.64 29.87 30.74 30.85 31.31 32.11 32.96 33.89 34.32 35.63 37.39 41.12 45.08 46.60 47.55 49.52 50.88 50.48 49.51 49.86 49.12 47.92 49.55 47.63 45.44 43.92 42.18
28.25 31.85 23.71 34.19 40.34 39.79 34.45 33.21 33.69 33.96 33.66 33.92 31.15 28.95 29.05 29.61 28.66 27.87 28.42 28.94 29.23 30.31 31.39 32.07 33.06 33.47 34.54 35.35 36.43 37.98 38.98 40.86 43.22 43.71 42.90 42.54 41.93 41.00 40.00 40.01 39.87 39.28 38.45 38.44
28.62 28.31 30.85 33.76 35.40 35.47 34.76 29.59 32.23 31.45 31.15 32.26 32.83 31.28 27.05 29.64 29.94 28.71 28.58 29.04 29.01 30.22 31.22 32.10 31.95 32.81 32.83 32.42 33.39 34.20 34.75 35.56 37.13 38.95 38.04 37.00 35.72 35.90 36.05 34.63 33.83 33.28 33.58 33.71
32.26 26.08 23.04 28.70 33.62 39.40 39.44 25.15 32.07 31.00 28.89 29.45 30.45 26.26 24.93 29.68 30.62 29.67 29.39 29.23 28.84 28.97 29.50 30.41 31.29 32.27 31.13 30.64 31.29 31.76 32.95 34.29 34.92 35.09 34.82 34.14 33.89 33.28 33.19 32.50 31.33 30.97 30.34 31.49
29.29 28.80 28.04 29.97 35.15 39.65 28.10 25.14 31.91 30.51 28.25 27.10 24.74 26.77 29.03 30.45 29.87 30.80 29.73 29.21 29.40 28.40 27.66 28.29 31.26 31.39 29.93 29.44 28.67 31.41 32.43 32.27 32.33 34.42 34.04 33.84 33.61 33.33 32.69 31.74 30.93 29.72 29.00 29.22
30.26 27.11 22.42 31.09 33.51 26.83 30.32 33.07 32.47 30.17 29.21 27.46 28.18 28.46 28.67 28.58 28.07 28.28 28.45 28.27 28.16 27.26 26.79 28.13 29.33 31.05 29.06 28.64 30.14 30.03 29.56 30.10 30.55 30.65 31.07 32.54 33.67 33.52 33.34 32.61 31.67 30.79 30.22 29.26
26.75 25.80 30.53 30.84 30.12 31.75 32.23 30.07 30.28 29.97 29.89 28.54 26.93 26.36 26.97 26.70 27.12 27.07 27.13 27.50 28.14 26.44 26.26 27.14 28.24 29.42 28.78 29.78 31.20 29.97 28.00 26.73 26.52 27.93 28.97 29.14 28.00 29.55 31.02 32.24 31.07 29.99 28.84 27.69
29.64 28.79 28.27 29.65 31.32 30.89 30.14 28.85 29.65 30.22 28.95 28.28 26.17 26.53 25.77 26.05 26.09 26.17 26.71 26.70 27.38 26.75 25.20 25.46 27.31 27.84 29.14 30.99 31.42 30.83 28.31 27.22 25.59 25.01 24.98 26.47 26.81 26.32 26.21 28.04 26.66 28.06 27.65 25.83
28.39 29.45 28.96 27.83 29.17 29.91 29.72 30.16 28.69 29.16 28.87 27.53 26.58 25.77 25.79 25.52 25.78 26.24 26.82 26.98 26.92 26.20 25.95 25.00 26.80 27.84 28.60 30.18 30.74 29.10 29.35 28.92 26.73 25.66 24.06 23.77 24.62 25.07 24.89 26.19 27.40 25.14 24.78 25.44
24.82 30.44 27.39 26.23 28.79 29.12 27.26 27.29 28.47 27.51 26.52 27.53 27.36 25.76 25.44 24.28 24.62 24.72 24.34 25.16 24.71 24.46 23.94 24.37 25.37 25.62 27.25 29.36 29.07 29.38 28.13 27.65 27.71 28.67 25.66 23.88 22.51 21.78 26.23 26.56 27.10 27.08 27.14 25.90
28.69 30.23 28.63 28.54 28.17 28.59 26.75 26.93 27.78 27.20 27.41 26.07 26.60 26.16 25.36 24.08 24.35 24.53 23.72 23.38 22.93 22.48 23.06 23.17 23.26 24.16 26.19 26.59 28.27 26.90 26.37 27.08 26.93 27.55 27.19 26.41 25.25 22.15 19.79 22.46 24.96 25.16 26.07 26.58
34.07 31.02 27.99 29.02 25.71 28.11 27.94 27.75 27.87 27.02 26.87 26.43 25.76 25.23 23.81 22.16 21.83 21.50 21.62 21.99 21.86 20.92 20.49 20.82 21.21 21.89 24.73 27.36 26.14 26.68 26.78 26.09 25.72 25.95 26.05 25.71 25.57 25.03 25.07 22.74 19.88 19.83 23.80 23.88
30.72 31.31 29.53 29.87 29.90 29.28 29.47 28.10 25.27 24.02 24.04 23.50 24.23 23.09 22.56 20.22 18.64 18.04 19.06 21.01 20.86 19.30 18.66 19.20 18.36 19.00 22.95 25.20 26.45 24.93 25.40 26.53 26.94 26.47 26.26 26.05 25.43 24.30 23.03 21.11 19.25 18.57 19.99 22.29
31.97 31.72 31.14 29.20 29.19 28.98 28.33 27.09 24.72 24.03 24.21 23.68 22.82 21.88 21.04 19.84 18.72 18.26 17.84 17.52 16.24 15.71 16.89 16.69 17.84 18.29 20.42 21.95 25.16 26.21 25.06 24.83 25.21 25.46 25.04 24.26 23.83 22.91 21.63 19.42 16.88 15.47 15.48 16.26
28.48 27.48 27.97 26.34 26.16 26.00 25.49 25.71 24.66 23.03 21.11 18.77 17.09 17.32 18.69 18.81 17.11 16.51 17.22 17.71 16.15 16.11 16.96 16.74 16.92 17.89 18.20 19.23 21.20 25.11 25.05 24.51 23.39 23.07 22.63 22.57 22.27 21.20 21.12 19.51 16.45 14.58 14.59 15.76
31.16 30.28 29.73 27.93 25.44 24.55 23.69 23.32 21.89 19.52 16.57 15.70 14.42 13.36 11.94 12.41 13.07 14.11 15.34 17.24 15.69 13.40 15.02 15.66 16.41 17.59 17.21 18.33 20.33 24.00 23.60 22.96 22.55 21.60 21.42 20.64 21.22 21.03 20.00 19.12 18.44 17.32 16.28 15.79
29.61 28.14 27.89 27.03 26.56 24.62 22.62 19.36 16.65 15.62 14.41 14.01 12.25 10.55 10.58 10.31 12.68 13.67 14.20 11.65 12.18 13.07 13.92 15.28 18.90 17.66 18.21 18.43 20.41 22.63 22.26 21.58 20.85 20.04 21.01 20.18 19.00 17.60 18.00 18.53 17.25 16.60 16.40 15.59
26.26 26.05 24.26 22.38 21.90 19.62 16.21 15.74 15.81 14.74 14.89 14.14 11.76 11.41 11.22 8.90 9.47 11.31 15.79 12.93 12.58 13.90 16.86 16.54 16.14 16.77 17.31 18.00 18.06 20.55 20.54 19.82 19.43 19.17 18.04 18.18 18.13 18.54 16.56 13.89 15.93 16.65 16.48 14.97
21.43 20.25 18.72 16.96 15.51 15.45 15.24 14.91 13.33 12.27 11.96 11.03 11.57 9.44 9.53 11.95 11.37 10.50 16.11 17.75 15.06 14.30 15.60 15.70 14.72 12.58 16.43 13.33 17.43 18.91 18.34 17.79 17.96 17.63 16.80 16.99 16.74 15.99 16.00 15.01 15.33 14.30 13.88 14.08
19.32 17.47 16.43 16.32 15.75 15.68 15.97 16.25 15.23 13.01 12.51 10.37 7.98 8.74 10.79 15.68 13.05 13.14 11.20 14.61 17.30 10.54 15.47 15.95 13.06 8.94 11.47 9.69 17.36 16.79 16.29 15.60 15.71 15.84 15.36 14.76 14.44 14.35 14.30 12.94 12.47 11.26 11.63 10.53
19.41 18.59 17.90 15.99 16.79 17.59 17.68 16.47 14.59 15.21 12.46 11.51 12.48 15.13 16.49 18.40 18.80 16.90 15.63 15.93 16.85 12.99 16.56 13.97 7.92 7.08 7.98 15.34 16.48 15.59 15.30 14.40 14.15 13.40 14.20 12.35 13.50 11.58 11.31 11.69 8.47 11.27 9.51 10.00
20.96 19.99 19.67 20.09 18.36 18.30 17.70 17.52 18.01 18.81 15.16 16.73 15.23 12.73 16.30 18.30 19.91 20.63 17.30 13.19 11.33 10.61 15.10 14.52 11.28 7.92 5.29 14.80 16.19 14.85 14.37 14.51 14.47 13.51 13.07 9.03 13.79 11.90 12.05 9.72 8.05 9.36 9.29 6.33
20.72 20.35 20.08 19.12 19.76 21.99 22.05 22.14 21.25 20.89 20.43 21.14 21.75 19.90 18.71 20.76 19.16 19.00 18.64 17.75 14.72 12.51 16.91 12.67 9.86 8.64 12.72 16.28 15.67 14.96 14.52 14.13 14.09 11.44 11.03 11.88 12.24 10.85 12.01 11.65 8.12 9.98 6.33 4.50
21.91 22.60 23.41 23.95 24.17 24.28 23.85 23.39 22.47 23.53 22.17 21.26 22.90 23.85 22.73 22.26 20.84 19.07 20.02 17.99 17.00 15.92 17.83 18.49 17.69 15.92 15.50 15.48 15.00 14.31 14.53 14.50 13.59 13.96 11.26 11.52 11.97 11.76 11.12 9.98 9.63 8.93 8.26 9.44
24.98 25.51 24.34 23.52 23.79 23.31 21.95 20.40 20.09 20.87 21.49 21.00 19.38 21.58 21.70 21.78 21.31 18.84 17.09 18.59 18.96 19.10 18.76 18.94 18.75 17.28 16.69 15.40 14.45 14.58 14.79 14.72 12.77 13.13 11.05 10.11 9.08 10.60 9.43 9.76 10.09 9.82 8.98 5.57

GFSNGP_sfc_wetblb_099.txt.gz
Wetbulb
29.12 30.58 31.69 31.03 32.17 35.71 34.95 33.90 31.16 30.26 28.21 32.31 31.20 31.11 31.05 32.42 32.64 31.87 31.25 31.12 31.48 31.23 31.89 32.92 33.93 35.28 37.57 38.63 40.75 44.22 56.52 57.46 57.55 57.76 58.07 57.90 57.92 57.20 57.06 56.43 56.11 56.30 55.69 55.07
30.70 34.40 34.43 33.35 35.38 34.34 32.80 32.54 32.27 32.00 28.20 34.06 32.25 30.65 29.14 29.05 29.05 28.42 29.09 29.15 29.56 30.16 31.20 31.31 32.30 33.72 35.63 36.45 38.08 40.91 45.26 51.99 56.03 56.95 58.17 57.84 58.08 57.66 57.49 56.55 56.17 55.95 55.71 55.17
27.19 32.92 32.63 29.17 31.74 30.78 29.57 30.06 30.89 25.37 28.09 32.54 27.79 26.83 26.24 26.61 27.01 26.78 27.36 27.67 27.83 28.67 29.97 31.01 31.76 33.01 33.44 34.83 36.22 36.89 37.56 40.91 45.75 47.54 47.49 47.95 47.91 46.42 46.24 44.71 43.39 42.57 41.63 41.47
26.62 29.77 21.81 30.19 34.82 33.00 28.89 28.21 29.42 28.70 28.67 29.88 26.63 26.92 27.81 28.23 26.43 25.98 26.60 26.97 27.11 27.72 28.98 30.61 31.78 32.23 33.61 34.12 33.87 33.70 34.59 35.49 38.14 40.34 40.03 40.42 40.15 39.08 38.13 37.66 37.10 36.87 36.74 37.15
26.55 26.58 29.13 28.88 29.82 28.27 30.93 25.94 29.07 27.15 27.60 30.74 29.58 31.03 25.46 28.75 28.08 26.93 27.32 27.66 27.70 28.50 28.68 29.87 30.54 31.78 31.47 31.74 32.41 31.92 31.28 33.18 34.42 35.63 35.13 34.86 34.05 34.23 34.63 33.85 33.06 32.79 33.53 33.91
28.25 23.64 20.13 25.30 28.88 33.38 33.45 20.05 28.91 27.86 26.08 24.94 28.34 19.54 21.50 27.62 28.64 27.33 26.98 27.35 26.76 27.36 27.77 28.36 30.64 30.95 28.91 28.37 28.47 29.30 31.00 31.01 32.74 34.16 33.65 32.87 32.59 32.03 32.20 31.78 30.99 31.06 30.67 31.87
26.02 23.79 25.01 26.75 29.58 33.72 17.08 22.00 28.77 28.12 26.52 24.60 21.79 24.29 26.60 27.59 26.56 27.38 27.43 26.32 27.12 26.22 25.57 27.09 29.65 30.34 28.46 27.64 26.28 27.86 28.80 30.69 30.72 31.32 32.69 33.60 33.32 33.05 32.22 31.26 30.58 29.75 29.23 29.99
24.97 21.23 18.00 28.44 29.06 23.03 29.39 30.32 29.29 28.13 27.25 23.34 23.62 24.46 25.20 25.70 25.50 25.98 25.90 26.02 26.08 24.80 25.20 26.51 28.36 29.73 27.96 27.86 28.64 27.58 26.98 26.59 26.90 28.29 29.52 31.00 31.00 31.49 32.17 31.13 29.53 28.97 29.13 28.57
25.13 22.53 28.58 28.88 27.51 29.27 29.27 27.64 28.22 28.05 27.10 24.85 22.47 22.70 24.27 24.57 25.35 25.42 25.40 25.58 26.58 24.75 24.11 26.26 27.48 28.24 27.24 28.88 29.07 27.39 25.76 24.75 25.16 25.69 26.46 26.88 27.28 28.77 28.31 29.09 27.92 26.67 26.55 26.79
26.39 25.96 26.26 28.49 28.91 28.67 28.02 27.20 28.51 28.35 26.84 25.96 24.00 24.37 23.55 24.41 24.79 25.16 24.81 24.10 24.97 24.45 22.96 23.24 24.83 26.94 27.76 29.30 29.79 29.55 26.46 25.09 24.37 24.34 24.18 24.96 25.44 26.03 26.14 25.68 25.47 25.88 25.43 25.11
25.82 26.30 26.35 26.55 27.62 28.37 28.40 28.48 27.43 27.86 27.43 26.54 25.40 23.57 23.33 22.95 22.86 23.26 23.48 23.76 23.63 22.73 22.36 22.39 25.11 25.25 26.99 27.96 29.31 28.21 27.81 27.82 25.31 24.24 22.92 22.88 24.46 24.88 25.20 26.44 26.16 24.70 25.22 25.91
20.19 27.41 24.41 24.95 27.48 28.42 26.67 26.81 27.77 26.48 25.60 26.48 25.57 24.15 23.82 22.58 22.89 22.42 21.64 22.24 21.33 21.38 21.65 21.38 22.49 23.65 25.49 27.58 27.17 26.49 26.12 26.63 26.98 26.49 24.19 22.78 21.75 22.31 26.98 27.42 28.21 28.54 28.69 27.05
27.01 27.16 25.40 26.46 27.47 28.01 26.69 27.41 27.66 26.45 25.69 24.03 24.41 23.63 22.46 21.24 21.91 22.14 20.56 19.57 18.74 18.81 19.23 19.81 20.35 20.89 22.72 25.89 26.89 26.33 24.94 25.43 25.77 25.71 25.71 25.75 23.84 22.26 19.11 22.68 26.78 26.77 27.36 28.07
30.81 29.02 25.83 27.92 24.45 27.53 27.11 26.88 26.90 25.47 25.12 24.45 23.22 22.06 20.33 18.84 18.34 17.80 18.65 19.02 18.25 17.91 18.01 17.69 17.90 18.00 20.50 23.05 24.39 24.64 25.89 25.52 24.77 24.83 24.11 23.81 23.14 21.69 20.98 19.51 18.53 19.30 23.86 24.33
29.89 29.43 27.70 28.44 28.50 27.68 27.51 25.96 23.40 22.43 22.46 21.75 21.84 20.59 19.50 17.05 15.52 14.99 16.39 18.13 17.81 16.50 15.87 16.59 16.11 15.91 19.01 21.27 23.95 23.47 23.66 23.50 23.87 23.65 23.37 23.17 22.01 19.49 17.78 16.24 15.39 15.66 17.01 19.67
30.19 29.67 28.97 27.59 27.30 27.03 26.03 24.63 22.56 21.18 20.40 18.87 18.79 18.67 17.86 17.13 16.33 16.30 15.87 15.53 14.12 12.38 14.19 13.21 15.09 15.87 17.84 18.12 18.34 21.86 21.25 21.78 21.03 20.91 20.41 19.86 19.87 18.71 16.07 14.35 13.58 13.73 13.99 15.06
26.82 25.50 25.51 23.89 23.59 22.82 21.95 21.53 19.75 17.73 16.09 15.04 14.30 15.31 15.98 15.90 15.02 14.25 14.22 14.40 12.25 11.09 12.33 11.02 8.75 10.98 12.59 13.77 15.12 19.03 18.12 18.57 17.74 18.65 18.59 19.10 18.91 18.38 17.25 14.76 13.29 13.63 14.09 16.18
27.88 27.02 25.90 24.48 22.61 21.17 19.71 18.44 17.19 15.61 13.36 13.05 10.17 6.74 4.79 4.70 5.37 5.46 5.97 6.65 3.23 4.72 5.35 6.55 9.89 10.13 12.14 14.10 16.91 19.17 18.40 18.12 18.26 17.83 18.89 15.93 16.56 17.25 15.70 14.41 14.54 12.18 12.99 13.48
26.65 25.25 24.68 23.96 22.54 20.13 17.70 15.51 13.62 12.10 8.11 5.79 4.34 0.79 -1.40 -2.60 -1.35 -0.98 -0.99 0.60 -1.83 -0.55 5.76 4.62 15.91 11.63 12.00 14.70 14.56 17.15 16.24 14.98 15.20 15.50 16.71 14.37 10.79 11.53 10.52 13.72 10.65 8.51 8.51 9.76
21.57 20.97 20.03 18.76 17.64 15.25 12.17 7.68 8.26 7.03 4.06 3.52 -0.27 -1.47 -1.09 -2.34 -2.99 -2.10 4.97 1.38 1.53 4.40 7.20 9.08 11.08 10.54 13.24 13.31 10.37 15.75 14.10 13.01 14.72 11.41 10.85 9.34 7.50 6.76 8.71 8.08 8.74 11.68 9.31 4.91
15.76 14.74 12.15 11.01 8.48 6.32 4.74 2.45 3.08 1.05 0.36 -1.42 -0.12 -2.06 -1.17 -0.11 0.57 -1.67 5.76 10.63 5.67 7.07 13.28 10.58 10.07 9.08 11.23 8.90 12.29 8.13 7.28 7.19 9.24 12.74 7.03 7.26 10.79 11.01 2.79 -0.35 5.10 -0.90 -1.41 1.04
11.12 10.05 8.15 7.80 8.83 5.32 3.22 3.86 4.33 1.38 0.92 -0.82 -2.66 -4.04 -2.77 4.43 1.34 3.46 1.45 7.37 10.86 5.42 11.60 9.92 8.99 2.73 6.47 4.33 10.66 4.17 7.63 6.02 4.57 4.77 2.68 1.95 0.07 -1.56 3.32 2.39 -1.86 -2.43 5.24 5.90
11.66 11.80 11.77 8.60 8.93 8.59 6.36 5.40 3.09 3.86 1.11 0.47 0.89 3.68 5.85 10.72 13.34 9.77 8.64 12.59 12.20 6.75 12.87 6.19 3.07 1.11 -0.06 -1.02 4.96 -0.80 -0.58 -0.04 -0.66 -1.19 3.85 -3.08 -5.68 -2.52 -5.86 -2.68 -4.79 -2.05 -0.89 -4.48
13.95 12.41 9.13 8.84 10.41 11.65 11.21 9.44 11.69 13.54 7.03 9.84 8.22 5.21 10.60 7.20 7.51 16.23 12.29 7.40 4.49 2.83 1.53 2.68 1.58 3.49 -1.13 -3.50 6.89 -2.01 -2.25 -3.18 5.25 -3.55 -2.87 -0.62 3.08 -0.74 -3.45 -5.52 0.37 -2.13 -5.86 1.65
14.06 12.69 12.21 10.80 15.22 16.00 18.24 18.71 17.42 18.39 17.31 17.50 18.49 17.43 14.61 17.53 8.86 8.55 6.26 6.75 8.83 6.02 3.63 3.44 4.80 5.35 -1.92 -2.14 -2.10 5.81 -0.01 -2.49 -2.13 -5.01 -5.15 -5.15 -4.59 -5.56 -4.25 -1.98 -5.33 -5.32 -7.53 -9.65
18.68 18.22 18.29 20.06 21.28 21.35 19.93 20.04 15.47 16.80 16.80 10.93 11.65 14.71 14.98 14.76 11.70 9.51 7.94 7.81 9.77 8.26 5.68 11.43 5.02 7.46 7.75 6.61 3.42 -1.44 -0.99 2.59 6.66 3.61 2.61 -3.02 -3.33 -0.64 1.66 1.73 -1.32 -3.22 -4.84 -3.87
21.04 21.64 22.44 19.54 19.11 18.50 15.53 14.51 10.46 9.69 8.90 4.88 4.79 4.63 9.03 8.44 8.09 9.78 9.53 8.08 10.65 14.28 11.05 8.15 9.01 9.60 10.73 4.59 4.23 0.70 -0.12 1.31 3.54 6.62 3.49 -2.05 -4.07 -3.75 0.54 -1.91 -1.51 2.22 0.77 -4.47

GFSNGP_sfc_wetblb_102.txt.gz
Wetbulb
27.84 28.96 29.55 29.00 32.39 33.34 32.23 32.44 27.75 26.84 26.33 27.30 26.97 26.99 27.05 28.30 28.99 28.63 27.65 27.83 28.36 28.76 29.74 30.71 31.96 33.06 34.73 36.04 38.04 40.57 41.75 44.75 51.11 57.88 58.31 58.02 57.04 56.70 56.60 56.68 56.30 56.12 55.63 55.16
27.23 31.08 30.33 29.70 32.56 30.15 29.78 30.65 30.03 28.16 26.02 29.07 28.07 27.45 25.90 26.17 26.03 25.83 26.12 26.68 27.29 27.81 28.93 29.84 30.79 31.47 33.52 34.41 35.71 37.49 38.04 38.53 41.61 47.35 56.72 56.68 57.06 56.98 55.44 52.31 53.61 53.26 53.25 51.76
26.93 31.80 32.15 25.06 27.81 27.20 26.83 27.85 27.26 23.43 27.59 27.53 24.34 24.09 23.91 24.02 24.48 24.19 24.97 25.37 25.53 26.85 27.90 29.59 30.15 30.53 30.90 32.90 34.86 34.86 34.77 35.61 36.82 39.33 42.73 44.23 45.27 43.81 42.93 42.21 41.54 40.52 40.66 41.05
27.75 29.66 17.97 27.63 32.10 30.00 26.16 26.40 27.23 26.96 28.91 25.62 24.25 25.12 26.29 26.31 23.93 23.22 24.22 24.51 24.92 25.98 27.18 29.72 30.23 29.86 30.24 30.26 31.52 32.45 32.84 33.00 34.46 35.54 36.10 37.21 37.62 36.68 36.17 36.12 35.62 35.62 35.59 36.18
26.93 24.80 26.66 27.54 27.10 25.82 27.33 22.77 27.21 25.22 26.39 27.97 27.61 26.17 23.11 25.79 26.41 24.56 24.58 25.34 25.90 26.66 27.26 28.68 29.73 29.93 28.94 27.97 28.25 28.19 30.09 31.25 32.06 34.31 33.26 33.29 32.76 32.92 33.15 32.60 32.37 32.04 33.04 33.37
28.61 22.06 18.41 23.86 26.12 30.93 31.40 17.22 27.41 26.07 23.56 23.05 28.00 17.52 19.29 24.74 25.62 25.19 24.78 25.59 25.00 26.21 26.63 26.61 28.97 29.96 27.41 26.19 25.73 25.61 26.83 28.59 30.81 31.77 32.19 32.22 32.00 31.40 31.47 31.28 30.48 30.91 30.69 31.68
25.30 22.40 23.75 24.63 27.78 32.72 18.03 18.82 27.29 25.58 23.33 21.63 19.31 21.39 24.13 25.64 24.78 25.69 25.47 24.54 25.05 24.35 24.68 25.90 27.98 28.89 25.88 25.38 24.03 25.85 26.88 27.28 27.46 28.40 30.24 31.14 31.70 31.85 31.32 30.67 29.98 29.37 29.16 30.16
23.35 19.91 17.51 26.36 26.85 22.52 26.03 28.44 27.23 25.16 23.31 21.28 21.51 22.24 22.07 22.96 23.13 23.50 23.40 23.95 23.62 22.68 23.18 24.31 26.73 26.97 26.45 26.19 26.95 26.45 25.64 25.31 25.55 26.33 27.03 28.21 28.93 29.59 29.88 29.37 28.61 28.62 28.73 28.51
23.24 20.72 26.84 27.13 25.55 27.96 28.94 26.93 27.14 24.63 24.04 22.41 20.10 20.79 21.61 22.64 23.44 22.94 22.71 22.43 23.16 21.60 21.83 23.66 24.55 25.93 24.50 27.74 28.64 26.88 25.25 23.81 24.27 24.96 25.77 26.35 26.12 25.87 26.01 27.42 27.39 27.60 27.78 27.55
23.39 24.53 25.73 27.25 27.43 27.39 27.62 27.24 26.55 25.62 24.88 23.84 20.88 21.09 20.64 21.45 21.83 21.96 22.15 21.46 22.27 21.78 20.46 20.66 23.29 24.79 26.13 26.12 28.59 28.31 25.72 24.58 23.72 23.15 23.49 25.14 25.78 26.18 25.52 24.84 25.04 25.58 26.33 26.89
23.23 24.90 25.33 26.14 26.81 27.43 26.68 26.48 26.22 25.96 24.95 23.83 22.93 22.13 21.69 20.96 20.68 19.98 19.84 19.57 19.84 19.57 19.75 19.66 21.36 22.15 24.50 25.55 25.96 25.96 26.23 26.55 24.44 23.54 22.76 22.90 24.56 25.49 25.41 27.13 27.63 25.40 25.84 27.53
20.12 25.37 23.77 24.37 26.66 27.26 26.05 25.92 25.96 24.30 23.90 25.42 24.74 23.12 22.24 20.25 20.19 19.09 18.40 18.63 17.84 18.42 18.71 19.21 20.00 20.54 21.97 24.98 26.06 24.67 24.59 25.02 25.29 25.57 24.11 22.98 21.67 21.94 26.93 27.77 27.98 28.83 29.49 28.95
23.09 26.43 24.80 25.38 26.63 27.11 24.92 25.13 25.27 24.26 24.06 22.39 22.26 21.16 19.69 18.56 19.28 19.88 17.94 17.14 16.52 16.89 17.63 17.99 18.57 18.78 20.12 22.67 24.95 25.40 24.31 24.57 24.30 24.31 23.96 23.37 22.22 21.29 19.45 22.27 24.46 26.37 27.05 27.99
26.95 26.53 23.77 23.76 24.07 26.66 25.12 25.18 25.48 24.17 23.57 21.67 20.12 19.24 18.00 16.76 16.73 16.50 16.17 17.25 16.70 16.14 16.20 16.80 16.52 16.32 18.77 20.63 23.04 22.21 22.39 21.91 22.00 22.54 21.61 20.27 19.12 18.08 17.34 16.31 16.16 16.64 21.90 23.92
28.79 28.68 26.14 26.43 26.93 25.50 25.38 24.04 21.66 20.53 20.46 19.33 19.75 18.27 17.34 15.02 13.47 13.42 14.82 16.41 16.02 14.75 13.91 13.99 14.34 14.26 17.12 19.87 21.72 20.70 21.11 19.73 18.89 18.81 18.86 18.69 17.33 15.67 15.28 14.96 14.71 15.34 17.12 18.57
27.70 28.04 27.67 26.78 25.09 24.31 23.40 22.56 20.07 18.55 18.29 18.02 17.34 16.60 16.17 15.83 15.04 14.46 13.77 13.49 11.93 9.55 10.95 8.27 12.03 11.48 15.19 15.38 17.04 16.79 15.06 17.27 15.80 16.31 16.66 15.69 14.98 13.24 12.86 12.87 13.81 14.28 14.52 14.68
26.41 24.64 25.23 23.65 22.95 22.14 20.75 20.23 18.55 17.07 16.28 15.15 14.77 15.95 15.88 14.77 13.77 12.62 11.85 12.07 8.99 5.93 8.61 7.69 5.05 6.73 9.31 10.70 12.62 13.94 12.55 14.20 13.69 15.64 16.06 15.93 14.78 12.65 11.45 11.31 11.53 11.80 12.61 13.13
28.85 26.53 25.89 23.34 21.12 19.47 18.51 18.18 16.90 15.24 12.67 12.35 8.54 5.51 3.17 3.17 3.29 2.52 1.76 2.62 2.31 3.44 2.99 1.54 2.65 6.93 8.92 11.35 12.82 15.67 13.93 14.31 15.58 17.00 13.82 10.37 13.60 15.10 12.08 10.99 10.92 10.38 8.19 8.21
25.82 24.21 23.51 22.45 21.00 19.19 17.63 15.43 13.16 11.23 6.24 2.65 0.77 -1.25 -3.81 -5.80 -4.17 -3.81 -6.17 -5.22 -6.36 -2.64 1.71 0.79 13.49 8.27 9.94 12.44 13.16 13.50 12.63 10.55 12.58 12.83 12.84 9.14 7.17 8.38 8.38 8.90 7.81 2.14 2.29 5.38
21.16 21.43 20.61 18.72 17.17 14.50 10.57 5.88 6.92 5.60 0.93 0.20 -6.16 -5.62 -3.30 -5.07 -7.61 -6.16 -3.11 -0.39 -0.55 3.14 4.30 6.44 8.68 9.83 11.20 11.92 9.00 12.08 9.60 7.66 12.46 7.53 5.45 10.08 5.65 0.14 0.72 5.70 9.01 6.56 4.26 2.50
14.57 13.79 11.78 10.19 6.51 3.59 4.24 2.46 2.85 -0.15 -2.55 -4.93 -1.22 -3.26 -2.91 -3.11 -4.53 -6.73 0.35 6.17 4.00 5.37 9.95 8.41 8.32 7.40 9.59 7.46 10.14 0.15 1.28 -0.98 0.29 0.30 -1.63 -3.62 0.72 5.32 -0.04 -5.98 -5.44 -4.53 -5.07 -2.35
11.27 9.57 7.15 6.09 5.90 2.50 -1.84 -0.18 1.20 -2.79 -2.67 -3.82 -7.25 -8.52 -6.71 1.33 -2.17 0.95 -0.34 6.29 9.30 4.50 9.53 8.17 7.54 0.41 4.42 2.16 7.17 -2.07 3.07 2.00 -0.08 -0.79 -4.23 -6.17 -7.97 -7.61 -6.18 -7.56 -7.61 -7.07 -3.26 -2.17
8.94 8.49 7.91 6.54 7.70 6.14 1.85 1.09 -1.17 -0.74 -1.27 -2.47 -1.36 0.03 3.39 8.43 9.67 6.39 5.56 11.54 11.08 5.23 10.52 5.59 1.30 -0.24 -1.75 -6.47 -2.54 -5.98 -6.16 -5.80 -3.81 -4.54 -5.62 -10.15 -6.89 -6.89 -9.43 -8.19 -9.99 -9.79 -10.15 -9.83
9.06 9.20 6.53 4.62 5.89 9.63 9.27 7.56 8.50 11.02 4.03 6.97 6.04 2.49 9.09 5.75 5.98 13.31 11.24 7.05 4.35 1.88 -1.04 -1.85 -0.57 2.79 -1.52 -8.01 -7.08 -5.07 -6.71 -8.52 -5.98 -8.60 -7.70 -7.61 -9.79 -8.34 -6.71 -3.46 -0.92 -6.89 -10.51 -8.34
11.38 10.17 9.80 10.00 13.26 12.97 15.35 16.56 15.43 15.59 16.22 15.81 16.85 17.77 13.89 14.97 10.08 11.20 5.93 6.21 5.54 5.27 3.39 -0.31 0.87 1.34 -4.47 -7.46 -8.88 -7.07 -5.80 -8.34 -8.70 -8.70 -6.16 -10.15 -8.70 -10.69 -11.42 -7.25 -2.58 -2.39 -3.47 -9.83
16.36 16.82 16.22 17.55 17.35 18.13 19.19 19.87 16.12 16.27 16.57 12.73 10.02 5.97 8.13 11.71 13.77 11.38 7.15 4.22 6.61 6.59 4.51 7.35 5.79 -1.30 1.46 4.59 2.57 0.47 -3.14 -3.50 -4.89 -3.62 -0.37 0.54 -7.61 -8.70 -9.43 -7.07 -7.97 -7.43 -2.40 -5.80
19.10 17.75 18.37 17.79 18.56 17.10 15.32 14.64 10.65 8.07 4.90 2.54 4.17 2.64 4.84 1.47 3.73 6.92 6.86 6.92 8.87 8.70 9.45 8.91 7.44 9.02 10.22 9.99 9.10 8.89 5.69 2.22 -3.10 -1.13 -4.71 -7.25 -10.33 -9.43 -11.24 -7.79 -9.61 -9.79 -8.16 -5.62

GFSNGP_sfc_wetblb_105.txt.gz
Wetbulb
27.34 28.14 28.79 29.28 30.14 31.14 29.91 31.93 24.84 24.67 22.77 23.99 24.16 23.92 24.62 25.81 26.03 25.55 25.14 25.34 26.15 26.61 28.32 29.37 29.82 30.64 31.59 33.39 35.49 37.60 39.49 38.85 40.70 46.34 56.68 57.56 56.58 56.26 55.97 55.69 56.38 56.26 55.85 55.39
25.38 29.73 30.60 25.87 26.69 26.81 28.57 29.31 28.50 25.53 21.57 26.07 25.80 25.31 23.39 23.45 23.49 23.23 23.75 24.36 25.04 26.14 27.31 28.71 29.09 29.16 29.95 30.63 33.02 34.79 35.00 36.04 38.04 39.51 41.47 43.78 51.47 55.09 52.39 49.60 49.11 48.34 47.00 47.79
25.12 29.59 27.03 17.53 24.52 24.63 25.03 25.58 26.24 22.85 23.82 24.79 22.26 22.10 22.38 22.15 22.62 22.51 23.45 23.90 24.38 25.34 26.47 28.43 28.95 28.88 27.98 29.02 30.48 31.46 32.21 33.74 35.06 35.81 35.83 36.48 38.41 39.78 40.61 40.91 40.23 39.29 39.53 40.17
26.83 28.43 15.84 25.68 30.32 28.10 24.42 24.78 25.50 26.13 24.69 23.58 22.36 22.84 23.65 24.68 22.87 22.37 23.02 23.58 24.21 25.20 26.23 28.17 28.50 28.12 28.22 28.28 28.38 28.70 28.78 30.16 32.78 33.80 33.18 33.47 33.15 33.25 34.23 35.22 35.25 35.24 35.24 35.97
25.93 22.13 24.78 27.88 25.37 24.66 25.54 21.74 25.45 23.70 25.21 25.51 24.85 26.62 21.56 24.26 24.77 23.78 23.74 24.37 24.50 25.59 26.22 27.49 28.40 27.76 26.92 25.91 26.36 26.82 26.78 27.31 28.88 31.87 32.13 31.67 31.21 31.24 31.45 32.04 32.08 32.09 32.97 33.17
26.77 21.82 17.79 22.58 24.78 29.12 29.67 15.46 25.20 23.70 22.36 22.78 26.22 18.27 16.92 23.56 24.22 24.13 24.01 24.67 23.73 24.44 25.32 25.87 27.41 28.49 25.34 24.08 23.60 23.63 25.62 26.90 27.78 28.77 29.56 30.58 30.45 30.16 30.93 31.22 30.58 31.02 30.71 31.64
24.51 21.93 22.26 23.13 25.58 31.65 17.52 18.42 24.83 23.67 21.48 19.85 16.91 19.37 22.19 24.08 23.04 23.64 23.27 22.90 23.00 23.55 23.30 24.18 26.49 27.54 26.14 24.63 23.31 23.97 24.47 25.99 26.52 27.45 27.96 28.15 28.92 29.87 29.85 30.03 30.50 29.78 29.43 30.05
22.79 20.32 17.51 24.98 25.93 22.13 25.09 26.90 25.01 23.11 21.46 18.31 18.60 19.62 22.44 22.72 21.64 21.40 20.50 20.87 20.94 20.14 21.13 23.40 25.21 25.02 23.87 24.94 26.44 24.16 22.99 23.18 24.21 26.02 26.73 27.56 27.16 27.57 27.93 28.33 28.48 28.94 28.91 28.79
21.67 19.02 24.61 25.98 25.21 28.03 28.40 25.40 24.31 22.85 22.55 21.49 19.30 19.35 20.42 20.55 20.76 20.21 19.34 18.94 20.08 18.68 19.28 21.26 22.74 24.37 22.63 24.07 26.67 24.69 23.01 21.88 22.59 23.80 25.30 26.35 26.24 26.59 26.52 26.98 27.02 27.25 27.86 27.61
21.77 23.09 24.52 24.60 25.87 26.36 26.08 24.54 25.51 25.02 23.64 22.50 19.44 19.67 18.99 18.98 18.11 17.63 17.09 16.95 18.35 18.58 17.92 18.24 19.90 21.53 23.22 24.37 24.10 25.05 24.40 23.11 22.49 22.47 22.60 24.96 25.97 25.89 25.98 26.04 26.13 26.17 26.68 26.48
21.65 23.31 24.07 24.68 25.08 25.27 25.61 26.14 25.04 24.63 23.55 22.36 21.52 19.67 18.18 14.42 15.27 14.87 14.60 16.13 17.22 17.33 17.78 17.74 19.29 19.61 20.84 23.67 24.30 23.97 24.24 24.45 24.10 23.39 21.93 22.10 22.88 24.37 24.91 26.39 27.65 26.37 26.03 26.49
19.45 23.20 23.14 21.83 26.01 26.50 24.41 23.49 24.37 23.50 23.19 23.50 22.20 18.99 18.92 17.10 17.25 16.17 16.02 17.04 16.55 17.23 17.12 17.33 18.25 18.81 20.10 22.84 24.07 23.35 23.16 23.23 22.53 22.47 22.29 21.90 21.23 21.27 25.16 25.92 27.23 28.17 28.43 27.63
23.94 26.54 24.69 25.34 25.87 26.62 24.17 23.92 24.24 22.77 21.90 19.56 19.25 18.91 18.33 17.03 17.57 18.13 16.24 15.45 15.17 15.44 16.06 16.32 16.79 16.91 18.06 21.28 23.13 22.37 21.15 22.38 21.79 20.95 19.66 18.59 17.81 17.31 16.30 19.68 22.62 24.22 25.51 26.40
26.52 25.64 23.34 24.54 22.83 25.79 25.64 25.35 24.72 21.70 20.64 19.50 17.94 17.71 17.00 15.65 15.39 14.85 14.38 15.79 15.30 14.33 14.16 14.23 14.41 13.84 16.12 18.68 20.00 18.99 18.80 17.45 18.24 18.69 17.05 15.08 13.69 13.77 14.57 14.28 13.91 15.52 19.88 21.06
26.66 27.89 25.12 25.32 25.02 24.23 24.13 22.17 20.36 19.02 18.87 17.92 18.38 16.78 15.50 13.06 11.48 10.88 12.34 14.75 14.03 12.63 11.30 11.33 11.92 11.61 14.80 18.56 19.35 16.80 18.36 16.09 14.16 13.47 14.02 12.81 11.64 12.01 12.40 12.59 12.45 13.10 14.02 15.46
25.93 25.77 25.28 24.33 22.96 22.33 21.83 21.05 18.95 17.73 17.76 16.90 15.92 15.56 15.15 14.53 12.95 12.03 11.66 11.01 9.48 6.34 8.35 5.81 9.61 8.92 13.06 13.70 14.84 13.64 11.44 13.95 11.99 11.38 10.49 9.48 9.18 9.55 10.45 10.52 10.91 10.56 10.33 10.28
24.56 24.14 24.71 22.58 21.82 21.71 20.87 20.28 18.93 17.47 16.52 15.54 15.29 15.94 15.34 13.77 12.63 11.67 9.65 9.79 6.62 4.05 6.25 4.14 0.95 4.09 7.18 7.97 10.21 10.67 8.87 10.97 10.35 11.44 10.61 10.59 9.36 9.57 9.39 7.58 7.48 8.57 7.42 5.03
27.11 26.80 25.94 24.83 21.90 19.69 18.70 18.04 16.68 15.03 12.24 11.75 7.58 4.27 2.24 3.07 2.21 1.29 0.38 0.32 1.26 2.14 0.32 -1.42 1.01 5.01 6.93 9.03 11.33 13.23 11.48 12.36 13.49 11.98 10.94 7.93 10.26 10.90 6.73 5.83 6.85 5.26 2.72 3.55
26.36 24.23 23.45 22.56 21.45 19.28 16.91 14.82 12.39 10.39 6.10 3.17 2.22 -1.67 -5.43 -7.06 -5.97 -6.51 -10.14 -7.05 -6.06 -3.44 0.82 0.61 12.85 8.09 8.86 11.48 11.68 11.29 10.05 8.11 10.19 10.93 11.72 7.33 5.14 8.87 3.26 0.01 -1.26 -3.61 -1.32 1.32
22.76 22.45 21.02 19.10 17.34 14.63 10.66 4.08 5.89 4.89 -1.55 0.52 -5.80 -6.51 -3.87 -5.79 -9.78 -8.51 -6.88 -1.91 -1.23 2.29 3.05 5.95 7.73 8.82 10.31 11.04 7.43 9.74 7.26 3.98 9.19 6.31 6.35 5.90 -2.71 -4.88 3.35 6.34 6.33 0.38 -6.33 -6.33
15.93 15.33 12.48 10.05 4.30 2.12 2.90 0.32 2.82 -0.60 -4.52 -6.88 -3.43 -5.24 -4.34 -5.06 -6.35 -9.59 -1.27 5.29 4.24 4.05 8.73 7.69 7.38 6.29 8.20 6.23 7.92 -2.89 -2.07 -3.97 -3.99 -3.98 -7.60 -8.14 -5.06 2.46 -2.18 -3.79 -1.44 -1.82 -1.65 -1.45
10.37 8.63 5.17 4.52 5.46 0.70 -4.34 -2.77 0.02 -3.65 -4.52 -5.97 -9.59 -10.68 -7.60 -0.04 -4.70 -2.07 -0.46 6.14 8.61 4.54 8.70 7.44 7.11 1.47 3.56 0.31 5.99 -4.00 0.27 0.25 -0.78 -3.45 -5.97 -9.05 -10.32 -11.41 -11.41 -13.76 -11.05 -8.14 -7.06 -6.51
9.01 8.32 6.98 5.05 5.63 4.39 -0.13 -2.09 -4.72 -2.80 -3.95 -5.79 -4.71 -2.62 0.89 7.24 7.90 5.34 5.19 11.47 10.18 6.09 8.05 5.98 2.07 -1.04 -2.33 -7.22 -6.16 -7.60 -8.14 -7.06 -6.51 -7.06 -9.41 -13.40 -11.23 -7.60 -11.41 -11.23 -11.77 -13.22 -13.95 -11.77
7.53 8.26 4.09 3.21 4.93 7.75 7.37 4.45 6.22 8.38 0.88 4.13 4.70 1.84 7.70 4.94 6.89 12.92 11.51 7.42 3.97 2.69 -0.60 -1.60 -2.33 1.05 -1.53 -8.58 -9.78 -9.96 -9.78 -10.68 -10.86 -8.87 0.53 -9.05 -14.31 -14.13 -13.40 -12.50 -8.69 -9.41 -13.40 -10.50
10.18 8.72 7.56 7.49 11.17 11.10 13.84 14.31 13.65 14.04 14.67 15.19 15.77 16.49 14.82 13.90 9.78 9.76 6.99 7.55 5.99 4.85 3.57 1.14 0.34 1.21 -0.60 -2.03 -7.60 -6.33 -4.52 -6.51 -6.51 -12.31 -8.69 -10.32 -9.78 -12.13 -13.58 -14.85 -10.68 -1.49 -5.61 -10.68
14.44 13.87 13.82 15.83 15.68 15.69 16.30 17.52 13.22 13.02 13.41 9.43 9.86 5.80 5.36 6.46 13.08 13.00 12.48 9.75 8.46 8.20 7.70 8.19 4.75 4.62 1.10 5.41 4.70 5.73 3.43 3.25 1.13 -2.76 -5.43 -2.52 -5.79 -7.24 -10.86 -8.87 -10.14 -7.06 -4.52 -5.24
17.00 16.24 16.58 16.13 16.68 16.02 14.33 14.29 9.43 7.90 6.95 7.44 6.81 4.59 3.79 -1.19 -0.08 4.25 4.71 1.10 1.62 -1.07 -1.44 -1.26 3.06 5.51 6.54 1.83 2.53 3.02 1.43 2.30 3.00 5.01 3.76 3.58 -2.54 -5.43 -6.88 -7.26 -7.44 -7.60 -10.86 -9.96

GFSNGP_sfc_wetblb_108.txt.gz
Wetbulb
25.96 27.29 27.96 28.04 26.65 26.26 29.50 30.41 25.11 23.56 20.92 22.11 22.67 22.36 22.75 24.27 24.24 24.11 24.23 24.55 24.78 25.08 26.36 27.85 28.06 28.50 29.18 30.32 31.99 34.39 36.53 36.14 37.77 39.48 41.69 45.33 52.28 55.79 55.91 55.73 55.87 55.95 55.93 55.33
22.85 27.76 29.58 23.83 25.43 24.55 24.22 26.81 24.52 23.02 20.17 24.84 24.81 24.54 22.85 22.04 22.60 22.32 23.19 23.48 24.07 24.71 25.83 27.13 26.72 27.27 27.92 28.89 30.21 31.74 33.27 34.83 35.86 36.50 36.36 37.52 38.24 39.91 41.05 41.77 43.02 44.94 45.43 45.64
22.76 26.69 25.90 19.97 23.16 23.84 23.02 24.05 25.50 22.42 22.61 24.44 21.66 21.22 20.69 21.21 21.91 21.71 22.54 22.81 23.03 23.85 25.45 26.80 27.12 26.93 26.25 27.16 29.35 29.64 29.82 31.19 32.98 33.81 32.90 33.85 34.32 34.39 34.75 34.77 35.90 35.98 37.05 38.37
24.10 25.54 15.80 23.30 29.99 26.82 22.75 22.95 24.66 24.19 23.89 23.31 21.36 21.79 22.66 23.38 22.06 21.42 22.07 22.13 22.48 23.69 24.54 26.21 28.03 26.92 26.89 26.47 26.73 27.48 28.02 28.80 29.90 31.55 31.79 32.31 32.33 31.76 32.08 32.50 32.31 32.61 32.91 34.07
24.74 21.27 22.27 26.02 24.26 23.70 24.34 20.43 24.03 23.24 24.55 25.39 24.41 26.11 21.16 23.13 23.50 22.42 22.06 22.52 22.67 24.20 24.58 25.51 26.21 27.87 26.00 24.99 24.69 25.02 25.66 26.95 28.54 29.26 29.13 30.51 30.45 30.85 31.14 30.74 30.52 30.61 31.27 31.67
26.94 21.04 16.44 21.41 24.26 27.79 28.35 14.99 24.11 23.03 22.33 22.09 26.14 18.43 17.11 22.39 22.56 22.10 22.26 22.45 21.16 22.46 23.44 23.57 25.27 26.67 25.86 23.85 23.04 22.42 24.35 25.95 27.61 28.93 28.52 28.03 28.58 29.97 31.01 31.16 30.37 30.34 29.77 30.28
24.79 21.07 20.93 22.80 24.62 29.45 18.87 17.00 23.50 22.27 20.10 20.04 16.66 17.27 20.35 22.70 21.44 21.65 21.23 20.66 20.57 20.63 21.22 21.85 24.34 25.47 23.98 24.16 22.34 23.21 23.98 25.20 26.07 27.15 27.91 28.87 28.77 29.09 29.60 29.85 30.15 29.78 29.36 29.77
22.55 20.89 17.26 24.18 26.31 22.70 23.28 24.79 23.09 21.05 19.26 17.86 16.77 18.79 19.48 20.17 19.03 18.40 17.24 17.97 18.06 17.79 19.46 21.17 22.87 24.12 22.91 22.54 25.47 23.87 23.08 22.73 23.49 25.41 26.15 26.80 27.50 28.27 28.70 29.11 28.58 28.49 28.58 28.58
20.17 18.27 23.55 25.18 24.98 26.99 26.82 23.74 22.60 21.40 21.20 16.62 13.49 16.28 17.48 17.78 17.77 16.07 14.95 14.74 17.16 15.44 16.78 18.86 20.50 22.02 21.72 22.79 24.98 25.17 23.14 21.74 21.75 21.88 22.99 25.07 25.03 25.36 26.20 27.11 26.87 26.69 26.61 26.30
20.47 23.08 22.84 23.81 24.89 25.41 25.13 22.92 23.35 22.92 20.65 19.68 16.80 15.87 14.31 13.46 14.29 14.57 14.53 15.17 16.44 17.04 15.95 15.88 17.48 18.73 21.16 23.40 24.53 24.43 23.13 22.82 21.95 21.26 21.06 22.82 23.71 24.57 24.61 24.89 23.97 23.92 24.46 24.52
20.63 23.01 23.69 23.61 23.29 24.44 24.52 23.62 22.34 23.02 21.53 19.64 17.95 15.59 13.83 11.65 12.34 13.00 13.49 14.55 16.16 15.76 15.91 15.48 16.91 17.10 18.53 21.25 22.04 22.75 22.08 20.82 19.58 19.46 18.62 18.76 21.67 23.18 23.08 25.03 25.40 23.54 23.47 23.71
13.29 21.90 21.17 22.17 21.53 24.66 22.20 21.55 22.35 22.33 21.52 21.85 19.87 17.74 17.04 15.58 15.55 14.67 14.46 15.57 14.91 15.39 15.37 15.34 16.39 16.72 17.86 21.10 21.45 20.08 19.61 19.14 17.60 16.94 16.81 17.01 15.95 16.14 23.23 24.32 24.95 25.58 26.07 25.00
23.71 24.76 22.67 25.06 24.01 23.98 23.74 23.08 23.33 22.04 20.89 18.79 18.68 17.96 16.94 15.51 16.06 16.75 14.98 14.29 13.53 13.48 14.16 14.55 15.08 14.94 16.02 19.72 20.34 19.43 18.01 18.86 17.05 16.24 15.49 14.48 14.28 13.64 11.82 15.23 20.73 21.83 22.25 23.99
26.30 25.44 22.83 22.27 21.60 24.17 23.77 24.12 23.10 20.24 19.49 18.11 16.80 16.64 15.90 14.28 14.24 13.50 12.80 14.22 13.65 12.40 12.23 13.03 13.53 12.56 14.62 18.10 17.53 16.52 15.93 13.74 13.57 13.00 11.55 10.55 9.75 10.48 11.62 10.77 9.61 10.36 16.15 18.17
26.35 26.64 24.63 24.60 24.08 22.98 22.66 21.42 19.31 17.96 17.71 16.76 16.91 15.24 14.05 11.56 10.18 9.26 10.59 13.17 12.46 10.46 9.25 9.85 10.87 10.18 13.09 16.81 16.98 14.37 15.94 13.47 10.07 8.20 7.70 7.34 8.05 9.26 9.13 8.91 9.08 8.87 9.68 10.89
25.42 24.54 24.26 23.51 22.71 21.96 21.14 20.19 18.28 17.41 17.06 16.32 15.72 14.99 14.19 12.97 11.54 10.59 10.16 9.54 8.19 4.83 6.13 2.72 8.57 7.06 11.40 12.12 13.02 11.34 9.25 11.91 8.84 8.08 7.58 6.73 6.72 7.24 7.34 6.52 6.71 6.40 6.23 5.94
23.27 22.08 22.80 21.57 20.98 20.66 20.28 20.21 18.71 17.41 16.24 15.15 14.50 14.91 14.30 12.97 11.45 9.54 7.05 7.99 4.95 1.92 4.50 2.07 -0.57 2.10 5.63 6.29 8.39 9.67 7.92 9.97 9.10 10.34 9.64 9.62 8.02 7.23 6.83 5.18 4.51 4.54 2.12 -1.13
26.45 26.52 25.46 23.45 21.93 20.13 18.98 18.63 17.62 16.13 12.74 12.06 7.71 3.80 0.91 1.22 1.42 -0.18 -1.94 -1.02 0.08 0.09 -2.59 -2.85 0.01 3.82 6.05 7.90 9.97 11.65 10.28 11.00 12.01 10.82 10.50 7.19 8.35 8.78 4.47 3.59 4.62 3.04 0.58 1.29
26.81 24.87 24.24 23.75 22.14 20.09 17.70 15.28 12.99 10.18 5.54 3.03 2.28 -1.54 -4.74 -7.83 -7.10 -8.37 -12.18 -8.17 -6.28 -3.17 1.09 -0.32 12.34 7.39 8.05 11.41 9.91 9.74 8.45 6.49 8.64 9.74 9.57 6.29 2.91 5.24 2.32 -1.84 -2.39 -5.83 -3.16 0.15
24.06 23.75 22.54 20.35 18.31 15.08 10.68 5.61 5.30 3.18 -3.25 -1.37 -5.67 -7.37 -3.56 -6.40 -11.09 -9.82 -9.09 -2.63 -1.94 1.94 1.51 5.18 6.91 7.58 9.20 9.83 6.72 8.57 6.00 1.94 6.71 3.55 0.06 1.38 -5.11 -6.38 -3.47 3.18 2.28 -2.93 -10.00 -5.47
19.79 18.49 14.57 11.46 5.59 3.30 3.87 1.89 2.08 0.06 -6.92 -7.87 -2.87 -5.08 -3.99 -6.56 -8.73 -11.09 -1.13 4.50 4.02 3.54 7.61 6.83 6.89 5.82 7.02 5.27 6.64 -4.20 -2.80 -5.65 -4.93 -5.11 -9.64 -10.55 -12.00 -7.10 -6.56 -9.28 -7.64 -6.74 -5.11 -4.56
14.65 11.27 7.70 5.20 4.96 -0.56 -5.83 -3.70 1.14 -1.97 -6.19 -8.91 -12.54 -11.81 -7.46 -0.48 -4.56 -2.98 -1.72 5.78 8.21 4.34 7.21 6.94 6.59 2.10 2.84 -1.26 4.67 -5.11 -0.30 -0.68 -1.69 -5.29 -6.92 -10.91 -12.18 -10.36 -5.83 -10.91 -12.18 -11.09 -11.81 -13.26
9.68 9.09 6.66 4.97 5.96 3.94 -1.39 -3.77 -5.84 -2.30 -3.88 -6.74 -4.93 -3.52 1.43 5.98 6.59 4.57 5.30 10.57 9.08 6.11 7.10 4.73 1.85 -0.25 -2.05 -8.12 -7.71 -9.46 -9.09 -9.09 -8.19 -8.73 -9.28 -14.35 -15.26 -15.26 -13.81 -10.73 -8.55 -10.36 -10.73 -2.61
8.24 7.68 4.28 2.95 4.49 6.57 6.43 2.76 4.86 6.53 -1.71 3.13 1.73 -0.17 7.27 3.74 2.23 11.92 11.28 6.62 1.51 -0.47 -1.62 -2.92 -3.01 -0.47 -3.66 -8.73 -9.09 -8.91 -9.82 -11.09 -8.19 -9.64 -7.28 -7.28 -11.63 -14.35 -14.90 -12.18 -11.45 -8.91 -14.17 -9.28
9.66 7.31 6.20 7.17 10.12 9.46 12.22 12.20 11.82 12.47 12.83 13.34 14.03 14.18 10.97 12.00 7.48 5.93 4.10 5.14 6.63 5.65 2.33 0.73 1.78 2.95 3.70 3.63 2.17 2.70 0.94 -1.50 2.35 0.73 -4.21 -9.09 -4.93 -7.46 -8.01 -12.18 -10.36 -9.28 -9.46 -10.73
12.84 11.96 11.81 14.40 14.05 13.70 14.47 15.45 11.14 11.60 11.68 7.16 5.50 1.06 -0.59 1.91 6.39 6.27 6.54 6.62 8.15 7.68 4.27 3.51 2.81 1.89 -1.66 0.32 4.68 4.16 4.18 4.49 2.56 1.29 2.68 2.46 2.60 1.55 -1.54 -3.84 -5.65 -5.11 -5.14 -4.04
15.59 14.37 15.08 14.49 14.93 14.90 13.63 13.13 8.82 7.14 3.22 0.51 3.32 -0.68 1.15 -2.61 -4.93 -0.45 -2.21 -4.20 -3.47 -6.74 -8.55 -9.64 -9.46 -6.56 -5.29 -6.74 -0.95 3.42 4.79 5.83 4.25 3.73 -1.35 0.77 3.02 1.96 3.84 1.37 -0.04 -0.40 -0.56 -1.08

GFSNGP_sfc_wetblb_111.txt.gz
Wetbulb
26.17 27.40 27.79 27.89 26.44 26.50 23.08 27.75 25.88 22.36 20.23 21.87 23.07 22.50 22.89 24.03 24.28 24.04 23.84 23.69 24.33 24.67 25.62 26.76 26.93 27.04 27.60 28.66 30.56 32.10 33.81 34.73 36.76 38.74 38.81 41.02 41.82 43.88 45.61 44.43 44.75 45.97 49.99 47.94
21.78 28.16 28.56 23.45 25.30 25.72 24.05 26.04 23.70 22.46 19.96 24.65 24.86 24.51 22.75 22.74 22.75 22.40 22.94 23.12 23.62 24.40 24.98 25.63 26.90 26.52 26.52 27.29 28.67 30.44 30.98 32.35 34.10 36.36 36.27 35.55 36.80 37.60 39.03 38.45 38.21 37.97 38.24 38.21
22.24 26.63 25.68 22.14 23.74 23.90 23.66 25.16 26.02 22.91 22.97 24.57 22.34 21.60 21.20 21.56 22.48 21.73 22.17 22.51 22.76 23.78 24.89 25.67 26.70 27.29 26.03 26.63 27.81 28.23 28.75 29.59 31.54 32.64 33.70 32.43 34.23 34.30 33.25 33.67 34.32 33.55 34.35 34.82
24.20 25.47 17.96 24.71 28.74 26.65 23.38 23.27 25.71 24.64 24.43 24.13 22.33 22.64 23.00 23.21 21.96 21.27 21.45 21.77 22.38 23.20 23.98 25.74 27.05 27.85 27.41 27.15 26.10 26.75 27.06 28.13 29.23 30.26 30.72 31.74 32.13 31.64 31.76 31.76 31.52 31.19 31.34 31.92
24.53 22.22 22.84 25.07 25.56 25.24 24.39 21.01 24.50 24.34 25.66 25.27 25.08 26.31 21.94 23.29 23.24 22.09 21.62 22.21 22.15 23.98 24.19 25.00 26.75 27.58 27.65 26.37 25.85 25.52 25.18 26.65 28.22 29.03 29.19 29.73 30.27 30.98 31.45 31.07 30.46 30.21 30.78 30.34
25.65 20.60 17.51 23.14 24.83 28.05 28.38 20.30 24.34 24.50 23.84 25.82 26.73 21.76 19.24 22.26 22.44 21.64 21.50 21.84 20.69 22.59 23.03 23.46 25.09 27.05 25.59 25.51 24.65 23.38 24.77 25.37 27.31 28.59 28.91 29.06 29.88 30.37 31.14 31.21 30.39 30.17 29.48 29.48
26.21 22.10 21.59 23.61 25.34 29.22 21.42 21.21 23.84 22.92 22.62 23.78 20.24 20.88 21.24 21.95 20.77 21.11 20.16 19.69 20.00 20.75 20.93 21.71 23.81 25.73 24.09 24.54 24.12 24.97 25.31 25.78 25.46 27.05 27.94 28.90 30.07 30.57 31.74 31.22 30.83 29.83 29.29 29.67
24.31 21.18 18.41 24.88 27.18 24.36 24.69 25.10 23.22 21.92 20.82 19.21 20.01 19.96 19.91 19.81 18.86 18.48 17.77 18.56 19.00 18.34 18.93 20.45 22.13 23.70 22.59 23.08 25.44 25.68 24.92 24.26 24.49 25.66 26.58 27.83 28.27 29.22 29.29 30.03 29.83 29.65 29.58 29.85
20.81 20.12 24.20 26.20 26.04 28.23 27.65 24.26 23.14 22.37 21.26 19.62 18.29 17.96 18.41 18.15 18.87 18.40 17.99 18.40 19.31 17.77 17.73 18.72 19.88 21.40 20.90 23.04 24.14 23.26 22.79 22.08 23.02 24.28 25.60 26.33 26.24 26.75 26.83 27.45 27.03 26.70 26.97 26.82
22.14 22.78 23.32 24.59 26.12 26.45 26.49 24.29 24.30 23.81 22.33 20.86 17.97 17.02 15.62 17.06 17.90 18.10 18.27 18.32 19.32 19.02 17.47 16.89 18.85 19.80 21.19 22.41 22.84 22.03 20.60 20.81 22.53 22.03 23.00 24.31 26.21 26.21 25.93 25.65 25.54 25.01 24.68 24.88
21.35 23.13 23.67 23.95 25.48 25.30 24.54 24.27 23.27 22.93 22.22 20.24 18.88 16.69 16.50 16.05 17.11 17.56 17.93 18.06 18.59 18.23 18.10 18.10 19.53 19.89 21.36 22.65 22.83 22.55 21.34 20.86 21.07 21.80 21.28 21.67 22.55 23.88 24.20 24.47 24.63 24.16 24.61 24.82
22.16 24.56 24.16 22.92 25.43 25.69 23.57 22.92 23.15 22.38 20.92 20.86 20.04 18.19 18.64 17.55 17.97 18.11 17.68 18.16 18.26 18.48 18.52 19.02 19.86 19.69 21.39 23.09 22.83 21.53 21.08 20.46 19.39 20.14 20.27 20.27 20.28 20.54 21.54 21.93 22.72 23.18 24.16 24.14
24.31 26.49 25.23 25.50 25.53 25.68 24.10 24.40 24.05 22.92 21.86 20.00 20.53 19.95 19.23 18.06 17.88 17.51 17.33 16.96 16.03 16.54 17.43 18.20 18.43 18.23 19.73 22.10 22.17 20.52 19.56 19.73 19.92 19.35 19.04 18.44 18.54 18.02 16.80 19.17 19.44 19.47 20.25 21.69
27.15 26.05 23.61 24.98 23.19 25.50 24.87 24.79 23.94 22.27 21.59 20.59 19.42 18.83 17.74 16.51 16.18 15.36 14.61 16.00 15.66 15.38 15.49 16.42 16.50 15.69 17.42 20.73 19.76 19.38 20.04 16.24 18.83 18.54 18.27 18.08 17.62 17.20 16.79 15.48 14.65 15.22 17.28 17.25
27.01 27.84 26.39 26.01 25.50 24.41 23.83 22.35 20.39 18.94 18.63 17.63 18.12 16.36 15.54 13.42 12.06 11.80 13.14 14.08 13.62 12.87 12.61 13.99 13.99 13.99 16.95 19.33 18.91 17.81 19.48 18.94 18.99 18.83 17.88 16.92 17.70 17.24 16.42 15.56 14.64 14.26 14.97 15.27
25.89 25.27 24.98 24.05 23.03 22.57 22.32 21.58 20.16 18.98 18.44 17.94 16.94 15.65 14.50 14.01 12.98 12.81 12.83 12.80 11.56 8.99 9.96 8.61 11.97 11.74 14.61 16.10 17.56 18.27 18.30 15.66 16.04 18.68 18.39 18.02 17.47 16.33 15.62 15.12 14.31 13.65 12.52 12.38
23.98 22.29 23.57 22.77 22.21 21.79 21.65 22.13 21.55 19.72 18.18 17.31 16.37 15.98 15.25 14.11 12.80 11.92 10.90 11.40 9.06 8.12 9.26 9.79 9.45 9.53 11.49 12.64 16.35 17.36 18.16 17.99 15.06 17.77 17.06 17.01 16.79 15.91 15.47 15.03 14.15 13.57 12.60 10.65
28.00 27.41 26.85 25.16 23.04 21.89 21.13 20.76 19.90 18.55 16.78 16.05 13.27 10.77 8.60 9.37 10.01 8.80 7.09 5.70 7.98 8.44 8.65 7.73 9.93 11.99 12.68 14.56 15.40 16.24 16.13 16.28 16.28 15.62 15.96 15.25 15.10 15.37 14.72 14.32 13.69 13.02 13.17 12.25
28.32 26.46 25.76 24.92 24.02 22.17 20.41 18.99 17.27 15.00 11.38 8.87 8.59 8.28 7.93 6.04 7.16 6.59 3.57 6.05 8.12 10.69 11.21 9.37 13.04 13.21 14.23 14.65 14.87 15.67 15.22 14.71 14.50 14.07 14.14 12.67 13.79 13.74 13.73 13.87 13.32 13.23 12.36 12.11
26.30 25.92 24.77 22.57 21.18 18.94 15.08 12.21 10.77 8.83 6.42 6.63 3.84 4.28 7.06 4.24 3.17 4.77 5.75 11.68 12.65 14.44 11.47 12.16 12.75 13.32 13.61 13.79 11.36 14.96 14.34 13.85 13.07 13.15 12.80 12.28 11.82 11.83 12.07 10.75 11.29 12.32 12.40 12.01
22.88 21.69 18.88 15.82 12.42 11.45 10.47 8.50 6.87 5.57 2.32 3.89 8.15 7.52 8.82 8.42 4.28 3.38 10.24 15.57 14.34 11.34 13.37 11.74 13.73 14.66 14.48 11.51 14.15 15.03 14.42 13.89 13.61 12.79 11.99 11.06 10.62 11.22 11.41 11.75 11.59 11.53 11.40 11.75
19.93 17.43 14.05 12.06 10.73 6.20 5.80 7.16 7.37 4.36 3.68 3.43 0.85 3.39 5.42 9.25 6.05 7.46 8.56 15.03 17.01 9.83 13.96 16.10 15.66 11.36 12.74 6.50 14.44 13.93 14.03 13.63 13.36 13.03 12.88 12.63 12.02 11.30 11.30 11.12 10.56 10.89 10.99 10.69
15.68 14.30 11.86 10.31 10.31 8.20 5.33 6.74 5.46 6.68 5.43 5.91 6.30 8.61 10.63 16.54 16.91 16.75 16.37 15.96 16.86 14.34 15.80 16.95 11.15 7.26 6.33 12.17 13.31 12.78 12.22 11.87 12.20 12.22 12.11 11.98 11.52 11.01 10.82 11.04 11.24 10.98 10.44 10.42
12.90 12.50 10.06 8.88 8.29 9.41 9.99 8.34 8.69 10.15 8.03 9.64 9.40 8.49 12.77 15.65 16.71 17.28 18.97 13.29 8.07 10.65 15.10 14.77 12.85 9.69 5.93 12.98 13.10 13.33 11.83 12.65 11.47 11.27 11.97 8.17 10.56 10.69 10.13 9.99 9.77 11.80 10.66 8.76
13.03 10.92 9.44 10.16 12.26 14.03 14.52 13.11 13.45 13.97 13.57 15.47 16.07 16.41 13.16 16.32 17.34 18.79 17.69 16.94 13.39 15.01 17.66 9.52 7.87 8.45 14.13 13.93 13.06 12.69 13.15 12.97 12.83 12.45 12.35 11.51 10.82 10.29 10.76 10.53 9.07 9.61 10.74 10.37
13.89 14.15 14.28 15.39 16.89 16.95 16.98 16.73 16.38 17.02 17.21 17.27 17.22 17.26 16.37 15.38 16.75 16.39 16.64 12.58 15.09 12.31 14.30 12.81 10.26 10.42 11.44 11.31 10.72 10.69 11.30 11.89 11.87 11.49 10.47 10.62 10.66 10.61 10.93 10.69 10.28 9.94 9.73 10.44
16.57 15.80 15.95 16.81 17.52 18.08 18.65 18.22 18.25 18.75 16.74 17.80 18.16 15.03 14.88 15.25 13.69 13.52 9.21 13.15 12.19 11.09 9.79 9.29 9.39 7.31 7.17 7.30 8.54 8.77 9.43 10.02 8.89 8.26 8.98 8.55 8.51 9.19 9.35 9.21 9.58 9.99 9.48 9.16

GFSNGP_sfc_wetblb_117.txt.gz
Wetbulb
30.66 32.40 32.89 31.71 31.76 32.58 30.39 31.69 27.42 30.28 26.66 25.88 26.96 27.34 27.86 28.91 28.58 28.05 27.68 27.42 27.99 28.59 29.32 30.54 31.35 31.75 31.94 30.58 30.24 30.90 31.29 31.76 33.29 34.80 35.96 35.82 36.64 36.49 37.75 38.68 38.62 40.72 42.32 41.33
26.67 32.95 33.23 30.92 32.41 32.39 31.64 30.45 27.39 27.97 24.99 28.85 29.41 29.36 27.79 27.09 27.06 25.76 25.97 25.99 26.88 27.91 28.21 28.75 29.75 32.20 32.92 31.36 30.74 30.86 30.72 30.84 31.64 32.72 33.05 33.70 33.37 33.67 34.68 34.45 34.05 34.76 36.08 36.58
26.49 31.71 29.72 26.85 29.32 29.50 29.58 28.32 30.18 26.63 26.98 29.23 27.29 26.55 25.39 26.08 26.24 24.69 25.27 25.27 25.40 26.86 27.58 28.12 30.32 31.62 32.27 32.50 32.05 30.51 30.34 30.80 31.20 31.44 31.11 31.25 31.82 31.86 31.10 31.25 32.27 32.23 32.20 32.58
27.89 29.15 21.38 27.46 32.29 31.96 29.77 29.78 31.22 29.50 29.47 29.54 27.80 27.14 27.11 27.00 25.43 24.66 24.35 24.65 24.72 25.96 26.71 27.78 30.27 30.04 31.84 32.28 31.29 29.78 30.02 30.13 30.90 30.93 30.76 31.45 31.34 30.95 30.49 30.61 29.96 29.97 30.49 30.53
26.78 27.13 27.55 27.04 29.26 29.55 27.88 26.72 32.25 30.33 29.83 29.68 29.32 29.58 25.97 26.92 26.57 24.88 24.44 24.83 24.78 25.83 26.90 26.90 27.91 29.12 28.94 29.43 29.37 28.53 28.10 29.28 29.96 30.83 30.30 30.21 30.64 30.91 31.33 31.47 30.65 30.02 30.21 29.71
29.85 24.73 22.18 29.44 33.41 35.96 34.72 25.75 32.30 33.14 31.17 30.29 30.92 28.75 25.41 26.05 26.24 25.39 24.60 24.57 23.73 24.05 25.43 24.38 26.01 27.62 25.91 25.47 26.11 26.58 28.20 28.56 30.55 30.76 30.25 30.29 30.71 31.15 31.55 32.02 31.65 31.44 30.53 30.98
28.07 27.59 27.81 32.47 33.38 34.64 25.53 26.28 32.84 33.96 33.50 32.36 29.19 27.23 26.53 26.77 25.39 25.96 24.82 23.40 24.25 23.37 22.85 24.16 25.40 26.31 24.46 24.14 23.93 27.08 28.37 29.56 28.90 29.90 29.39 29.52 30.12 30.90 31.67 31.57 31.13 31.38 30.85 30.09
30.23 27.91 24.70 32.03 32.84 28.04 30.83 33.07 33.85 33.02 31.16 27.61 26.69 25.65 25.02 24.73 24.51 24.76 24.40 24.27 24.08 22.58 22.94 24.75 25.66 25.28 23.72 23.83 25.83 27.09 27.81 27.44 28.51 27.62 29.10 28.79 27.11 28.52 29.35 28.88 29.45 29.09 29.75 29.77
29.20 27.31 29.41 31.73 32.58 34.89 34.99 32.44 32.10 30.52 29.69 28.00 25.97 25.66 25.91 25.27 25.68 24.93 24.47 25.19 25.78 23.88 23.41 24.73 26.12 25.71 23.59 25.31 27.05 26.52 27.61 26.88 27.60 29.00 27.06 27.55 26.83 24.53 24.83 26.71 26.31 26.93 26.89 27.80
29.27 28.00 28.00 30.10 32.56 34.43 34.51 32.04 31.98 31.71 29.79 28.77 25.76 25.91 25.00 25.90 25.72 25.26 25.63 24.92 26.25 25.76 24.13 23.40 25.83 26.55 26.58 26.55 27.92 27.57 26.73 27.68 28.74 27.50 28.77 26.67 26.45 26.13 22.45 21.88 22.82 23.02 24.17 22.32
27.38 27.90 28.55 29.73 31.01 31.43 30.62 30.77 29.83 30.25 29.65 27.57 27.07 25.69 25.28 24.92 25.15 25.36 25.57 25.79 26.02 25.30 24.98 24.22 25.36 26.64 27.22 27.87 27.73 28.43 28.40 28.14 29.02 28.41 28.40 28.40 24.57 23.71 23.01 22.29 21.58 21.12 21.54 23.53
30.55 30.90 31.30 29.14 29.88 30.87 29.11 28.44 29.17 28.36 27.46 28.59 27.85 26.33 27.32 27.00 27.89 27.79 26.92 27.54 26.95 26.63 26.17 25.80 25.66 25.57 26.57 27.12 27.43 26.57 26.44 27.22 26.93 27.40 27.37 27.41 26.73 26.33 24.62 23.66 22.74 21.98 21.48 21.26
31.05 34.66 32.76 30.40 30.54 31.60 30.05 29.89 30.60 29.85 29.03 27.42 28.91 29.44 29.03 27.21 26.51 24.74 26.40 26.02 25.42 25.04 25.25 24.88 24.01 23.49 25.41 26.23 26.13 25.62 25.02 25.99 26.65 26.04 26.09 25.70 25.33 24.72 23.50 26.12 25.63 23.65 21.91 21.62
34.29 31.64 28.11 29.40 28.12 30.99 31.27 31.45 31.48 31.10 30.87 30.21 29.38 29.15 27.95 26.28 26.10 25.27 23.72 23.99 24.65 24.07 23.60 23.09 21.76 20.33 22.81 25.13 24.67 23.64 24.49 24.49 26.38 25.98 25.46 25.60 25.25 24.82 24.60 23.42 22.55 23.29 23.27 21.41
32.61 34.57 32.40 32.57 31.64 30.78 32.04 31.86 29.85 29.13 28.89 27.82 28.51 26.86 26.17 23.59 21.24 19.86 20.77 22.00 22.00 21.32 20.36 20.85 19.58 18.86 21.71 24.13 24.86 24.32 23.64 23.21 25.22 25.83 25.13 24.91 25.05 24.57 24.27 23.65 23.11 22.88 23.36 20.61
32.75 33.66 32.90 30.90 30.52 30.33 31.02 30.67 29.32 28.23 27.56 26.49 25.67 24.90 24.04 23.07 22.18 21.53 20.59 20.36 20.59 17.95 18.04 16.22 17.42 17.64 19.85 20.91 23.87 24.72 25.09 22.06 23.13 24.55 24.03 23.33 23.75 23.13 22.62 22.22 22.09 21.47 21.22 18.57
30.87 29.16 30.14 29.75 29.79 30.20 30.36 31.16 30.26 28.57 27.18 26.15 24.57 24.14 23.25 21.42 20.27 19.31 18.65 18.41 16.33 17.28 18.65 17.38 17.06 17.38 18.18 19.17 22.64 24.01 24.45 23.75 21.98 22.88 22.68 21.96 21.39 21.51 21.47 21.16 20.70 20.26 20.36 19.77
34.48 33.68 33.30 32.37 30.75 30.16 30.16 30.30 29.14 27.83 26.06 25.04 22.82 21.05 19.19 19.80 19.57 17.44 16.82 16.65 16.69 16.28 17.66 16.76 17.75 19.60 19.19 19.20 21.30 23.42 23.29 22.89 22.49 21.91 21.71 20.85 20.77 21.07 20.81 19.80 19.32 18.80 19.16 19.63
34.60 33.14 32.84 32.34 32.04 30.91 30.12 28.67 27.02 26.39 23.28 20.48 18.50 17.58 18.76 17.81 18.06 16.97 17.25 16.30 16.56 19.94 17.51 18.57 18.23 20.05 20.48 19.24 19.66 23.48 23.08 22.36 22.29 21.97 21.46 19.93 20.79 19.87 19.67 19.11 18.63 18.29 18.15 17.58
32.72 32.91 32.08 31.30 31.40 29.75 27.71 25.86 22.78 20.94 19.86 19.30 18.80 17.18 16.94 16.43 16.97 16.30 17.72 20.08 20.00 20.86 19.91 19.75 19.77 20.77 20.20 21.22 20.36 22.56 22.64 21.75 21.24 21.01 21.13 19.91 19.83 19.18 19.56 18.29 18.30 18.24 17.83 17.99
31.41 30.95 29.84 28.39 27.58 26.53 23.51 22.13 20.73 17.99 18.68 17.65 18.50 17.94 18.21 17.48 17.02 17.63 18.70 23.90 21.36 19.66 20.28 18.84 20.68 22.03 23.07 21.00 20.77 22.99 21.96 21.00 20.76 20.23 19.96 19.72 19.92 19.29 18.82 18.75 18.35 18.09 17.53 17.62
29.63 27.10 25.39 24.40 22.57 21.38 20.91 20.80 19.78 17.46 17.17 18.59 18.80 18.65 17.77 18.15 17.24 18.34 19.20 21.23 24.51 19.91 21.95 23.59 23.73 20.39 20.67 18.44 21.55 22.05 20.91 20.37 19.68 19.51 19.32 19.12 18.35 18.04 17.93 18.01 17.51 17.77 18.07 18.10
28.33 26.11 23.86 22.14 20.97 20.97 20.49 18.93 17.29 17.84 16.97 16.69 16.69 18.78 22.36 24.89 24.98 24.06 23.97 22.87 24.80 22.36 22.97 23.99 20.80 19.67 18.95 20.68 21.85 20.98 20.22 18.97 18.90 18.49 18.75 18.09 17.34 17.45 17.44 17.11 17.22 16.65 16.58 16.46
27.18 25.57 23.64 23.34 19.98 19.02 17.81 18.08 19.18 19.07 19.15 19.69 20.23 21.54 23.82 24.27 24.95 26.49 26.59 22.93 20.86 20.63 22.54 22.55 20.20 18.17 16.80 21.12 20.34 19.09 18.25 17.83 17.75 17.40 16.51 15.59 16.69 15.86 15.91 15.67 15.29 16.12 15.98 15.65
26.15 24.35 21.99 19.26 20.44 21.57 21.07 20.64 21.25 20.88 20.85 22.87 22.30 21.74 23.05 25.82 26.04 25.32 25.17 24.53 20.96 20.50 24.00 18.37 16.66 16.62 19.73 18.92 18.07 16.68 16.11 15.92 15.54 14.88 14.96 13.86 13.31 13.55 13.78 13.41 13.45 13.23 13.42 13.74
23.25 22.94 22.78 23.80 25.06 24.45 23.18 22.78 23.08 23.37 23.76 24.53 25.10 26.04 25.57 25.21 24.86 24.47 23.76 21.00 21.37 19.63 21.82 20.48 18.41 16.57 16.87 16.32 14.95 14.77 14.28 13.88 13.41 12.58 10.95 10.80 11.02 10.44 10.53 10.05 9.65 10.09 10.39 10.68
25.48 24.92 24.17 24.90 25.87 25.62 24.93 25.43 26.15 25.62 26.55 27.60 26.22 26.13 25.06 24.07 23.17 23.20 20.64 22.50 21.95 20.45 20.53 18.89 17.73 15.40 14.04 12.88 13.22 12.61 12.27 11.79 10.11 8.92 9.08 8.37 7.69 7.61 7.20 6.70 6.68 7.01 7.97 7.89

GFSNGP_sfc_wetblb_120.txt.gz
Wetbulb
30.12 31.20 31.36 31.04 30.87 32.22 30.77 31.95 27.62 29.87 28.42 26.81 27.40 27.54 27.87 28.65 28.46 27.08 27.11 26.27 26.78 27.74 28.14 28.94 29.86 31.29 32.49 31.38 30.95 31.62 31.30 31.26 31.62 32.72 33.49 33.71 33.69 34.78 34.66 34.20 34.02 35.69 35.98 38.23
25.56 30.96 31.22 28.94 31.63 32.32 32.20 32.59 31.32 29.64 28.49 29.51 29.87 29.50 27.78 27.04 26.22 25.18 25.39 25.60 25.69 26.45 26.76 27.75 28.80 29.77 31.44 31.03 30.47 31.51 30.30 30.45 31.45 31.72 32.13 32.40 32.13 32.10 32.82 32.47 33.01 34.30 33.69 33.63
23.44 32.21 31.50 26.84 31.27 32.59 33.49 33.48 31.91 27.21 28.78 28.96 27.18 25.78 25.38 25.73 25.64 24.39 23.99 24.09 23.87 25.30 25.67 26.58 27.93 28.29 29.22 30.03 30.06 29.53 29.93 29.76 30.66 31.01 31.11 31.39 31.92 31.41 30.86 30.86 31.53 31.52 31.81 32.44
26.17 29.72 20.44 28.92 33.83 33.94 31.85 31.32 32.91 29.32 28.89 29.76 27.30 26.60 26.67 26.91 24.78 23.38 23.22 23.10 22.80 23.94 24.49 25.55 27.47 26.57 28.50 28.90 28.28 28.46 28.39 28.88 29.32 29.97 29.62 30.73 31.23 31.09 31.09 30.84 29.64 29.45 29.27 30.14
25.59 25.88 28.17 28.22 30.07 30.56 28.10 28.03 33.26 30.39 29.70 28.83 27.74 26.79 24.58 26.64 25.17 23.54 23.12 23.57 23.16 24.16 24.50 24.79 25.75 26.39 25.76 25.86 26.65 26.73 26.50 27.19 28.27 27.72 28.04 28.41 28.86 29.91 30.73 31.02 29.80 28.71 29.01 28.17
28.02 24.31 21.96 29.23 33.52 36.83 35.28 25.01 33.84 32.25 30.14 28.30 28.21 24.29 23.10 25.89 25.45 23.83 23.60 23.73 22.77 23.31 24.05 23.53 24.18 26.18 23.81 23.74 24.74 24.66 26.30 25.61 26.97 27.81 25.67 26.11 27.25 27.78 29.70 30.00 30.43 29.81 28.14 28.03
26.62 24.86 28.31 33.96 35.17 36.80 24.55 26.72 34.55 34.32 32.96 31.44 28.70 27.34 26.37 26.47 24.99 25.11 24.27 23.10 23.93 22.75 22.19 23.08 23.78 24.17 22.79 23.11 23.16 25.82 26.31 27.59 25.20 25.83 26.06 24.30 25.05 26.06 26.80 27.33 26.75 27.34 27.28 26.88
28.25 25.82 24.14 34.75 33.78 28.42 31.69 35.57 35.16 33.17 31.19 26.28 25.80 25.61 24.19 24.45 24.21 24.60 24.26 23.94 23.29 21.35 21.61 23.17 23.77 23.09 21.74 22.41 24.42 25.92 26.57 25.74 26.40 24.69 25.00 24.49 21.85 22.41 23.46 23.87 24.55 23.20 22.96 23.73
27.18 27.38 31.14 33.45 33.67 36.05 36.35 34.22 32.83 30.77 28.63 26.78 24.62 23.60 24.57 24.88 24.69 24.41 24.65 24.45 25.33 20.55 20.52 22.38 23.92 23.50 21.59 22.80 24.33 24.68 25.51 25.48 25.56 26.18 24.54 24.03 21.38 20.00 19.76 20.79 20.23 21.23 20.65 19.49
29.42 28.95 29.46 31.84 34.44 35.33 34.88 32.92 32.53 31.25 29.31 28.06 25.47 25.45 24.77 25.82 25.31 24.81 25.04 24.95 26.04 24.92 21.05 20.37 22.88 23.79 24.15 24.69 25.26 24.33 24.67 25.48 26.26 25.41 23.93 23.35 23.38 20.91 19.37 18.35 17.61 17.72 18.53 17.92
28.05 29.20 29.60 30.92 32.95 32.66 31.93 32.17 31.08 31.05 29.87 28.12 26.84 25.48 25.77 25.00 25.10 25.45 25.46 25.62 26.00 24.66 23.72 23.29 24.47 24.04 24.22 25.17 26.06 26.02 26.15 25.14 26.23 26.46 25.41 24.06 22.72 22.00 20.51 20.93 20.55 17.89 17.84 18.26
30.30 32.07 31.68 30.41 31.99 31.86 29.95 29.56 29.79 29.20 28.22 28.93 27.58 26.13 26.83 26.32 27.33 27.13 26.28 26.98 25.98 25.15 24.08 23.81 23.54 23.51 24.86 25.57 25.41 25.07 25.10 25.53 24.65 25.22 25.19 25.11 24.41 24.39 26.62 25.01 24.09 23.47 22.55 21.76
32.80 34.97 33.51 32.11 31.68 31.62 29.69 30.23 30.65 30.03 29.81 27.70 28.64 28.96 28.55 26.91 25.95 26.32 26.12 25.49 24.59 23.83 23.57 22.44 21.32 20.97 23.59 25.31 24.84 23.71 23.43 24.49 24.96 24.19 24.30 23.63 23.60 22.80 21.09 24.29 26.78 23.88 22.80 21.93
34.53 31.94 28.70 29.93 28.74 31.58 31.46 31.64 31.97 30.77 30.28 29.65 29.64 29.18 27.21 25.23 26.03 24.11 22.74 23.45 23.95 22.96 22.09 21.17 19.61 18.86 21.52 24.56 24.90 23.17 22.44 22.12 24.27 23.66 22.88 22.98 22.62 22.14 21.93 20.68 19.53 20.19 23.01 21.22
32.79 34.85 31.76 32.19 31.77 31.04 32.24 31.43 29.42 28.63 28.63 28.01 28.49 26.62 26.15 23.35 20.51 19.57 20.96 22.42 21.89 20.09 18.68 18.76 17.13 17.22 20.40 22.56 24.46 23.98 22.53 21.17 22.61 23.31 22.49 21.16 22.09 21.63 21.03 20.21 19.67 19.13 19.78 17.78
33.29 32.98 32.09 30.37 30.29 30.69 30.81 30.62 28.85 27.73 27.46 27.00 25.84 24.96 23.80 22.55 21.74 20.63 20.23 20.27 19.71 16.60 16.92 14.76 15.68 16.58 19.03 19.59 20.71 23.55 23.17 18.80 19.23 21.99 21.17 20.38 20.17 19.91 19.46 18.88 18.41 17.93 17.60 15.74
31.17 29.33 29.99 29.35 29.89 30.21 30.61 31.50 30.67 28.49 27.31 26.20 24.96 24.05 22.92 21.18 19.74 18.22 17.61 17.58 16.35 16.64 17.84 16.25 14.98 13.93 14.64 16.90 18.68 22.78 22.71 22.30 17.93 21.50 20.48 19.58 19.44 18.92 18.85 17.95 17.15 16.65 16.81 16.45
35.01 34.40 33.36 32.56 30.96 30.85 30.89 31.33 30.23 28.35 26.48 25.05 21.49 18.84 16.82 16.63 17.84 16.32 15.39 15.54 14.32 13.48 15.28 14.57 14.76 16.63 15.51 17.02 18.90 22.52 22.17 21.72 21.73 20.73 20.74 18.97 18.89 19.09 18.04 17.82 17.19 16.29 16.05 16.33
35.46 33.57 33.34 32.55 32.75 31.93 31.32 29.85 27.64 24.75 20.77 19.40 17.80 16.95 17.38 15.97 15.88 15.29 16.00 12.86 13.14 17.22 15.57 15.88 19.53 18.77 19.64 17.91 19.19 21.69 21.68 21.05 20.55 20.45 20.54 17.35 18.84 18.86 17.76 17.69 16.64 16.11 15.79 15.87
33.72 33.63 32.91 31.98 32.11 30.72 25.62 23.60 22.42 20.33 19.67 18.89 18.01 16.71 16.37 15.13 14.49 13.83 15.80 18.55 18.65 19.10 19.83 19.48 19.58 21.92 21.26 20.60 16.91 20.60 21.35 20.46 19.67 19.25 19.00 18.42 18.43 17.74 18.06 16.44 17.18 17.20 16.60 15.97
31.93 31.65 30.20 28.76 25.37 24.59 24.23 23.10 20.31 18.27 18.81 17.67 17.40 16.59 16.14 16.25 15.09 14.92 16.80 20.91 19.25 18.48 20.48 17.69 20.68 21.76 21.52 17.30 18.36 21.59 20.83 19.49 18.48 18.03 17.70 17.17 17.00 16.61 16.02 16.07 15.74 15.45 15.50 15.60
29.96 27.47 26.00 24.51 23.30 22.12 22.02 21.28 20.09 18.52 17.43 18.26 17.90 17.72 16.05 15.99 15.14 16.48 17.20 21.82 22.15 16.08 20.52 23.15 21.69 16.14 17.70 14.24 20.05 21.08 19.83 18.77 17.85 17.67 16.54 16.43 14.99 13.84 14.11 14.20 14.30 14.61 14.40 14.10
27.87 26.61 24.69 23.42 22.13 21.53 21.27 19.59 18.21 18.18 18.23 17.61 17.41 18.06 19.63 20.69 22.06 22.64 21.22 21.58 23.71 19.36 22.46 21.44 16.15 14.13 12.48 18.90 20.71 19.33 17.62 16.31 15.98 15.81 15.39 14.19 13.95 13.80 12.36 12.43 12.38 12.45 12.31 12.82
27.48 25.59 24.04 23.86 21.58 20.12 17.47 17.68 19.00 18.89 18.07 18.39 18.58 18.74 23.75 23.88 24.72 25.42 24.12 20.06 17.12 19.84 21.84 18.81 15.73 13.09 10.11 19.41 18.48 16.91 15.88 15.20 14.41 13.56 12.91 11.27 11.08 10.71 10.82 10.29 9.53 9.68 8.90 9.15
26.43 24.91 23.27 20.35 20.60 20.31 19.70 19.62 19.93 19.83 19.77 21.18 21.52 22.43 23.70 26.01 26.02 24.81 24.63 21.93 18.91 18.96 19.39 15.38 14.46 11.54 17.31 16.87 14.96 14.00 13.69 13.20 12.23 11.64 10.32 9.12 8.90 8.64 8.15 8.08 6.77 6.26 6.20 6.67
25.77 24.36 22.80 23.39 24.32 23.83 22.46 22.46 21.32 22.13 22.35 22.54 22.89 23.89 25.45 25.45 23.73 23.42 22.78 19.80 20.92 18.40 20.88 20.11 17.36 15.68 15.27 13.44 12.02 12.11 11.51 11.26 10.04 8.45 6.53 7.42 6.82 5.94 4.91 4.34 3.25 3.44 3.19 3.64
26.26 25.10 24.32 25.07 25.89 24.59 23.61 23.68 23.16 22.60 24.54 25.13 24.32 26.11 25.12 24.95 23.32 22.92 21.47 21.91 21.37 19.79 19.65 18.35 17.51 14.20 13.42 11.34 11.51 10.29 9.81 8.80 6.43 4.53 5.44 4.80 3.42 2.43 1.83 0.11 0.44 0.71 1.20 1.96

GFSNGP_sfc_wetblb_123.txt.gz
Wetbulb
26.51 29.85 29.65 27.92 27.24 28.99 24.83 28.38 22.04 21.60 24.04 25.70 28.19 27.28 26.98 27.46 26.98 26.01 24.91 24.40 25.24 25.07 25.27 25.99 26.48 26.97 28.66 28.70 29.40 30.07 29.61 29.60 30.35 31.62 32.98 33.10 32.60 32.45 32.72 33.17 33.48 33.68 33.12 33.47
16.85 29.09 28.90 25.82 27.75 28.64 26.24 27.63 24.08 24.89 24.58 28.80 29.18 28.82 26.60 25.82 25.17 23.86 23.64 23.08 23.62 23.91 23.71 24.05 25.08 24.68 25.99 26.73 27.76 28.44 28.14 27.45 28.91 29.78 31.28 31.75 32.11 31.45 31.04 30.50 31.11 31.37 31.54 31.72
17.73 28.96 30.08 21.32 24.44 26.59 28.01 30.86 30.67 26.26 27.04 28.36 26.56 25.73 24.98 24.74 24.21 22.77 22.57 22.06 21.99 22.31 22.65 23.23 24.18 24.61 24.12 25.52 26.68 26.06 26.04 26.68 26.00 27.79 27.98 29.43 31.07 31.08 29.42 28.63 29.12 28.55 29.64 30.46
20.44 23.74 17.34 22.97 32.43 32.60 30.19 31.83 29.78 27.69 27.55 28.01 26.12 25.27 25.41 25.90 23.21 21.96 21.89 21.22 21.29 22.18 22.47 23.02 24.54 24.27 24.63 25.65 25.31 25.33 23.51 24.83 25.00 24.42 24.88 26.76 27.90 28.31 29.70 28.39 27.09 26.97 26.94 28.28
19.00 21.30 25.09 27.26 29.44 29.64 27.14 28.19 31.57 28.73 28.71 26.38 25.68 24.86 23.78 24.54 23.61 22.05 21.86 21.77 21.66 22.76 23.33 23.13 23.22 24.33 23.70 24.07 25.10 24.76 23.58 23.02 24.55 22.96 22.78 23.20 24.08 25.70 25.67 27.13 25.88 24.92 25.02 25.64
24.98 22.31 20.26 26.74 33.27 36.13 34.68 22.65 33.50 30.85 27.30 25.54 25.28 23.17 21.12 24.51 23.48 22.12 22.18 21.05 20.55 21.49 23.16 22.07 22.28 23.45 20.77 21.46 22.80 23.17 24.82 23.45 24.03 23.61 21.72 21.27 22.18 22.80 24.83 23.50 23.19 23.43 22.47 23.19
23.24 22.80 25.45 31.86 34.45 37.06 22.52 22.77 32.53 31.22 28.63 26.70 24.80 24.85 23.53 24.45 22.84 22.91 20.31 18.61 20.32 18.99 17.77 18.60 19.70 19.63 19.30 18.38 20.21 20.96 23.06 25.29 23.73 23.25 22.29 21.08 20.95 21.47 21.94 22.73 21.79 20.88 20.78 21.25
25.15 24.06 21.53 33.20 32.67 27.48 29.14 31.80 32.46 31.87 29.83 26.08 23.25 22.70 21.97 21.81 20.93 22.23 21.08 18.81 17.15 15.24 15.69 18.43 18.90 18.08 18.01 19.45 18.37 19.60 20.07 20.26 21.92 22.23 22.34 20.95 19.70 19.80 19.51 19.43 19.24 19.14 19.06 19.46
26.84 23.44 28.98 30.90 29.48 33.24 33.43 30.28 29.18 28.14 26.81 24.26 21.30 21.09 21.45 21.84 22.54 21.83 19.72 18.84 18.19 14.34 12.78 16.27 18.46 19.17 19.79 19.90 18.07 18.72 21.16 19.44 18.07 20.01 20.43 20.11 18.67 18.35 18.35 18.12 17.27 16.91 17.66 17.22
25.20 26.12 29.00 30.99 32.52 33.04 32.85 30.08 28.82 27.92 25.84 24.50 21.25 22.06 21.28 22.66 22.71 21.73 21.01 19.56 21.52 17.76 15.08 16.36 15.78 18.39 19.31 21.61 21.71 18.79 19.98 19.67 20.59 16.54 18.78 17.42 18.94 19.12 18.52 17.57 17.02 17.11 16.83 17.08
25.17 27.10 28.04 30.69 31.61 30.79 30.31 30.39 28.17 27.64 26.08 24.48 24.12 22.92 21.91 20.57 21.08 20.63 19.93 20.10 20.50 19.99 19.88 18.51 20.00 18.28 19.08 21.68 22.21 22.55 21.07 21.31 20.91 22.55 19.58 17.16 19.83 18.79 19.48 21.20 20.44 17.33 17.40 18.15
20.77 27.78 26.98 26.36 30.37 31.37 29.09 28.45 28.69 27.21 25.63 25.94 25.31 23.61 23.60 22.18 23.20 23.25 21.87 22.04 21.07 19.78 19.28 19.00 19.34 19.58 21.56 23.29 22.18 21.51 22.39 22.29 20.82 21.43 20.99 21.46 20.23 19.74 25.83 24.75 24.44 23.48 22.86 21.85
27.86 31.15 29.19 29.90 29.45 31.11 29.67 29.68 29.59 28.00 27.17 25.28 26.25 25.83 25.67 22.29 21.63 24.11 22.21 21.25 20.02 19.18 18.56 17.83 17.76 18.11 18.95 22.00 22.42 21.18 19.74 22.16 21.28 20.70 20.36 20.12 19.44 18.77 16.14 17.17 24.17 23.22 22.07 22.05
30.98 30.15 28.37 28.66 27.31 29.99 30.66 30.92 31.34 29.64 28.47 27.62 26.98 24.79 22.65 21.56 21.48 19.93 19.18 19.13 19.00 18.49 17.62 17.32 16.64 15.41 18.41 20.44 21.27 18.72 18.78 16.84 18.29 18.53 16.17 16.16 14.95 15.44 15.76 15.05 13.44 11.96 18.80 19.54
29.82 31.87 29.57 30.70 30.90 30.65 31.37 30.55 28.02 26.67 26.69 24.82 23.90 22.81 22.00 19.22 17.43 16.73 18.73 20.41 18.98 16.77 15.97 14.91 14.79 13.07 17.58 19.79 20.23 20.29 19.64 15.66 14.39 12.89 12.73 12.94 12.95 13.03 12.76 12.18 10.87 9.52 9.17 13.82
31.15 30.18 30.17 29.29 29.76 30.32 30.05 28.71 26.57 24.85 24.50 23.98 22.72 21.39 20.54 19.08 18.40 17.71 17.73 18.80 15.95 12.67 12.73 6.36 13.87 10.93 15.96 16.00 16.02 16.33 12.61 14.17 11.78 11.14 11.42 12.03 12.24 12.44 12.86 11.50 10.32 9.32 9.69 8.25
28.57 26.66 28.42 28.02 28.90 29.48 28.91 28.88 27.72 25.63 24.39 23.05 21.70 21.22 20.10 17.69 15.88 14.23 12.99 15.00 12.37 11.23 12.20 9.26 6.46 5.45 6.93 6.56 9.40 14.02 11.22 15.02 12.97 14.03 12.45 11.84 11.43 10.26 12.31 10.83 9.39 9.53 6.81 3.82
31.58 30.61 30.62 30.55 29.63 29.82 29.63 29.09 27.25 25.74 23.90 22.89 20.04 18.00 15.57 14.05 12.52 10.40 9.76 9.61 5.86 2.44 3.36 4.66 4.72 6.65 7.20 7.98 12.07 17.15 15.13 16.42 17.15 15.03 15.79 12.15 12.87 15.48 11.65 11.64 11.53 9.13 7.02 8.44
33.52 31.03 31.26 31.49 31.21 30.95 30.23 27.69 24.85 22.50 20.52 18.38 17.26 12.90 10.97 10.31 8.21 4.01 2.24 2.23 1.24 3.04 4.22 4.55 14.64 13.04 12.27 13.18 14.39 15.41 15.55 12.42 14.31 15.43 14.39 11.77 10.19 12.09 9.54 9.33 10.57 6.71 6.71 11.36
30.18 30.80 32.16 31.87 31.48 27.90 22.95 22.24 21.25 19.28 17.44 16.33 14.12 10.39 8.46 5.74 6.15 3.52 5.21 10.89 10.74 10.81 11.49 14.27 15.03 17.75 16.48 16.14 12.40 16.31 13.44 9.32 13.65 10.38 7.28 8.95 5.84 5.09 5.05 7.90 9.34 8.15 5.33 3.91
27.68 29.31 28.26 25.18 23.77 23.64 22.71 21.56 20.15 17.99 17.65 16.56 14.38 11.47 9.76 9.01 8.54 8.25 9.02 13.47 10.89 11.19 17.58 14.22 16.35 16.34 16.36 12.78 13.70 7.54 8.10 6.28 4.93 5.55 3.96 3.68 0.84 2.73 2.97 2.42 1.72 2.15 9.42 9.46
26.53 24.52 23.72 23.69 22.56 21.17 21.45 20.73 19.69 17.86 16.81 15.37 12.71 12.12 11.64 10.53 9.67 11.60 13.82 17.10 17.54 11.28 16.70 19.01 16.97 9.95 11.62 8.60 15.23 10.80 9.27 8.84 7.20 7.27 5.51 2.85 2.57 4.89 3.73 -1.22 -0.29 6.29 7.99 6.75
24.95 24.52 23.46 22.77 21.63 20.05 19.53 19.11 17.76 17.09 16.13 15.25 14.52 13.93 14.25 16.09 16.63 15.30 14.13 18.89 18.93 12.90 18.34 13.64 8.89 6.26 5.31 4.56 6.38 4.67 4.16 2.92 2.15 -0.73 -1.93 -3.73 -2.00 -4.27 -4.82 1.97 4.71 4.98 1.15 1.92
23.01 22.64 21.55 20.98 20.21 18.53 16.36 16.40 17.32 16.80 14.77 15.96 15.21 15.43 19.17 16.58 15.86 21.86 19.64 16.45 11.86 10.39 15.14 9.02 6.85 7.11 8.68 10.85 5.36 1.72 -1.63 -3.19 -2.46 -1.01 -0.47 -3.37 -8.08 -8.08 -3.29 -1.80 1.48 -1.90 -6.28 -2.08
22.69 21.36 19.81 18.39 18.26 17.75 17.96 18.78 18.61 18.74 18.32 18.86 19.75 20.35 21.65 24.58 20.52 19.23 17.58 15.00 14.90 14.36 13.33 8.81 6.91 5.40 4.26 -1.19 -2.18 -2.00 -4.46 -1.03 1.14 -5.40 -9.35 -9.89 -5.00 -6.99 -10.62 -3.59 -8.51 -9.03 -8.56 -7.20
23.22 21.57 20.84 22.08 21.18 19.75 18.82 19.23 17.14 17.91 18.58 16.12 16.79 14.48 14.97 19.78 19.09 19.52 17.50 15.01 15.65 15.65 15.10 10.18 0.65 2.90 1.02 -2.64 -1.75 -2.44 -1.73 0.60 -3.65 -7.28 -10.26 -5.55 -7.94 -10.63 -9.04 -10.93 -14.44 -13.71 -13.23 -10.35
25.42 23.44 22.23 22.48 22.63 20.68 19.87 19.99 18.43 17.61 18.01 18.34 17.81 16.83 19.51 18.52 17.79 18.63 15.83 16.60 14.83 13.66 10.77 8.04 5.43 3.82 -0.38 -0.78 -2.03 -2.72 -3.20 -4.96 -8.57 -8.89 -11.89 -10.80 -15.51 -15.88 -15.39 -17.69 -15.70 -12.55 -6.30 -7.25

GFSNGP_sfc_wetblb_129.txt.gz
Wetbulb
25.36 27.40 27.73 26.41 25.67 26.71 22.46 25.54 19.79 23.32 22.86 23.13 27.42 26.33 25.22 25.58 25.00 23.97 22.84 22.26 22.01 21.91 22.18 23.58 24.09 24.19 24.96 25.28 24.36 23.73 23.36 22.66 22.79 24.28 26.15 25.85 26.88 26.20 26.31 26.88 28.14 29.09 30.79 31.43
13.52 26.50 26.62 23.53 25.60 25.98 23.81 24.81 23.56 21.32 24.47 27.05 27.42 26.21 24.76 25.16 24.66 23.13 21.85 21.49 21.66 22.06 22.28 22.59 22.99 23.66 24.77 24.65 24.28 24.11 22.41 20.78 21.52 22.08 22.67 24.08 23.58 23.97 23.90 24.18 24.93 26.59 27.69 29.46
15.29 25.33 25.18 19.02 24.96 24.93 24.52 26.91 26.57 22.35 25.96 26.02 24.90 26.07 24.96 24.39 24.15 22.62 21.66 21.13 21.08 21.39 21.81 22.59 22.76 23.92 23.39 24.25 25.00 23.07 22.25 21.03 20.27 19.71 19.28 20.20 21.73 21.60 21.63 21.57 23.16 24.31 25.49 27.77
17.25 21.80 12.09 23.31 30.36 29.76 27.42 28.53 28.44 26.79 25.09 27.62 26.58 25.86 26.03 25.30 23.08 22.23 21.30 21.13 21.21 21.23 21.90 22.29 23.17 23.45 24.38 24.40 23.36 22.59 22.03 21.28 20.64 19.49 18.11 18.22 18.96 19.04 19.46 20.71 21.27 22.08 23.73 24.82
19.84 18.79 21.87 27.02 29.15 28.41 27.22 26.06 29.36 26.46 27.84 24.77 23.94 23.45 21.76 25.10 24.08 21.65 19.97 20.42 18.59 20.32 22.23 21.88 22.06 23.41 23.01 22.70 21.97 21.55 20.93 21.10 21.45 20.50 18.64 17.67 17.12 18.08 18.99 19.08 19.86 21.00 22.48 23.86
22.45 16.24 15.42 25.40 31.97 33.77 31.81 18.06 28.67 28.61 25.45 23.42 23.28 19.11 17.90 23.30 22.25 21.16 20.85 20.27 18.95 19.84 21.03 19.88 19.31 22.13 18.15 18.58 20.13 18.93 20.08 20.60 21.25 21.54 20.26 18.43 17.86 18.04 19.20 19.52 19.04 20.26 20.94 22.67
22.87 21.49 24.40 30.29 32.18 33.89 17.39 20.67 29.15 28.00 25.64 23.63 22.11 21.44 22.33 23.18 21.40 21.28 19.92 19.38 19.53 17.47 16.07 14.35 14.55 18.89 16.15 14.10 13.69 14.05 18.39 20.08 19.60 19.39 20.06 19.63 19.14 19.17 19.48 19.76 19.78 19.07 18.90 20.34
24.74 21.96 19.05 32.32 31.30 25.78 27.09 28.61 28.89 27.35 26.13 23.02 21.78 21.13 20.14 20.44 19.62 20.13 19.27 18.50 14.23 15.42 12.28 11.35 14.39 16.51 15.39 14.78 11.05 12.44 12.74 13.90 14.70 15.29 17.50 17.18 17.42 17.75 18.21 18.53 18.72 18.80 17.92 17.87
26.90 25.59 28.90 30.09 28.60 30.59 30.88 29.51 28.25 27.30 27.16 22.78 20.61 18.52 19.00 19.09 20.25 20.27 19.32 18.23 16.66 13.92 12.35 11.76 14.21 12.04 14.74 11.67 13.23 14.99 13.66 12.28 8.54 12.45 14.61 13.72 14.92 16.38 16.40 17.03 17.38 17.48 17.35 15.86
29.32 28.75 28.89 29.34 29.73 30.41 30.27 29.39 29.08 28.72 24.84 23.61 21.10 19.24 18.83 20.43 20.51 19.97 19.84 17.50 16.92 16.23 12.26 10.84 9.07 14.47 12.49 14.46 14.59 14.33 13.55 13.69 14.66 13.50 14.85 16.54 15.88 17.60 16.27 15.89 17.10 15.52 15.95 14.37
27.61 25.61 28.01 28.99 29.35 29.70 27.03 27.73 28.01 26.61 25.44 23.53 21.90 20.79 21.20 21.29 21.62 20.46 19.73 19.90 19.38 18.90 18.49 16.27 17.37 15.71 13.53 16.85 18.94 19.24 18.06 17.26 16.68 18.29 13.05 13.43 16.39 18.62 16.83 17.30 19.55 16.59 13.99 16.12
24.85 29.18 29.37 24.93 25.97 28.31 25.94 25.01 26.66 25.51 24.18 23.85 23.42 21.87 22.36 21.71 22.11 21.56 20.75 20.43 18.71 18.60 18.19 17.73 18.62 18.66 19.96 21.08 21.17 19.62 19.31 18.41 16.73 16.97 16.11 16.01 13.08 12.22 20.73 21.22 21.83 22.16 22.08 18.30
27.85 29.72 27.64 25.83 26.91 27.58 25.88 25.26 25.98 25.76 24.84 23.03 24.04 23.57 23.33 22.07 22.11 22.83 20.56 19.46 18.21 18.09 18.32 18.11 18.43 18.07 19.29 20.97 21.07 19.72 17.66 18.11 17.03 17.13 16.21 14.22 12.23 12.48 7.56 11.07 19.67 20.53 20.39 20.80
29.54 29.23 26.91 26.52 23.95 27.38 26.81 26.33 28.24 26.05 26.05 25.18 24.62 24.65 23.69 22.44 23.03 20.29 18.81 18.84 18.15 17.69 17.63 17.68 16.82 15.02 17.18 19.66 18.47 15.88 14.95 11.89 12.41 10.04 7.54 6.83 2.96 5.06 3.66 2.92 0.48 4.59 13.75 17.67
28.91 29.01 28.39 28.09 27.39 27.03 27.73 26.86 24.64 24.05 24.70 24.48 24.96 23.98 23.33 21.17 18.99 17.97 18.11 19.53 18.51 15.96 15.65 15.69 14.44 11.53 16.78 20.70 19.22 16.98 16.74 9.28 6.36 4.29 2.70 3.75 5.49 6.06 5.52 4.62 1.47 1.32 4.61 9.45
28.07 27.94 27.19 27.33 26.69 26.94 27.25 25.42 24.24 24.39 25.23 24.49 23.07 22.35 21.60 20.15 18.31 17.85 17.27 16.16 13.66 12.08 12.69 10.05 12.76 10.08 13.61 16.23 15.98 12.32 6.81 7.12 6.23 6.41 6.96 6.78 6.49 7.02 8.06 6.82 5.92 4.89 6.89 6.36
25.75 26.36 27.37 26.97 27.86 28.46 28.01 27.19 27.09 26.22 24.86 23.26 22.01 20.97 19.99 18.36 16.75 15.60 14.28 14.18 11.96 11.50 11.75 11.47 6.93 1.98 2.97 5.07 12.31 9.29 7.02 9.29 9.77 11.21 10.01 9.36 8.17 8.44 9.13 7.36 7.08 7.42 4.85 1.05
28.21 28.51 28.34 28.50 29.07 29.26 28.47 28.57 28.17 26.00 24.54 22.87 20.43 19.07 17.42 16.81 15.42 13.45 12.48 11.60 10.00 8.19 5.66 4.73 3.49 4.91 4.51 6.58 11.07 13.18 11.94 12.87 13.70 11.70 11.24 7.40 8.77 9.65 5.71 5.18 6.29 5.62 4.77 6.14
28.93 28.42 28.17 28.75 30.19 29.63 28.76 26.88 25.83 25.13 22.27 20.60 18.59 17.26 17.56 16.02 14.80 12.61 10.87 10.00 10.56 10.60 9.72 5.65 14.23 10.64 10.37 11.80 14.08 14.50 11.67 9.64 11.22 10.71 9.91 5.38 3.36 4.96 1.45 0.07 -0.03 -1.52 0.80 4.13
28.34 27.86 28.32 29.01 30.00 28.94 26.16 25.04 23.54 21.92 21.21 20.05 17.18 14.95 13.80 13.21 12.38 10.38 9.76 9.42 10.62 12.43 12.04 12.69 13.50 15.79 14.63 14.41 13.70 13.28 11.60 6.83 10.12 3.17 1.26 0.57 -6.37 -9.82 -7.10 -1.30 -0.86 -3.66 -6.37 -3.32
28.88 26.52 28.50 29.21 26.04 27.10 24.20 23.81 22.38 20.28 19.96 18.86 17.62 15.72 14.00 12.06 11.77 10.65 10.09 11.92 13.03 11.83 15.72 13.24 15.36 14.19 14.58 13.14 12.21 6.97 3.75 -0.49 -0.87 -1.34 -5.65 -10.00 -11.99 -10.00 -12.72 -13.99 -10.36 -11.63 -11.27 -10.54
27.36 27.75 25.69 23.36 22.87 22.57 24.69 24.44 23.28 20.24 19.15 18.66 17.60 15.07 12.35 11.14 10.79 11.89 11.05 15.24 16.71 12.72 15.84 16.44 15.12 11.15 12.97 11.74 10.77 5.51 5.15 3.88 0.71 -1.40 -6.01 -10.36 -13.80 -15.98 -15.98 -15.44 -15.44 -15.80 -17.43 -15.62
23.82 21.24 20.81 21.13 21.21 21.23 22.01 21.43 20.85 20.21 18.62 17.55 15.67 14.83 14.39 13.75 14.21 14.45 13.90 17.83 17.84 14.81 17.12 14.47 9.76 8.86 7.70 6.00 3.55 2.12 2.23 -3.19 -7.64 -10.00 -14.71 -17.61 -18.34 -19.42 -18.16 -18.52 -19.06 -21.42 -21.06 -16.89
17.92 20.32 18.75 19.51 20.81 20.25 18.11 18.80 20.11 19.93 19.21 18.29 17.12 16.59 16.21 14.90 15.80 19.62 18.80 17.91 15.97 15.96 13.07 9.52 10.43 7.60 3.62 3.71 3.19 0.30 -4.10 -11.81 -14.71 -16.71 -14.89 -17.97 -22.51 -22.33 -22.33 -24.32 -22.14 -23.59 -23.41 -19.06
17.22 17.00 19.48 19.42 19.98 19.86 19.55 20.09 19.30 19.03 18.65 18.22 17.67 17.76 18.58 19.06 15.53 17.76 17.70 15.49 15.14 13.53 11.68 9.44 7.02 6.09 5.03 2.28 -0.63 -5.40 -12.00 -16.34 -18.70 -18.52 -19.79 -21.24 -22.87 -23.96 -25.41 -26.13 -26.86 -26.68 -26.50 -22.87
20.85 20.28 20.95 22.49 21.53 20.67 19.98 20.08 18.42 18.74 18.78 17.22 17.26 17.43 17.82 18.80 17.89 17.54 16.31 15.35 13.45 11.82 10.25 8.06 6.50 3.73 0.80 -1.12 -7.38 -11.31 -13.27 -11.83 -16.89 -18.89 -21.24 -22.33 -23.59 -23.05 -25.95 -24.86 -27.76 -27.58 -27.76 -26.13
22.46 21.68 21.95 21.04 20.91 20.54 20.31 19.90 18.68 18.02 18.64 17.92 16.47 16.95 18.88 17.26 15.95 15.31 14.19 13.68 12.84 11.12 9.32 5.70 3.41 1.21 -1.34 -5.04 -6.95 -11.70 -16.35 -18.34 -19.24 -17.61 -24.14 -25.41 -26.13 -28.13 -28.49 -29.03 -30.12 -30.12 -29.58 -29.21

GFSNGP_sfc_wetblb_132.txt.gz
Wetbulb
25.73 27.66 26.60 26.26 25.89 26.48 23.77 26.80 20.64 23.41 23.04 28.36 26.91 27.08 26.00 24.99 23.87 23.31 21.69 21.79 21.62 21.16 21.84 23.31 23.93 24.18 24.82 23.87 22.84 23.25 21.46 20.67 20.29 21.17 22.24 23.22 23.18 24.20 25.14 25.98 27.18 28.86 29.00 29.44
16.56 26.09 25.99 23.09 24.71 24.95 25.58 25.72 24.22 23.40 23.69 29.28 28.30 26.59 24.99 24.99 23.78 22.46 21.61 21.66 21.89 22.11 22.62 22.88 23.36 23.47 24.20 23.68 22.66 23.40 20.66 19.47 20.36 20.09 20.04 20.86 21.37 22.02 22.95 23.87 25.10 24.98 26.42 27.25
19.30 24.81 24.96 18.95 20.58 23.63 22.88 25.37 25.12 21.39 26.17 26.32 25.01 26.22 24.53 23.67 24.22 23.06 22.35 21.41 21.59 21.60 22.29 22.87 22.70 23.78 22.78 22.80 23.32 22.45 20.98 20.15 19.69 19.55 18.47 18.83 20.43 20.65 20.57 21.40 23.10 23.37 23.21 24.74
20.59 22.49 14.05 22.85 28.11 28.70 27.20 28.55 27.65 27.81 26.15 26.46 25.38 22.45 23.28 24.21 24.07 22.89 21.74 21.49 21.63 21.30 22.05 22.05 22.79 22.94 23.61 22.46 21.99 21.63 20.98 20.40 20.02 19.10 17.99 18.04 18.28 18.81 19.45 20.44 20.71 21.45 21.87 22.07
20.10 18.68 22.74 25.08 27.34 27.50 26.28 26.50 29.93 27.99 25.97 25.10 23.46 21.84 22.20 25.51 24.34 21.66 19.83 18.69 17.42 21.18 21.89 21.33 21.99 22.79 22.30 20.80 20.65 20.43 19.72 19.73 20.35 19.47 17.84 17.37 16.79 17.59 18.84 18.72 18.94 19.56 19.97 20.54
21.28 17.67 13.81 22.98 30.62 32.86 30.67 19.43 28.81 28.36 26.35 24.47 23.34 21.77 16.89 23.82 22.37 20.78 18.88 17.47 18.98 19.97 20.36 19.37 19.40 21.25 17.75 17.11 18.23 17.68 19.42 19.25 19.96 20.63 19.22 17.73 17.53 17.52 18.82 19.11 17.75 18.11 18.26 18.62
21.75 20.81 23.25 30.22 32.05 32.45 18.66 21.40 28.73 29.15 26.84 24.43 22.08 20.83 20.44 22.29 20.58 20.02 19.57 18.91 19.37 17.46 17.13 14.97 14.94 19.18 14.36 10.96 12.80 12.66 18.61 19.86 19.04 18.85 19.38 18.23 18.34 18.96 18.98 19.08 18.03 17.24 16.78 17.52
22.95 22.01 18.28 32.49 30.91 25.72 27.60 28.39 28.79 27.24 25.43 20.47 18.90 18.26 19.22 18.71 17.89 19.69 18.63 17.49 15.66 15.75 14.00 10.69 11.87 15.49 12.98 12.79 11.06 11.01 14.12 14.42 14.76 14.82 17.92 16.75 15.99 16.67 17.94 17.33 17.59 15.78 15.75 16.09
26.93 25.13 30.91 32.38 30.65 30.88 30.86 29.90 28.18 26.87 26.18 22.49 18.14 14.93 18.22 18.09 19.26 19.05 17.64 16.56 16.37 15.29 12.89 9.47 12.27 12.37 14.34 11.15 11.86 13.85 14.15 11.87 11.14 12.73 13.08 13.11 10.26 13.54 15.76 15.82 14.85 15.58 14.67 13.54
28.44 30.07 30.47 30.84 30.56 30.77 30.59 30.47 28.81 27.85 25.63 23.52 18.70 17.98 17.98 19.27 19.58 19.29 18.45 17.03 16.94 15.74 13.60 10.44 8.41 14.50 12.12 14.27 13.88 14.84 12.47 11.37 12.28 10.70 12.16 10.86 14.32 15.43 14.53 15.20 13.62 13.22 14.40 12.22
27.31 30.20 30.27 30.52 30.39 30.74 29.33 28.80 27.97 26.20 25.22 23.19 20.29 18.72 18.82 19.27 19.63 19.04 18.67 19.03 19.66 18.93 18.12 16.04 17.74 15.54 13.33 16.13 18.67 17.77 16.99 16.25 15.67 16.10 10.71 10.28 11.34 12.34 15.89 16.87 17.89 13.58 12.74 13.42
26.97 31.81 31.01 28.00 26.59 30.28 27.69 26.49 26.80 25.31 23.95 23.35 21.93 19.52 20.95 20.34 20.67 19.92 19.25 19.82 18.89 18.92 18.38 17.78 18.53 18.90 19.79 21.38 20.31 18.68 18.45 17.60 15.44 15.36 13.68 13.91 10.86 10.90 19.77 21.06 21.45 21.77 21.53 17.47
29.39 30.37 28.36 27.02 26.73 27.74 27.40 26.34 27.03 26.35 25.30 22.27 22.36 21.95 22.40 21.83 21.56 21.74 20.48 19.63 18.96 18.89 18.77 18.35 18.10 18.03 19.40 20.47 20.41 18.79 16.39 16.99 15.97 16.12 14.72 12.88 11.06 10.82 7.08 10.73 18.92 19.86 19.98 20.71
30.15 29.38 26.27 26.46 23.96 27.34 26.92 26.29 28.43 24.96 24.93 25.08 24.03 24.20 23.88 22.93 22.84 21.32 19.51 19.39 19.26 18.85 18.39 18.11 16.88 15.49 17.23 19.25 17.93 14.55 13.82 11.37 11.16 8.85 6.08 5.37 1.31 3.24 1.98 2.15 -0.27 3.40 12.87 17.57
28.81 28.40 28.15 27.38 26.46 25.69 25.91 25.16 23.98 23.32 23.74 23.73 24.49 23.90 23.50 22.02 20.55 19.61 19.65 19.91 19.48 17.56 16.88 16.40 15.62 12.56 17.19 19.82 18.24 15.80 14.91 8.64 5.99 2.34 1.09 2.16 3.05 3.58 3.23 2.66 0.63 2.62 5.32 9.45
27.75 26.55 26.53 26.93 25.66 25.11 24.94 24.26 23.75 22.94 23.79 23.91 24.36 23.57 23.39 22.15 19.07 18.48 18.56 17.50 15.54 14.54 14.81 12.97 13.78 10.90 14.24 17.22 15.95 13.25 7.80 6.00 6.52 7.47 6.08 5.33 3.43 4.66 5.85 4.97 4.48 4.05 6.51 5.52
26.05 26.21 26.35 25.66 25.78 25.23 25.62 25.03 25.02 24.65 25.13 24.63 23.92 23.33 20.96 19.11 17.66 16.54 15.78 15.50 14.30 13.71 13.41 12.83 10.33 5.58 8.59 9.45 13.01 12.03 10.67 9.26 8.85 9.73 8.17 6.48 5.42 4.70 5.61 3.06 3.27 3.68 2.47 0.98
28.60 28.44 28.32 27.84 27.14 28.35 27.23 27.17 26.62 25.95 24.00 23.88 21.46 20.39 18.39 17.60 16.54 15.33 13.72 12.49 11.69 10.59 9.97 8.40 7.85 8.48 8.64 9.39 14.05 14.03 13.07 12.65 12.30 9.48 8.89 4.98 6.48 7.09 2.98 2.61 3.22 2.23 0.76 2.34
28.75 28.30 27.97 28.47 30.17 30.11 28.69 27.24 25.81 25.05 22.16 20.89 19.85 18.58 18.64 18.25 15.88 13.38 12.03 11.41 11.26 10.93 9.18 7.25 16.29 12.98 13.48 13.22 15.10 14.33 12.79 11.46 10.72 9.57 7.93 2.48 0.85 3.09 -1.44 -3.05 -3.92 -5.91 -3.43 -0.90
27.53 27.71 27.72 27.41 29.42 28.90 25.08 24.48 23.69 22.03 21.68 20.94 19.52 17.33 15.75 15.28 13.96 12.24 12.12 11.22 13.02 14.76 13.88 13.55 15.52 15.61 15.52 16.70 14.70 13.48 11.67 8.59 9.32 4.27 -0.37 -1.25 -8.05 -12.58 -7.68 -3.88 -4.67 -9.86 -13.49 -9.34
29.07 26.92 24.39 28.81 27.78 24.99 23.51 23.06 22.23 20.19 20.45 19.49 18.53 16.98 15.47 13.97 13.63 12.31 11.23 11.47 11.99 12.48 15.87 14.10 16.13 14.99 15.29 12.87 12.50 8.82 7.16 3.83 1.30 -2.17 -5.87 -8.95 -12.40 -10.95 -15.12 -18.38 -16.39 -18.56 -18.92 -18.02
18.94 23.19 28.35 26.04 25.10 20.53 22.36 23.34 21.94 20.18 19.46 19.35 18.10 15.32 13.46 12.43 12.38 13.04 13.00 14.64 15.38 13.69 15.52 16.04 15.14 13.19 13.51 12.82 11.15 7.19 6.39 4.58 0.98 -1.45 -7.50 -12.76 -15.30 -17.66 -19.83 -20.74 -20.56 -21.10 -22.91 -23.46
27.39 26.53 24.78 23.15 19.84 17.98 21.85 21.04 20.43 20.13 19.67 18.58 16.78 15.33 14.48 14.14 14.35 13.05 13.03 17.43 17.04 15.51 16.61 14.62 11.36 10.25 9.53 8.80 5.94 2.76 1.79 -1.00 -7.16 -10.41 -13.49 -17.47 -20.19 -22.37 -20.74 -21.10 -22.37 -24.91 -26.36 -22.01
23.03 22.36 17.45 18.45 19.59 19.34 18.16 17.11 20.09 20.48 19.68 18.99 17.72 17.28 15.98 14.15 15.25 19.31 18.92 16.44 15.54 16.61 13.97 10.38 10.23 8.68 6.27 4.37 1.16 -0.14 -1.01 -8.80 -11.67 -15.48 -16.39 -20.92 -25.27 -25.81 -25.09 -26.90 -24.00 -26.54 -27.26 -25.45
16.49 14.83 15.30 16.31 18.23 18.16 19.40 19.92 19.52 19.33 19.26 18.83 18.53 18.12 18.08 18.48 15.68 17.63 18.04 16.50 16.11 13.38 11.59 9.43 7.59 5.26 3.79 1.52 1.42 -0.91 -6.66 -10.95 -16.75 -20.19 -22.01 -23.28 -24.73 -25.81 -27.26 -27.81 -28.35 -29.26 -29.62 -28.53
19.89 18.40 19.24 21.40 20.47 20.07 19.83 20.14 18.55 18.96 18.68 16.57 17.15 17.69 17.40 17.57 18.38 17.05 15.56 14.76 13.64 11.77 9.32 6.82 5.13 3.88 3.04 1.18 -2.72 -7.60 -10.98 -10.27 -16.93 -21.10 -22.73 -23.64 -25.27 -24.00 -26.36 -26.36 -29.44 -29.26 -30.53 -30.71
20.70 19.59 20.50 20.13 21.04 20.62 20.45 20.14 18.67 17.92 18.46 17.47 16.12 17.36 16.55 16.04 15.97 15.38 13.36 12.69 11.97 10.03 7.31 5.17 4.56 3.25 0.14 -3.96 -6.60 -9.20 -11.54 -15.31 -18.20 -18.39 -25.81 -26.00 -27.08 -28.17 -29.44 -30.53 -31.62 -32.16 -31.80 -31.98